<?xml version="1.0" encoding="UTF-8" standalone="no" ?>
<gpx xmlns="http://www.topografix.com/GPX/1/1" xmlns:xsi="http://www.w3.org/2001/XMLSchema-instance" xsi:schemaLocation="http://www.topografix.com/GPX/1/1 http://www.topografix.com/GPX/1/1/gpx.xsd" version="1.1" creator="VisuGPX - https://www.visugpx.com">
  <metadata>
    <name>jeudi 10 décembre 2020 (La Tuilière, Jacky &amp;amp; moi)</name>
    <desc><![CDATA[Jacky n'étant pas disponible à 10h, nous sommes partis à 10h45 mais la température était encore bien basse et les flaques d'eau toujours gelées. Heureusement nous étions chaudement habillés (surtout moi !) et il y avait ciel bleu et grand soleil ...
Le parcours nous a mené à l'étang de la Tuilière aux alentours boueux. Les quelques côtes étant moins sévères que celles de Coulevon, les 22 km ne nous ont pas trop fatigués.]]></desc>
  </metadata>
  <wpt lat="47.6444" lon="6.18302">
    <ele>229.4</ele>
    <name><![CDATA[0000134]]></name>
    <type><![CDATA[Point de départ]]></type>
  </wpt>
  <wpt lat="47.64438" lon="6.18325">
    <ele>231.2</ele>
    <name><![CDATA[0000135]]></name>
    <type><![CDATA[Point d'arrivée]]></type>
  </wpt>
  <trk>
    <name><![CDATA[2020-12-10 10:45]]></name>
    <desc><![CDATA[<p>Heure de départ: 12/10/2020 10:45<br/>Heure d'arrivée: 12/10/2020 12:24<br/>Distance: 22,3 km (01:38)<br/>Temps déplacement: 01:36<br/>Vitesse moyenne: 13,59 km/h<br/>Vitesse moyenne mouv.: 13,94 km/h<br/>Vitesse Max.: 36,18 km/h<br/>Altitude minimale: 223 m<br/>Altitude maximale: 272 m<br/>Vitesse de montée: 185 m/h<br/>Vitesse de descente: -177,3 m/h<br/>Gain d'altitude: 129 m<br/>Perte d'altitude: -123 m<br/>Temps de montée: 00:42<br/>Temps de descente: 00:41<br/></p><hr align="center" width="480" style="height: 2px; width: 517px"/>]]></desc>
    <trkseg>
      <trkpt lat="47.6444" lon="6.18302">
        <ele>229.4</ele>
        <time>2020-12-10T09:45:50Z</time>
      </trkpt>
      <trkpt lat="47.64441" lon="6.18293">
        <ele>228.7</ele>
        <time>2020-12-10T09:46:25Z</time>
      </trkpt>
      <trkpt lat="47.64445" lon="6.18287">
        <ele>228.8</ele>
        <time>2020-12-10T09:46:28Z</time>
      </trkpt>
      <trkpt lat="47.64448" lon="6.18282">
        <ele>228.7</ele>
        <time>2020-12-10T09:46:31Z</time>
      </trkpt>
      <trkpt lat="47.64452" lon="6.18277">
        <ele>228.7</ele>
        <time>2020-12-10T09:46:34Z</time>
      </trkpt>
      <trkpt lat="47.64456" lon="6.18272">
        <ele>228.6</ele>
        <time>2020-12-10T09:46:37Z</time>
      </trkpt>
      <trkpt lat="47.64459" lon="6.18265">
        <ele>228.3</ele>
        <time>2020-12-10T09:46:40Z</time>
      </trkpt>
      <trkpt lat="47.64464" lon="6.18259">
        <ele>228.2</ele>
        <time>2020-12-10T09:46:43Z</time>
      </trkpt>
      <trkpt lat="47.64468" lon="6.18253">
        <ele>227.9</ele>
        <time>2020-12-10T09:46:45Z</time>
      </trkpt>
      <trkpt lat="47.64473" lon="6.18246">
        <ele>227.8</ele>
        <time>2020-12-10T09:46:47Z</time>
      </trkpt>
      <trkpt lat="47.64478" lon="6.18235">
        <ele>227.9</ele>
        <time>2020-12-10T09:46:49Z</time>
      </trkpt>
      <trkpt lat="47.64482" lon="6.18227">
        <ele>227.8</ele>
        <time>2020-12-10T09:46:52Z</time>
      </trkpt>
      <trkpt lat="47.64486" lon="6.18219">
        <ele>227.7</ele>
        <time>2020-12-10T09:46:53Z</time>
      </trkpt>
      <trkpt lat="47.64489" lon="6.18212">
        <ele>227.5</ele>
        <time>2020-12-10T09:46:56Z</time>
      </trkpt>
      <trkpt lat="47.64492" lon="6.18202">
        <ele>227.1</ele>
        <time>2020-12-10T09:46:59Z</time>
      </trkpt>
      <trkpt lat="47.64494" lon="6.18196">
        <ele>226.8</ele>
        <time>2020-12-10T09:47:00Z</time>
      </trkpt>
      <trkpt lat="47.64495" lon="6.18189">
        <ele>226.4</ele>
        <time>2020-12-10T09:47:02Z</time>
      </trkpt>
      <trkpt lat="47.64497" lon="6.1818">
        <ele>225.8</ele>
        <time>2020-12-10T09:47:03Z</time>
      </trkpt>
      <trkpt lat="47.64498" lon="6.18173">
        <ele>225.4</ele>
        <time>2020-12-10T09:47:05Z</time>
      </trkpt>
      <trkpt lat="47.64494" lon="6.18158">
        <ele>224.7</ele>
        <time>2020-12-10T09:47:07Z</time>
      </trkpt>
      <trkpt lat="47.64491" lon="6.18149">
        <ele>224.4</ele>
        <time>2020-12-10T09:47:08Z</time>
      </trkpt>
      <trkpt lat="47.6449" lon="6.18141">
        <ele>224.2</ele>
        <time>2020-12-10T09:47:10Z</time>
      </trkpt>
      <trkpt lat="47.6449" lon="6.1813">
        <ele>224</ele>
        <time>2020-12-10T09:47:12Z</time>
      </trkpt>
      <trkpt lat="47.64491" lon="6.18121">
        <ele>223.8</ele>
        <time>2020-12-10T09:47:14Z</time>
      </trkpt>
      <trkpt lat="47.64492" lon="6.18114">
        <ele>223.7</ele>
        <time>2020-12-10T09:47:15Z</time>
      </trkpt>
      <trkpt lat="47.64494" lon="6.18105">
        <ele>223.5</ele>
        <time>2020-12-10T09:47:17Z</time>
      </trkpt>
      <trkpt lat="47.64495" lon="6.18096">
        <ele>223.3</ele>
        <time>2020-12-10T09:47:19Z</time>
      </trkpt>
      <trkpt lat="47.64498" lon="6.18087">
        <ele>223.1</ele>
        <time>2020-12-10T09:47:22Z</time>
      </trkpt>
      <trkpt lat="47.645" lon="6.18081">
        <ele>223</ele>
        <time>2020-12-10T09:47:24Z</time>
      </trkpt>
      <trkpt lat="47.64502" lon="6.18075">
        <ele>223.4</ele>
        <time>2020-12-10T09:47:25Z</time>
      </trkpt>
      <trkpt lat="47.64505" lon="6.18065">
        <ele>223.8</ele>
        <time>2020-12-10T09:47:28Z</time>
      </trkpt>
      <trkpt lat="47.64507" lon="6.18056">
        <ele>224.3</ele>
        <time>2020-12-10T09:47:30Z</time>
      </trkpt>
      <trkpt lat="47.6451" lon="6.18049">
        <ele>224.7</ele>
        <time>2020-12-10T09:47:33Z</time>
      </trkpt>
      <trkpt lat="47.64515" lon="6.18044">
        <ele>225.4</ele>
        <time>2020-12-10T09:47:35Z</time>
      </trkpt>
      <trkpt lat="47.6452" lon="6.18038">
        <ele>226.2</ele>
        <time>2020-12-10T09:47:38Z</time>
      </trkpt>
      <trkpt lat="47.64525" lon="6.18034">
        <ele>226.9</ele>
        <time>2020-12-10T09:47:40Z</time>
      </trkpt>
      <trkpt lat="47.64529" lon="6.18032">
        <ele>227.4</ele>
        <time>2020-12-10T09:47:41Z</time>
      </trkpt>
      <trkpt lat="47.64534" lon="6.18029">
        <ele>228.1</ele>
        <time>2020-12-10T09:47:43Z</time>
      </trkpt>
      <trkpt lat="47.64536" lon="6.18022">
        <ele>228.1</ele>
        <time>2020-12-10T09:47:46Z</time>
      </trkpt>
      <trkpt lat="47.64539" lon="6.18015">
        <ele>228.3</ele>
        <time>2020-12-10T09:47:48Z</time>
      </trkpt>
      <trkpt lat="47.64542" lon="6.18007">
        <ele>228.3</ele>
        <time>2020-12-10T09:47:51Z</time>
      </trkpt>
      <trkpt lat="47.64545" lon="6.17999">
        <ele>228.3</ele>
        <time>2020-12-10T09:47:54Z</time>
      </trkpt>
      <trkpt lat="47.64548" lon="6.1799">
        <ele>228.1</ele>
        <time>2020-12-10T09:47:56Z</time>
      </trkpt>
      <trkpt lat="47.6455" lon="6.17984">
        <ele>227.8</ele>
        <time>2020-12-10T09:47:57Z</time>
      </trkpt>
      <trkpt lat="47.64551" lon="6.17977">
        <ele>227.5</ele>
        <time>2020-12-10T09:47:58Z</time>
      </trkpt>
      <trkpt lat="47.64553" lon="6.17966">
        <ele>226.9</ele>
        <time>2020-12-10T09:48:00Z</time>
      </trkpt>
      <trkpt lat="47.64555" lon="6.17956">
        <ele>226.3</ele>
        <time>2020-12-10T09:48:01Z</time>
      </trkpt>
      <trkpt lat="47.64556" lon="6.17949">
        <ele>225.8</ele>
        <time>2020-12-10T09:48:02Z</time>
      </trkpt>
      <trkpt lat="47.64558" lon="6.17942">
        <ele>225.4</ele>
        <time>2020-12-10T09:48:03Z</time>
      </trkpt>
      <trkpt lat="47.6456" lon="6.17935">
        <ele>225</ele>
        <time>2020-12-10T09:48:04Z</time>
      </trkpt>
      <trkpt lat="47.64563" lon="6.17929">
        <ele>224.6</ele>
        <time>2020-12-10T09:48:05Z</time>
      </trkpt>
      <trkpt lat="47.64567" lon="6.17924">
        <ele>224.2</ele>
        <time>2020-12-10T09:48:06Z</time>
      </trkpt>
      <trkpt lat="47.64572" lon="6.17918">
        <ele>223.9</ele>
        <time>2020-12-10T09:48:07Z</time>
      </trkpt>
      <trkpt lat="47.64576" lon="6.17913">
        <ele>223.9</ele>
        <time>2020-12-10T09:48:08Z</time>
      </trkpt>
      <trkpt lat="47.64581" lon="6.17908">
        <ele>224</ele>
        <time>2020-12-10T09:48:09Z</time>
      </trkpt>
      <trkpt lat="47.64586" lon="6.17903">
        <ele>224.1</ele>
        <time>2020-12-10T09:48:10Z</time>
      </trkpt>
      <trkpt lat="47.64591" lon="6.17897">
        <ele>224</ele>
        <time>2020-12-10T09:48:11Z</time>
      </trkpt>
      <trkpt lat="47.64596" lon="6.17893">
        <ele>223.9</ele>
        <time>2020-12-10T09:48:12Z</time>
      </trkpt>
      <trkpt lat="47.64602" lon="6.1789">
        <ele>223.7</ele>
        <time>2020-12-10T09:48:13Z</time>
      </trkpt>
      <trkpt lat="47.64607" lon="6.17887">
        <ele>223.6</ele>
        <time>2020-12-10T09:48:14Z</time>
      </trkpt>
      <trkpt lat="47.64613" lon="6.17886">
        <ele>223.4</ele>
        <time>2020-12-10T09:48:15Z</time>
      </trkpt>
      <trkpt lat="47.64618" lon="6.17886">
        <ele>223.2</ele>
        <time>2020-12-10T09:48:16Z</time>
      </trkpt>
      <trkpt lat="47.64624" lon="6.17886">
        <ele>223</ele>
        <time>2020-12-10T09:48:17Z</time>
      </trkpt>
      <trkpt lat="47.64629" lon="6.17888">
        <ele>222.9</ele>
        <time>2020-12-10T09:48:18Z</time>
      </trkpt>
      <trkpt lat="47.64634" lon="6.1789">
        <ele>222.7</ele>
        <time>2020-12-10T09:48:19Z</time>
      </trkpt>
      <trkpt lat="47.64639" lon="6.17893">
        <ele>222.6</ele>
        <time>2020-12-10T09:48:20Z</time>
      </trkpt>
      <trkpt lat="47.64644" lon="6.17895">
        <ele>222.4</ele>
        <time>2020-12-10T09:48:21Z</time>
      </trkpt>
      <trkpt lat="47.64649" lon="6.17898">
        <ele>222.3</ele>
        <time>2020-12-10T09:48:22Z</time>
      </trkpt>
      <trkpt lat="47.64654" lon="6.17901">
        <ele>222.2</ele>
        <time>2020-12-10T09:48:23Z</time>
      </trkpt>
      <trkpt lat="47.64658" lon="6.17904">
        <ele>222.1</ele>
        <time>2020-12-10T09:48:24Z</time>
      </trkpt>
      <trkpt lat="47.64662" lon="6.17907">
        <ele>222</ele>
        <time>2020-12-10T09:48:25Z</time>
      </trkpt>
      <trkpt lat="47.64666" lon="6.1791">
        <ele>221.9</ele>
        <time>2020-12-10T09:48:26Z</time>
      </trkpt>
      <trkpt lat="47.64671" lon="6.17913">
        <ele>221.8</ele>
        <time>2020-12-10T09:48:27Z</time>
      </trkpt>
      <trkpt lat="47.64675" lon="6.17917">
        <ele>221.7</ele>
        <time>2020-12-10T09:48:28Z</time>
      </trkpt>
      <trkpt lat="47.64679" lon="6.17921">
        <ele>222.1</ele>
        <time>2020-12-10T09:48:29Z</time>
      </trkpt>
      <trkpt lat="47.64683" lon="6.17925">
        <ele>222.6</ele>
        <time>2020-12-10T09:48:30Z</time>
      </trkpt>
      <trkpt lat="47.64686" lon="6.1793">
        <ele>223</ele>
        <time>2020-12-10T09:48:31Z</time>
      </trkpt>
      <trkpt lat="47.6469" lon="6.17935">
        <ele>223.4</ele>
        <time>2020-12-10T09:48:32Z</time>
      </trkpt>
      <trkpt lat="47.64694" lon="6.1794">
        <ele>223.7</ele>
        <time>2020-12-10T09:48:33Z</time>
      </trkpt>
      <trkpt lat="47.64697" lon="6.17945">
        <ele>224</ele>
        <time>2020-12-10T09:48:34Z</time>
      </trkpt>
      <trkpt lat="47.647" lon="6.1795">
        <ele>224.2</ele>
        <time>2020-12-10T09:48:35Z</time>
      </trkpt>
      <trkpt lat="47.64703" lon="6.17955">
        <ele>224.4</ele>
        <time>2020-12-10T09:48:36Z</time>
      </trkpt>
      <trkpt lat="47.64707" lon="6.1796">
        <ele>224.6</ele>
        <time>2020-12-10T09:48:37Z</time>
      </trkpt>
      <trkpt lat="47.6471" lon="6.17966">
        <ele>224.7</ele>
        <time>2020-12-10T09:48:38Z</time>
      </trkpt>
      <trkpt lat="47.64713" lon="6.17971">
        <ele>224.8</ele>
        <time>2020-12-10T09:48:39Z</time>
      </trkpt>
      <trkpt lat="47.64716" lon="6.17976">
        <ele>224.8</ele>
        <time>2020-12-10T09:48:40Z</time>
      </trkpt>
      <trkpt lat="47.6472" lon="6.17981">
        <ele>224.7</ele>
        <time>2020-12-10T09:48:41Z</time>
      </trkpt>
      <trkpt lat="47.64723" lon="6.17986">
        <ele>224.6</ele>
        <time>2020-12-10T09:48:42Z</time>
      </trkpt>
      <trkpt lat="47.64726" lon="6.17991">
        <ele>224.4</ele>
        <time>2020-12-10T09:48:43Z</time>
      </trkpt>
      <trkpt lat="47.6473" lon="6.17996">
        <ele>224.2</ele>
        <time>2020-12-10T09:48:44Z</time>
      </trkpt>
      <trkpt lat="47.64733" lon="6.18001">
        <ele>224.1</ele>
        <time>2020-12-10T09:48:45Z</time>
      </trkpt>
      <trkpt lat="47.64739" lon="6.18011">
        <ele>224.7</ele>
        <time>2020-12-10T09:48:47Z</time>
      </trkpt>
      <trkpt lat="47.64743" lon="6.18016">
        <ele>225.1</ele>
        <time>2020-12-10T09:48:48Z</time>
      </trkpt>
      <trkpt lat="47.64746" lon="6.18022">
        <ele>225.6</ele>
        <time>2020-12-10T09:48:49Z</time>
      </trkpt>
      <trkpt lat="47.64752" lon="6.18031">
        <ele>226.6</ele>
        <time>2020-12-10T09:48:51Z</time>
      </trkpt>
      <trkpt lat="47.64755" lon="6.18036">
        <ele>227.3</ele>
        <time>2020-12-10T09:48:52Z</time>
      </trkpt>
      <trkpt lat="47.64759" lon="6.18041">
        <ele>227.9</ele>
        <time>2020-12-10T09:48:53Z</time>
      </trkpt>
      <trkpt lat="47.64762" lon="6.18046">
        <ele>228.5</ele>
        <time>2020-12-10T09:48:54Z</time>
      </trkpt>
      <trkpt lat="47.64766" lon="6.1805">
        <ele>228.9</ele>
        <time>2020-12-10T09:48:55Z</time>
      </trkpt>
      <trkpt lat="47.6477" lon="6.18054">
        <ele>229.3</ele>
        <time>2020-12-10T09:48:56Z</time>
      </trkpt>
      <trkpt lat="47.64774" lon="6.18058">
        <ele>229.5</ele>
        <time>2020-12-10T09:48:57Z</time>
      </trkpt>
      <trkpt lat="47.64778" lon="6.18062">
        <ele>229.5</ele>
        <time>2020-12-10T09:48:58Z</time>
      </trkpt>
      <trkpt lat="47.64782" lon="6.18064">
        <ele>229.4</ele>
        <time>2020-12-10T09:48:59Z</time>
      </trkpt>
      <trkpt lat="47.64787" lon="6.18066">
        <ele>229.3</ele>
        <time>2020-12-10T09:49:00Z</time>
      </trkpt>
      <trkpt lat="47.64795" lon="6.18069">
        <ele>228.7</ele>
        <time>2020-12-10T09:49:02Z</time>
      </trkpt>
      <trkpt lat="47.64804" lon="6.18072">
        <ele>228</ele>
        <time>2020-12-10T09:49:04Z</time>
      </trkpt>
      <trkpt lat="47.6481" lon="6.18073">
        <ele>227.4</ele>
        <time>2020-12-10T09:49:06Z</time>
      </trkpt>
      <trkpt lat="47.64818" lon="6.18074">
        <ele>226.6</ele>
        <time>2020-12-10T09:49:08Z</time>
      </trkpt>
      <trkpt lat="47.64825" lon="6.18075">
        <ele>225.8</ele>
        <time>2020-12-10T09:49:10Z</time>
      </trkpt>
      <trkpt lat="47.64832" lon="6.18077">
        <ele>225</ele>
        <time>2020-12-10T09:49:12Z</time>
      </trkpt>
      <trkpt lat="47.64835" lon="6.18083">
        <ele>225</ele>
        <time>2020-12-10T09:49:14Z</time>
      </trkpt>
      <trkpt lat="47.6484" lon="6.18083">
        <ele>225.1</ele>
        <time>2020-12-10T09:49:16Z</time>
      </trkpt>
      <trkpt lat="47.64851" lon="6.18083">
        <ele>225.4</ele>
        <time>2020-12-10T09:49:18Z</time>
      </trkpt>
      <trkpt lat="47.64857" lon="6.18083">
        <ele>225.6</ele>
        <time>2020-12-10T09:49:19Z</time>
      </trkpt>
      <trkpt lat="47.64863" lon="6.18084">
        <ele>225.8</ele>
        <time>2020-12-10T09:49:21Z</time>
      </trkpt>
      <trkpt lat="47.64869" lon="6.18085">
        <ele>226.1</ele>
        <time>2020-12-10T09:49:23Z</time>
      </trkpt>
      <trkpt lat="47.64879" lon="6.18087">
        <ele>226.5</ele>
        <time>2020-12-10T09:49:26Z</time>
      </trkpt>
      <trkpt lat="47.64884" lon="6.18088">
        <ele>226.8</ele>
        <time>2020-12-10T09:49:27Z</time>
      </trkpt>
      <trkpt lat="47.6489" lon="6.1809">
        <ele>227.1</ele>
        <time>2020-12-10T09:49:28Z</time>
      </trkpt>
      <trkpt lat="47.64895" lon="6.18091">
        <ele>227.3</ele>
        <time>2020-12-10T09:49:29Z</time>
      </trkpt>
      <trkpt lat="47.649" lon="6.18092">
        <ele>227.5</ele>
        <time>2020-12-10T09:49:30Z</time>
      </trkpt>
      <trkpt lat="47.64905" lon="6.18093">
        <ele>227.8</ele>
        <time>2020-12-10T09:49:31Z</time>
      </trkpt>
      <trkpt lat="47.6491" lon="6.18094">
        <ele>228</ele>
        <time>2020-12-10T09:49:32Z</time>
      </trkpt>
      <trkpt lat="47.64917" lon="6.18096">
        <ele>228.3</ele>
        <time>2020-12-10T09:49:34Z</time>
      </trkpt>
      <trkpt lat="47.64922" lon="6.18096">
        <ele>228.6</ele>
        <time>2020-12-10T09:49:35Z</time>
      </trkpt>
      <trkpt lat="47.64928" lon="6.18097">
        <ele>229</ele>
        <time>2020-12-10T09:49:37Z</time>
      </trkpt>
      <trkpt lat="47.64936" lon="6.18098">
        <ele>229.4</ele>
        <time>2020-12-10T09:49:38Z</time>
      </trkpt>
      <trkpt lat="47.64941" lon="6.18099">
        <ele>229.7</ele>
        <time>2020-12-10T09:49:40Z</time>
      </trkpt>
      <trkpt lat="47.64948" lon="6.18099">
        <ele>230</ele>
        <time>2020-12-10T09:49:41Z</time>
      </trkpt>
      <trkpt lat="47.64956" lon="6.18099">
        <ele>230.4</ele>
        <time>2020-12-10T09:49:43Z</time>
      </trkpt>
      <trkpt lat="47.64966" lon="6.18098">
        <ele>230.6</ele>
        <time>2020-12-10T09:49:46Z</time>
      </trkpt>
      <trkpt lat="47.64974" lon="6.18097">
        <ele>230.9</ele>
        <time>2020-12-10T09:49:47Z</time>
      </trkpt>
      <trkpt lat="47.64981" lon="6.18096">
        <ele>231.1</ele>
        <time>2020-12-10T09:49:49Z</time>
      </trkpt>
      <trkpt lat="47.64987" lon="6.18096">
        <ele>231.2</ele>
        <time>2020-12-10T09:49:50Z</time>
      </trkpt>
      <trkpt lat="47.64995" lon="6.18094">
        <ele>231.4</ele>
        <time>2020-12-10T09:49:52Z</time>
      </trkpt>
      <trkpt lat="47.65008" lon="6.18094">
        <ele>231.7</ele>
        <time>2020-12-10T09:49:55Z</time>
      </trkpt>
      <trkpt lat="47.65015" lon="6.18093">
        <ele>231.7</ele>
        <time>2020-12-10T09:49:56Z</time>
      </trkpt>
      <trkpt lat="47.65022" lon="6.18094">
        <ele>231.9</ele>
        <time>2020-12-10T09:49:57Z</time>
      </trkpt>
      <trkpt lat="47.65026" lon="6.18094">
        <ele>232</ele>
        <time>2020-12-10T09:49:59Z</time>
      </trkpt>
      <trkpt lat="47.65033" lon="6.18094">
        <ele>232.2</ele>
        <time>2020-12-10T09:50:00Z</time>
      </trkpt>
      <trkpt lat="47.65038" lon="6.18095">
        <ele>232.4</ele>
        <time>2020-12-10T09:50:01Z</time>
      </trkpt>
      <trkpt lat="47.65044" lon="6.18096">
        <ele>232.7</ele>
        <time>2020-12-10T09:50:03Z</time>
      </trkpt>
      <trkpt lat="47.6505" lon="6.18097">
        <ele>232.9</ele>
        <time>2020-12-10T09:50:05Z</time>
      </trkpt>
      <trkpt lat="47.65055" lon="6.18098">
        <ele>233.2</ele>
        <time>2020-12-10T09:50:07Z</time>
      </trkpt>
      <trkpt lat="47.65062" lon="6.18099">
        <ele>233.6</ele>
        <time>2020-12-10T09:50:08Z</time>
      </trkpt>
      <trkpt lat="47.6507" lon="6.18101">
        <ele>234.1</ele>
        <time>2020-12-10T09:50:10Z</time>
      </trkpt>
      <trkpt lat="47.65076" lon="6.18102">
        <ele>234.4</ele>
        <time>2020-12-10T09:50:12Z</time>
      </trkpt>
      <trkpt lat="47.6508" lon="6.18103">
        <ele>234.8</ele>
        <time>2020-12-10T09:50:14Z</time>
      </trkpt>
      <trkpt lat="47.65086" lon="6.18104">
        <ele>235</ele>
        <time>2020-12-10T09:50:15Z</time>
      </trkpt>
      <trkpt lat="47.65091" lon="6.18104">
        <ele>235.2</ele>
        <time>2020-12-10T09:50:16Z</time>
      </trkpt>
      <trkpt lat="47.65098" lon="6.18104">
        <ele>235.5</ele>
        <time>2020-12-10T09:50:18Z</time>
      </trkpt>
      <trkpt lat="47.65103" lon="6.18104">
        <ele>235.5</ele>
        <time>2020-12-10T09:50:20Z</time>
      </trkpt>
      <trkpt lat="47.6511" lon="6.18101">
        <ele>235.3</ele>
        <time>2020-12-10T09:50:21Z</time>
      </trkpt>
      <trkpt lat="47.65115" lon="6.18099">
        <ele>235</ele>
        <time>2020-12-10T09:50:23Z</time>
      </trkpt>
      <trkpt lat="47.65121" lon="6.18096">
        <ele>234.7</ele>
        <time>2020-12-10T09:50:25Z</time>
      </trkpt>
      <trkpt lat="47.65126" lon="6.18094">
        <ele>234.5</ele>
        <time>2020-12-10T09:50:26Z</time>
      </trkpt>
      <trkpt lat="47.65132" lon="6.18091">
        <ele>234.1</ele>
        <time>2020-12-10T09:50:28Z</time>
      </trkpt>
      <trkpt lat="47.65137" lon="6.18087">
        <ele>233.6</ele>
        <time>2020-12-10T09:50:30Z</time>
      </trkpt>
      <trkpt lat="47.65144" lon="6.18081">
        <ele>233</ele>
        <time>2020-12-10T09:50:32Z</time>
      </trkpt>
      <trkpt lat="47.65148" lon="6.18076">
        <ele>232.7</ele>
        <time>2020-12-10T09:50:33Z</time>
      </trkpt>
      <trkpt lat="47.65152" lon="6.18072">
        <ele>232.4</ele>
        <time>2020-12-10T09:50:35Z</time>
      </trkpt>
      <trkpt lat="47.65158" lon="6.18064">
        <ele>231.6</ele>
        <time>2020-12-10T09:50:37Z</time>
      </trkpt>
      <trkpt lat="47.65164" lon="6.18056">
        <ele>230.7</ele>
        <time>2020-12-10T09:50:38Z</time>
      </trkpt>
      <trkpt lat="47.65168" lon="6.18049">
        <ele>230</ele>
        <time>2020-12-10T09:50:40Z</time>
      </trkpt>
      <trkpt lat="47.65172" lon="6.18043">
        <ele>229.6</ele>
        <time>2020-12-10T09:50:42Z</time>
      </trkpt>
      <trkpt lat="47.65175" lon="6.18036">
        <ele>229</ele>
        <time>2020-12-10T09:50:43Z</time>
      </trkpt>
      <trkpt lat="47.6518" lon="6.18029">
        <ele>228.5</ele>
        <time>2020-12-10T09:50:45Z</time>
      </trkpt>
      <trkpt lat="47.65183" lon="6.18024">
        <ele>228.1</ele>
        <time>2020-12-10T09:50:47Z</time>
      </trkpt>
      <trkpt lat="47.65188" lon="6.18018">
        <ele>227.5</ele>
        <time>2020-12-10T09:50:49Z</time>
      </trkpt>
      <trkpt lat="47.65192" lon="6.1801">
        <ele>226.9</ele>
        <time>2020-12-10T09:50:51Z</time>
      </trkpt>
      <trkpt lat="47.65197" lon="6.18004">
        <ele>226.4</ele>
        <time>2020-12-10T09:50:52Z</time>
      </trkpt>
      <trkpt lat="47.65201" lon="6.18">
        <ele>226.1</ele>
        <time>2020-12-10T09:50:54Z</time>
      </trkpt>
      <trkpt lat="47.65207" lon="6.17994">
        <ele>226.4</ele>
        <time>2020-12-10T09:50:56Z</time>
      </trkpt>
      <trkpt lat="47.65212" lon="6.17991">
        <ele>226.6</ele>
        <time>2020-12-10T09:50:58Z</time>
      </trkpt>
      <trkpt lat="47.65218" lon="6.17985">
        <ele>226.8</ele>
        <time>2020-12-10T09:51:01Z</time>
      </trkpt>
      <trkpt lat="47.65222" lon="6.17981">
        <ele>226.9</ele>
        <time>2020-12-10T09:51:02Z</time>
      </trkpt>
      <trkpt lat="47.65228" lon="6.17978">
        <ele>227.1</ele>
        <time>2020-12-10T09:51:04Z</time>
      </trkpt>
      <trkpt lat="47.65234" lon="6.17976">
        <ele>227.2</ele>
        <time>2020-12-10T09:51:06Z</time>
      </trkpt>
      <trkpt lat="47.65242" lon="6.17975">
        <ele>227.5</ele>
        <time>2020-12-10T09:51:09Z</time>
      </trkpt>
      <trkpt lat="47.65248" lon="6.17976">
        <ele>227.8</ele>
        <time>2020-12-10T09:51:10Z</time>
      </trkpt>
      <trkpt lat="47.65254" lon="6.17979">
        <ele>227.8</ele>
        <time>2020-12-10T09:51:12Z</time>
      </trkpt>
      <trkpt lat="47.65261" lon="6.17984">
        <ele>227.7</ele>
        <time>2020-12-10T09:51:15Z</time>
      </trkpt>
      <trkpt lat="47.65266" lon="6.17988">
        <ele>227.6</ele>
        <time>2020-12-10T09:51:16Z</time>
      </trkpt>
      <trkpt lat="47.65271" lon="6.17996">
        <ele>227.6</ele>
        <time>2020-12-10T09:51:18Z</time>
      </trkpt>
      <trkpt lat="47.65276" lon="6.18002">
        <ele>227.7</ele>
        <time>2020-12-10T09:51:19Z</time>
      </trkpt>
      <trkpt lat="47.6528" lon="6.1801">
        <ele>228.3</ele>
        <time>2020-12-10T09:51:21Z</time>
      </trkpt>
      <trkpt lat="47.65283" lon="6.18016">
        <ele>228.6</ele>
        <time>2020-12-10T09:51:22Z</time>
      </trkpt>
      <trkpt lat="47.65287" lon="6.18025">
        <ele>229.1</ele>
        <time>2020-12-10T09:51:24Z</time>
      </trkpt>
      <trkpt lat="47.6529" lon="6.18032">
        <ele>229.6</ele>
        <time>2020-12-10T09:51:25Z</time>
      </trkpt>
      <trkpt lat="47.65292" lon="6.18039">
        <ele>230</ele>
        <time>2020-12-10T09:51:26Z</time>
      </trkpt>
      <trkpt lat="47.65293" lon="6.18046">
        <ele>230.4</ele>
        <time>2020-12-10T09:51:27Z</time>
      </trkpt>
      <trkpt lat="47.65295" lon="6.18053">
        <ele>230.8</ele>
        <time>2020-12-10T09:51:29Z</time>
      </trkpt>
      <trkpt lat="47.65296" lon="6.18062">
        <ele>231.4</ele>
        <time>2020-12-10T09:51:30Z</time>
      </trkpt>
      <trkpt lat="47.65298" lon="6.18076">
        <ele>232.2</ele>
        <time>2020-12-10T09:51:33Z</time>
      </trkpt>
      <trkpt lat="47.65299" lon="6.18087">
        <ele>232.9</ele>
        <time>2020-12-10T09:51:35Z</time>
      </trkpt>
      <trkpt lat="47.653" lon="6.18096">
        <ele>233.3</ele>
        <time>2020-12-10T09:51:36Z</time>
      </trkpt>
      <trkpt lat="47.65302" lon="6.18105">
        <ele>233.6</ele>
        <time>2020-12-10T09:51:36Z</time>
      </trkpt>
      <trkpt lat="47.65303" lon="6.18113">
        <ele>233.8</ele>
        <time>2020-12-10T09:51:39Z</time>
      </trkpt>
      <trkpt lat="47.65306" lon="6.18122">
        <ele>234</ele>
        <time>2020-12-10T09:51:41Z</time>
      </trkpt>
      <trkpt lat="47.65308" lon="6.18132">
        <ele>234.1</ele>
        <time>2020-12-10T09:51:42Z</time>
      </trkpt>
      <trkpt lat="47.6531" lon="6.18138">
        <ele>234</ele>
        <time>2020-12-10T09:51:42Z</time>
      </trkpt>
      <trkpt lat="47.65313" lon="6.18146">
        <ele>233.9</ele>
        <time>2020-12-10T09:51:45Z</time>
      </trkpt>
      <trkpt lat="47.65316" lon="6.18154">
        <ele>233.6</ele>
        <time>2020-12-10T09:51:47Z</time>
      </trkpt>
      <trkpt lat="47.65319" lon="6.18162">
        <ele>233.3</ele>
        <time>2020-12-10T09:51:47Z</time>
      </trkpt>
      <trkpt lat="47.65322" lon="6.18168">
        <ele>233.1</ele>
        <time>2020-12-10T09:51:50Z</time>
      </trkpt>
      <trkpt lat="47.65326" lon="6.18175">
        <ele>233</ele>
        <time>2020-12-10T09:51:52Z</time>
      </trkpt>
      <trkpt lat="47.65332" lon="6.18183">
        <ele>232.7</ele>
        <time>2020-12-10T09:51:53Z</time>
      </trkpt>
      <trkpt lat="47.65336" lon="6.18188">
        <ele>232.8</ele>
        <time>2020-12-10T09:51:56Z</time>
      </trkpt>
      <trkpt lat="47.6534" lon="6.18191">
        <ele>233</ele>
        <time>2020-12-10T09:51:56Z</time>
      </trkpt>
      <trkpt lat="47.65344" lon="6.18196">
        <ele>233.2</ele>
        <time>2020-12-10T09:51:59Z</time>
      </trkpt>
      <trkpt lat="47.65348" lon="6.18201">
        <ele>233.5</ele>
        <time>2020-12-10T09:52:01Z</time>
      </trkpt>
      <trkpt lat="47.65354" lon="6.18207">
        <ele>233.6</ele>
        <time>2020-12-10T09:52:03Z</time>
      </trkpt>
      <trkpt lat="47.65359" lon="6.18212">
        <ele>233.7</ele>
        <time>2020-12-10T09:52:05Z</time>
      </trkpt>
      <trkpt lat="47.65364" lon="6.18218">
        <ele>233.8</ele>
        <time>2020-12-10T09:52:07Z</time>
      </trkpt>
      <trkpt lat="47.6537" lon="6.18224">
        <ele>233.6</ele>
        <time>2020-12-10T09:52:09Z</time>
      </trkpt>
      <trkpt lat="47.65374" lon="6.18227">
        <ele>233.5</ele>
        <time>2020-12-10T09:52:11Z</time>
      </trkpt>
      <trkpt lat="47.65379" lon="6.18233">
        <ele>233.3</ele>
        <time>2020-12-10T09:52:13Z</time>
      </trkpt>
      <trkpt lat="47.65385" lon="6.18237">
        <ele>232.9</ele>
        <time>2020-12-10T09:52:16Z</time>
      </trkpt>
      <trkpt lat="47.65389" lon="6.18241">
        <ele>232.6</ele>
        <time>2020-12-10T09:52:17Z</time>
      </trkpt>
      <trkpt lat="47.65396" lon="6.18246">
        <ele>231.9</ele>
        <time>2020-12-10T09:52:20Z</time>
      </trkpt>
      <trkpt lat="47.65402" lon="6.1825">
        <ele>231.3</ele>
        <time>2020-12-10T09:52:21Z</time>
      </trkpt>
      <trkpt lat="47.65408" lon="6.18254">
        <ele>231.2</ele>
        <time>2020-12-10T09:52:23Z</time>
      </trkpt>
      <trkpt lat="47.65416" lon="6.18259">
        <ele>231.2</ele>
        <time>2020-12-10T09:52:24Z</time>
      </trkpt>
      <trkpt lat="47.65421" lon="6.18261">
        <ele>231.6</ele>
        <time>2020-12-10T09:52:28Z</time>
      </trkpt>
      <trkpt lat="47.65426" lon="6.18262">
        <ele>232.2</ele>
        <time>2020-12-10T09:52:28Z</time>
      </trkpt>
      <trkpt lat="47.65434" lon="6.18264">
        <ele>232.9</ele>
        <time>2020-12-10T09:52:31Z</time>
      </trkpt>
      <trkpt lat="47.6544" lon="6.18265">
        <ele>233.3</ele>
        <time>2020-12-10T09:52:35Z</time>
      </trkpt>
      <trkpt lat="47.65446" lon="6.18266">
        <ele>233.7</ele>
        <time>2020-12-10T09:52:38Z</time>
      </trkpt>
      <trkpt lat="47.65451" lon="6.18267">
        <ele>234.2</ele>
        <time>2020-12-10T09:52:38Z</time>
      </trkpt>
      <trkpt lat="47.65455" lon="6.18268">
        <ele>234.5</ele>
        <time>2020-12-10T09:52:42Z</time>
      </trkpt>
      <trkpt lat="47.6546" lon="6.18267">
        <ele>234.5</ele>
        <time>2020-12-10T09:52:42Z</time>
      </trkpt>
      <trkpt lat="47.65466" lon="6.18266">
        <ele>234.5</ele>
        <time>2020-12-10T09:52:46Z</time>
      </trkpt>
      <trkpt lat="47.65472" lon="6.18266">
        <ele>234.6</ele>
        <time>2020-12-10T09:52:49Z</time>
      </trkpt>
      <trkpt lat="47.65477" lon="6.18266">
        <ele>234.7</ele>
        <time>2020-12-10T09:52:51Z</time>
      </trkpt>
      <trkpt lat="47.65483" lon="6.18264">
        <ele>234.7</ele>
        <time>2020-12-10T09:52:51Z</time>
      </trkpt>
      <trkpt lat="47.65488" lon="6.18263">
        <ele>234.5</ele>
        <time>2020-12-10T09:52:54Z</time>
      </trkpt>
      <trkpt lat="47.65493" lon="6.1826">
        <ele>234</ele>
        <time>2020-12-10T09:52:56Z</time>
      </trkpt>
      <trkpt lat="47.655" lon="6.18256">
        <ele>233.5</ele>
        <time>2020-12-10T09:52:57Z</time>
      </trkpt>
      <trkpt lat="47.65504" lon="6.18254">
        <ele>233.5</ele>
        <time>2020-12-10T09:53:00Z</time>
      </trkpt>
      <trkpt lat="47.6551" lon="6.18253">
        <ele>233.7</ele>
        <time>2020-12-10T09:53:02Z</time>
      </trkpt>
      <trkpt lat="47.65515" lon="6.18251">
        <ele>233.9</ele>
        <time>2020-12-10T09:53:04Z</time>
      </trkpt>
      <trkpt lat="47.65521" lon="6.18249">
        <ele>234.2</ele>
        <time>2020-12-10T09:53:06Z</time>
      </trkpt>
      <trkpt lat="47.65527" lon="6.18247">
        <ele>234.7</ele>
        <time>2020-12-10T09:53:08Z</time>
      </trkpt>
      <trkpt lat="47.65532" lon="6.18245">
        <ele>234.8</ele>
        <time>2020-12-10T09:53:10Z</time>
      </trkpt>
      <trkpt lat="47.65538" lon="6.18242">
        <ele>235.2</ele>
        <time>2020-12-10T09:53:11Z</time>
      </trkpt>
      <trkpt lat="47.65543" lon="6.1824">
        <ele>235.5</ele>
        <time>2020-12-10T09:53:15Z</time>
      </trkpt>
      <trkpt lat="47.65548" lon="6.18237">
        <ele>235.6</ele>
        <time>2020-12-10T09:53:17Z</time>
      </trkpt>
      <trkpt lat="47.65553" lon="6.18234">
        <ele>235.8</ele>
        <time>2020-12-10T09:53:17Z</time>
      </trkpt>
      <trkpt lat="47.65558" lon="6.18232">
        <ele>235.9</ele>
        <time>2020-12-10T09:53:19Z</time>
      </trkpt>
      <trkpt lat="47.65564" lon="6.18227">
        <ele>235.8</ele>
        <time>2020-12-10T09:53:23Z</time>
      </trkpt>
      <trkpt lat="47.65568" lon="6.18222">
        <ele>235.4</ele>
        <time>2020-12-10T09:53:26Z</time>
      </trkpt>
      <trkpt lat="47.65573" lon="6.18216">
        <ele>235</ele>
        <time>2020-12-10T09:53:28Z</time>
      </trkpt>
      <trkpt lat="47.65579" lon="6.18209">
        <ele>234.2</ele>
        <time>2020-12-10T09:53:29Z</time>
      </trkpt>
      <trkpt lat="47.65583" lon="6.18202">
        <ele>233.5</ele>
        <time>2020-12-10T09:53:33Z</time>
      </trkpt>
      <trkpt lat="47.65587" lon="6.18195">
        <ele>232.8</ele>
        <time>2020-12-10T09:53:34Z</time>
      </trkpt>
      <trkpt lat="47.65592" lon="6.18186">
        <ele>232</ele>
        <time>2020-12-10T09:53:36Z</time>
      </trkpt>
      <trkpt lat="47.65596" lon="6.18181">
        <ele>231.6</ele>
        <time>2020-12-10T09:53:37Z</time>
      </trkpt>
      <trkpt lat="47.656" lon="6.18176">
        <ele>231.4</ele>
        <time>2020-12-10T09:53:37Z</time>
      </trkpt>
      <trkpt lat="47.65608" lon="6.1817">
        <ele>231.2</ele>
        <time>2020-12-10T09:53:40Z</time>
      </trkpt>
      <trkpt lat="47.65615" lon="6.18169">
        <ele>231.8</ele>
        <time>2020-12-10T09:53:42Z</time>
      </trkpt>
      <trkpt lat="47.65619" lon="6.1817">
        <ele>232.4</ele>
        <time>2020-12-10T09:53:43Z</time>
      </trkpt>
      <trkpt lat="47.65625" lon="6.1817">
        <ele>233</ele>
        <time>2020-12-10T09:53:44Z</time>
      </trkpt>
      <trkpt lat="47.65632" lon="6.1817">
        <ele>233.8</ele>
        <time>2020-12-10T09:53:45Z</time>
      </trkpt>
      <trkpt lat="47.65638" lon="6.18168">
        <ele>234.2</ele>
        <time>2020-12-10T09:53:45Z</time>
      </trkpt>
      <trkpt lat="47.65644" lon="6.18165">
        <ele>234.4</ele>
        <time>2020-12-10T09:53:48Z</time>
      </trkpt>
      <trkpt lat="47.65648" lon="6.18161">
        <ele>234.5</ele>
        <time>2020-12-10T09:53:50Z</time>
      </trkpt>
      <trkpt lat="47.65654" lon="6.18156">
        <ele>234.7</ele>
        <time>2020-12-10T09:53:53Z</time>
      </trkpt>
      <trkpt lat="47.65659" lon="6.1815">
        <ele>234.7</ele>
        <time>2020-12-10T09:53:55Z</time>
      </trkpt>
      <trkpt lat="47.65665" lon="6.18145">
        <ele>234.8</ele>
        <time>2020-12-10T09:53:57Z</time>
      </trkpt>
      <trkpt lat="47.65669" lon="6.18141">
        <ele>234.9</ele>
        <time>2020-12-10T09:53:59Z</time>
      </trkpt>
      <trkpt lat="47.65673" lon="6.18137">
        <ele>235.2</ele>
        <time>2020-12-10T09:54:01Z</time>
      </trkpt>
      <trkpt lat="47.65678" lon="6.18132">
        <ele>235.4</ele>
        <time>2020-12-10T09:54:02Z</time>
      </trkpt>
      <trkpt lat="47.65682" lon="6.18126">
        <ele>235.4</ele>
        <time>2020-12-10T09:54:04Z</time>
      </trkpt>
      <trkpt lat="47.65685" lon="6.18119">
        <ele>235.2</ele>
        <time>2020-12-10T09:54:07Z</time>
      </trkpt>
      <trkpt lat="47.6569" lon="6.1811">
        <ele>234.9</ele>
        <time>2020-12-10T09:54:10Z</time>
      </trkpt>
      <trkpt lat="47.65693" lon="6.18103">
        <ele>234.6</ele>
        <time>2020-12-10T09:54:11Z</time>
      </trkpt>
      <trkpt lat="47.65696" lon="6.18097">
        <ele>234.4</ele>
        <time>2020-12-10T09:54:13Z</time>
      </trkpt>
      <trkpt lat="47.657" lon="6.18091">
        <ele>234.2</ele>
        <time>2020-12-10T09:54:14Z</time>
      </trkpt>
      <trkpt lat="47.65703" lon="6.18084">
        <ele>233.9</ele>
        <time>2020-12-10T09:54:16Z</time>
      </trkpt>
      <trkpt lat="47.65709" lon="6.18076">
        <ele>234.1</ele>
        <time>2020-12-10T09:54:19Z</time>
      </trkpt>
      <trkpt lat="47.65713" lon="6.18071">
        <ele>234.2</ele>
        <time>2020-12-10T09:54:19Z</time>
      </trkpt>
      <trkpt lat="47.65717" lon="6.18067">
        <ele>234.4</ele>
        <time>2020-12-10T09:54:23Z</time>
      </trkpt>
      <trkpt lat="47.65722" lon="6.18062">
        <ele>234.7</ele>
        <time>2020-12-10T09:54:25Z</time>
      </trkpt>
      <trkpt lat="47.65727" lon="6.18058">
        <ele>235</ele>
        <time>2020-12-10T09:54:25Z</time>
      </trkpt>
      <trkpt lat="47.65733" lon="6.18055">
        <ele>235.4</ele>
        <time>2020-12-10T09:54:29Z</time>
      </trkpt>
      <trkpt lat="47.65738" lon="6.1805">
        <ele>235.6</ele>
        <time>2020-12-10T09:54:30Z</time>
      </trkpt>
      <trkpt lat="47.65743" lon="6.18047">
        <ele>235.8</ele>
        <time>2020-12-10T09:54:34Z</time>
      </trkpt>
      <trkpt lat="47.65748" lon="6.18043">
        <ele>235.9</ele>
        <time>2020-12-10T09:54:36Z</time>
      </trkpt>
      <trkpt lat="47.65753" lon="6.18041">
        <ele>236.3</ele>
        <time>2020-12-10T09:54:39Z</time>
      </trkpt>
      <trkpt lat="47.65758" lon="6.18039">
        <ele>236.6</ele>
        <time>2020-12-10T09:54:39Z</time>
      </trkpt>
      <trkpt lat="47.65764" lon="6.18037">
        <ele>237.1</ele>
        <time>2020-12-10T09:54:43Z</time>
      </trkpt>
      <trkpt lat="47.65769" lon="6.18034">
        <ele>237.3</ele>
        <time>2020-12-10T09:54:45Z</time>
      </trkpt>
      <trkpt lat="47.65774" lon="6.1803">
        <ele>237.4</ele>
        <time>2020-12-10T09:54:48Z</time>
      </trkpt>
      <trkpt lat="47.6578" lon="6.18025">
        <ele>237.4</ele>
        <time>2020-12-10T09:54:49Z</time>
      </trkpt>
      <trkpt lat="47.65785" lon="6.1802">
        <ele>237.3</ele>
        <time>2020-12-10T09:54:53Z</time>
      </trkpt>
      <trkpt lat="47.6579" lon="6.18015">
        <ele>237.1</ele>
        <time>2020-12-10T09:54:54Z</time>
      </trkpt>
      <trkpt lat="47.65795" lon="6.18011">
        <ele>237</ele>
        <time>2020-12-10T09:54:56Z</time>
      </trkpt>
      <trkpt lat="47.65799" lon="6.18006">
        <ele>236.9</ele>
        <time>2020-12-10T09:54:58Z</time>
      </trkpt>
      <trkpt lat="47.65804" lon="6.18003">
        <ele>236.9</ele>
        <time>2020-12-10T09:55:02Z</time>
      </trkpt>
      <trkpt lat="47.65808" lon="6.17999">
        <ele>236.8</ele>
        <time>2020-12-10T09:55:03Z</time>
      </trkpt>
      <trkpt lat="47.65816" lon="6.17993">
        <ele>236.8</ele>
        <time>2020-12-10T09:55:06Z</time>
      </trkpt>
      <trkpt lat="47.65822" lon="6.17988">
        <ele>236.6</ele>
        <time>2020-12-10T09:55:07Z</time>
      </trkpt>
      <trkpt lat="47.65827" lon="6.17984">
        <ele>236.5</ele>
        <time>2020-12-10T09:55:09Z</time>
      </trkpt>
      <trkpt lat="47.65836" lon="6.17977">
        <ele>236.2</ele>
        <time>2020-12-10T09:55:09Z</time>
      </trkpt>
      <trkpt lat="47.65842" lon="6.17972">
        <ele>235.6</ele>
        <time>2020-12-10T09:55:12Z</time>
      </trkpt>
      <trkpt lat="47.65849" lon="6.17967">
        <ele>234.9</ele>
        <time>2020-12-10T09:55:12Z</time>
      </trkpt>
      <trkpt lat="47.65855" lon="6.17964">
        <ele>234.5</ele>
        <time>2020-12-10T09:55:15Z</time>
      </trkpt>
      <trkpt lat="47.65862" lon="6.17962">
        <ele>234.1</ele>
        <time>2020-12-10T09:55:16Z</time>
      </trkpt>
      <trkpt lat="47.65868" lon="6.1796">
        <ele>233.8</ele>
        <time>2020-12-10T09:55:16Z</time>
      </trkpt>
      <trkpt lat="47.65879" lon="6.17957">
        <ele>233.3</ele>
        <time>2020-12-10T09:55:18Z</time>
      </trkpt>
      <trkpt lat="47.65887" lon="6.17957">
        <ele>233.2</ele>
        <time>2020-12-10T09:55:21Z</time>
      </trkpt>
      <trkpt lat="47.65892" lon="6.17956">
        <ele>233.1</ele>
        <time>2020-12-10T09:55:22Z</time>
      </trkpt>
      <trkpt lat="47.65899" lon="6.17955">
        <ele>232.8</ele>
        <time>2020-12-10T09:55:22Z</time>
      </trkpt>
      <trkpt lat="47.65907" lon="6.17954">
        <ele>232.6</ele>
        <time>2020-12-10T09:55:26Z</time>
      </trkpt>
      <trkpt lat="47.65919" lon="6.17953">
        <ele>232.3</ele>
        <time>2020-12-10T09:55:26Z</time>
      </trkpt>
      <trkpt lat="47.65924" lon="6.17952">
        <ele>232.2</ele>
        <time>2020-12-10T09:55:27Z</time>
      </trkpt>
      <trkpt lat="47.65929" lon="6.17952">
        <ele>232.1</ele>
        <time>2020-12-10T09:55:28Z</time>
      </trkpt>
      <trkpt lat="47.65934" lon="6.17952">
        <ele>231.9</ele>
        <time>2020-12-10T09:55:29Z</time>
      </trkpt>
      <trkpt lat="47.6594" lon="6.17952">
        <ele>231.9</ele>
        <time>2020-12-10T09:55:30Z</time>
      </trkpt>
      <trkpt lat="47.65945" lon="6.17952">
        <ele>231.8</ele>
        <time>2020-12-10T09:55:31Z</time>
      </trkpt>
      <trkpt lat="47.65951" lon="6.17952">
        <ele>231.7</ele>
        <time>2020-12-10T09:55:32Z</time>
      </trkpt>
      <trkpt lat="47.65956" lon="6.17952">
        <ele>231.6</ele>
        <time>2020-12-10T09:55:33Z</time>
      </trkpt>
      <trkpt lat="47.65961" lon="6.17952">
        <ele>231.5</ele>
        <time>2020-12-10T09:55:34Z</time>
      </trkpt>
      <trkpt lat="47.65967" lon="6.17952">
        <ele>231.5</ele>
        <time>2020-12-10T09:55:35Z</time>
      </trkpt>
      <trkpt lat="47.65972" lon="6.17952">
        <ele>231.4</ele>
        <time>2020-12-10T09:55:36Z</time>
      </trkpt>
      <trkpt lat="47.65977" lon="6.17952">
        <ele>231.3</ele>
        <time>2020-12-10T09:55:37Z</time>
      </trkpt>
      <trkpt lat="47.65983" lon="6.17952">
        <ele>231.3</ele>
        <time>2020-12-10T09:55:38Z</time>
      </trkpt>
      <trkpt lat="47.65988" lon="6.17953">
        <ele>231.2</ele>
        <time>2020-12-10T09:55:39Z</time>
      </trkpt>
      <trkpt lat="47.65993" lon="6.17953">
        <ele>231.1</ele>
        <time>2020-12-10T09:55:40Z</time>
      </trkpt>
      <trkpt lat="47.65998" lon="6.17953">
        <ele>231.1</ele>
        <time>2020-12-10T09:55:41Z</time>
      </trkpt>
      <trkpt lat="47.66003" lon="6.17953">
        <ele>231.1</ele>
        <time>2020-12-10T09:55:42Z</time>
      </trkpt>
      <trkpt lat="47.66008" lon="6.17954">
        <ele>231.1</ele>
        <time>2020-12-10T09:55:43Z</time>
      </trkpt>
      <trkpt lat="47.66013" lon="6.17954">
        <ele>231.1</ele>
        <time>2020-12-10T09:55:44Z</time>
      </trkpt>
      <trkpt lat="47.66019" lon="6.17954">
        <ele>231.1</ele>
        <time>2020-12-10T09:55:45Z</time>
      </trkpt>
      <trkpt lat="47.66024" lon="6.17954">
        <ele>231.1</ele>
        <time>2020-12-10T09:55:46Z</time>
      </trkpt>
      <trkpt lat="47.66029" lon="6.17954">
        <ele>231.2</ele>
        <time>2020-12-10T09:55:47Z</time>
      </trkpt>
      <trkpt lat="47.66034" lon="6.17954">
        <ele>231.2</ele>
        <time>2020-12-10T09:55:48Z</time>
      </trkpt>
      <trkpt lat="47.66039" lon="6.17954">
        <ele>231.2</ele>
        <time>2020-12-10T09:55:49Z</time>
      </trkpt>
      <trkpt lat="47.66044" lon="6.17954">
        <ele>231.2</ele>
        <time>2020-12-10T09:55:50Z</time>
      </trkpt>
      <trkpt lat="47.66049" lon="6.17954">
        <ele>231.2</ele>
        <time>2020-12-10T09:55:51Z</time>
      </trkpt>
      <trkpt lat="47.66054" lon="6.17954">
        <ele>231.2</ele>
        <time>2020-12-10T09:55:52Z</time>
      </trkpt>
      <trkpt lat="47.66059" lon="6.17954">
        <ele>231.2</ele>
        <time>2020-12-10T09:55:53Z</time>
      </trkpt>
      <trkpt lat="47.66063" lon="6.17955">
        <ele>231.2</ele>
        <time>2020-12-10T09:55:54Z</time>
      </trkpt>
      <trkpt lat="47.66072" lon="6.17954">
        <ele>231.2</ele>
        <time>2020-12-10T09:55:56Z</time>
      </trkpt>
      <trkpt lat="47.66081" lon="6.17955">
        <ele>231.2</ele>
        <time>2020-12-10T09:55:58Z</time>
      </trkpt>
      <trkpt lat="47.66089" lon="6.17955">
        <ele>231.1</ele>
        <time>2020-12-10T09:56:00Z</time>
      </trkpt>
      <trkpt lat="47.66097" lon="6.17954">
        <ele>231</ele>
        <time>2020-12-10T09:56:02Z</time>
      </trkpt>
      <trkpt lat="47.66105" lon="6.17954">
        <ele>230.9</ele>
        <time>2020-12-10T09:56:04Z</time>
      </trkpt>
      <trkpt lat="47.66111" lon="6.17954">
        <ele>230.8</ele>
        <time>2020-12-10T09:56:06Z</time>
      </trkpt>
      <trkpt lat="47.66119" lon="6.17954">
        <ele>230.7</ele>
        <time>2020-12-10T09:56:08Z</time>
      </trkpt>
      <trkpt lat="47.66126" lon="6.17954">
        <ele>230.7</ele>
        <time>2020-12-10T09:56:10Z</time>
      </trkpt>
      <trkpt lat="47.66133" lon="6.17951">
        <ele>230.4</ele>
        <time>2020-12-10T09:56:14Z</time>
      </trkpt>
      <trkpt lat="47.66139" lon="6.17951">
        <ele>230.3</ele>
        <time>2020-12-10T09:56:15Z</time>
      </trkpt>
      <trkpt lat="47.66149" lon="6.17952">
        <ele>230.3</ele>
        <time>2020-12-10T09:56:16Z</time>
      </trkpt>
      <trkpt lat="47.66154" lon="6.17953">
        <ele>230.3</ele>
        <time>2020-12-10T09:56:19Z</time>
      </trkpt>
      <trkpt lat="47.66159" lon="6.17954">
        <ele>230.3</ele>
        <time>2020-12-10T09:56:20Z</time>
      </trkpt>
      <trkpt lat="47.66166" lon="6.17955">
        <ele>230.3</ele>
        <time>2020-12-10T09:56:22Z</time>
      </trkpt>
      <trkpt lat="47.66174" lon="6.17956">
        <ele>230.2</ele>
        <time>2020-12-10T09:56:24Z</time>
      </trkpt>
      <trkpt lat="47.66182" lon="6.17957">
        <ele>230.1</ele>
        <time>2020-12-10T09:56:26Z</time>
      </trkpt>
      <trkpt lat="47.66189" lon="6.17959">
        <ele>230</ele>
        <time>2020-12-10T09:56:27Z</time>
      </trkpt>
      <trkpt lat="47.66195" lon="6.17961">
        <ele>229.9</ele>
        <time>2020-12-10T09:56:27Z</time>
      </trkpt>
      <trkpt lat="47.66203" lon="6.17962">
        <ele>229.8</ele>
        <time>2020-12-10T09:56:29Z</time>
      </trkpt>
      <trkpt lat="47.66209" lon="6.17964">
        <ele>229.8</ele>
        <time>2020-12-10T09:56:32Z</time>
      </trkpt>
      <trkpt lat="47.66218" lon="6.17966">
        <ele>229.6</ele>
        <time>2020-12-10T09:56:34Z</time>
      </trkpt>
      <trkpt lat="47.66224" lon="6.17968">
        <ele>229.5</ele>
        <time>2020-12-10T09:56:34Z</time>
      </trkpt>
      <trkpt lat="47.66228" lon="6.17969">
        <ele>229.5</ele>
        <time>2020-12-10T09:56:35Z</time>
      </trkpt>
      <trkpt lat="47.66236" lon="6.17971">
        <ele>229.3</ele>
        <time>2020-12-10T09:56:38Z</time>
      </trkpt>
      <trkpt lat="47.66241" lon="6.17972">
        <ele>229.2</ele>
        <time>2020-12-10T09:56:39Z</time>
      </trkpt>
      <trkpt lat="47.66247" lon="6.17973">
        <ele>229.1</ele>
        <time>2020-12-10T09:56:41Z</time>
      </trkpt>
      <trkpt lat="47.66259" lon="6.17974">
        <ele>228.8</ele>
        <time>2020-12-10T09:56:41Z</time>
      </trkpt>
      <trkpt lat="47.66264" lon="6.17974">
        <ele>228.7</ele>
        <time>2020-12-10T09:56:42Z</time>
      </trkpt>
      <trkpt lat="47.6627" lon="6.17975">
        <ele>228.6</ele>
        <time>2020-12-10T09:56:43Z</time>
      </trkpt>
      <trkpt lat="47.66275" lon="6.17975">
        <ele>228.5</ele>
        <time>2020-12-10T09:56:44Z</time>
      </trkpt>
      <trkpt lat="47.66281" lon="6.17976">
        <ele>228.3</ele>
        <time>2020-12-10T09:56:45Z</time>
      </trkpt>
      <trkpt lat="47.66286" lon="6.17976">
        <ele>228.2</ele>
        <time>2020-12-10T09:56:46Z</time>
      </trkpt>
      <trkpt lat="47.66292" lon="6.17977">
        <ele>228.1</ele>
        <time>2020-12-10T09:56:47Z</time>
      </trkpt>
      <trkpt lat="47.66297" lon="6.17977">
        <ele>227.9</ele>
        <time>2020-12-10T09:56:48Z</time>
      </trkpt>
      <trkpt lat="47.66302" lon="6.17977">
        <ele>227.8</ele>
        <time>2020-12-10T09:56:49Z</time>
      </trkpt>
      <trkpt lat="47.66307" lon="6.17977">
        <ele>227.7</ele>
        <time>2020-12-10T09:56:50Z</time>
      </trkpt>
      <trkpt lat="47.66312" lon="6.17976">
        <ele>227.6</ele>
        <time>2020-12-10T09:56:51Z</time>
      </trkpt>
      <trkpt lat="47.66316" lon="6.17974">
        <ele>227.4</ele>
        <time>2020-12-10T09:56:52Z</time>
      </trkpt>
      <trkpt lat="47.6632" lon="6.1797">
        <ele>227.3</ele>
        <time>2020-12-10T09:56:53Z</time>
      </trkpt>
      <trkpt lat="47.66323" lon="6.17958">
        <ele>227.2</ele>
        <time>2020-12-10T09:56:55Z</time>
      </trkpt>
      <trkpt lat="47.66324" lon="6.17951">
        <ele>227.1</ele>
        <time>2020-12-10T09:56:56Z</time>
      </trkpt>
      <trkpt lat="47.66325" lon="6.17938">
        <ele>227.1</ele>
        <time>2020-12-10T09:56:58Z</time>
      </trkpt>
      <trkpt lat="47.66326" lon="6.17925">
        <ele>227</ele>
        <time>2020-12-10T09:57:00Z</time>
      </trkpt>
      <trkpt lat="47.66326" lon="6.17918">
        <ele>227</ele>
        <time>2020-12-10T09:57:01Z</time>
      </trkpt>
      <trkpt lat="47.66326" lon="6.1791">
        <ele>227</ele>
        <time>2020-12-10T09:57:02Z</time>
      </trkpt>
      <trkpt lat="47.66327" lon="6.17903">
        <ele>227</ele>
        <time>2020-12-10T09:57:03Z</time>
      </trkpt>
      <trkpt lat="47.66327" lon="6.17896">
        <ele>227</ele>
        <time>2020-12-10T09:57:04Z</time>
      </trkpt>
      <trkpt lat="47.66328" lon="6.17889">
        <ele>227</ele>
        <time>2020-12-10T09:57:05Z</time>
      </trkpt>
      <trkpt lat="47.66328" lon="6.17881">
        <ele>227</ele>
        <time>2020-12-10T09:57:06Z</time>
      </trkpt>
      <trkpt lat="47.66329" lon="6.17874">
        <ele>227</ele>
        <time>2020-12-10T09:57:07Z</time>
      </trkpt>
      <trkpt lat="47.66329" lon="6.17866">
        <ele>227</ele>
        <time>2020-12-10T09:57:08Z</time>
      </trkpt>
      <trkpt lat="47.6633" lon="6.17859">
        <ele>227</ele>
        <time>2020-12-10T09:57:09Z</time>
      </trkpt>
      <trkpt lat="47.6633" lon="6.17851">
        <ele>227</ele>
        <time>2020-12-10T09:57:10Z</time>
      </trkpt>
      <trkpt lat="47.66331" lon="6.17844">
        <ele>227</ele>
        <time>2020-12-10T09:57:11Z</time>
      </trkpt>
      <trkpt lat="47.66331" lon="6.17836">
        <ele>227</ele>
        <time>2020-12-10T09:57:12Z</time>
      </trkpt>
      <trkpt lat="47.66332" lon="6.17828">
        <ele>226.9</ele>
        <time>2020-12-10T09:57:13Z</time>
      </trkpt>
      <trkpt lat="47.66333" lon="6.17821">
        <ele>226.7</ele>
        <time>2020-12-10T09:57:14Z</time>
      </trkpt>
      <trkpt lat="47.66333" lon="6.17812">
        <ele>226.5</ele>
        <time>2020-12-10T09:57:15Z</time>
      </trkpt>
      <trkpt lat="47.66334" lon="6.17804">
        <ele>226.4</ele>
        <time>2020-12-10T09:57:16Z</time>
      </trkpt>
      <trkpt lat="47.66335" lon="6.17796">
        <ele>226.2</ele>
        <time>2020-12-10T09:57:17Z</time>
      </trkpt>
      <trkpt lat="47.66336" lon="6.17789">
        <ele>226.1</ele>
        <time>2020-12-10T09:57:18Z</time>
      </trkpt>
      <trkpt lat="47.66337" lon="6.17781">
        <ele>225.9</ele>
        <time>2020-12-10T09:57:19Z</time>
      </trkpt>
      <trkpt lat="47.66338" lon="6.17774">
        <ele>225.8</ele>
        <time>2020-12-10T09:57:20Z</time>
      </trkpt>
      <trkpt lat="47.66338" lon="6.17767">
        <ele>225.6</ele>
        <time>2020-12-10T09:57:21Z</time>
      </trkpt>
      <trkpt lat="47.66339" lon="6.1776">
        <ele>225.5</ele>
        <time>2020-12-10T09:57:22Z</time>
      </trkpt>
      <trkpt lat="47.66341" lon="6.17752">
        <ele>225.3</ele>
        <time>2020-12-10T09:57:23Z</time>
      </trkpt>
      <trkpt lat="47.66342" lon="6.17745">
        <ele>225.3</ele>
        <time>2020-12-10T09:57:24Z</time>
      </trkpt>
      <trkpt lat="47.66343" lon="6.17738">
        <ele>225.2</ele>
        <time>2020-12-10T09:57:25Z</time>
      </trkpt>
      <trkpt lat="47.66345" lon="6.17731">
        <ele>225.2</ele>
        <time>2020-12-10T09:57:26Z</time>
      </trkpt>
      <trkpt lat="47.66346" lon="6.17724">
        <ele>225.1</ele>
        <time>2020-12-10T09:57:27Z</time>
      </trkpt>
      <trkpt lat="47.66348" lon="6.17717">
        <ele>225.1</ele>
        <time>2020-12-10T09:57:28Z</time>
      </trkpt>
      <trkpt lat="47.66349" lon="6.1771">
        <ele>225.1</ele>
        <time>2020-12-10T09:57:29Z</time>
      </trkpt>
      <trkpt lat="47.66351" lon="6.17703">
        <ele>225.1</ele>
        <time>2020-12-10T09:57:30Z</time>
      </trkpt>
      <trkpt lat="47.66353" lon="6.17697">
        <ele>225.1</ele>
        <time>2020-12-10T09:57:31Z</time>
      </trkpt>
      <trkpt lat="47.66355" lon="6.1769">
        <ele>225.1</ele>
        <time>2020-12-10T09:57:32Z</time>
      </trkpt>
      <trkpt lat="47.66358" lon="6.17684">
        <ele>225.1</ele>
        <time>2020-12-10T09:57:33Z</time>
      </trkpt>
      <trkpt lat="47.66361" lon="6.17678">
        <ele>225.1</ele>
        <time>2020-12-10T09:57:34Z</time>
      </trkpt>
      <trkpt lat="47.66364" lon="6.17673">
        <ele>225.2</ele>
        <time>2020-12-10T09:57:35Z</time>
      </trkpt>
      <trkpt lat="47.66367" lon="6.17667">
        <ele>225.2</ele>
        <time>2020-12-10T09:57:36Z</time>
      </trkpt>
      <trkpt lat="47.6637" lon="6.17662">
        <ele>225.3</ele>
        <time>2020-12-10T09:57:37Z</time>
      </trkpt>
      <trkpt lat="47.66374" lon="6.17657">
        <ele>225.5</ele>
        <time>2020-12-10T09:57:38Z</time>
      </trkpt>
      <trkpt lat="47.66377" lon="6.17652">
        <ele>225.6</ele>
        <time>2020-12-10T09:57:39Z</time>
      </trkpt>
      <trkpt lat="47.6638" lon="6.17647">
        <ele>225.6</ele>
        <time>2020-12-10T09:57:40Z</time>
      </trkpt>
      <trkpt lat="47.66383" lon="6.17641">
        <ele>225.7</ele>
        <time>2020-12-10T09:57:41Z</time>
      </trkpt>
      <trkpt lat="47.66386" lon="6.17636">
        <ele>225.8</ele>
        <time>2020-12-10T09:57:42Z</time>
      </trkpt>
      <trkpt lat="47.66392" lon="6.17627">
        <ele>225.9</ele>
        <time>2020-12-10T09:57:44Z</time>
      </trkpt>
      <trkpt lat="47.66396" lon="6.17622">
        <ele>226</ele>
        <time>2020-12-10T09:57:45Z</time>
      </trkpt>
      <trkpt lat="47.66399" lon="6.17617">
        <ele>226</ele>
        <time>2020-12-10T09:57:46Z</time>
      </trkpt>
      <trkpt lat="47.66402" lon="6.17613">
        <ele>226.1</ele>
        <time>2020-12-10T09:57:47Z</time>
      </trkpt>
      <trkpt lat="47.66406" lon="6.17608">
        <ele>226.1</ele>
        <time>2020-12-10T09:57:48Z</time>
      </trkpt>
      <trkpt lat="47.6641" lon="6.17604">
        <ele>226.1</ele>
        <time>2020-12-10T09:57:49Z</time>
      </trkpt>
      <trkpt lat="47.66413" lon="6.176">
        <ele>226.1</ele>
        <time>2020-12-10T09:57:50Z</time>
      </trkpt>
      <trkpt lat="47.66417" lon="6.17597">
        <ele>226.2</ele>
        <time>2020-12-10T09:57:51Z</time>
      </trkpt>
      <trkpt lat="47.66421" lon="6.17593">
        <ele>226.2</ele>
        <time>2020-12-10T09:57:52Z</time>
      </trkpt>
      <trkpt lat="47.66426" lon="6.1759">
        <ele>226.2</ele>
        <time>2020-12-10T09:57:53Z</time>
      </trkpt>
      <trkpt lat="47.6643" lon="6.17587">
        <ele>226.2</ele>
        <time>2020-12-10T09:57:54Z</time>
      </trkpt>
      <trkpt lat="47.66434" lon="6.17584">
        <ele>226.2</ele>
        <time>2020-12-10T09:57:55Z</time>
      </trkpt>
      <trkpt lat="47.66439" lon="6.17581">
        <ele>226.3</ele>
        <time>2020-12-10T09:57:56Z</time>
      </trkpt>
      <trkpt lat="47.66443" lon="6.17578">
        <ele>226.3</ele>
        <time>2020-12-10T09:57:57Z</time>
      </trkpt>
      <trkpt lat="47.66451" lon="6.17573">
        <ele>226.4</ele>
        <time>2020-12-10T09:57:59Z</time>
      </trkpt>
      <trkpt lat="47.66455" lon="6.17571">
        <ele>226.4</ele>
        <time>2020-12-10T09:58:00Z</time>
      </trkpt>
      <trkpt lat="47.6646" lon="6.17568">
        <ele>226.4</ele>
        <time>2020-12-10T09:58:01Z</time>
      </trkpt>
      <trkpt lat="47.66464" lon="6.17566">
        <ele>226.4</ele>
        <time>2020-12-10T09:58:02Z</time>
      </trkpt>
      <trkpt lat="47.66468" lon="6.17563">
        <ele>226.5</ele>
        <time>2020-12-10T09:58:03Z</time>
      </trkpt>
      <trkpt lat="47.66473" lon="6.17561">
        <ele>226.5</ele>
        <time>2020-12-10T09:58:04Z</time>
      </trkpt>
      <trkpt lat="47.66477" lon="6.17558">
        <ele>226.5</ele>
        <time>2020-12-10T09:58:05Z</time>
      </trkpt>
      <trkpt lat="47.66481" lon="6.17556">
        <ele>226.5</ele>
        <time>2020-12-10T09:58:06Z</time>
      </trkpt>
      <trkpt lat="47.66486" lon="6.17553">
        <ele>226.5</ele>
        <time>2020-12-10T09:58:07Z</time>
      </trkpt>
      <trkpt lat="47.6649" lon="6.1755">
        <ele>226.5</ele>
        <time>2020-12-10T09:58:08Z</time>
      </trkpt>
      <trkpt lat="47.66494" lon="6.17547">
        <ele>226.5</ele>
        <time>2020-12-10T09:58:09Z</time>
      </trkpt>
      <trkpt lat="47.66498" lon="6.17545">
        <ele>226.5</ele>
        <time>2020-12-10T09:58:10Z</time>
      </trkpt>
      <trkpt lat="47.66503" lon="6.17542">
        <ele>226.5</ele>
        <time>2020-12-10T09:58:11Z</time>
      </trkpt>
      <trkpt lat="47.66507" lon="6.17539">
        <ele>226.5</ele>
        <time>2020-12-10T09:58:12Z</time>
      </trkpt>
      <trkpt lat="47.66511" lon="6.17536">
        <ele>226.5</ele>
        <time>2020-12-10T09:58:13Z</time>
      </trkpt>
      <trkpt lat="47.66519" lon="6.1753">
        <ele>226.5</ele>
        <time>2020-12-10T09:58:15Z</time>
      </trkpt>
      <trkpt lat="47.66525" lon="6.17526">
        <ele>226.5</ele>
        <time>2020-12-10T09:58:17Z</time>
      </trkpt>
      <trkpt lat="47.6653" lon="6.17523">
        <ele>226.5</ele>
        <time>2020-12-10T09:58:18Z</time>
      </trkpt>
      <trkpt lat="47.66538" lon="6.17517">
        <ele>226.6</ele>
        <time>2020-12-10T09:58:20Z</time>
      </trkpt>
      <trkpt lat="47.66546" lon="6.17512">
        <ele>226.6</ele>
        <time>2020-12-10T09:58:22Z</time>
      </trkpt>
      <trkpt lat="47.6655" lon="6.17499">
        <ele>226.6</ele>
        <time>2020-12-10T09:58:24Z</time>
      </trkpt>
      <trkpt lat="47.66555" lon="6.17498">
        <ele>226.6</ele>
        <time>2020-12-10T09:58:25Z</time>
      </trkpt>
      <trkpt lat="47.6656" lon="6.17497">
        <ele>226.7</ele>
        <time>2020-12-10T09:58:26Z</time>
      </trkpt>
      <trkpt lat="47.66568" lon="6.17495">
        <ele>226.8</ele>
        <time>2020-12-10T09:58:29Z</time>
      </trkpt>
      <trkpt lat="47.66576" lon="6.17493">
        <ele>226.8</ele>
        <time>2020-12-10T09:58:31Z</time>
      </trkpt>
      <trkpt lat="47.66581" lon="6.17491">
        <ele>226.9</ele>
        <time>2020-12-10T09:58:32Z</time>
      </trkpt>
      <trkpt lat="47.66588" lon="6.17489">
        <ele>227</ele>
        <time>2020-12-10T09:58:32Z</time>
      </trkpt>
      <trkpt lat="47.66594" lon="6.17486">
        <ele>227.1</ele>
        <time>2020-12-10T09:58:35Z</time>
      </trkpt>
      <trkpt lat="47.66601" lon="6.17484">
        <ele>227.2</ele>
        <time>2020-12-10T09:58:37Z</time>
      </trkpt>
      <trkpt lat="47.66612" lon="6.17478">
        <ele>227.3</ele>
        <time>2020-12-10T09:58:39Z</time>
      </trkpt>
      <trkpt lat="47.66617" lon="6.17475">
        <ele>227.4</ele>
        <time>2020-12-10T09:58:40Z</time>
      </trkpt>
      <trkpt lat="47.66623" lon="6.17473">
        <ele>227.5</ele>
        <time>2020-12-10T09:58:40Z</time>
      </trkpt>
      <trkpt lat="47.66631" lon="6.1747">
        <ele>227.6</ele>
        <time>2020-12-10T09:58:44Z</time>
      </trkpt>
      <trkpt lat="47.66636" lon="6.17468">
        <ele>227.6</ele>
        <time>2020-12-10T09:58:45Z</time>
      </trkpt>
      <trkpt lat="47.66642" lon="6.17464">
        <ele>227.7</ele>
        <time>2020-12-10T09:58:46Z</time>
      </trkpt>
      <trkpt lat="47.66647" lon="6.17462">
        <ele>227.7</ele>
        <time>2020-12-10T09:58:48Z</time>
      </trkpt>
      <trkpt lat="47.66655" lon="6.17458">
        <ele>227.8</ele>
        <time>2020-12-10T09:58:48Z</time>
      </trkpt>
      <trkpt lat="47.66662" lon="6.17456">
        <ele>227.9</ele>
        <time>2020-12-10T09:58:52Z</time>
      </trkpt>
      <trkpt lat="47.66672" lon="6.17452">
        <ele>227.9</ele>
        <time>2020-12-10T09:58:54Z</time>
      </trkpt>
      <trkpt lat="47.66677" lon="6.17451">
        <ele>227.9</ele>
        <time>2020-12-10T09:58:55Z</time>
      </trkpt>
      <trkpt lat="47.66685" lon="6.17448">
        <ele>227.8</ele>
        <time>2020-12-10T09:58:58Z</time>
      </trkpt>
      <trkpt lat="47.66692" lon="6.17446">
        <ele>227.8</ele>
        <time>2020-12-10T09:58:59Z</time>
      </trkpt>
      <trkpt lat="47.66698" lon="6.17445">
        <ele>227.8</ele>
        <time>2020-12-10T09:58:59Z</time>
      </trkpt>
      <trkpt lat="47.66705" lon="6.17444">
        <ele>227.8</ele>
        <time>2020-12-10T09:59:02Z</time>
      </trkpt>
      <trkpt lat="47.66712" lon="6.17443">
        <ele>227.8</ele>
        <time>2020-12-10T09:59:04Z</time>
      </trkpt>
      <trkpt lat="47.66717" lon="6.17442">
        <ele>227.8</ele>
        <time>2020-12-10T09:59:06Z</time>
      </trkpt>
      <trkpt lat="47.66726" lon="6.1744">
        <ele>227.8</ele>
        <time>2020-12-10T09:59:08Z</time>
      </trkpt>
      <trkpt lat="47.66735" lon="6.17439">
        <ele>227.7</ele>
        <time>2020-12-10T09:59:10Z</time>
      </trkpt>
      <trkpt lat="47.66741" lon="6.17438">
        <ele>227.7</ele>
        <time>2020-12-10T09:59:11Z</time>
      </trkpt>
      <trkpt lat="47.66747" lon="6.17437">
        <ele>227.7</ele>
        <time>2020-12-10T09:59:11Z</time>
      </trkpt>
      <trkpt lat="47.66754" lon="6.17435">
        <ele>227.7</ele>
        <time>2020-12-10T09:59:13Z</time>
      </trkpt>
      <trkpt lat="47.66759" lon="6.17435">
        <ele>227.6</ele>
        <time>2020-12-10T09:59:16Z</time>
      </trkpt>
      <trkpt lat="47.66765" lon="6.17434">
        <ele>227.6</ele>
        <time>2020-12-10T09:59:17Z</time>
      </trkpt>
      <trkpt lat="47.66771" lon="6.17434">
        <ele>227.6</ele>
        <time>2020-12-10T09:59:17Z</time>
      </trkpt>
      <trkpt lat="47.66777" lon="6.17433">
        <ele>227.5</ele>
        <time>2020-12-10T09:59:20Z</time>
      </trkpt>
      <trkpt lat="47.66781" lon="6.17433">
        <ele>227.5</ele>
        <time>2020-12-10T09:59:21Z</time>
      </trkpt>
      <trkpt lat="47.66786" lon="6.17432">
        <ele>227.5</ele>
        <time>2020-12-10T09:59:23Z</time>
      </trkpt>
      <trkpt lat="47.66792" lon="6.17431">
        <ele>227.4</ele>
        <time>2020-12-10T09:59:24Z</time>
      </trkpt>
      <trkpt lat="47.66801" lon="6.17431">
        <ele>227.4</ele>
        <time>2020-12-10T09:59:26Z</time>
      </trkpt>
      <trkpt lat="47.66809" lon="6.17432">
        <ele>227.4</ele>
        <time>2020-12-10T09:59:28Z</time>
      </trkpt>
      <trkpt lat="47.66814" lon="6.17432">
        <ele>227.4</ele>
        <time>2020-12-10T09:59:30Z</time>
      </trkpt>
      <trkpt lat="47.6682" lon="6.17432">
        <ele>227.4</ele>
        <time>2020-12-10T09:59:31Z</time>
      </trkpt>
      <trkpt lat="47.66826" lon="6.17432">
        <ele>227.4</ele>
        <time>2020-12-10T09:59:31Z</time>
      </trkpt>
      <trkpt lat="47.66833" lon="6.17432">
        <ele>227.4</ele>
        <time>2020-12-10T09:59:34Z</time>
      </trkpt>
      <trkpt lat="47.66837" lon="6.17432">
        <ele>227.5</ele>
        <time>2020-12-10T09:59:35Z</time>
      </trkpt>
      <trkpt lat="47.66843" lon="6.17433">
        <ele>227.6</ele>
        <time>2020-12-10T09:59:37Z</time>
      </trkpt>
      <trkpt lat="47.66849" lon="6.17433">
        <ele>227.8</ele>
        <time>2020-12-10T09:59:38Z</time>
      </trkpt>
      <trkpt lat="47.66854" lon="6.17433">
        <ele>227.9</ele>
        <time>2020-12-10T09:59:40Z</time>
      </trkpt>
      <trkpt lat="47.66859" lon="6.17434">
        <ele>228</ele>
        <time>2020-12-10T09:59:41Z</time>
      </trkpt>
      <trkpt lat="47.66864" lon="6.17433">
        <ele>228.1</ele>
        <time>2020-12-10T09:59:42Z</time>
      </trkpt>
      <trkpt lat="47.66871" lon="6.17432">
        <ele>228.3</ele>
        <time>2020-12-10T09:59:42Z</time>
      </trkpt>
      <trkpt lat="47.66877" lon="6.1743">
        <ele>228.4</ele>
        <time>2020-12-10T09:59:45Z</time>
      </trkpt>
      <trkpt lat="47.66883" lon="6.17427">
        <ele>228.4</ele>
        <time>2020-12-10T09:59:47Z</time>
      </trkpt>
      <trkpt lat="47.66889" lon="6.17424">
        <ele>228.5</ele>
        <time>2020-12-10T09:59:49Z</time>
      </trkpt>
      <trkpt lat="47.66895" lon="6.17421">
        <ele>228.6</ele>
        <time>2020-12-10T09:59:50Z</time>
      </trkpt>
      <trkpt lat="47.66903" lon="6.17418">
        <ele>228.7</ele>
        <time>2020-12-10T09:59:53Z</time>
      </trkpt>
      <trkpt lat="47.66908" lon="6.17414">
        <ele>228.7</ele>
        <time>2020-12-10T09:59:54Z</time>
      </trkpt>
      <trkpt lat="47.66913" lon="6.17411">
        <ele>228.8</ele>
        <time>2020-12-10T09:59:55Z</time>
      </trkpt>
      <trkpt lat="47.66918" lon="6.17408">
        <ele>228.9</ele>
        <time>2020-12-10T09:59:57Z</time>
      </trkpt>
      <trkpt lat="47.66927" lon="6.17402">
        <ele>229.5</ele>
        <time>2020-12-10T09:59:59Z</time>
      </trkpt>
      <trkpt lat="47.66934" lon="6.17398">
        <ele>229.9</ele>
        <time>2020-12-10T10:00:00Z</time>
      </trkpt>
      <trkpt lat="47.6694" lon="6.17394">
        <ele>230.3</ele>
        <time>2020-12-10T10:00:02Z</time>
      </trkpt>
      <trkpt lat="47.6695" lon="6.17388">
        <ele>231</ele>
        <time>2020-12-10T10:00:04Z</time>
      </trkpt>
      <trkpt lat="47.66963" lon="6.1738">
        <ele>231.7</ele>
        <time>2020-12-10T10:00:04Z</time>
      </trkpt>
      <trkpt lat="47.66967" lon="6.17377">
        <ele>232</ele>
        <time>2020-12-10T10:00:05Z</time>
      </trkpt>
      <trkpt lat="47.66972" lon="6.17374">
        <ele>232.3</ele>
        <time>2020-12-10T10:00:06Z</time>
      </trkpt>
      <trkpt lat="47.66977" lon="6.17371">
        <ele>232.6</ele>
        <time>2020-12-10T10:00:07Z</time>
      </trkpt>
      <trkpt lat="47.66982" lon="6.17367">
        <ele>232.8</ele>
        <time>2020-12-10T10:00:08Z</time>
      </trkpt>
      <trkpt lat="47.66987" lon="6.17364">
        <ele>233.1</ele>
        <time>2020-12-10T10:00:09Z</time>
      </trkpt>
      <trkpt lat="47.66991" lon="6.17361">
        <ele>233.3</ele>
        <time>2020-12-10T10:00:10Z</time>
      </trkpt>
      <trkpt lat="47.66996" lon="6.17357">
        <ele>233.6</ele>
        <time>2020-12-10T10:00:11Z</time>
      </trkpt>
      <trkpt lat="47.67001" lon="6.17353">
        <ele>233.8</ele>
        <time>2020-12-10T10:00:12Z</time>
      </trkpt>
      <trkpt lat="47.67005" lon="6.17349">
        <ele>234.4</ele>
        <time>2020-12-10T10:00:13Z</time>
      </trkpt>
      <trkpt lat="47.6701" lon="6.17345">
        <ele>235</ele>
        <time>2020-12-10T10:00:14Z</time>
      </trkpt>
      <trkpt lat="47.67014" lon="6.17341">
        <ele>235.6</ele>
        <time>2020-12-10T10:00:15Z</time>
      </trkpt>
      <trkpt lat="47.67018" lon="6.17337">
        <ele>236.2</ele>
        <time>2020-12-10T10:00:16Z</time>
      </trkpt>
      <trkpt lat="47.67023" lon="6.17332">
        <ele>236.7</ele>
        <time>2020-12-10T10:00:17Z</time>
      </trkpt>
      <trkpt lat="47.67027" lon="6.17327">
        <ele>237</ele>
        <time>2020-12-10T10:00:18Z</time>
      </trkpt>
      <trkpt lat="47.6703" lon="6.17322">
        <ele>237.2</ele>
        <time>2020-12-10T10:00:19Z</time>
      </trkpt>
      <trkpt lat="47.67034" lon="6.17316">
        <ele>237.1</ele>
        <time>2020-12-10T10:00:20Z</time>
      </trkpt>
      <trkpt lat="47.67037" lon="6.1731">
        <ele>237.1</ele>
        <time>2020-12-10T10:00:21Z</time>
      </trkpt>
      <trkpt lat="47.6704" lon="6.17304">
        <ele>237</ele>
        <time>2020-12-10T10:00:22Z</time>
      </trkpt>
      <trkpt lat="47.67044" lon="6.17297">
        <ele>236.8</ele>
        <time>2020-12-10T10:00:23Z</time>
      </trkpt>
      <trkpt lat="47.67047" lon="6.17291">
        <ele>236.6</ele>
        <time>2020-12-10T10:00:24Z</time>
      </trkpt>
      <trkpt lat="47.6705" lon="6.17285">
        <ele>236.3</ele>
        <time>2020-12-10T10:00:25Z</time>
      </trkpt>
      <trkpt lat="47.67053" lon="6.17278">
        <ele>235.9</ele>
        <time>2020-12-10T10:00:26Z</time>
      </trkpt>
      <trkpt lat="47.67056" lon="6.17272">
        <ele>235.5</ele>
        <time>2020-12-10T10:00:27Z</time>
      </trkpt>
      <trkpt lat="47.67059" lon="6.17265">
        <ele>235</ele>
        <time>2020-12-10T10:00:28Z</time>
      </trkpt>
      <trkpt lat="47.67062" lon="6.17257">
        <ele>234.3</ele>
        <time>2020-12-10T10:00:29Z</time>
      </trkpt>
      <trkpt lat="47.67064" lon="6.1725">
        <ele>233.6</ele>
        <time>2020-12-10T10:00:30Z</time>
      </trkpt>
      <trkpt lat="47.67066" lon="6.17243">
        <ele>233.1</ele>
        <time>2020-12-10T10:00:31Z</time>
      </trkpt>
      <trkpt lat="47.67068" lon="6.17235">
        <ele>232.5</ele>
        <time>2020-12-10T10:00:32Z</time>
      </trkpt>
      <trkpt lat="47.67069" lon="6.17228">
        <ele>231.8</ele>
        <time>2020-12-10T10:00:33Z</time>
      </trkpt>
      <trkpt lat="47.6707" lon="6.1722">
        <ele>231.1</ele>
        <time>2020-12-10T10:00:34Z</time>
      </trkpt>
      <trkpt lat="47.6707" lon="6.17213">
        <ele>230.4</ele>
        <time>2020-12-10T10:00:35Z</time>
      </trkpt>
      <trkpt lat="47.6707" lon="6.17205">
        <ele>229.7</ele>
        <time>2020-12-10T10:00:36Z</time>
      </trkpt>
      <trkpt lat="47.67069" lon="6.17198">
        <ele>229</ele>
        <time>2020-12-10T10:00:37Z</time>
      </trkpt>
      <trkpt lat="47.67069" lon="6.1719">
        <ele>228.3</ele>
        <time>2020-12-10T10:00:38Z</time>
      </trkpt>
      <trkpt lat="47.67068" lon="6.17183">
        <ele>227.6</ele>
        <time>2020-12-10T10:00:39Z</time>
      </trkpt>
      <trkpt lat="47.67068" lon="6.17176">
        <ele>226.9</ele>
        <time>2020-12-10T10:00:40Z</time>
      </trkpt>
      <trkpt lat="47.67068" lon="6.17168">
        <ele>226.2</ele>
        <time>2020-12-10T10:00:41Z</time>
      </trkpt>
      <trkpt lat="47.67067" lon="6.17161">
        <ele>226</ele>
        <time>2020-12-10T10:00:42Z</time>
      </trkpt>
      <trkpt lat="47.67067" lon="6.17154">
        <ele>226</ele>
        <time>2020-12-10T10:00:43Z</time>
      </trkpt>
      <trkpt lat="47.67066" lon="6.17147">
        <ele>226</ele>
        <time>2020-12-10T10:00:44Z</time>
      </trkpt>
      <trkpt lat="47.67066" lon="6.1714">
        <ele>226</ele>
        <time>2020-12-10T10:00:45Z</time>
      </trkpt>
      <trkpt lat="47.67065" lon="6.17133">
        <ele>226</ele>
        <time>2020-12-10T10:00:46Z</time>
      </trkpt>
      <trkpt lat="47.67065" lon="6.17126">
        <ele>226</ele>
        <time>2020-12-10T10:00:47Z</time>
      </trkpt>
      <trkpt lat="47.67064" lon="6.17119">
        <ele>226</ele>
        <time>2020-12-10T10:00:48Z</time>
      </trkpt>
      <trkpt lat="47.67064" lon="6.17112">
        <ele>226</ele>
        <time>2020-12-10T10:00:49Z</time>
      </trkpt>
      <trkpt lat="47.67063" lon="6.17104">
        <ele>226</ele>
        <time>2020-12-10T10:00:50Z</time>
      </trkpt>
      <trkpt lat="47.67063" lon="6.17097">
        <ele>226</ele>
        <time>2020-12-10T10:00:51Z</time>
      </trkpt>
      <trkpt lat="47.67062" lon="6.1709">
        <ele>226</ele>
        <time>2020-12-10T10:00:52Z</time>
      </trkpt>
      <trkpt lat="47.67062" lon="6.17082">
        <ele>226</ele>
        <time>2020-12-10T10:00:53Z</time>
      </trkpt>
      <trkpt lat="47.67061" lon="6.17074">
        <ele>226.1</ele>
        <time>2020-12-10T10:00:54Z</time>
      </trkpt>
      <trkpt lat="47.67061" lon="6.17065">
        <ele>226.1</ele>
        <time>2020-12-10T10:00:55Z</time>
      </trkpt>
      <trkpt lat="47.6706" lon="6.17057">
        <ele>226.2</ele>
        <time>2020-12-10T10:00:56Z</time>
      </trkpt>
      <trkpt lat="47.6706" lon="6.17049">
        <ele>226.2</ele>
        <time>2020-12-10T10:00:57Z</time>
      </trkpt>
      <trkpt lat="47.6706" lon="6.17041">
        <ele>226.3</ele>
        <time>2020-12-10T10:00:58Z</time>
      </trkpt>
      <trkpt lat="47.67061" lon="6.17033">
        <ele>226.3</ele>
        <time>2020-12-10T10:00:59Z</time>
      </trkpt>
      <trkpt lat="47.67062" lon="6.17026">
        <ele>226.4</ele>
        <time>2020-12-10T10:01:00Z</time>
      </trkpt>
      <trkpt lat="47.67063" lon="6.17018">
        <ele>226.4</ele>
        <time>2020-12-10T10:01:01Z</time>
      </trkpt>
      <trkpt lat="47.67064" lon="6.1701">
        <ele>226.4</ele>
        <time>2020-12-10T10:01:02Z</time>
      </trkpt>
      <trkpt lat="47.67065" lon="6.17003">
        <ele>226.4</ele>
        <time>2020-12-10T10:01:03Z</time>
      </trkpt>
      <trkpt lat="47.67066" lon="6.16995">
        <ele>226.5</ele>
        <time>2020-12-10T10:01:04Z</time>
      </trkpt>
      <trkpt lat="47.67067" lon="6.16987">
        <ele>226.5</ele>
        <time>2020-12-10T10:01:05Z</time>
      </trkpt>
      <trkpt lat="47.67068" lon="6.1698">
        <ele>226.5</ele>
        <time>2020-12-10T10:01:06Z</time>
      </trkpt>
      <trkpt lat="47.67069" lon="6.16972">
        <ele>226.6</ele>
        <time>2020-12-10T10:01:07Z</time>
      </trkpt>
      <trkpt lat="47.6707" lon="6.16964">
        <ele>226.6</ele>
        <time>2020-12-10T10:01:08Z</time>
      </trkpt>
      <trkpt lat="47.67071" lon="6.16957">
        <ele>226.6</ele>
        <time>2020-12-10T10:01:09Z</time>
      </trkpt>
      <trkpt lat="47.67072" lon="6.1695">
        <ele>226.6</ele>
        <time>2020-12-10T10:01:10Z</time>
      </trkpt>
      <trkpt lat="47.67072" lon="6.16942">
        <ele>226.6</ele>
        <time>2020-12-10T10:01:11Z</time>
      </trkpt>
      <trkpt lat="47.67072" lon="6.16935">
        <ele>226.7</ele>
        <time>2020-12-10T10:01:12Z</time>
      </trkpt>
      <trkpt lat="47.67072" lon="6.16928">
        <ele>226.7</ele>
        <time>2020-12-10T10:01:13Z</time>
      </trkpt>
      <trkpt lat="47.67071" lon="6.16921">
        <ele>226.9</ele>
        <time>2020-12-10T10:01:14Z</time>
      </trkpt>
      <trkpt lat="47.6707" lon="6.16914">
        <ele>227</ele>
        <time>2020-12-10T10:01:15Z</time>
      </trkpt>
      <trkpt lat="47.67068" lon="6.16907">
        <ele>227.2</ele>
        <time>2020-12-10T10:01:16Z</time>
      </trkpt>
      <trkpt lat="47.67065" lon="6.16901">
        <ele>227.4</ele>
        <time>2020-12-10T10:01:17Z</time>
      </trkpt>
      <trkpt lat="47.67063" lon="6.16896">
        <ele>227.6</ele>
        <time>2020-12-10T10:01:18Z</time>
      </trkpt>
      <trkpt lat="47.67059" lon="6.16891">
        <ele>227.9</ele>
        <time>2020-12-10T10:01:19Z</time>
      </trkpt>
      <trkpt lat="47.67053" lon="6.16882">
        <ele>228.3</ele>
        <time>2020-12-10T10:01:21Z</time>
      </trkpt>
      <trkpt lat="47.67048" lon="6.16873">
        <ele>228.6</ele>
        <time>2020-12-10T10:01:23Z</time>
      </trkpt>
      <trkpt lat="47.67042" lon="6.16865">
        <ele>229</ele>
        <time>2020-12-10T10:01:25Z</time>
      </trkpt>
      <trkpt lat="47.67037" lon="6.16859">
        <ele>229.3</ele>
        <time>2020-12-10T10:01:27Z</time>
      </trkpt>
      <trkpt lat="47.67032" lon="6.16854">
        <ele>229.5</ele>
        <time>2020-12-10T10:01:29Z</time>
      </trkpt>
      <trkpt lat="47.67026" lon="6.16849">
        <ele>229.8</ele>
        <time>2020-12-10T10:01:31Z</time>
      </trkpt>
      <trkpt lat="47.6702" lon="6.16842">
        <ele>230.1</ele>
        <time>2020-12-10T10:01:37Z</time>
      </trkpt>
      <trkpt lat="47.67011" lon="6.16833">
        <ele>230.5</ele>
        <time>2020-12-10T10:01:37Z</time>
      </trkpt>
      <trkpt lat="47.67004" lon="6.16827">
        <ele>230.7</ele>
        <time>2020-12-10T10:01:39Z</time>
      </trkpt>
      <trkpt lat="47.66999" lon="6.16822">
        <ele>230.8</ele>
        <time>2020-12-10T10:01:42Z</time>
      </trkpt>
      <trkpt lat="47.66994" lon="6.16818">
        <ele>230.9</ele>
        <time>2020-12-10T10:01:44Z</time>
      </trkpt>
      <trkpt lat="47.66989" lon="6.16814">
        <ele>231</ele>
        <time>2020-12-10T10:01:45Z</time>
      </trkpt>
      <trkpt lat="47.66983" lon="6.16809">
        <ele>231.1</ele>
        <time>2020-12-10T10:01:47Z</time>
      </trkpt>
      <trkpt lat="47.66975" lon="6.16802">
        <ele>231.3</ele>
        <time>2020-12-10T10:01:50Z</time>
      </trkpt>
      <trkpt lat="47.6697" lon="6.16798">
        <ele>231.4</ele>
        <time>2020-12-10T10:01:51Z</time>
      </trkpt>
      <trkpt lat="47.66963" lon="6.16792">
        <ele>231.6</ele>
        <time>2020-12-10T10:01:53Z</time>
      </trkpt>
      <trkpt lat="47.66956" lon="6.16786">
        <ele>231.7</ele>
        <time>2020-12-10T10:01:56Z</time>
      </trkpt>
      <trkpt lat="47.66952" lon="6.16781">
        <ele>231.8</ele>
        <time>2020-12-10T10:01:57Z</time>
      </trkpt>
      <trkpt lat="47.66946" lon="6.16774">
        <ele>232</ele>
        <time>2020-12-10T10:01:59Z</time>
      </trkpt>
      <trkpt lat="47.66943" lon="6.16769">
        <ele>232</ele>
        <time>2020-12-10T10:02:01Z</time>
      </trkpt>
      <trkpt lat="47.6694" lon="6.16763">
        <ele>232.1</ele>
        <time>2020-12-10T10:02:02Z</time>
      </trkpt>
      <trkpt lat="47.66937" lon="6.16757">
        <ele>232.1</ele>
        <time>2020-12-10T10:02:03Z</time>
      </trkpt>
      <trkpt lat="47.66934" lon="6.16751">
        <ele>232.2</ele>
        <time>2020-12-10T10:02:03Z</time>
      </trkpt>
      <trkpt lat="47.66931" lon="6.16742">
        <ele>232.2</ele>
        <time>2020-12-10T10:02:05Z</time>
      </trkpt>
      <trkpt lat="47.66929" lon="6.16734">
        <ele>232.3</ele>
        <time>2020-12-10T10:02:08Z</time>
      </trkpt>
      <trkpt lat="47.66928" lon="6.16723">
        <ele>232.2</ele>
        <time>2020-12-10T10:02:10Z</time>
      </trkpt>
      <trkpt lat="47.66926" lon="6.16714">
        <ele>232.2</ele>
        <time>2020-12-10T10:02:12Z</time>
      </trkpt>
      <trkpt lat="47.66925" lon="6.16706">
        <ele>232.2</ele>
        <time>2020-12-10T10:02:14Z</time>
      </trkpt>
      <trkpt lat="47.66925" lon="6.16696">
        <ele>232.1</ele>
        <time>2020-12-10T10:02:16Z</time>
      </trkpt>
      <trkpt lat="47.66925" lon="6.16689">
        <ele>232</ele>
        <time>2020-12-10T10:02:17Z</time>
      </trkpt>
      <trkpt lat="47.66926" lon="6.16676">
        <ele>231.9</ele>
        <time>2020-12-10T10:02:19Z</time>
      </trkpt>
      <trkpt lat="47.66927" lon="6.16668">
        <ele>231.8</ele>
        <time>2020-12-10T10:02:21Z</time>
      </trkpt>
      <trkpt lat="47.66929" lon="6.16658">
        <ele>231.5</ele>
        <time>2020-12-10T10:02:21Z</time>
      </trkpt>
      <trkpt lat="47.66931" lon="6.16647">
        <ele>231.3</ele>
        <time>2020-12-10T10:02:23Z</time>
      </trkpt>
      <trkpt lat="47.66933" lon="6.16638">
        <ele>231.1</ele>
        <time>2020-12-10T10:02:26Z</time>
      </trkpt>
      <trkpt lat="47.66935" lon="6.1663">
        <ele>230.9</ele>
        <time>2020-12-10T10:02:26Z</time>
      </trkpt>
      <trkpt lat="47.66936" lon="6.16619">
        <ele>230.7</ele>
        <time>2020-12-10T10:02:30Z</time>
      </trkpt>
      <trkpt lat="47.66939" lon="6.166">
        <ele>230.3</ele>
        <time>2020-12-10T10:02:31Z</time>
      </trkpt>
      <trkpt lat="47.66941" lon="6.16589">
        <ele>230.1</ele>
        <time>2020-12-10T10:02:34Z</time>
      </trkpt>
      <trkpt lat="47.66943" lon="6.16581">
        <ele>230.1</ele>
        <time>2020-12-10T10:02:34Z</time>
      </trkpt>
      <trkpt lat="47.66945" lon="6.16574">
        <ele>230.3</ele>
        <time>2020-12-10T10:02:35Z</time>
      </trkpt>
      <trkpt lat="47.66948" lon="6.16563">
        <ele>230.7</ele>
        <time>2020-12-10T10:02:38Z</time>
      </trkpt>
      <trkpt lat="47.6695" lon="6.16553">
        <ele>231.1</ele>
        <time>2020-12-10T10:02:38Z</time>
      </trkpt>
      <trkpt lat="47.66951" lon="6.16544">
        <ele>231.4</ele>
        <time>2020-12-10T10:02:41Z</time>
      </trkpt>
      <trkpt lat="47.66953" lon="6.16536">
        <ele>231.7</ele>
        <time>2020-12-10T10:02:42Z</time>
      </trkpt>
      <trkpt lat="47.66953" lon="6.16527">
        <ele>232</ele>
        <time>2020-12-10T10:02:44Z</time>
      </trkpt>
      <trkpt lat="47.66954" lon="6.16513">
        <ele>232.5</ele>
        <time>2020-12-10T10:02:44Z</time>
      </trkpt>
      <trkpt lat="47.66953" lon="6.165">
        <ele>233</ele>
        <time>2020-12-10T10:02:48Z</time>
      </trkpt>
      <trkpt lat="47.66953" lon="6.16493">
        <ele>233.3</ele>
        <time>2020-12-10T10:02:49Z</time>
      </trkpt>
      <trkpt lat="47.66954" lon="6.16481">
        <ele>233.7</ele>
        <time>2020-12-10T10:02:51Z</time>
      </trkpt>
      <trkpt lat="47.66955" lon="6.16473">
        <ele>234</ele>
        <time>2020-12-10T10:02:52Z</time>
      </trkpt>
      <trkpt lat="47.66956" lon="6.16465">
        <ele>234.3</ele>
        <time>2020-12-10T10:02:52Z</time>
      </trkpt>
      <trkpt lat="47.66958" lon="6.16455">
        <ele>234.6</ele>
        <time>2020-12-10T10:02:56Z</time>
      </trkpt>
      <trkpt lat="47.66959" lon="6.16449">
        <ele>234.8</ele>
        <time>2020-12-10T10:03:06Z</time>
      </trkpt>
      <trkpt lat="47.66962" lon="6.1644">
        <ele>235.1</ele>
        <time>2020-12-10T10:03:08Z</time>
      </trkpt>
      <trkpt lat="47.66963" lon="6.16433">
        <ele>235.3</ele>
        <time>2020-12-10T10:03:10Z</time>
      </trkpt>
      <trkpt lat="47.66964" lon="6.16426">
        <ele>235.5</ele>
        <time>2020-12-10T10:03:12Z</time>
      </trkpt>
      <trkpt lat="47.66966" lon="6.16417">
        <ele>235.8</ele>
        <time>2020-12-10T10:03:13Z</time>
      </trkpt>
      <trkpt lat="47.66968" lon="6.16409">
        <ele>236.2</ele>
        <time>2020-12-10T10:03:15Z</time>
      </trkpt>
      <trkpt lat="47.6697" lon="6.16401">
        <ele>236.5</ele>
        <time>2020-12-10T10:03:18Z</time>
      </trkpt>
      <trkpt lat="47.66972" lon="6.16394">
        <ele>236.9</ele>
        <time>2020-12-10T10:03:20Z</time>
      </trkpt>
      <trkpt lat="47.66973" lon="6.16387">
        <ele>237.2</ele>
        <time>2020-12-10T10:03:21Z</time>
      </trkpt>
      <trkpt lat="47.66974" lon="6.16377">
        <ele>237.6</ele>
        <time>2020-12-10T10:03:24Z</time>
      </trkpt>
      <trkpt lat="47.66975" lon="6.16369">
        <ele>238</ele>
        <time>2020-12-10T10:03:26Z</time>
      </trkpt>
      <trkpt lat="47.66976" lon="6.16361">
        <ele>238.3</ele>
        <time>2020-12-10T10:03:29Z</time>
      </trkpt>
      <trkpt lat="47.66977" lon="6.16355">
        <ele>238.6</ele>
        <time>2020-12-10T10:03:31Z</time>
      </trkpt>
      <trkpt lat="47.66978" lon="6.16347">
        <ele>238.9</ele>
        <time>2020-12-10T10:03:35Z</time>
      </trkpt>
      <trkpt lat="47.66978" lon="6.1634">
        <ele>239.3</ele>
        <time>2020-12-10T10:03:37Z</time>
      </trkpt>
      <trkpt lat="47.66978" lon="6.16332">
        <ele>239.6</ele>
        <time>2020-12-10T10:03:41Z</time>
      </trkpt>
      <trkpt lat="47.66977" lon="6.16324">
        <ele>239.9</ele>
        <time>2020-12-10T10:03:45Z</time>
      </trkpt>
      <trkpt lat="47.66976" lon="6.16318">
        <ele>240.2</ele>
        <time>2020-12-10T10:03:48Z</time>
      </trkpt>
      <trkpt lat="47.66976" lon="6.16311">
        <ele>240.4</ele>
        <time>2020-12-10T10:03:51Z</time>
      </trkpt>
      <trkpt lat="47.66976" lon="6.16303">
        <ele>240.7</ele>
        <time>2020-12-10T10:03:55Z</time>
      </trkpt>
      <trkpt lat="47.66974" lon="6.16296">
        <ele>241</ele>
        <time>2020-12-10T10:03:58Z</time>
      </trkpt>
      <trkpt lat="47.66972" lon="6.1629">
        <ele>241.2</ele>
        <time>2020-12-10T10:04:02Z</time>
      </trkpt>
      <trkpt lat="47.6697" lon="6.16282">
        <ele>241.5</ele>
        <time>2020-12-10T10:04:05Z</time>
      </trkpt>
      <trkpt lat="47.66968" lon="6.16275">
        <ele>241.8</ele>
        <time>2020-12-10T10:04:08Z</time>
      </trkpt>
      <trkpt lat="47.66967" lon="6.16265">
        <ele>242</ele>
        <time>2020-12-10T10:04:12Z</time>
      </trkpt>
      <trkpt lat="47.66965" lon="6.16257">
        <ele>242.2</ele>
        <time>2020-12-10T10:04:14Z</time>
      </trkpt>
      <trkpt lat="47.66966" lon="6.16248">
        <ele>242.5</ele>
        <time>2020-12-10T10:04:17Z</time>
      </trkpt>
      <trkpt lat="47.66966" lon="6.16241">
        <ele>242.8</ele>
        <time>2020-12-10T10:04:20Z</time>
      </trkpt>
      <trkpt lat="47.66967" lon="6.16232">
        <ele>243.2</ele>
        <time>2020-12-10T10:04:23Z</time>
      </trkpt>
      <trkpt lat="47.66968" lon="6.16224">
        <ele>243.5</ele>
        <time>2020-12-10T10:04:26Z</time>
      </trkpt>
      <trkpt lat="47.66969" lon="6.16218">
        <ele>243.8</ele>
        <time>2020-12-10T10:04:29Z</time>
      </trkpt>
      <trkpt lat="47.66971" lon="6.16211">
        <ele>244.1</ele>
        <time>2020-12-10T10:04:31Z</time>
      </trkpt>
      <trkpt lat="47.66973" lon="6.16204">
        <ele>244.3</ele>
        <time>2020-12-10T10:04:34Z</time>
      </trkpt>
      <trkpt lat="47.66975" lon="6.16197">
        <ele>244.6</ele>
        <time>2020-12-10T10:04:37Z</time>
      </trkpt>
      <trkpt lat="47.66977" lon="6.1619">
        <ele>244.9</ele>
        <time>2020-12-10T10:04:40Z</time>
      </trkpt>
      <trkpt lat="47.66979" lon="6.16183">
        <ele>245.2</ele>
        <time>2020-12-10T10:04:43Z</time>
      </trkpt>
      <trkpt lat="47.6698" lon="6.16177">
        <ele>245.5</ele>
        <time>2020-12-10T10:04:46Z</time>
      </trkpt>
      <trkpt lat="47.66983" lon="6.1617">
        <ele>245.8</ele>
        <time>2020-12-10T10:04:50Z</time>
      </trkpt>
      <trkpt lat="47.66985" lon="6.16163">
        <ele>246.3</ele>
        <time>2020-12-10T10:04:52Z</time>
      </trkpt>
      <trkpt lat="47.66987" lon="6.16156">
        <ele>246.8</ele>
        <time>2020-12-10T10:04:55Z</time>
      </trkpt>
      <trkpt lat="47.66989" lon="6.16148">
        <ele>247.3</ele>
        <time>2020-12-10T10:04:58Z</time>
      </trkpt>
      <trkpt lat="47.6699" lon="6.16141">
        <ele>247.8</ele>
        <time>2020-12-10T10:05:01Z</time>
      </trkpt>
      <trkpt lat="47.66991" lon="6.16134">
        <ele>248.3</ele>
        <time>2020-12-10T10:05:04Z</time>
      </trkpt>
      <trkpt lat="47.66993" lon="6.16126">
        <ele>248.9</ele>
        <time>2020-12-10T10:05:09Z</time>
      </trkpt>
      <trkpt lat="47.66994" lon="6.16119">
        <ele>249.4</ele>
        <time>2020-12-10T10:05:11Z</time>
      </trkpt>
      <trkpt lat="47.66995" lon="6.16111">
        <ele>250</ele>
        <time>2020-12-10T10:05:15Z</time>
      </trkpt>
      <trkpt lat="47.66996" lon="6.16101">
        <ele>250.7</ele>
        <time>2020-12-10T10:05:18Z</time>
      </trkpt>
      <trkpt lat="47.66996" lon="6.16094">
        <ele>251.2</ele>
        <time>2020-12-10T10:05:21Z</time>
      </trkpt>
      <trkpt lat="47.66997" lon="6.16086">
        <ele>251.7</ele>
        <time>2020-12-10T10:05:24Z</time>
      </trkpt>
      <trkpt lat="47.66996" lon="6.16079">
        <ele>252.1</ele>
        <time>2020-12-10T10:05:27Z</time>
      </trkpt>
      <trkpt lat="47.66997" lon="6.1607">
        <ele>252.4</ele>
        <time>2020-12-10T10:05:31Z</time>
      </trkpt>
      <trkpt lat="47.66996" lon="6.16063">
        <ele>252.7</ele>
        <time>2020-12-10T10:05:34Z</time>
      </trkpt>
      <trkpt lat="47.66995" lon="6.16057">
        <ele>252.9</ele>
        <time>2020-12-10T10:05:36Z</time>
      </trkpt>
      <trkpt lat="47.66994" lon="6.16049">
        <ele>253.2</ele>
        <time>2020-12-10T10:05:39Z</time>
      </trkpt>
      <trkpt lat="47.66994" lon="6.1604">
        <ele>253.4</ele>
        <time>2020-12-10T10:05:42Z</time>
      </trkpt>
      <trkpt lat="47.66993" lon="6.16032">
        <ele>253.7</ele>
        <time>2020-12-10T10:05:45Z</time>
      </trkpt>
      <trkpt lat="47.66992" lon="6.16025">
        <ele>254</ele>
        <time>2020-12-10T10:05:48Z</time>
      </trkpt>
      <trkpt lat="47.66992" lon="6.16018">
        <ele>254.2</ele>
        <time>2020-12-10T10:05:52Z</time>
      </trkpt>
      <trkpt lat="47.66992" lon="6.16011">
        <ele>254.4</ele>
        <time>2020-12-10T10:05:54Z</time>
      </trkpt>
      <trkpt lat="47.66991" lon="6.16002">
        <ele>254.7</ele>
        <time>2020-12-10T10:05:57Z</time>
      </trkpt>
      <trkpt lat="47.66991" lon="6.15995">
        <ele>254.8</ele>
        <time>2020-12-10T10:06:00Z</time>
      </trkpt>
      <trkpt lat="47.6699" lon="6.15987">
        <ele>254.8</ele>
        <time>2020-12-10T10:06:03Z</time>
      </trkpt>
      <trkpt lat="47.66989" lon="6.1598">
        <ele>254.9</ele>
        <time>2020-12-10T10:06:06Z</time>
      </trkpt>
      <trkpt lat="47.66988" lon="6.15972">
        <ele>254.9</ele>
        <time>2020-12-10T10:06:09Z</time>
      </trkpt>
      <trkpt lat="47.66987" lon="6.15963">
        <ele>255</ele>
        <time>2020-12-10T10:06:13Z</time>
      </trkpt>
      <trkpt lat="47.66986" lon="6.15955">
        <ele>255</ele>
        <time>2020-12-10T10:06:15Z</time>
      </trkpt>
      <trkpt lat="47.66985" lon="6.15947">
        <ele>255.1</ele>
        <time>2020-12-10T10:06:18Z</time>
      </trkpt>
      <trkpt lat="47.66984" lon="6.15938">
        <ele>255.2</ele>
        <time>2020-12-10T10:06:22Z</time>
      </trkpt>
      <trkpt lat="47.66984" lon="6.1593">
        <ele>255.3</ele>
        <time>2020-12-10T10:06:25Z</time>
      </trkpt>
      <trkpt lat="47.66983" lon="6.15922">
        <ele>255.4</ele>
        <time>2020-12-10T10:06:28Z</time>
      </trkpt>
      <trkpt lat="47.66982" lon="6.15913">
        <ele>255.6</ele>
        <time>2020-12-10T10:06:31Z</time>
      </trkpt>
      <trkpt lat="47.66982" lon="6.15905">
        <ele>255.9</ele>
        <time>2020-12-10T10:06:34Z</time>
      </trkpt>
      <trkpt lat="47.66982" lon="6.15897">
        <ele>256.2</ele>
        <time>2020-12-10T10:06:37Z</time>
      </trkpt>
      <trkpt lat="47.66981" lon="6.15889">
        <ele>256.5</ele>
        <time>2020-12-10T10:06:41Z</time>
      </trkpt>
      <trkpt lat="47.66981" lon="6.15882">
        <ele>256.8</ele>
        <time>2020-12-10T10:06:44Z</time>
      </trkpt>
      <trkpt lat="47.6698" lon="6.15875">
        <ele>257.1</ele>
        <time>2020-12-10T10:06:47Z</time>
      </trkpt>
      <trkpt lat="47.66979" lon="6.15868">
        <ele>257.4</ele>
        <time>2020-12-10T10:06:49Z</time>
      </trkpt>
      <trkpt lat="47.66978" lon="6.15861">
        <ele>257.7</ele>
        <time>2020-12-10T10:06:52Z</time>
      </trkpt>
      <trkpt lat="47.66978" lon="6.15854">
        <ele>258</ele>
        <time>2020-12-10T10:06:55Z</time>
      </trkpt>
      <trkpt lat="47.66977" lon="6.15845">
        <ele>258.4</ele>
        <time>2020-12-10T10:06:59Z</time>
      </trkpt>
      <trkpt lat="47.66976" lon="6.15838">
        <ele>258.7</ele>
        <time>2020-12-10T10:07:01Z</time>
      </trkpt>
      <trkpt lat="47.66976" lon="6.15829">
        <ele>259</ele>
        <time>2020-12-10T10:07:04Z</time>
      </trkpt>
      <trkpt lat="47.66975" lon="6.1582">
        <ele>259.1</ele>
        <time>2020-12-10T10:07:07Z</time>
      </trkpt>
      <trkpt lat="47.66974" lon="6.15811">
        <ele>259.3</ele>
        <time>2020-12-10T10:07:10Z</time>
      </trkpt>
      <trkpt lat="47.66972" lon="6.15803">
        <ele>259.5</ele>
        <time>2020-12-10T10:07:13Z</time>
      </trkpt>
      <trkpt lat="47.66971" lon="6.15795">
        <ele>259.6</ele>
        <time>2020-12-10T10:07:16Z</time>
      </trkpt>
      <trkpt lat="47.66971" lon="6.15785">
        <ele>259.8</ele>
        <time>2020-12-10T10:07:19Z</time>
      </trkpt>
      <trkpt lat="47.6697" lon="6.15777">
        <ele>259.9</ele>
        <time>2020-12-10T10:07:22Z</time>
      </trkpt>
      <trkpt lat="47.6697" lon="6.15768">
        <ele>260.1</ele>
        <time>2020-12-10T10:07:25Z</time>
      </trkpt>
      <trkpt lat="47.6697" lon="6.15759">
        <ele>260.2</ele>
        <time>2020-12-10T10:07:28Z</time>
      </trkpt>
      <trkpt lat="47.66969" lon="6.1575">
        <ele>260.4</ele>
        <time>2020-12-10T10:07:31Z</time>
      </trkpt>
      <trkpt lat="47.66969" lon="6.1574">
        <ele>260.3</ele>
        <time>2020-12-10T10:07:34Z</time>
      </trkpt>
      <trkpt lat="47.66968" lon="6.15733">
        <ele>260.3</ele>
        <time>2020-12-10T10:07:36Z</time>
      </trkpt>
      <trkpt lat="47.66968" lon="6.15726">
        <ele>260.2</ele>
        <time>2020-12-10T10:07:39Z</time>
      </trkpt>
      <trkpt lat="47.66967" lon="6.15718">
        <ele>260.2</ele>
        <time>2020-12-10T10:07:41Z</time>
      </trkpt>
      <trkpt lat="47.66967" lon="6.15708">
        <ele>260.1</ele>
        <time>2020-12-10T10:07:44Z</time>
      </trkpt>
      <trkpt lat="47.66966" lon="6.15699">
        <ele>260</ele>
        <time>2020-12-10T10:07:47Z</time>
      </trkpt>
      <trkpt lat="47.66965" lon="6.15692">
        <ele>260</ele>
        <time>2020-12-10T10:07:49Z</time>
      </trkpt>
      <trkpt lat="47.66965" lon="6.15682">
        <ele>259.9</ele>
        <time>2020-12-10T10:07:52Z</time>
      </trkpt>
      <trkpt lat="47.66965" lon="6.15675">
        <ele>259.9</ele>
        <time>2020-12-10T10:07:54Z</time>
      </trkpt>
      <trkpt lat="47.66964" lon="6.15668">
        <ele>259.9</ele>
        <time>2020-12-10T10:07:56Z</time>
      </trkpt>
      <trkpt lat="47.66963" lon="6.15661">
        <ele>259.9</ele>
        <time>2020-12-10T10:07:58Z</time>
      </trkpt>
      <trkpt lat="47.66963" lon="6.15651">
        <ele>259.9</ele>
        <time>2020-12-10T10:08:01Z</time>
      </trkpt>
      <trkpt lat="47.66962" lon="6.15644">
        <ele>259.9</ele>
        <time>2020-12-10T10:08:03Z</time>
      </trkpt>
      <trkpt lat="47.66962" lon="6.15637">
        <ele>259.9</ele>
        <time>2020-12-10T10:08:05Z</time>
      </trkpt>
      <trkpt lat="47.66961" lon="6.15631">
        <ele>260</ele>
        <time>2020-12-10T10:08:07Z</time>
      </trkpt>
      <trkpt lat="47.6696" lon="6.15623">
        <ele>260</ele>
        <time>2020-12-10T10:08:10Z</time>
      </trkpt>
      <trkpt lat="47.6696" lon="6.15613">
        <ele>260</ele>
        <time>2020-12-10T10:08:12Z</time>
      </trkpt>
      <trkpt lat="47.66959" lon="6.15604">
        <ele>260</ele>
        <time>2020-12-10T10:08:15Z</time>
      </trkpt>
      <trkpt lat="47.66957" lon="6.15595">
        <ele>260</ele>
        <time>2020-12-10T10:08:17Z</time>
      </trkpt>
      <trkpt lat="47.66957" lon="6.15586">
        <ele>260</ele>
        <time>2020-12-10T10:08:19Z</time>
      </trkpt>
      <trkpt lat="47.66956" lon="6.15576">
        <ele>259.9</ele>
        <time>2020-12-10T10:08:21Z</time>
      </trkpt>
      <trkpt lat="47.66956" lon="6.15564">
        <ele>259.9</ele>
        <time>2020-12-10T10:08:23Z</time>
      </trkpt>
      <trkpt lat="47.66956" lon="6.15556">
        <ele>259.8</ele>
        <time>2020-12-10T10:08:24Z</time>
      </trkpt>
      <trkpt lat="47.66955" lon="6.15546">
        <ele>259.7</ele>
        <time>2020-12-10T10:08:26Z</time>
      </trkpt>
      <trkpt lat="47.66955" lon="6.15538">
        <ele>259.6</ele>
        <time>2020-12-10T10:08:27Z</time>
      </trkpt>
      <trkpt lat="47.66953" lon="6.15508">
        <ele>259.2</ele>
        <time>2020-12-10T10:08:28Z</time>
      </trkpt>
      <trkpt lat="47.66952" lon="6.15495">
        <ele>259</ele>
        <time>2020-12-10T10:08:29Z</time>
      </trkpt>
      <trkpt lat="47.66952" lon="6.15483">
        <ele>258.8</ele>
        <time>2020-12-10T10:08:30Z</time>
      </trkpt>
      <trkpt lat="47.66951" lon="6.1547">
        <ele>258.6</ele>
        <time>2020-12-10T10:08:31Z</time>
      </trkpt>
      <trkpt lat="47.66951" lon="6.15458">
        <ele>258.3</ele>
        <time>2020-12-10T10:08:32Z</time>
      </trkpt>
      <trkpt lat="47.66951" lon="6.15447">
        <ele>258.1</ele>
        <time>2020-12-10T10:08:33Z</time>
      </trkpt>
      <trkpt lat="47.66951" lon="6.15435">
        <ele>257.9</ele>
        <time>2020-12-10T10:08:34Z</time>
      </trkpt>
      <trkpt lat="47.6695" lon="6.15424">
        <ele>257.7</ele>
        <time>2020-12-10T10:08:35Z</time>
      </trkpt>
      <trkpt lat="47.6695" lon="6.15414">
        <ele>257.7</ele>
        <time>2020-12-10T10:08:36Z</time>
      </trkpt>
      <trkpt lat="47.6695" lon="6.15404">
        <ele>258</ele>
        <time>2020-12-10T10:08:37Z</time>
      </trkpt>
      <trkpt lat="47.66949" lon="6.15394">
        <ele>258.2</ele>
        <time>2020-12-10T10:08:38Z</time>
      </trkpt>
      <trkpt lat="47.66948" lon="6.15386">
        <ele>258.4</ele>
        <time>2020-12-10T10:08:39Z</time>
      </trkpt>
      <trkpt lat="47.66948" lon="6.15378">
        <ele>258.7</ele>
        <time>2020-12-10T10:08:40Z</time>
      </trkpt>
      <trkpt lat="47.66948" lon="6.15371">
        <ele>258.9</ele>
        <time>2020-12-10T10:08:41Z</time>
      </trkpt>
      <trkpt lat="47.66947" lon="6.15358">
        <ele>259.2</ele>
        <time>2020-12-10T10:08:43Z</time>
      </trkpt>
      <trkpt lat="47.66946" lon="6.15349">
        <ele>259.5</ele>
        <time>2020-12-10T10:08:45Z</time>
      </trkpt>
      <trkpt lat="47.66946" lon="6.1534">
        <ele>259.8</ele>
        <time>2020-12-10T10:08:47Z</time>
      </trkpt>
      <trkpt lat="47.66945" lon="6.15334">
        <ele>260</ele>
        <time>2020-12-10T10:08:49Z</time>
      </trkpt>
      <trkpt lat="47.66944" lon="6.15322">
        <ele>260.3</ele>
        <time>2020-12-10T10:08:53Z</time>
      </trkpt>
      <trkpt lat="47.66941" lon="6.15311">
        <ele>260.7</ele>
        <time>2020-12-10T10:08:55Z</time>
      </trkpt>
      <trkpt lat="47.6694" lon="6.15302">
        <ele>261</ele>
        <time>2020-12-10T10:08:57Z</time>
      </trkpt>
      <trkpt lat="47.66937" lon="6.15292">
        <ele>261.4</ele>
        <time>2020-12-10T10:08:59Z</time>
      </trkpt>
      <trkpt lat="47.66935" lon="6.15284">
        <ele>261.7</ele>
        <time>2020-12-10T10:09:02Z</time>
      </trkpt>
      <trkpt lat="47.66933" lon="6.15275">
        <ele>262.1</ele>
        <time>2020-12-10T10:09:03Z</time>
      </trkpt>
      <trkpt lat="47.6693" lon="6.15267">
        <ele>262.6</ele>
        <time>2020-12-10T10:09:05Z</time>
      </trkpt>
      <trkpt lat="47.66927" lon="6.1526">
        <ele>263</ele>
        <time>2020-12-10T10:09:07Z</time>
      </trkpt>
      <trkpt lat="47.66925" lon="6.15252">
        <ele>263.5</ele>
        <time>2020-12-10T10:09:09Z</time>
      </trkpt>
      <trkpt lat="47.66923" lon="6.15243">
        <ele>263.7</ele>
        <time>2020-12-10T10:09:11Z</time>
      </trkpt>
      <trkpt lat="47.66921" lon="6.15236">
        <ele>263.9</ele>
        <time>2020-12-10T10:09:13Z</time>
      </trkpt>
      <trkpt lat="47.66919" lon="6.15229">
        <ele>264.1</ele>
        <time>2020-12-10T10:09:15Z</time>
      </trkpt>
      <trkpt lat="47.66918" lon="6.15221">
        <ele>264.3</ele>
        <time>2020-12-10T10:09:17Z</time>
      </trkpt>
      <trkpt lat="47.66917" lon="6.15213">
        <ele>264.4</ele>
        <time>2020-12-10T10:09:19Z</time>
      </trkpt>
      <trkpt lat="47.66919" lon="6.15206">
        <ele>264.4</ele>
        <time>2020-12-10T10:09:21Z</time>
      </trkpt>
      <trkpt lat="47.6692" lon="6.15195">
        <ele>264.6</ele>
        <time>2020-12-10T10:09:23Z</time>
      </trkpt>
      <trkpt lat="47.66923" lon="6.15187">
        <ele>264.5</ele>
        <time>2020-12-10T10:09:27Z</time>
      </trkpt>
      <trkpt lat="47.66927" lon="6.15182">
        <ele>264.5</ele>
        <time>2020-12-10T10:09:28Z</time>
      </trkpt>
      <trkpt lat="47.6693" lon="6.15176">
        <ele>264.5</ele>
        <time>2020-12-10T10:09:30Z</time>
      </trkpt>
      <trkpt lat="47.66932" lon="6.15169">
        <ele>264.6</ele>
        <time>2020-12-10T10:09:33Z</time>
      </trkpt>
      <trkpt lat="47.66935" lon="6.15163">
        <ele>264.5</ele>
        <time>2020-12-10T10:09:34Z</time>
      </trkpt>
      <trkpt lat="47.66937" lon="6.15156">
        <ele>264.3</ele>
        <time>2020-12-10T10:09:35Z</time>
      </trkpt>
      <trkpt lat="47.66942" lon="6.15149">
        <ele>264.1</ele>
        <time>2020-12-10T10:09:38Z</time>
      </trkpt>
      <trkpt lat="47.66947" lon="6.15146">
        <ele>264.1</ele>
        <time>2020-12-10T10:09:39Z</time>
      </trkpt>
      <trkpt lat="47.66952" lon="6.15144">
        <ele>264</ele>
        <time>2020-12-10T10:09:40Z</time>
      </trkpt>
      <trkpt lat="47.66956" lon="6.15143">
        <ele>264</ele>
        <time>2020-12-10T10:09:42Z</time>
      </trkpt>
      <trkpt lat="47.66963" lon="6.15146">
        <ele>264</ele>
        <time>2020-12-10T10:09:43Z</time>
      </trkpt>
      <trkpt lat="47.66967" lon="6.15148">
        <ele>263.9</ele>
        <time>2020-12-10T10:09:45Z</time>
      </trkpt>
      <trkpt lat="47.66972" lon="6.1515">
        <ele>263.9</ele>
        <time>2020-12-10T10:09:47Z</time>
      </trkpt>
      <trkpt lat="47.66977" lon="6.15154">
        <ele>263.8</ele>
        <time>2020-12-10T10:09:50Z</time>
      </trkpt>
      <trkpt lat="47.66982" lon="6.15157">
        <ele>263.6</ele>
        <time>2020-12-10T10:09:52Z</time>
      </trkpt>
      <trkpt lat="47.66987" lon="6.15161">
        <ele>263.5</ele>
        <time>2020-12-10T10:09:53Z</time>
      </trkpt>
      <trkpt lat="47.66992" lon="6.15162">
        <ele>263.3</ele>
        <time>2020-12-10T10:09:55Z</time>
      </trkpt>
      <trkpt lat="47.66998" lon="6.15164">
        <ele>263.2</ele>
        <time>2020-12-10T10:09:57Z</time>
      </trkpt>
      <trkpt lat="47.67006" lon="6.15165">
        <ele>262.9</ele>
        <time>2020-12-10T10:09:58Z</time>
      </trkpt>
      <trkpt lat="47.67013" lon="6.15164">
        <ele>262.8</ele>
        <time>2020-12-10T10:10:00Z</time>
      </trkpt>
      <trkpt lat="47.6702" lon="6.15163">
        <ele>262.7</ele>
        <time>2020-12-10T10:10:01Z</time>
      </trkpt>
      <trkpt lat="47.67028" lon="6.15161">
        <ele>262.6</ele>
        <time>2020-12-10T10:10:03Z</time>
      </trkpt>
      <trkpt lat="47.67036" lon="6.15159">
        <ele>262.5</ele>
        <time>2020-12-10T10:10:05Z</time>
      </trkpt>
      <trkpt lat="47.67045" lon="6.15158">
        <ele>262.4</ele>
        <time>2020-12-10T10:10:07Z</time>
      </trkpt>
      <trkpt lat="47.6705" lon="6.15157">
        <ele>262.3</ele>
        <time>2020-12-10T10:10:08Z</time>
      </trkpt>
      <trkpt lat="47.67056" lon="6.15155">
        <ele>262.3</ele>
        <time>2020-12-10T10:10:10Z</time>
      </trkpt>
      <trkpt lat="47.67062" lon="6.15154">
        <ele>262.2</ele>
        <time>2020-12-10T10:10:12Z</time>
      </trkpt>
      <trkpt lat="47.67069" lon="6.15152">
        <ele>262.2</ele>
        <time>2020-12-10T10:10:13Z</time>
      </trkpt>
      <trkpt lat="47.67074" lon="6.1515">
        <ele>262.2</ele>
        <time>2020-12-10T10:10:14Z</time>
      </trkpt>
      <trkpt lat="47.67078" lon="6.15149">
        <ele>262.1</ele>
        <time>2020-12-10T10:10:16Z</time>
      </trkpt>
      <trkpt lat="47.67084" lon="6.15147">
        <ele>262.2</ele>
        <time>2020-12-10T10:10:18Z</time>
      </trkpt>
      <trkpt lat="47.6709" lon="6.15146">
        <ele>262.2</ele>
        <time>2020-12-10T10:10:19Z</time>
      </trkpt>
      <trkpt lat="47.67096" lon="6.15144">
        <ele>262.2</ele>
        <time>2020-12-10T10:10:21Z</time>
      </trkpt>
      <trkpt lat="47.67101" lon="6.15142">
        <ele>262.3</ele>
        <time>2020-12-10T10:10:23Z</time>
      </trkpt>
      <trkpt lat="47.67106" lon="6.1514">
        <ele>262.3</ele>
        <time>2020-12-10T10:10:25Z</time>
      </trkpt>
      <trkpt lat="47.67113" lon="6.15138">
        <ele>262.4</ele>
        <time>2020-12-10T10:10:27Z</time>
      </trkpt>
      <trkpt lat="47.67117" lon="6.15136">
        <ele>262.4</ele>
        <time>2020-12-10T10:10:28Z</time>
      </trkpt>
      <trkpt lat="47.67122" lon="6.15134">
        <ele>262.5</ele>
        <time>2020-12-10T10:10:30Z</time>
      </trkpt>
      <trkpt lat="47.67128" lon="6.15133">
        <ele>262.5</ele>
        <time>2020-12-10T10:10:31Z</time>
      </trkpt>
      <trkpt lat="47.67134" lon="6.1513">
        <ele>262.6</ele>
        <time>2020-12-10T10:10:33Z</time>
      </trkpt>
      <trkpt lat="47.6714" lon="6.15128">
        <ele>262.7</ele>
        <time>2020-12-10T10:10:35Z</time>
      </trkpt>
      <trkpt lat="47.67144" lon="6.15126">
        <ele>262.7</ele>
        <time>2020-12-10T10:10:36Z</time>
      </trkpt>
      <trkpt lat="47.67149" lon="6.15123">
        <ele>262.8</ele>
        <time>2020-12-10T10:10:38Z</time>
      </trkpt>
      <trkpt lat="47.67153" lon="6.15121">
        <ele>262.9</ele>
        <time>2020-12-10T10:10:40Z</time>
      </trkpt>
      <trkpt lat="47.67158" lon="6.15118">
        <ele>263</ele>
        <time>2020-12-10T10:10:41Z</time>
      </trkpt>
      <trkpt lat="47.67165" lon="6.15114">
        <ele>263.2</ele>
        <time>2020-12-10T10:10:44Z</time>
      </trkpt>
      <trkpt lat="47.67171" lon="6.15108">
        <ele>263.3</ele>
        <time>2020-12-10T10:10:45Z</time>
      </trkpt>
      <trkpt lat="47.67175" lon="6.15104">
        <ele>263.4</ele>
        <time>2020-12-10T10:10:47Z</time>
      </trkpt>
      <trkpt lat="47.67182" lon="6.15099">
        <ele>263.4</ele>
        <time>2020-12-10T10:10:50Z</time>
      </trkpt>
      <trkpt lat="47.67187" lon="6.15094">
        <ele>263.4</ele>
        <time>2020-12-10T10:10:51Z</time>
      </trkpt>
      <trkpt lat="47.67191" lon="6.1509">
        <ele>263.4</ele>
        <time>2020-12-10T10:10:52Z</time>
      </trkpt>
      <trkpt lat="47.67197" lon="6.15085">
        <ele>263.5</ele>
        <time>2020-12-10T10:10:54Z</time>
      </trkpt>
      <trkpt lat="47.67204" lon="6.15079">
        <ele>263.2</ele>
        <time>2020-12-10T10:10:56Z</time>
      </trkpt>
      <trkpt lat="47.67209" lon="6.15075">
        <ele>263</ele>
        <time>2020-12-10T10:10:58Z</time>
      </trkpt>
      <trkpt lat="47.67216" lon="6.15068">
        <ele>262.6</ele>
        <time>2020-12-10T10:11:00Z</time>
      </trkpt>
      <trkpt lat="47.6722" lon="6.15065">
        <ele>262.4</ele>
        <time>2020-12-10T10:11:01Z</time>
      </trkpt>
      <trkpt lat="47.67224" lon="6.1506">
        <ele>262.1</ele>
        <time>2020-12-10T10:11:02Z</time>
      </trkpt>
      <trkpt lat="47.67229" lon="6.15056">
        <ele>261.9</ele>
        <time>2020-12-10T10:11:04Z</time>
      </trkpt>
      <trkpt lat="47.67234" lon="6.15051">
        <ele>261.5</ele>
        <time>2020-12-10T10:11:05Z</time>
      </trkpt>
      <trkpt lat="47.67241" lon="6.15045">
        <ele>261.1</ele>
        <time>2020-12-10T10:11:07Z</time>
      </trkpt>
      <trkpt lat="47.67253" lon="6.15034">
        <ele>260.4</ele>
        <time>2020-12-10T10:11:09Z</time>
      </trkpt>
      <trkpt lat="47.67261" lon="6.15027">
        <ele>260.3</ele>
        <time>2020-12-10T10:11:10Z</time>
      </trkpt>
      <trkpt lat="47.67266" lon="6.15022">
        <ele>260.3</ele>
        <time>2020-12-10T10:11:11Z</time>
      </trkpt>
      <trkpt lat="47.67271" lon="6.15018">
        <ele>260.3</ele>
        <time>2020-12-10T10:11:12Z</time>
      </trkpt>
      <trkpt lat="47.67276" lon="6.15013">
        <ele>260.3</ele>
        <time>2020-12-10T10:11:13Z</time>
      </trkpt>
      <trkpt lat="47.6728" lon="6.15009">
        <ele>260.4</ele>
        <time>2020-12-10T10:11:14Z</time>
      </trkpt>
      <trkpt lat="47.67285" lon="6.15005">
        <ele>260.4</ele>
        <time>2020-12-10T10:11:15Z</time>
      </trkpt>
      <trkpt lat="47.67289" lon="6.15001">
        <ele>260.5</ele>
        <time>2020-12-10T10:11:16Z</time>
      </trkpt>
      <trkpt lat="47.67294" lon="6.14997">
        <ele>260.6</ele>
        <time>2020-12-10T10:11:17Z</time>
      </trkpt>
      <trkpt lat="47.67298" lon="6.14994">
        <ele>260.9</ele>
        <time>2020-12-10T10:11:18Z</time>
      </trkpt>
      <trkpt lat="47.67303" lon="6.1499">
        <ele>261.1</ele>
        <time>2020-12-10T10:11:19Z</time>
      </trkpt>
      <trkpt lat="47.67307" lon="6.14986">
        <ele>261.4</ele>
        <time>2020-12-10T10:11:20Z</time>
      </trkpt>
      <trkpt lat="47.67312" lon="6.14982">
        <ele>261.7</ele>
        <time>2020-12-10T10:11:21Z</time>
      </trkpt>
      <trkpt lat="47.67316" lon="6.14978">
        <ele>262.1</ele>
        <time>2020-12-10T10:11:22Z</time>
      </trkpt>
      <trkpt lat="47.6732" lon="6.14974">
        <ele>262.4</ele>
        <time>2020-12-10T10:11:23Z</time>
      </trkpt>
      <trkpt lat="47.67325" lon="6.14971">
        <ele>262.8</ele>
        <time>2020-12-10T10:11:24Z</time>
      </trkpt>
      <trkpt lat="47.67329" lon="6.14967">
        <ele>263.2</ele>
        <time>2020-12-10T10:11:25Z</time>
      </trkpt>
      <trkpt lat="47.67333" lon="6.14963">
        <ele>263.6</ele>
        <time>2020-12-10T10:11:26Z</time>
      </trkpt>
      <trkpt lat="47.67337" lon="6.14959">
        <ele>263.7</ele>
        <time>2020-12-10T10:11:27Z</time>
      </trkpt>
      <trkpt lat="47.67341" lon="6.14956">
        <ele>263.8</ele>
        <time>2020-12-10T10:11:28Z</time>
      </trkpt>
      <trkpt lat="47.67349" lon="6.14949">
        <ele>263.9</ele>
        <time>2020-12-10T10:11:30Z</time>
      </trkpt>
      <trkpt lat="47.67355" lon="6.14942">
        <ele>264.1</ele>
        <time>2020-12-10T10:11:32Z</time>
      </trkpt>
      <trkpt lat="47.67361" lon="6.14938">
        <ele>264.2</ele>
        <time>2020-12-10T10:11:34Z</time>
      </trkpt>
      <trkpt lat="47.67367" lon="6.14931">
        <ele>264.4</ele>
        <time>2020-12-10T10:11:36Z</time>
      </trkpt>
      <trkpt lat="47.67372" lon="6.14924">
        <ele>264.6</ele>
        <time>2020-12-10T10:11:38Z</time>
      </trkpt>
      <trkpt lat="47.67377" lon="6.14918">
        <ele>264.8</ele>
        <time>2020-12-10T10:11:39Z</time>
      </trkpt>
      <trkpt lat="47.67382" lon="6.14915">
        <ele>265</ele>
        <time>2020-12-10T10:11:42Z</time>
      </trkpt>
      <trkpt lat="47.67387" lon="6.1491">
        <ele>265.5</ele>
        <time>2020-12-10T10:11:43Z</time>
      </trkpt>
      <trkpt lat="47.6739" lon="6.14905">
        <ele>266</ele>
        <time>2020-12-10T10:11:45Z</time>
      </trkpt>
      <trkpt lat="47.67394" lon="6.14901">
        <ele>266.4</ele>
        <time>2020-12-10T10:11:47Z</time>
      </trkpt>
      <trkpt lat="47.67398" lon="6.14897">
        <ele>266.8</ele>
        <time>2020-12-10T10:11:48Z</time>
      </trkpt>
      <trkpt lat="47.67403" lon="6.14891">
        <ele>267.3</ele>
        <time>2020-12-10T10:11:50Z</time>
      </trkpt>
      <trkpt lat="47.67408" lon="6.14888">
        <ele>267.6</ele>
        <time>2020-12-10T10:11:52Z</time>
      </trkpt>
      <trkpt lat="47.67413" lon="6.14884">
        <ele>268</ele>
        <time>2020-12-10T10:11:53Z</time>
      </trkpt>
      <trkpt lat="47.67417" lon="6.1488">
        <ele>268.2</ele>
        <time>2020-12-10T10:11:55Z</time>
      </trkpt>
      <trkpt lat="47.67422" lon="6.14876">
        <ele>268.3</ele>
        <time>2020-12-10T10:11:57Z</time>
      </trkpt>
      <trkpt lat="47.67427" lon="6.14871">
        <ele>268.4</ele>
        <time>2020-12-10T10:11:59Z</time>
      </trkpt>
      <trkpt lat="47.67432" lon="6.14866">
        <ele>268.5</ele>
        <time>2020-12-10T10:12:01Z</time>
      </trkpt>
      <trkpt lat="47.67438" lon="6.1486">
        <ele>268.4</ele>
        <time>2020-12-10T10:12:04Z</time>
      </trkpt>
      <trkpt lat="47.67442" lon="6.14857">
        <ele>268.4</ele>
        <time>2020-12-10T10:12:05Z</time>
      </trkpt>
      <trkpt lat="47.67447" lon="6.14853">
        <ele>268.3</ele>
        <time>2020-12-10T10:12:06Z</time>
      </trkpt>
      <trkpt lat="47.67451" lon="6.14849">
        <ele>268.2</ele>
        <time>2020-12-10T10:12:08Z</time>
      </trkpt>
      <trkpt lat="47.67457" lon="6.14844">
        <ele>268</ele>
        <time>2020-12-10T10:12:10Z</time>
      </trkpt>
      <trkpt lat="47.67461" lon="6.1484">
        <ele>267.9</ele>
        <time>2020-12-10T10:12:12Z</time>
      </trkpt>
      <trkpt lat="47.67465" lon="6.14836">
        <ele>267.7</ele>
        <time>2020-12-10T10:12:14Z</time>
      </trkpt>
      <trkpt lat="47.67469" lon="6.14833">
        <ele>267.4</ele>
        <time>2020-12-10T10:12:15Z</time>
      </trkpt>
      <trkpt lat="47.67475" lon="6.14828">
        <ele>267.2</ele>
        <time>2020-12-10T10:12:17Z</time>
      </trkpt>
      <trkpt lat="47.6748" lon="6.14824">
        <ele>267</ele>
        <time>2020-12-10T10:12:18Z</time>
      </trkpt>
      <trkpt lat="47.67486" lon="6.14819">
        <ele>266.9</ele>
        <time>2020-12-10T10:12:21Z</time>
      </trkpt>
      <trkpt lat="47.67493" lon="6.14813">
        <ele>266.8</ele>
        <time>2020-12-10T10:12:22Z</time>
      </trkpt>
      <trkpt lat="47.67502" lon="6.14806">
        <ele>266.7</ele>
        <time>2020-12-10T10:12:25Z</time>
      </trkpt>
      <trkpt lat="47.67507" lon="6.14802">
        <ele>267</ele>
        <time>2020-12-10T10:12:26Z</time>
      </trkpt>
      <trkpt lat="47.67511" lon="6.14798">
        <ele>267.2</ele>
        <time>2020-12-10T10:12:27Z</time>
      </trkpt>
      <trkpt lat="47.67517" lon="6.14793">
        <ele>267.4</ele>
        <time>2020-12-10T10:12:28Z</time>
      </trkpt>
      <trkpt lat="47.67521" lon="6.14789">
        <ele>267.5</ele>
        <time>2020-12-10T10:12:30Z</time>
      </trkpt>
      <trkpt lat="47.67532" lon="6.14778">
        <ele>267.7</ele>
        <time>2020-12-10T10:12:32Z</time>
      </trkpt>
      <trkpt lat="47.67537" lon="6.14774">
        <ele>267.7</ele>
        <time>2020-12-10T10:12:33Z</time>
      </trkpt>
      <trkpt lat="47.67542" lon="6.1477">
        <ele>267.6</ele>
        <time>2020-12-10T10:12:34Z</time>
      </trkpt>
      <trkpt lat="47.67547" lon="6.14766">
        <ele>267.6</ele>
        <time>2020-12-10T10:12:35Z</time>
      </trkpt>
      <trkpt lat="47.67552" lon="6.14762">
        <ele>267.5</ele>
        <time>2020-12-10T10:12:37Z</time>
      </trkpt>
      <trkpt lat="47.67566" lon="6.14751">
        <ele>266.9</ele>
        <time>2020-12-10T10:12:38Z</time>
      </trkpt>
      <trkpt lat="47.67571" lon="6.14747">
        <ele>266.7</ele>
        <time>2020-12-10T10:12:39Z</time>
      </trkpt>
      <trkpt lat="47.67576" lon="6.14743">
        <ele>266.6</ele>
        <time>2020-12-10T10:12:40Z</time>
      </trkpt>
      <trkpt lat="47.67581" lon="6.14739">
        <ele>266.5</ele>
        <time>2020-12-10T10:12:41Z</time>
      </trkpt>
      <trkpt lat="47.67586" lon="6.14735">
        <ele>266.4</ele>
        <time>2020-12-10T10:12:42Z</time>
      </trkpt>
      <trkpt lat="47.67591" lon="6.1473">
        <ele>266.3</ele>
        <time>2020-12-10T10:12:43Z</time>
      </trkpt>
      <trkpt lat="47.67596" lon="6.14726">
        <ele>266.1</ele>
        <time>2020-12-10T10:12:44Z</time>
      </trkpt>
      <trkpt lat="47.676" lon="6.14722">
        <ele>265.9</ele>
        <time>2020-12-10T10:12:45Z</time>
      </trkpt>
      <trkpt lat="47.67605" lon="6.14717">
        <ele>265.6</ele>
        <time>2020-12-10T10:12:46Z</time>
      </trkpt>
      <trkpt lat="47.6761" lon="6.14713">
        <ele>265.3</ele>
        <time>2020-12-10T10:12:47Z</time>
      </trkpt>
      <trkpt lat="47.67615" lon="6.14709">
        <ele>264.9</ele>
        <time>2020-12-10T10:12:48Z</time>
      </trkpt>
      <trkpt lat="47.6762" lon="6.14705">
        <ele>264.4</ele>
        <time>2020-12-10T10:12:49Z</time>
      </trkpt>
      <trkpt lat="47.67625" lon="6.14701">
        <ele>264</ele>
        <time>2020-12-10T10:12:50Z</time>
      </trkpt>
      <trkpt lat="47.67629" lon="6.14698">
        <ele>263.4</ele>
        <time>2020-12-10T10:12:51Z</time>
      </trkpt>
      <trkpt lat="47.67634" lon="6.14695">
        <ele>262.9</ele>
        <time>2020-12-10T10:12:52Z</time>
      </trkpt>
      <trkpt lat="47.67639" lon="6.14692">
        <ele>262.3</ele>
        <time>2020-12-10T10:12:53Z</time>
      </trkpt>
      <trkpt lat="47.67643" lon="6.14689">
        <ele>261.6</ele>
        <time>2020-12-10T10:12:54Z</time>
      </trkpt>
      <trkpt lat="47.67648" lon="6.14686">
        <ele>261</ele>
        <time>2020-12-10T10:12:55Z</time>
      </trkpt>
      <trkpt lat="47.67652" lon="6.14683">
        <ele>260.3</ele>
        <time>2020-12-10T10:12:56Z</time>
      </trkpt>
      <trkpt lat="47.67657" lon="6.1468">
        <ele>259.6</ele>
        <time>2020-12-10T10:12:57Z</time>
      </trkpt>
      <trkpt lat="47.67661" lon="6.14677">
        <ele>258.8</ele>
        <time>2020-12-10T10:12:58Z</time>
      </trkpt>
      <trkpt lat="47.67666" lon="6.14674">
        <ele>258.1</ele>
        <time>2020-12-10T10:12:59Z</time>
      </trkpt>
      <trkpt lat="47.67674" lon="6.14669">
        <ele>258.1</ele>
        <time>2020-12-10T10:13:01Z</time>
      </trkpt>
      <trkpt lat="47.67678" lon="6.14667">
        <ele>258.1</ele>
        <time>2020-12-10T10:13:02Z</time>
      </trkpt>
      <trkpt lat="47.67683" lon="6.14664">
        <ele>258.2</ele>
        <time>2020-12-10T10:13:03Z</time>
      </trkpt>
      <trkpt lat="47.67687" lon="6.14662">
        <ele>258.3</ele>
        <time>2020-12-10T10:13:04Z</time>
      </trkpt>
      <trkpt lat="47.67691" lon="6.14659">
        <ele>258.4</ele>
        <time>2020-12-10T10:13:05Z</time>
      </trkpt>
      <trkpt lat="47.67699" lon="6.14654">
        <ele>258.6</ele>
        <time>2020-12-10T10:13:07Z</time>
      </trkpt>
      <trkpt lat="47.67707" lon="6.14649">
        <ele>258.8</ele>
        <time>2020-12-10T10:13:09Z</time>
      </trkpt>
      <trkpt lat="47.67715" lon="6.14644">
        <ele>259</ele>
        <time>2020-12-10T10:13:11Z</time>
      </trkpt>
      <trkpt lat="47.67723" lon="6.14639">
        <ele>259.1</ele>
        <time>2020-12-10T10:13:13Z</time>
      </trkpt>
      <trkpt lat="47.67731" lon="6.14634">
        <ele>259.2</ele>
        <time>2020-12-10T10:13:15Z</time>
      </trkpt>
      <trkpt lat="47.67738" lon="6.1463">
        <ele>259.4</ele>
        <time>2020-12-10T10:13:17Z</time>
      </trkpt>
      <trkpt lat="47.67745" lon="6.14625">
        <ele>259.5</ele>
        <time>2020-12-10T10:13:19Z</time>
      </trkpt>
      <trkpt lat="47.67752" lon="6.14621">
        <ele>259.6</ele>
        <time>2020-12-10T10:13:21Z</time>
      </trkpt>
      <trkpt lat="47.67764" lon="6.14607">
        <ele>259.8</ele>
        <time>2020-12-10T10:13:23Z</time>
      </trkpt>
      <trkpt lat="47.67769" lon="6.14605">
        <ele>259.9</ele>
        <time>2020-12-10T10:13:26Z</time>
      </trkpt>
      <trkpt lat="47.67781" lon="6.14601">
        <ele>260.1</ele>
        <time>2020-12-10T10:13:29Z</time>
      </trkpt>
      <trkpt lat="47.67786" lon="6.14598">
        <ele>260.2</ele>
        <time>2020-12-10T10:13:30Z</time>
      </trkpt>
      <trkpt lat="47.67792" lon="6.14595">
        <ele>260.3</ele>
        <time>2020-12-10T10:13:31Z</time>
      </trkpt>
      <trkpt lat="47.67798" lon="6.14591">
        <ele>260.4</ele>
        <time>2020-12-10T10:13:33Z</time>
      </trkpt>
      <trkpt lat="47.67803" lon="6.14588">
        <ele>260.6</ele>
        <time>2020-12-10T10:13:34Z</time>
      </trkpt>
      <trkpt lat="47.67808" lon="6.14585">
        <ele>260.7</ele>
        <time>2020-12-10T10:13:36Z</time>
      </trkpt>
      <trkpt lat="47.67814" lon="6.14581">
        <ele>260.8</ele>
        <time>2020-12-10T10:13:37Z</time>
      </trkpt>
      <trkpt lat="47.67818" lon="6.14579">
        <ele>260.9</ele>
        <time>2020-12-10T10:13:38Z</time>
      </trkpt>
      <trkpt lat="47.67824" lon="6.14576">
        <ele>261</ele>
        <time>2020-12-10T10:13:40Z</time>
      </trkpt>
      <trkpt lat="47.67831" lon="6.14571">
        <ele>261.1</ele>
        <time>2020-12-10T10:13:42Z</time>
      </trkpt>
      <trkpt lat="47.67836" lon="6.14568">
        <ele>261.2</ele>
        <time>2020-12-10T10:13:44Z</time>
      </trkpt>
      <trkpt lat="47.67841" lon="6.14565">
        <ele>261.3</ele>
        <time>2020-12-10T10:13:45Z</time>
      </trkpt>
      <trkpt lat="47.6785" lon="6.1456">
        <ele>261.4</ele>
        <time>2020-12-10T10:13:47Z</time>
      </trkpt>
      <trkpt lat="47.67854" lon="6.14558">
        <ele>261.5</ele>
        <time>2020-12-10T10:13:49Z</time>
      </trkpt>
      <trkpt lat="47.67859" lon="6.14554">
        <ele>261.6</ele>
        <time>2020-12-10T10:13:51Z</time>
      </trkpt>
      <trkpt lat="47.67864" lon="6.14551">
        <ele>261.7</ele>
        <time>2020-12-10T10:13:52Z</time>
      </trkpt>
      <trkpt lat="47.67869" lon="6.14548">
        <ele>261.8</ele>
        <time>2020-12-10T10:13:53Z</time>
      </trkpt>
      <trkpt lat="47.67874" lon="6.14544">
        <ele>261.9</ele>
        <time>2020-12-10T10:13:55Z</time>
      </trkpt>
      <trkpt lat="47.67879" lon="6.14539">
        <ele>262.1</ele>
        <time>2020-12-10T10:13:57Z</time>
      </trkpt>
      <trkpt lat="47.67886" lon="6.14532">
        <ele>262.4</ele>
        <time>2020-12-10T10:14:00Z</time>
      </trkpt>
      <trkpt lat="47.67892" lon="6.14526">
        <ele>262.6</ele>
        <time>2020-12-10T10:14:02Z</time>
      </trkpt>
      <trkpt lat="47.67898" lon="6.1452">
        <ele>262.9</ele>
        <time>2020-12-10T10:14:03Z</time>
      </trkpt>
      <trkpt lat="47.67903" lon="6.14514">
        <ele>263.2</ele>
        <time>2020-12-10T10:14:05Z</time>
      </trkpt>
      <trkpt lat="47.67907" lon="6.1451">
        <ele>263.4</ele>
        <time>2020-12-10T10:14:07Z</time>
      </trkpt>
      <trkpt lat="47.67911" lon="6.14505">
        <ele>263.7</ele>
        <time>2020-12-10T10:14:09Z</time>
      </trkpt>
      <trkpt lat="47.67916" lon="6.14499">
        <ele>264</ele>
        <time>2020-12-10T10:14:10Z</time>
      </trkpt>
      <trkpt lat="47.67922" lon="6.14493">
        <ele>264.1</ele>
        <time>2020-12-10T10:14:12Z</time>
      </trkpt>
      <trkpt lat="47.67925" lon="6.14488">
        <ele>264.2</ele>
        <time>2020-12-10T10:14:14Z</time>
      </trkpt>
      <trkpt lat="47.67929" lon="6.14484">
        <ele>264.3</ele>
        <time>2020-12-10T10:14:16Z</time>
      </trkpt>
      <trkpt lat="47.67934" lon="6.14478">
        <ele>264.4</ele>
        <time>2020-12-10T10:14:17Z</time>
      </trkpt>
      <trkpt lat="47.6794" lon="6.1447">
        <ele>264.5</ele>
        <time>2020-12-10T10:14:19Z</time>
      </trkpt>
      <trkpt lat="47.67943" lon="6.14465">
        <ele>264.6</ele>
        <time>2020-12-10T10:14:21Z</time>
      </trkpt>
      <trkpt lat="47.67947" lon="6.1446">
        <ele>264.7</ele>
        <time>2020-12-10T10:14:22Z</time>
      </trkpt>
      <trkpt lat="47.67951" lon="6.14454">
        <ele>264.7</ele>
        <time>2020-12-10T10:14:24Z</time>
      </trkpt>
      <trkpt lat="47.67955" lon="6.14449">
        <ele>264.8</ele>
        <time>2020-12-10T10:14:26Z</time>
      </trkpt>
      <trkpt lat="47.67958" lon="6.14444">
        <ele>264.8</ele>
        <time>2020-12-10T10:14:27Z</time>
      </trkpt>
      <trkpt lat="47.67963" lon="6.14437">
        <ele>264.9</ele>
        <time>2020-12-10T10:14:30Z</time>
      </trkpt>
      <trkpt lat="47.67968" lon="6.1443">
        <ele>264.9</ele>
        <time>2020-12-10T10:14:31Z</time>
      </trkpt>
      <trkpt lat="47.67971" lon="6.14425">
        <ele>265</ele>
        <time>2020-12-10T10:14:31Z</time>
      </trkpt>
      <trkpt lat="47.67974" lon="6.1442">
        <ele>265</ele>
        <time>2020-12-10T10:14:34Z</time>
      </trkpt>
      <trkpt lat="47.67979" lon="6.14413">
        <ele>265.1</ele>
        <time>2020-12-10T10:14:37Z</time>
      </trkpt>
      <trkpt lat="47.67983" lon="6.14408">
        <ele>265.2</ele>
        <time>2020-12-10T10:14:37Z</time>
      </trkpt>
      <trkpt lat="47.67987" lon="6.14402">
        <ele>265.3</ele>
        <time>2020-12-10T10:14:41Z</time>
      </trkpt>
      <trkpt lat="47.67991" lon="6.14395">
        <ele>265.5</ele>
        <time>2020-12-10T10:14:43Z</time>
      </trkpt>
      <trkpt lat="47.67996" lon="6.14389">
        <ele>265.6</ele>
        <time>2020-12-10T10:14:45Z</time>
      </trkpt>
      <trkpt lat="47.68" lon="6.14384">
        <ele>265.8</ele>
        <time>2020-12-10T10:14:47Z</time>
      </trkpt>
      <trkpt lat="47.68005" lon="6.14378">
        <ele>266</ele>
        <time>2020-12-10T10:14:49Z</time>
      </trkpt>
      <trkpt lat="47.68008" lon="6.14373">
        <ele>266.2</ele>
        <time>2020-12-10T10:14:51Z</time>
      </trkpt>
      <trkpt lat="47.68012" lon="6.14367">
        <ele>266.4</ele>
        <time>2020-12-10T10:14:53Z</time>
      </trkpt>
      <trkpt lat="47.68016" lon="6.14362">
        <ele>266.6</ele>
        <time>2020-12-10T10:14:55Z</time>
      </trkpt>
      <trkpt lat="47.6802" lon="6.14355">
        <ele>266.8</ele>
        <time>2020-12-10T10:14:57Z</time>
      </trkpt>
      <trkpt lat="47.68024" lon="6.1435">
        <ele>266.9</ele>
        <time>2020-12-10T10:14:59Z</time>
      </trkpt>
      <trkpt lat="47.68028" lon="6.14345">
        <ele>267.1</ele>
        <time>2020-12-10T10:15:01Z</time>
      </trkpt>
      <trkpt lat="47.68033" lon="6.14339">
        <ele>267.3</ele>
        <time>2020-12-10T10:15:04Z</time>
      </trkpt>
      <trkpt lat="47.68037" lon="6.14335">
        <ele>267.4</ele>
        <time>2020-12-10T10:15:05Z</time>
      </trkpt>
      <trkpt lat="47.68041" lon="6.1433">
        <ele>267.5</ele>
        <time>2020-12-10T10:15:07Z</time>
      </trkpt>
      <trkpt lat="47.68045" lon="6.14325">
        <ele>267.6</ele>
        <time>2020-12-10T10:15:08Z</time>
      </trkpt>
      <trkpt lat="47.68049" lon="6.1432">
        <ele>267.8</ele>
        <time>2020-12-10T10:15:12Z</time>
      </trkpt>
      <trkpt lat="47.68053" lon="6.14316">
        <ele>267.9</ele>
        <time>2020-12-10T10:15:13Z</time>
      </trkpt>
      <trkpt lat="47.68057" lon="6.14312">
        <ele>268</ele>
        <time>2020-12-10T10:15:15Z</time>
      </trkpt>
      <trkpt lat="47.68061" lon="6.14307">
        <ele>268.2</ele>
        <time>2020-12-10T10:15:18Z</time>
      </trkpt>
      <trkpt lat="47.68066" lon="6.14301">
        <ele>268.4</ele>
        <time>2020-12-10T10:15:18Z</time>
      </trkpt>
      <trkpt lat="47.6807" lon="6.14298">
        <ele>268.6</ele>
        <time>2020-12-10T10:15:22Z</time>
      </trkpt>
      <trkpt lat="47.68074" lon="6.14292">
        <ele>268.8</ele>
        <time>2020-12-10T10:15:22Z</time>
      </trkpt>
      <trkpt lat="47.68079" lon="6.14286">
        <ele>269</ele>
        <time>2020-12-10T10:15:27Z</time>
      </trkpt>
      <trkpt lat="47.68083" lon="6.14282">
        <ele>269.2</ele>
        <time>2020-12-10T10:15:28Z</time>
      </trkpt>
      <trkpt lat="47.68087" lon="6.14275">
        <ele>269.5</ele>
        <time>2020-12-10T10:15:29Z</time>
      </trkpt>
      <trkpt lat="47.68091" lon="6.14271">
        <ele>269.8</ele>
        <time>2020-12-10T10:15:33Z</time>
      </trkpt>
      <trkpt lat="47.68095" lon="6.14266">
        <ele>270.1</ele>
        <time>2020-12-10T10:15:33Z</time>
      </trkpt>
      <trkpt lat="47.68099" lon="6.14261">
        <ele>270.3</ele>
        <time>2020-12-10T10:15:37Z</time>
      </trkpt>
      <trkpt lat="47.68105" lon="6.14256">
        <ele>270.7</ele>
        <time>2020-12-10T10:15:40Z</time>
      </trkpt>
      <trkpt lat="47.68109" lon="6.1425">
        <ele>270.9</ele>
        <time>2020-12-10T10:15:42Z</time>
      </trkpt>
      <trkpt lat="47.68113" lon="6.14244">
        <ele>271.2</ele>
        <time>2020-12-10T10:15:44Z</time>
      </trkpt>
      <trkpt lat="47.68117" lon="6.14239">
        <ele>271.5</ele>
        <time>2020-12-10T10:15:46Z</time>
      </trkpt>
      <trkpt lat="47.68121" lon="6.14233">
        <ele>271.8</ele>
        <time>2020-12-10T10:15:47Z</time>
      </trkpt>
      <trkpt lat="47.68125" lon="6.14229">
        <ele>272</ele>
        <time>2020-12-10T10:15:51Z</time>
      </trkpt>
      <trkpt lat="47.68129" lon="6.14225">
        <ele>272.2</ele>
        <time>2020-12-10T10:15:51Z</time>
      </trkpt>
      <trkpt lat="47.68134" lon="6.14219">
        <ele>272.6</ele>
        <time>2020-12-10T10:15:54Z</time>
      </trkpt>
      <trkpt lat="47.68137" lon="6.14214">
        <ele>272.8</ele>
        <time>2020-12-10T10:15:56Z</time>
      </trkpt>
      <trkpt lat="47.68141" lon="6.1421">
        <ele>273</ele>
        <time>2020-12-10T10:15:58Z</time>
      </trkpt>
      <trkpt lat="47.68146" lon="6.14205">
        <ele>273.4</ele>
        <time>2020-12-10T10:16:01Z</time>
      </trkpt>
      <trkpt lat="47.68151" lon="6.14199">
        <ele>273.7</ele>
        <time>2020-12-10T10:16:04Z</time>
      </trkpt>
      <trkpt lat="47.68156" lon="6.14193">
        <ele>274</ele>
        <time>2020-12-10T10:16:07Z</time>
      </trkpt>
      <trkpt lat="47.6816" lon="6.14188">
        <ele>274.3</ele>
        <time>2020-12-10T10:16:11Z</time>
      </trkpt>
      <trkpt lat="47.68165" lon="6.14182">
        <ele>274.6</ele>
        <time>2020-12-10T10:16:14Z</time>
      </trkpt>
      <trkpt lat="47.68169" lon="6.14178">
        <ele>274.8</ele>
        <time>2020-12-10T10:16:14Z</time>
      </trkpt>
      <trkpt lat="47.68175" lon="6.14171">
        <ele>275.1</ele>
        <time>2020-12-10T10:16:17Z</time>
      </trkpt>
      <trkpt lat="47.68178" lon="6.14166">
        <ele>275.3</ele>
        <time>2020-12-10T10:16:19Z</time>
      </trkpt>
      <trkpt lat="47.68182" lon="6.14161">
        <ele>275.4</ele>
        <time>2020-12-10T10:16:23Z</time>
      </trkpt>
      <trkpt lat="47.68187" lon="6.14154">
        <ele>275.7</ele>
        <time>2020-12-10T10:16:24Z</time>
      </trkpt>
      <trkpt lat="47.68191" lon="6.14149">
        <ele>275.9</ele>
        <time>2020-12-10T10:16:28Z</time>
      </trkpt>
      <trkpt lat="47.68196" lon="6.14143">
        <ele>276.1</ele>
        <time>2020-12-10T10:16:30Z</time>
      </trkpt>
      <trkpt lat="47.682" lon="6.14137">
        <ele>276.3</ele>
        <time>2020-12-10T10:16:31Z</time>
      </trkpt>
      <trkpt lat="47.68205" lon="6.1413">
        <ele>276.6</ele>
        <time>2020-12-10T10:16:35Z</time>
      </trkpt>
      <trkpt lat="47.68209" lon="6.14125">
        <ele>276.8</ele>
        <time>2020-12-10T10:16:37Z</time>
      </trkpt>
      <trkpt lat="47.68212" lon="6.1412">
        <ele>277</ele>
        <time>2020-12-10T10:16:39Z</time>
      </trkpt>
      <trkpt lat="47.68216" lon="6.14115">
        <ele>277.2</ele>
        <time>2020-12-10T10:16:41Z</time>
      </trkpt>
      <trkpt lat="47.6822" lon="6.14109">
        <ele>277.4</ele>
        <time>2020-12-10T10:16:43Z</time>
      </trkpt>
      <trkpt lat="47.68224" lon="6.14102">
        <ele>277.7</ele>
        <time>2020-12-10T10:16:44Z</time>
      </trkpt>
      <trkpt lat="47.68227" lon="6.14097">
        <ele>277.9</ele>
        <time>2020-12-10T10:16:46Z</time>
      </trkpt>
      <trkpt lat="47.68231" lon="6.14092">
        <ele>278.1</ele>
        <time>2020-12-10T10:16:50Z</time>
      </trkpt>
      <trkpt lat="47.68234" lon="6.14086">
        <ele>278.4</ele>
        <time>2020-12-10T10:16:50Z</time>
      </trkpt>
      <trkpt lat="47.68238" lon="6.14079">
        <ele>278.6</ele>
        <time>2020-12-10T10:16:54Z</time>
      </trkpt>
      <trkpt lat="47.68241" lon="6.14073">
        <ele>278.7</ele>
        <time>2020-12-10T10:16:56Z</time>
      </trkpt>
      <trkpt lat="47.68245" lon="6.14066">
        <ele>278.8</ele>
        <time>2020-12-10T10:16:59Z</time>
      </trkpt>
      <trkpt lat="47.68248" lon="6.1406">
        <ele>278.9</ele>
        <time>2020-12-10T10:17:00Z</time>
      </trkpt>
      <trkpt lat="47.68251" lon="6.14052">
        <ele>279.1</ele>
        <time>2020-12-10T10:17:01Z</time>
      </trkpt>
      <trkpt lat="47.68254" lon="6.14046">
        <ele>279.2</ele>
        <time>2020-12-10T10:17:05Z</time>
      </trkpt>
      <trkpt lat="47.68257" lon="6.1404">
        <ele>279.3</ele>
        <time>2020-12-10T10:17:06Z</time>
      </trkpt>
      <trkpt lat="47.6826" lon="6.14034">
        <ele>279.4</ele>
        <time>2020-12-10T10:17:09Z</time>
      </trkpt>
      <trkpt lat="47.68263" lon="6.14028">
        <ele>279.6</ele>
        <time>2020-12-10T10:17:11Z</time>
      </trkpt>
      <trkpt lat="47.68266" lon="6.14022">
        <ele>279.7</ele>
        <time>2020-12-10T10:17:11Z</time>
      </trkpt>
      <trkpt lat="47.68269" lon="6.14016">
        <ele>279.8</ele>
        <time>2020-12-10T10:17:13Z</time>
      </trkpt>
      <trkpt lat="47.68272" lon="6.1401">
        <ele>280</ele>
        <time>2020-12-10T10:17:17Z</time>
      </trkpt>
      <trkpt lat="47.68276" lon="6.14002">
        <ele>280.2</ele>
        <time>2020-12-10T10:17:18Z</time>
      </trkpt>
      <trkpt lat="47.68279" lon="6.13996">
        <ele>280.4</ele>
        <time>2020-12-10T10:17:22Z</time>
      </trkpt>
      <trkpt lat="47.68282" lon="6.1399">
        <ele>280.5</ele>
        <time>2020-12-10T10:17:24Z</time>
      </trkpt>
      <trkpt lat="47.68285" lon="6.13984">
        <ele>280.6</ele>
        <time>2020-12-10T10:17:26Z</time>
      </trkpt>
      <trkpt lat="47.68288" lon="6.13978">
        <ele>280.7</ele>
        <time>2020-12-10T10:17:28Z</time>
      </trkpt>
      <trkpt lat="47.68292" lon="6.13973">
        <ele>280.8</ele>
        <time>2020-12-10T10:17:30Z</time>
      </trkpt>
      <trkpt lat="47.68295" lon="6.13967">
        <ele>281</ele>
        <time>2020-12-10T10:17:32Z</time>
      </trkpt>
      <trkpt lat="47.68299" lon="6.13961">
        <ele>281.1</ele>
        <time>2020-12-10T10:17:35Z</time>
      </trkpt>
      <trkpt lat="47.68302" lon="6.13955">
        <ele>281.2</ele>
        <time>2020-12-10T10:17:37Z</time>
      </trkpt>
      <trkpt lat="47.68306" lon="6.13951">
        <ele>281.3</ele>
        <time>2020-12-10T10:17:39Z</time>
      </trkpt>
      <trkpt lat="47.6831" lon="6.13945">
        <ele>281.4</ele>
        <time>2020-12-10T10:17:39Z</time>
      </trkpt>
      <trkpt lat="47.68314" lon="6.13939">
        <ele>281.5</ele>
        <time>2020-12-10T10:17:43Z</time>
      </trkpt>
      <trkpt lat="47.68319" lon="6.13933">
        <ele>281.6</ele>
        <time>2020-12-10T10:17:45Z</time>
      </trkpt>
      <trkpt lat="47.68323" lon="6.13927">
        <ele>281.7</ele>
        <time>2020-12-10T10:17:47Z</time>
      </trkpt>
      <trkpt lat="47.68326" lon="6.13922">
        <ele>281.8</ele>
        <time>2020-12-10T10:17:49Z</time>
      </trkpt>
      <trkpt lat="47.6833" lon="6.13917">
        <ele>281.9</ele>
        <time>2020-12-10T10:17:51Z</time>
      </trkpt>
      <trkpt lat="47.68334" lon="6.13912">
        <ele>282</ele>
        <time>2020-12-10T10:17:53Z</time>
      </trkpt>
      <trkpt lat="47.68338" lon="6.13906">
        <ele>282</ele>
        <time>2020-12-10T10:17:56Z</time>
      </trkpt>
      <trkpt lat="47.68341" lon="6.13902">
        <ele>282.1</ele>
        <time>2020-12-10T10:17:57Z</time>
      </trkpt>
      <trkpt lat="47.68345" lon="6.13896">
        <ele>282.2</ele>
        <time>2020-12-10T10:18:00Z</time>
      </trkpt>
      <trkpt lat="47.6835" lon="6.13889">
        <ele>282.4</ele>
        <time>2020-12-10T10:18:03Z</time>
      </trkpt>
      <trkpt lat="47.68353" lon="6.13883">
        <ele>282.5</ele>
        <time>2020-12-10T10:18:03Z</time>
      </trkpt>
      <trkpt lat="47.68357" lon="6.13877">
        <ele>282.6</ele>
        <time>2020-12-10T10:18:07Z</time>
      </trkpt>
      <trkpt lat="47.68362" lon="6.1387">
        <ele>282.8</ele>
        <time>2020-12-10T10:18:10Z</time>
      </trkpt>
      <trkpt lat="47.68366" lon="6.13865">
        <ele>283</ele>
        <time>2020-12-10T10:18:11Z</time>
      </trkpt>
      <trkpt lat="47.68369" lon="6.13859">
        <ele>283.2</ele>
        <time>2020-12-10T10:18:14Z</time>
      </trkpt>
      <trkpt lat="47.68371" lon="6.13851">
        <ele>283.3</ele>
        <time>2020-12-10T10:19:04Z</time>
      </trkpt>
      <trkpt lat="47.68374" lon="6.13844">
        <ele>283.5</ele>
        <time>2020-12-10T10:19:09Z</time>
      </trkpt>
      <trkpt lat="47.68378" lon="6.13837">
        <ele>283.6</ele>
        <time>2020-12-10T10:19:11Z</time>
      </trkpt>
      <trkpt lat="47.68381" lon="6.13827">
        <ele>283.7</ele>
        <time>2020-12-10T10:19:12Z</time>
      </trkpt>
      <trkpt lat="47.68383" lon="6.1382">
        <ele>283.8</ele>
        <time>2020-12-10T10:19:12Z</time>
      </trkpt>
      <trkpt lat="47.68386" lon="6.13811">
        <ele>283.7</ele>
        <time>2020-12-10T10:19:15Z</time>
      </trkpt>
      <trkpt lat="47.68388" lon="6.13804">
        <ele>283.7</ele>
        <time>2020-12-10T10:19:17Z</time>
      </trkpt>
      <trkpt lat="47.68391" lon="6.13795">
        <ele>283.7</ele>
        <time>2020-12-10T10:19:19Z</time>
      </trkpt>
      <trkpt lat="47.6839" lon="6.13786">
        <ele>283.4</ele>
        <time>2020-12-10T10:19:20Z</time>
      </trkpt>
      <trkpt lat="47.68388" lon="6.13779">
        <ele>283.2</ele>
        <time>2020-12-10T10:19:20Z</time>
      </trkpt>
      <trkpt lat="47.68384" lon="6.13775">
        <ele>282.9</ele>
        <time>2020-12-10T10:19:23Z</time>
      </trkpt>
      <trkpt lat="47.68373" lon="6.13762">
        <ele>282.1</ele>
        <time>2020-12-10T10:19:23Z</time>
      </trkpt>
      <trkpt lat="47.68368" lon="6.13757">
        <ele>281.8</ele>
        <time>2020-12-10T10:19:24Z</time>
      </trkpt>
      <trkpt lat="47.68362" lon="6.13751">
        <ele>281.4</ele>
        <time>2020-12-10T10:19:25Z</time>
      </trkpt>
      <trkpt lat="47.68357" lon="6.13745">
        <ele>281</ele>
        <time>2020-12-10T10:19:26Z</time>
      </trkpt>
      <trkpt lat="47.68351" lon="6.1374">
        <ele>280.6</ele>
        <time>2020-12-10T10:19:27Z</time>
      </trkpt>
      <trkpt lat="47.68345" lon="6.13734">
        <ele>280.1</ele>
        <time>2020-12-10T10:19:28Z</time>
      </trkpt>
      <trkpt lat="47.68339" lon="6.13729">
        <ele>279.7</ele>
        <time>2020-12-10T10:19:29Z</time>
      </trkpt>
      <trkpt lat="47.68333" lon="6.13723">
        <ele>279.3</ele>
        <time>2020-12-10T10:19:30Z</time>
      </trkpt>
      <trkpt lat="47.68327" lon="6.13717">
        <ele>278.9</ele>
        <time>2020-12-10T10:19:31Z</time>
      </trkpt>
      <trkpt lat="47.68322" lon="6.13711">
        <ele>278.4</ele>
        <time>2020-12-10T10:19:32Z</time>
      </trkpt>
      <trkpt lat="47.68316" lon="6.13705">
        <ele>278</ele>
        <time>2020-12-10T10:19:33Z</time>
      </trkpt>
      <trkpt lat="47.6831" lon="6.137">
        <ele>277.5</ele>
        <time>2020-12-10T10:19:34Z</time>
      </trkpt>
      <trkpt lat="47.68304" lon="6.13694">
        <ele>277.1</ele>
        <time>2020-12-10T10:19:35Z</time>
      </trkpt>
      <trkpt lat="47.68298" lon="6.13688">
        <ele>276.7</ele>
        <time>2020-12-10T10:19:36Z</time>
      </trkpt>
      <trkpt lat="47.68292" lon="6.13682">
        <ele>276.3</ele>
        <time>2020-12-10T10:19:37Z</time>
      </trkpt>
      <trkpt lat="47.68287" lon="6.13677">
        <ele>275.9</ele>
        <time>2020-12-10T10:19:38Z</time>
      </trkpt>
      <trkpt lat="47.68281" lon="6.13671">
        <ele>275.6</ele>
        <time>2020-12-10T10:19:39Z</time>
      </trkpt>
      <trkpt lat="47.68276" lon="6.13666">
        <ele>275.2</ele>
        <time>2020-12-10T10:19:40Z</time>
      </trkpt>
      <trkpt lat="47.6827" lon="6.1366">
        <ele>274.9</ele>
        <time>2020-12-10T10:19:41Z</time>
      </trkpt>
      <trkpt lat="47.68265" lon="6.13655">
        <ele>274.6</ele>
        <time>2020-12-10T10:19:42Z</time>
      </trkpt>
      <trkpt lat="47.68261" lon="6.13649">
        <ele>274.3</ele>
        <time>2020-12-10T10:19:43Z</time>
      </trkpt>
      <trkpt lat="47.68256" lon="6.13643">
        <ele>274</ele>
        <time>2020-12-10T10:19:44Z</time>
      </trkpt>
      <trkpt lat="47.68251" lon="6.13638">
        <ele>273.7</ele>
        <time>2020-12-10T10:19:45Z</time>
      </trkpt>
      <trkpt lat="47.68246" lon="6.13633">
        <ele>273.3</ele>
        <time>2020-12-10T10:19:46Z</time>
      </trkpt>
      <trkpt lat="47.68241" lon="6.13628">
        <ele>272.9</ele>
        <time>2020-12-10T10:19:47Z</time>
      </trkpt>
      <trkpt lat="47.68237" lon="6.13624">
        <ele>272.4</ele>
        <time>2020-12-10T10:19:48Z</time>
      </trkpt>
      <trkpt lat="47.68232" lon="6.13619">
        <ele>272</ele>
        <time>2020-12-10T10:19:49Z</time>
      </trkpt>
      <trkpt lat="47.68227" lon="6.13614">
        <ele>271.6</ele>
        <time>2020-12-10T10:19:50Z</time>
      </trkpt>
      <trkpt lat="47.68222" lon="6.13608">
        <ele>271.1</ele>
        <time>2020-12-10T10:19:51Z</time>
      </trkpt>
      <trkpt lat="47.68217" lon="6.13603">
        <ele>270.5</ele>
        <time>2020-12-10T10:19:52Z</time>
      </trkpt>
      <trkpt lat="47.68212" lon="6.13597">
        <ele>270</ele>
        <time>2020-12-10T10:19:53Z</time>
      </trkpt>
      <trkpt lat="47.68206" lon="6.13591">
        <ele>269.4</ele>
        <time>2020-12-10T10:19:54Z</time>
      </trkpt>
      <trkpt lat="47.682" lon="6.13585">
        <ele>268.8</ele>
        <time>2020-12-10T10:19:55Z</time>
      </trkpt>
      <trkpt lat="47.68194" lon="6.13578">
        <ele>268.2</ele>
        <time>2020-12-10T10:19:56Z</time>
      </trkpt>
      <trkpt lat="47.68189" lon="6.13572">
        <ele>267.5</ele>
        <time>2020-12-10T10:19:57Z</time>
      </trkpt>
      <trkpt lat="47.68183" lon="6.13566">
        <ele>266.9</ele>
        <time>2020-12-10T10:19:58Z</time>
      </trkpt>
      <trkpt lat="47.68177" lon="6.13559">
        <ele>266.2</ele>
        <time>2020-12-10T10:19:59Z</time>
      </trkpt>
      <trkpt lat="47.68171" lon="6.13552">
        <ele>265.6</ele>
        <time>2020-12-10T10:20:00Z</time>
      </trkpt>
      <trkpt lat="47.68164" lon="6.13545">
        <ele>264.9</ele>
        <time>2020-12-10T10:20:01Z</time>
      </trkpt>
      <trkpt lat="47.68157" lon="6.13537">
        <ele>264.4</ele>
        <time>2020-12-10T10:20:02Z</time>
      </trkpt>
      <trkpt lat="47.6815" lon="6.1353">
        <ele>263.8</ele>
        <time>2020-12-10T10:20:03Z</time>
      </trkpt>
      <trkpt lat="47.68143" lon="6.13522">
        <ele>263.2</ele>
        <time>2020-12-10T10:20:04Z</time>
      </trkpt>
      <trkpt lat="47.68136" lon="6.13514">
        <ele>262.7</ele>
        <time>2020-12-10T10:20:05Z</time>
      </trkpt>
      <trkpt lat="47.68128" lon="6.13506">
        <ele>262.2</ele>
        <time>2020-12-10T10:20:06Z</time>
      </trkpt>
      <trkpt lat="47.6812" lon="6.13498">
        <ele>261.8</ele>
        <time>2020-12-10T10:20:07Z</time>
      </trkpt>
      <trkpt lat="47.68112" lon="6.13491">
        <ele>261.5</ele>
        <time>2020-12-10T10:20:08Z</time>
      </trkpt>
      <trkpt lat="47.68105" lon="6.13483">
        <ele>261.2</ele>
        <time>2020-12-10T10:20:09Z</time>
      </trkpt>
      <trkpt lat="47.68097" lon="6.13476">
        <ele>260.9</ele>
        <time>2020-12-10T10:20:10Z</time>
      </trkpt>
      <trkpt lat="47.6809" lon="6.13468">
        <ele>260.7</ele>
        <time>2020-12-10T10:20:11Z</time>
      </trkpt>
      <trkpt lat="47.68082" lon="6.13461">
        <ele>260.4</ele>
        <time>2020-12-10T10:20:12Z</time>
      </trkpt>
      <trkpt lat="47.68076" lon="6.13454">
        <ele>260</ele>
        <time>2020-12-10T10:20:13Z</time>
      </trkpt>
      <trkpt lat="47.68069" lon="6.13447">
        <ele>259.7</ele>
        <time>2020-12-10T10:20:14Z</time>
      </trkpt>
      <trkpt lat="47.68063" lon="6.1344">
        <ele>259.4</ele>
        <time>2020-12-10T10:20:15Z</time>
      </trkpt>
      <trkpt lat="47.68057" lon="6.13433">
        <ele>259.2</ele>
        <time>2020-12-10T10:20:16Z</time>
      </trkpt>
      <trkpt lat="47.68051" lon="6.13427">
        <ele>258.9</ele>
        <time>2020-12-10T10:20:17Z</time>
      </trkpt>
      <trkpt lat="47.68046" lon="6.13421">
        <ele>258.7</ele>
        <time>2020-12-10T10:20:18Z</time>
      </trkpt>
      <trkpt lat="47.68041" lon="6.13414">
        <ele>258.5</ele>
        <time>2020-12-10T10:20:19Z</time>
      </trkpt>
      <trkpt lat="47.68036" lon="6.13408">
        <ele>258.4</ele>
        <time>2020-12-10T10:20:20Z</time>
      </trkpt>
      <trkpt lat="47.68031" lon="6.13402">
        <ele>258.3</ele>
        <time>2020-12-10T10:20:21Z</time>
      </trkpt>
      <trkpt lat="47.68026" lon="6.13397">
        <ele>258.2</ele>
        <time>2020-12-10T10:20:22Z</time>
      </trkpt>
      <trkpt lat="47.68021" lon="6.13392">
        <ele>258.2</ele>
        <time>2020-12-10T10:20:23Z</time>
      </trkpt>
      <trkpt lat="47.68017" lon="6.13387">
        <ele>258.1</ele>
        <time>2020-12-10T10:20:24Z</time>
      </trkpt>
      <trkpt lat="47.68012" lon="6.13383">
        <ele>258.1</ele>
        <time>2020-12-10T10:20:25Z</time>
      </trkpt>
      <trkpt lat="47.68007" lon="6.13378">
        <ele>258.1</ele>
        <time>2020-12-10T10:20:26Z</time>
      </trkpt>
      <trkpt lat="47.68003" lon="6.13374">
        <ele>258.1</ele>
        <time>2020-12-10T10:20:27Z</time>
      </trkpt>
      <trkpt lat="47.68" lon="6.1337">
        <ele>258.3</ele>
        <time>2020-12-10T10:20:28Z</time>
      </trkpt>
      <trkpt lat="47.67996" lon="6.13365">
        <ele>258.5</ele>
        <time>2020-12-10T10:20:29Z</time>
      </trkpt>
      <trkpt lat="47.67992" lon="6.13361">
        <ele>258.8</ele>
        <time>2020-12-10T10:20:30Z</time>
      </trkpt>
      <trkpt lat="47.67988" lon="6.13357">
        <ele>259.1</ele>
        <time>2020-12-10T10:20:31Z</time>
      </trkpt>
      <trkpt lat="47.67984" lon="6.13353">
        <ele>259.4</ele>
        <time>2020-12-10T10:20:32Z</time>
      </trkpt>
      <trkpt lat="47.6798" lon="6.13349">
        <ele>259.7</ele>
        <time>2020-12-10T10:20:33Z</time>
      </trkpt>
      <trkpt lat="47.67975" lon="6.13342">
        <ele>260.2</ele>
        <time>2020-12-10T10:20:35Z</time>
      </trkpt>
      <trkpt lat="47.67968" lon="6.13334">
        <ele>260.7</ele>
        <time>2020-12-10T10:20:37Z</time>
      </trkpt>
      <trkpt lat="47.67963" lon="6.13328">
        <ele>261</ele>
        <time>2020-12-10T10:20:39Z</time>
      </trkpt>
      <trkpt lat="47.67959" lon="6.13324">
        <ele>261.2</ele>
        <time>2020-12-10T10:20:41Z</time>
      </trkpt>
      <trkpt lat="47.67952" lon="6.13318">
        <ele>261.4</ele>
        <time>2020-12-10T10:20:44Z</time>
      </trkpt>
      <trkpt lat="47.67947" lon="6.13313">
        <ele>261.6</ele>
        <time>2020-12-10T10:20:47Z</time>
      </trkpt>
      <trkpt lat="47.67943" lon="6.13309">
        <ele>261.8</ele>
        <time>2020-12-10T10:20:49Z</time>
      </trkpt>
      <trkpt lat="47.67937" lon="6.13303">
        <ele>262</ele>
        <time>2020-12-10T10:20:50Z</time>
      </trkpt>
      <trkpt lat="47.67932" lon="6.13299">
        <ele>262.1</ele>
        <time>2020-12-10T10:20:53Z</time>
      </trkpt>
      <trkpt lat="47.67927" lon="6.13295">
        <ele>262.3</ele>
        <time>2020-12-10T10:20:55Z</time>
      </trkpt>
      <trkpt lat="47.67919" lon="6.13288">
        <ele>262.5</ele>
        <time>2020-12-10T10:20:58Z</time>
      </trkpt>
      <trkpt lat="47.67913" lon="6.13281">
        <ele>262.7</ele>
        <time>2020-12-10T10:21:00Z</time>
      </trkpt>
      <trkpt lat="47.67907" lon="6.13276">
        <ele>262.8</ele>
        <time>2020-12-10T10:21:01Z</time>
      </trkpt>
      <trkpt lat="47.67902" lon="6.1327">
        <ele>262.9</ele>
        <time>2020-12-10T10:21:02Z</time>
      </trkpt>
      <trkpt lat="47.67898" lon="6.13265">
        <ele>262.9</ele>
        <time>2020-12-10T10:21:04Z</time>
      </trkpt>
      <trkpt lat="47.67888" lon="6.13253">
        <ele>263</ele>
        <time>2020-12-10T10:21:06Z</time>
      </trkpt>
      <trkpt lat="47.67884" lon="6.13248">
        <ele>263</ele>
        <time>2020-12-10T10:21:07Z</time>
      </trkpt>
      <trkpt lat="47.6788" lon="6.1324">
        <ele>262.9</ele>
        <time>2020-12-10T10:21:07Z</time>
      </trkpt>
      <trkpt lat="47.67874" lon="6.13231">
        <ele>262.8</ele>
        <time>2020-12-10T10:21:11Z</time>
      </trkpt>
      <trkpt lat="47.67867" lon="6.13219">
        <ele>262.5</ele>
        <time>2020-12-10T10:21:11Z</time>
      </trkpt>
      <trkpt lat="47.67861" lon="6.13209">
        <ele>262.2</ele>
        <time>2020-12-10T10:21:14Z</time>
      </trkpt>
      <trkpt lat="47.67855" lon="6.13198">
        <ele>261.8</ele>
        <time>2020-12-10T10:21:14Z</time>
      </trkpt>
      <trkpt lat="47.67851" lon="6.13191">
        <ele>261.5</ele>
        <time>2020-12-10T10:21:15Z</time>
      </trkpt>
      <trkpt lat="47.67847" lon="6.13183">
        <ele>261.1</ele>
        <time>2020-12-10T10:21:16Z</time>
      </trkpt>
      <trkpt lat="47.67843" lon="6.13175">
        <ele>260.7</ele>
        <time>2020-12-10T10:21:17Z</time>
      </trkpt>
      <trkpt lat="47.67838" lon="6.13167">
        <ele>260.2</ele>
        <time>2020-12-10T10:21:18Z</time>
      </trkpt>
      <trkpt lat="47.67834" lon="6.13158">
        <ele>260</ele>
        <time>2020-12-10T10:21:19Z</time>
      </trkpt>
      <trkpt lat="47.67829" lon="6.13148">
        <ele>259.9</ele>
        <time>2020-12-10T10:21:20Z</time>
      </trkpt>
      <trkpt lat="47.67825" lon="6.13139">
        <ele>259.8</ele>
        <time>2020-12-10T10:21:21Z</time>
      </trkpt>
      <trkpt lat="47.67821" lon="6.1313">
        <ele>259.6</ele>
        <time>2020-12-10T10:21:22Z</time>
      </trkpt>
      <trkpt lat="47.67816" lon="6.13121">
        <ele>259.4</ele>
        <time>2020-12-10T10:21:23Z</time>
      </trkpt>
      <trkpt lat="47.67812" lon="6.13114">
        <ele>259.1</ele>
        <time>2020-12-10T10:21:24Z</time>
      </trkpt>
      <trkpt lat="47.67808" lon="6.13106">
        <ele>258.8</ele>
        <time>2020-12-10T10:21:25Z</time>
      </trkpt>
      <trkpt lat="47.67804" lon="6.13097">
        <ele>258.5</ele>
        <time>2020-12-10T10:21:26Z</time>
      </trkpt>
      <trkpt lat="47.67801" lon="6.13089">
        <ele>258.2</ele>
        <time>2020-12-10T10:21:27Z</time>
      </trkpt>
      <trkpt lat="47.67797" lon="6.13081">
        <ele>257.8</ele>
        <time>2020-12-10T10:21:28Z</time>
      </trkpt>
      <trkpt lat="47.67794" lon="6.13074">
        <ele>257.4</ele>
        <time>2020-12-10T10:21:29Z</time>
      </trkpt>
      <trkpt lat="47.6779" lon="6.13066">
        <ele>257.1</ele>
        <time>2020-12-10T10:21:30Z</time>
      </trkpt>
      <trkpt lat="47.67786" lon="6.13057">
        <ele>256.7</ele>
        <time>2020-12-10T10:21:31Z</time>
      </trkpt>
      <trkpt lat="47.67782" lon="6.13049">
        <ele>256.4</ele>
        <time>2020-12-10T10:21:32Z</time>
      </trkpt>
      <trkpt lat="47.67778" lon="6.1304">
        <ele>256</ele>
        <time>2020-12-10T10:21:33Z</time>
      </trkpt>
      <trkpt lat="47.67774" lon="6.13032">
        <ele>255.6</ele>
        <time>2020-12-10T10:21:34Z</time>
      </trkpt>
      <trkpt lat="47.6777" lon="6.13023">
        <ele>255.3</ele>
        <time>2020-12-10T10:21:35Z</time>
      </trkpt>
      <trkpt lat="47.67766" lon="6.13015">
        <ele>255</ele>
        <time>2020-12-10T10:21:36Z</time>
      </trkpt>
      <trkpt lat="47.67761" lon="6.13007">
        <ele>254.6</ele>
        <time>2020-12-10T10:21:37Z</time>
      </trkpt>
      <trkpt lat="47.67755" lon="6.13">
        <ele>254.2</ele>
        <time>2020-12-10T10:21:38Z</time>
      </trkpt>
      <trkpt lat="47.67749" lon="6.12993">
        <ele>253.9</ele>
        <time>2020-12-10T10:21:39Z</time>
      </trkpt>
      <trkpt lat="47.67743" lon="6.12987">
        <ele>253.6</ele>
        <time>2020-12-10T10:21:40Z</time>
      </trkpt>
      <trkpt lat="47.67737" lon="6.12981">
        <ele>253.3</ele>
        <time>2020-12-10T10:21:41Z</time>
      </trkpt>
      <trkpt lat="47.67731" lon="6.12975">
        <ele>253</ele>
        <time>2020-12-10T10:21:42Z</time>
      </trkpt>
      <trkpt lat="47.67725" lon="6.12969">
        <ele>252.7</ele>
        <time>2020-12-10T10:21:43Z</time>
      </trkpt>
      <trkpt lat="47.67719" lon="6.12963">
        <ele>252.5</ele>
        <time>2020-12-10T10:21:44Z</time>
      </trkpt>
      <trkpt lat="47.67714" lon="6.12956">
        <ele>252.2</ele>
        <time>2020-12-10T10:21:45Z</time>
      </trkpt>
      <trkpt lat="47.67709" lon="6.1295">
        <ele>251.9</ele>
        <time>2020-12-10T10:21:46Z</time>
      </trkpt>
      <trkpt lat="47.67704" lon="6.12943">
        <ele>251.7</ele>
        <time>2020-12-10T10:21:47Z</time>
      </trkpt>
      <trkpt lat="47.67698" lon="6.12937">
        <ele>251.4</ele>
        <time>2020-12-10T10:21:48Z</time>
      </trkpt>
      <trkpt lat="47.67693" lon="6.12931">
        <ele>251.1</ele>
        <time>2020-12-10T10:21:49Z</time>
      </trkpt>
      <trkpt lat="47.67687" lon="6.12925">
        <ele>250.8</ele>
        <time>2020-12-10T10:21:50Z</time>
      </trkpt>
      <trkpt lat="47.67682" lon="6.12918">
        <ele>250.6</ele>
        <time>2020-12-10T10:21:51Z</time>
      </trkpt>
      <trkpt lat="47.67676" lon="6.12913">
        <ele>250.3</ele>
        <time>2020-12-10T10:21:52Z</time>
      </trkpt>
      <trkpt lat="47.67671" lon="6.12907">
        <ele>250.1</ele>
        <time>2020-12-10T10:21:53Z</time>
      </trkpt>
      <trkpt lat="47.67665" lon="6.12901">
        <ele>250</ele>
        <time>2020-12-10T10:21:54Z</time>
      </trkpt>
      <trkpt lat="47.6766" lon="6.12895">
        <ele>249.8</ele>
        <time>2020-12-10T10:21:55Z</time>
      </trkpt>
      <trkpt lat="47.67655" lon="6.12889">
        <ele>249.6</ele>
        <time>2020-12-10T10:21:56Z</time>
      </trkpt>
      <trkpt lat="47.67649" lon="6.12883">
        <ele>249.4</ele>
        <time>2020-12-10T10:21:57Z</time>
      </trkpt>
      <trkpt lat="47.67644" lon="6.12877">
        <ele>249.2</ele>
        <time>2020-12-10T10:21:58Z</time>
      </trkpt>
      <trkpt lat="47.67639" lon="6.12871">
        <ele>249</ele>
        <time>2020-12-10T10:21:59Z</time>
      </trkpt>
      <trkpt lat="47.67633" lon="6.12865">
        <ele>248.7</ele>
        <time>2020-12-10T10:22:00Z</time>
      </trkpt>
      <trkpt lat="47.67628" lon="6.1286">
        <ele>248.4</ele>
        <time>2020-12-10T10:22:01Z</time>
      </trkpt>
      <trkpt lat="47.67623" lon="6.12854">
        <ele>248.2</ele>
        <time>2020-12-10T10:22:02Z</time>
      </trkpt>
      <trkpt lat="47.67618" lon="6.12848">
        <ele>247.9</ele>
        <time>2020-12-10T10:22:03Z</time>
      </trkpt>
      <trkpt lat="47.67613" lon="6.12842">
        <ele>247.5</ele>
        <time>2020-12-10T10:22:04Z</time>
      </trkpt>
      <trkpt lat="47.67608" lon="6.12836">
        <ele>247.2</ele>
        <time>2020-12-10T10:22:05Z</time>
      </trkpt>
      <trkpt lat="47.67603" lon="6.1283">
        <ele>246.9</ele>
        <time>2020-12-10T10:22:06Z</time>
      </trkpt>
      <trkpt lat="47.676" lon="6.12824">
        <ele>246.6</ele>
        <time>2020-12-10T10:22:07Z</time>
      </trkpt>
      <trkpt lat="47.67596" lon="6.12817">
        <ele>246.4</ele>
        <time>2020-12-10T10:22:08Z</time>
      </trkpt>
      <trkpt lat="47.67593" lon="6.1281">
        <ele>246.2</ele>
        <time>2020-12-10T10:22:09Z</time>
      </trkpt>
      <trkpt lat="47.6759" lon="6.12804">
        <ele>245.9</ele>
        <time>2020-12-10T10:22:10Z</time>
      </trkpt>
      <trkpt lat="47.67588" lon="6.12797">
        <ele>245.7</ele>
        <time>2020-12-10T10:22:11Z</time>
      </trkpt>
      <trkpt lat="47.67585" lon="6.12789">
        <ele>245.5</ele>
        <time>2020-12-10T10:22:12Z</time>
      </trkpt>
      <trkpt lat="47.67583" lon="6.12782">
        <ele>245.4</ele>
        <time>2020-12-10T10:22:13Z</time>
      </trkpt>
      <trkpt lat="47.6758" lon="6.12775">
        <ele>245.2</ele>
        <time>2020-12-10T10:22:14Z</time>
      </trkpt>
      <trkpt lat="47.67578" lon="6.12768">
        <ele>245.1</ele>
        <time>2020-12-10T10:22:15Z</time>
      </trkpt>
      <trkpt lat="47.67575" lon="6.12762">
        <ele>245</ele>
        <time>2020-12-10T10:22:16Z</time>
      </trkpt>
      <trkpt lat="47.67573" lon="6.12756">
        <ele>244.8</ele>
        <time>2020-12-10T10:22:17Z</time>
      </trkpt>
      <trkpt lat="47.67571" lon="6.12749">
        <ele>244.7</ele>
        <time>2020-12-10T10:22:18Z</time>
      </trkpt>
      <trkpt lat="47.67568" lon="6.12743">
        <ele>244.6</ele>
        <time>2020-12-10T10:22:19Z</time>
      </trkpt>
      <trkpt lat="47.67565" lon="6.12736">
        <ele>244.5</ele>
        <time>2020-12-10T10:22:20Z</time>
      </trkpt>
      <trkpt lat="47.67563" lon="6.1273">
        <ele>244.4</ele>
        <time>2020-12-10T10:22:21Z</time>
      </trkpt>
      <trkpt lat="47.6756" lon="6.12722">
        <ele>244.3</ele>
        <time>2020-12-10T10:22:22Z</time>
      </trkpt>
      <trkpt lat="47.67557" lon="6.12715">
        <ele>244.1</ele>
        <time>2020-12-10T10:22:23Z</time>
      </trkpt>
      <trkpt lat="47.67554" lon="6.12707">
        <ele>243.9</ele>
        <time>2020-12-10T10:22:24Z</time>
      </trkpt>
      <trkpt lat="47.67551" lon="6.12699">
        <ele>243.7</ele>
        <time>2020-12-10T10:22:25Z</time>
      </trkpt>
      <trkpt lat="47.67548" lon="6.12691">
        <ele>243.5</ele>
        <time>2020-12-10T10:22:26Z</time>
      </trkpt>
      <trkpt lat="47.67544" lon="6.12682">
        <ele>243.3</ele>
        <time>2020-12-10T10:22:27Z</time>
      </trkpt>
      <trkpt lat="47.67541" lon="6.12674">
        <ele>243.1</ele>
        <time>2020-12-10T10:22:28Z</time>
      </trkpt>
      <trkpt lat="47.67538" lon="6.12665">
        <ele>242.8</ele>
        <time>2020-12-10T10:22:29Z</time>
      </trkpt>
      <trkpt lat="47.67534" lon="6.12657">
        <ele>242.4</ele>
        <time>2020-12-10T10:22:30Z</time>
      </trkpt>
      <trkpt lat="47.67531" lon="6.12649">
        <ele>242</ele>
        <time>2020-12-10T10:22:31Z</time>
      </trkpt>
      <trkpt lat="47.67528" lon="6.12642">
        <ele>241.6</ele>
        <time>2020-12-10T10:22:32Z</time>
      </trkpt>
      <trkpt lat="47.67525" lon="6.12634">
        <ele>241.3</ele>
        <time>2020-12-10T10:22:33Z</time>
      </trkpt>
      <trkpt lat="47.67522" lon="6.12627">
        <ele>241</ele>
        <time>2020-12-10T10:22:34Z</time>
      </trkpt>
      <trkpt lat="47.6752" lon="6.12619">
        <ele>240.7</ele>
        <time>2020-12-10T10:22:35Z</time>
      </trkpt>
      <trkpt lat="47.67518" lon="6.12611">
        <ele>240.4</ele>
        <time>2020-12-10T10:22:36Z</time>
      </trkpt>
      <trkpt lat="47.67519" lon="6.12602">
        <ele>240.2</ele>
        <time>2020-12-10T10:22:37Z</time>
      </trkpt>
      <trkpt lat="47.67521" lon="6.12594">
        <ele>240.1</ele>
        <time>2020-12-10T10:22:38Z</time>
      </trkpt>
      <trkpt lat="47.67524" lon="6.12587">
        <ele>240</ele>
        <time>2020-12-10T10:22:39Z</time>
      </trkpt>
      <trkpt lat="47.67527" lon="6.1258">
        <ele>240.1</ele>
        <time>2020-12-10T10:22:40Z</time>
      </trkpt>
      <trkpt lat="47.6753" lon="6.12573">
        <ele>240.5</ele>
        <time>2020-12-10T10:22:41Z</time>
      </trkpt>
      <trkpt lat="47.67534" lon="6.12566">
        <ele>240.9</ele>
        <time>2020-12-10T10:22:42Z</time>
      </trkpt>
      <trkpt lat="47.67537" lon="6.12558">
        <ele>241.3</ele>
        <time>2020-12-10T10:22:43Z</time>
      </trkpt>
      <trkpt lat="47.6754" lon="6.1255">
        <ele>241.8</ele>
        <time>2020-12-10T10:22:44Z</time>
      </trkpt>
      <trkpt lat="47.67541" lon="6.12542">
        <ele>242.2</ele>
        <time>2020-12-10T10:22:45Z</time>
      </trkpt>
      <trkpt lat="47.67542" lon="6.12534">
        <ele>242.6</ele>
        <time>2020-12-10T10:22:46Z</time>
      </trkpt>
      <trkpt lat="47.67542" lon="6.12526">
        <ele>243</ele>
        <time>2020-12-10T10:22:47Z</time>
      </trkpt>
      <trkpt lat="47.67541" lon="6.12517">
        <ele>243.3</ele>
        <time>2020-12-10T10:22:48Z</time>
      </trkpt>
      <trkpt lat="47.6754" lon="6.12509">
        <ele>243.4</ele>
        <time>2020-12-10T10:22:49Z</time>
      </trkpt>
      <trkpt lat="47.67537" lon="6.12501">
        <ele>243.5</ele>
        <time>2020-12-10T10:22:50Z</time>
      </trkpt>
      <trkpt lat="47.67534" lon="6.12495">
        <ele>243.3</ele>
        <time>2020-12-10T10:22:51Z</time>
      </trkpt>
      <trkpt lat="47.67531" lon="6.12489">
        <ele>243</ele>
        <time>2020-12-10T10:22:52Z</time>
      </trkpt>
      <trkpt lat="47.67527" lon="6.12485">
        <ele>242.6</ele>
        <time>2020-12-10T10:22:53Z</time>
      </trkpt>
      <trkpt lat="47.67522" lon="6.12482">
        <ele>242.2</ele>
        <time>2020-12-10T10:22:54Z</time>
      </trkpt>
      <trkpt lat="47.67518" lon="6.12479">
        <ele>241.9</ele>
        <time>2020-12-10T10:22:55Z</time>
      </trkpt>
      <trkpt lat="47.67513" lon="6.12475">
        <ele>241.5</ele>
        <time>2020-12-10T10:22:56Z</time>
      </trkpt>
      <trkpt lat="47.67509" lon="6.12473">
        <ele>241.1</ele>
        <time>2020-12-10T10:22:57Z</time>
      </trkpt>
      <trkpt lat="47.67504" lon="6.1247">
        <ele>240.7</ele>
        <time>2020-12-10T10:22:58Z</time>
      </trkpt>
      <trkpt lat="47.67499" lon="6.12468">
        <ele>240.4</ele>
        <time>2020-12-10T10:22:59Z</time>
      </trkpt>
      <trkpt lat="47.67494" lon="6.12465">
        <ele>240.4</ele>
        <time>2020-12-10T10:23:00Z</time>
      </trkpt>
      <trkpt lat="47.6749" lon="6.12463">
        <ele>240.5</ele>
        <time>2020-12-10T10:23:01Z</time>
      </trkpt>
      <trkpt lat="47.67485" lon="6.12461">
        <ele>240.5</ele>
        <time>2020-12-10T10:23:02Z</time>
      </trkpt>
      <trkpt lat="47.67478" lon="6.12456">
        <ele>240.7</ele>
        <time>2020-12-10T10:23:04Z</time>
      </trkpt>
      <trkpt lat="47.67471" lon="6.12452">
        <ele>240.8</ele>
        <time>2020-12-10T10:23:06Z</time>
      </trkpt>
      <trkpt lat="47.67464" lon="6.12448">
        <ele>241</ele>
        <time>2020-12-10T10:23:08Z</time>
      </trkpt>
      <trkpt lat="47.67454" lon="6.12446">
        <ele>241.2</ele>
        <time>2020-12-10T10:23:10Z</time>
      </trkpt>
      <trkpt lat="47.67447" lon="6.12444">
        <ele>241.3</ele>
        <time>2020-12-10T10:23:14Z</time>
      </trkpt>
      <trkpt lat="47.67439" lon="6.12439">
        <ele>241.6</ele>
        <time>2020-12-10T10:23:16Z</time>
      </trkpt>
      <trkpt lat="47.67432" lon="6.12434">
        <ele>241.9</ele>
        <time>2020-12-10T10:23:19Z</time>
      </trkpt>
      <trkpt lat="47.67426" lon="6.1243">
        <ele>242.2</ele>
        <time>2020-12-10T10:23:20Z</time>
      </trkpt>
      <trkpt lat="47.67421" lon="6.12427">
        <ele>242.4</ele>
        <time>2020-12-10T10:23:22Z</time>
      </trkpt>
      <trkpt lat="47.67415" lon="6.12424">
        <ele>242.6</ele>
        <time>2020-12-10T10:23:23Z</time>
      </trkpt>
      <trkpt lat="47.6741" lon="6.1242">
        <ele>242.7</ele>
        <time>2020-12-10T10:23:25Z</time>
      </trkpt>
      <trkpt lat="47.67404" lon="6.12416">
        <ele>242.7</ele>
        <time>2020-12-10T10:23:26Z</time>
      </trkpt>
      <trkpt lat="47.67398" lon="6.12413">
        <ele>242.7</ele>
        <time>2020-12-10T10:23:28Z</time>
      </trkpt>
      <trkpt lat="47.67394" lon="6.12409">
        <ele>242.6</ele>
        <time>2020-12-10T10:23:29Z</time>
      </trkpt>
      <trkpt lat="47.67384" lon="6.12404">
        <ele>242.6</ele>
        <time>2020-12-10T10:23:30Z</time>
      </trkpt>
      <trkpt lat="47.67377" lon="6.124">
        <ele>242.5</ele>
        <time>2020-12-10T10:23:32Z</time>
      </trkpt>
      <trkpt lat="47.6737" lon="6.12396">
        <ele>242.5</ele>
        <time>2020-12-10T10:23:35Z</time>
      </trkpt>
      <trkpt lat="47.67364" lon="6.12393">
        <ele>242.5</ele>
        <time>2020-12-10T10:23:37Z</time>
      </trkpt>
      <trkpt lat="47.67357" lon="6.1239">
        <ele>242.4</ele>
        <time>2020-12-10T10:23:38Z</time>
      </trkpt>
      <trkpt lat="47.67352" lon="6.12389">
        <ele>242.4</ele>
        <time>2020-12-10T10:23:40Z</time>
      </trkpt>
      <trkpt lat="47.6734" lon="6.12385">
        <ele>242.3</ele>
        <time>2020-12-10T10:23:42Z</time>
      </trkpt>
      <trkpt lat="47.67334" lon="6.12383">
        <ele>242.2</ele>
        <time>2020-12-10T10:23:44Z</time>
      </trkpt>
      <trkpt lat="47.67329" lon="6.12381">
        <ele>242.3</ele>
        <time>2020-12-10T10:23:45Z</time>
      </trkpt>
      <trkpt lat="47.67322" lon="6.12378">
        <ele>242.4</ele>
        <time>2020-12-10T10:23:46Z</time>
      </trkpt>
      <trkpt lat="47.67315" lon="6.12371">
        <ele>242.6</ele>
        <time>2020-12-10T10:23:48Z</time>
      </trkpt>
      <trkpt lat="47.67311" lon="6.12366">
        <ele>242.8</ele>
        <time>2020-12-10T10:23:49Z</time>
      </trkpt>
      <trkpt lat="47.67304" lon="6.12358">
        <ele>243.1</ele>
        <time>2020-12-10T10:23:52Z</time>
      </trkpt>
      <trkpt lat="47.673" lon="6.12353">
        <ele>243.3</ele>
        <time>2020-12-10T10:23:53Z</time>
      </trkpt>
      <trkpt lat="47.67296" lon="6.12349">
        <ele>243.4</ele>
        <time>2020-12-10T10:23:54Z</time>
      </trkpt>
      <trkpt lat="47.67291" lon="6.12345">
        <ele>243.6</ele>
        <time>2020-12-10T10:23:56Z</time>
      </trkpt>
      <trkpt lat="47.67286" lon="6.12339">
        <ele>243.8</ele>
        <time>2020-12-10T10:23:58Z</time>
      </trkpt>
      <trkpt lat="47.67282" lon="6.12333">
        <ele>244</ele>
        <time>2020-12-10T10:24:00Z</time>
      </trkpt>
      <trkpt lat="47.67278" lon="6.12327">
        <ele>244.3</ele>
        <time>2020-12-10T10:24:02Z</time>
      </trkpt>
      <trkpt lat="47.67273" lon="6.12322">
        <ele>244.6</ele>
        <time>2020-12-10T10:24:04Z</time>
      </trkpt>
      <trkpt lat="47.67269" lon="6.12316">
        <ele>244.9</ele>
        <time>2020-12-10T10:24:06Z</time>
      </trkpt>
      <trkpt lat="47.67265" lon="6.12311">
        <ele>245.2</ele>
        <time>2020-12-10T10:24:07Z</time>
      </trkpt>
      <trkpt lat="47.67262" lon="6.12306">
        <ele>245.4</ele>
        <time>2020-12-10T10:24:09Z</time>
      </trkpt>
      <trkpt lat="47.67257" lon="6.12301">
        <ele>245.6</ele>
        <time>2020-12-10T10:24:11Z</time>
      </trkpt>
      <trkpt lat="47.67253" lon="6.12297">
        <ele>245.8</ele>
        <time>2020-12-10T10:24:13Z</time>
      </trkpt>
      <trkpt lat="47.67248" lon="6.12292">
        <ele>245.9</ele>
        <time>2020-12-10T10:24:15Z</time>
      </trkpt>
      <trkpt lat="47.67244" lon="6.12288">
        <ele>245.9</ele>
        <time>2020-12-10T10:24:17Z</time>
      </trkpt>
      <trkpt lat="47.67239" lon="6.12284">
        <ele>245.9</ele>
        <time>2020-12-10T10:24:19Z</time>
      </trkpt>
      <trkpt lat="47.67234" lon="6.12277">
        <ele>245.9</ele>
        <time>2020-12-10T10:24:20Z</time>
      </trkpt>
      <trkpt lat="47.6723" lon="6.12272">
        <ele>245.8</ele>
        <time>2020-12-10T10:24:22Z</time>
      </trkpt>
      <trkpt lat="47.67226" lon="6.12266">
        <ele>245.9</ele>
        <time>2020-12-10T10:24:24Z</time>
      </trkpt>
      <trkpt lat="47.67222" lon="6.1226">
        <ele>245.9</ele>
        <time>2020-12-10T10:24:26Z</time>
      </trkpt>
      <trkpt lat="47.67217" lon="6.12253">
        <ele>245.9</ele>
        <time>2020-12-10T10:24:28Z</time>
      </trkpt>
      <trkpt lat="47.67213" lon="6.12247">
        <ele>245.9</ele>
        <time>2020-12-10T10:24:32Z</time>
      </trkpt>
      <trkpt lat="47.6721" lon="6.12241">
        <ele>245.9</ele>
        <time>2020-12-10T10:24:33Z</time>
      </trkpt>
      <trkpt lat="47.67206" lon="6.12233">
        <ele>246</ele>
        <time>2020-12-10T10:24:35Z</time>
      </trkpt>
      <trkpt lat="47.672" lon="6.12223">
        <ele>246</ele>
        <time>2020-12-10T10:24:38Z</time>
      </trkpt>
      <trkpt lat="47.67194" lon="6.12212">
        <ele>246</ele>
        <time>2020-12-10T10:24:40Z</time>
      </trkpt>
      <trkpt lat="47.67191" lon="6.12206">
        <ele>246</ele>
        <time>2020-12-10T10:24:41Z</time>
      </trkpt>
      <trkpt lat="47.67188" lon="6.122">
        <ele>246.1</ele>
        <time>2020-12-10T10:24:43Z</time>
      </trkpt>
      <trkpt lat="47.67182" lon="6.12191">
        <ele>246</ele>
        <time>2020-12-10T10:24:43Z</time>
      </trkpt>
      <trkpt lat="47.67176" lon="6.12183">
        <ele>246</ele>
        <time>2020-12-10T10:24:47Z</time>
      </trkpt>
      <trkpt lat="47.67172" lon="6.12175">
        <ele>246</ele>
        <time>2020-12-10T10:24:48Z</time>
      </trkpt>
      <trkpt lat="47.67169" lon="6.12169">
        <ele>246.1</ele>
        <time>2020-12-10T10:24:50Z</time>
      </trkpt>
      <trkpt lat="47.67165" lon="6.12162">
        <ele>246.1</ele>
        <time>2020-12-10T10:24:51Z</time>
      </trkpt>
      <trkpt lat="47.67162" lon="6.12153">
        <ele>246.1</ele>
        <time>2020-12-10T10:24:53Z</time>
      </trkpt>
      <trkpt lat="47.67158" lon="6.12144">
        <ele>246.2</ele>
        <time>2020-12-10T10:24:55Z</time>
      </trkpt>
      <trkpt lat="47.67152" lon="6.12128">
        <ele>246.4</ele>
        <time>2020-12-10T10:24:58Z</time>
      </trkpt>
      <trkpt lat="47.67147" lon="6.12111">
        <ele>246.6</ele>
        <time>2020-12-10T10:25:01Z</time>
      </trkpt>
      <trkpt lat="47.67145" lon="6.12101">
        <ele>246.8</ele>
        <time>2020-12-10T10:25:01Z</time>
      </trkpt>
      <trkpt lat="47.67143" lon="6.12094">
        <ele>246.9</ele>
        <time>2020-12-10T10:25:04Z</time>
      </trkpt>
      <trkpt lat="47.67141" lon="6.12087">
        <ele>247</ele>
        <time>2020-12-10T10:25:06Z</time>
      </trkpt>
      <trkpt lat="47.67139" lon="6.12078">
        <ele>247.2</ele>
        <time>2020-12-10T10:25:08Z</time>
      </trkpt>
      <trkpt lat="47.67137" lon="6.1207">
        <ele>247.4</ele>
        <time>2020-12-10T10:25:09Z</time>
      </trkpt>
      <trkpt lat="47.67134" lon="6.12061">
        <ele>247.7</ele>
        <time>2020-12-10T10:25:12Z</time>
      </trkpt>
      <trkpt lat="47.67131" lon="6.12052">
        <ele>247.9</ele>
        <time>2020-12-10T10:25:12Z</time>
      </trkpt>
      <trkpt lat="47.67129" lon="6.12045">
        <ele>248.1</ele>
        <time>2020-12-10T10:25:14Z</time>
      </trkpt>
      <trkpt lat="47.67127" lon="6.12038">
        <ele>248.2</ele>
        <time>2020-12-10T10:25:18Z</time>
      </trkpt>
      <trkpt lat="47.67125" lon="6.12031">
        <ele>248.4</ele>
        <time>2020-12-10T10:25:19Z</time>
      </trkpt>
      <trkpt lat="47.67122" lon="6.12024">
        <ele>248.5</ele>
        <time>2020-12-10T10:25:22Z</time>
      </trkpt>
      <trkpt lat="47.67119" lon="6.12017">
        <ele>248.6</ele>
        <time>2020-12-10T10:25:24Z</time>
      </trkpt>
      <trkpt lat="47.67117" lon="6.12008">
        <ele>248.8</ele>
        <time>2020-12-10T10:25:27Z</time>
      </trkpt>
      <trkpt lat="47.67115" lon="6.11999">
        <ele>249</ele>
        <time>2020-12-10T10:25:28Z</time>
      </trkpt>
      <trkpt lat="47.67113" lon="6.1199">
        <ele>249.5</ele>
        <time>2020-12-10T10:25:33Z</time>
      </trkpt>
      <trkpt lat="47.67111" lon="6.11982">
        <ele>249.9</ele>
        <time>2020-12-10T10:25:35Z</time>
      </trkpt>
      <trkpt lat="47.6711" lon="6.11975">
        <ele>250.3</ele>
        <time>2020-12-10T10:25:37Z</time>
      </trkpt>
      <trkpt lat="47.67108" lon="6.11967">
        <ele>250.7</ele>
        <time>2020-12-10T10:25:38Z</time>
      </trkpt>
      <trkpt lat="47.67104" lon="6.11957">
        <ele>251.1</ele>
        <time>2020-12-10T10:25:41Z</time>
      </trkpt>
      <trkpt lat="47.67103" lon="6.1195">
        <ele>251.5</ele>
        <time>2020-12-10T10:25:43Z</time>
      </trkpt>
      <trkpt lat="47.67102" lon="6.11942">
        <ele>251.9</ele>
        <time>2020-12-10T10:25:47Z</time>
      </trkpt>
      <trkpt lat="47.671" lon="6.11934">
        <ele>252.3</ele>
        <time>2020-12-10T10:25:50Z</time>
      </trkpt>
      <trkpt lat="47.67098" lon="6.11926">
        <ele>252.7</ele>
        <time>2020-12-10T10:25:53Z</time>
      </trkpt>
      <trkpt lat="47.67097" lon="6.11919">
        <ele>253</ele>
        <time>2020-12-10T10:25:55Z</time>
      </trkpt>
      <trkpt lat="47.67095" lon="6.11912">
        <ele>253.3</ele>
        <time>2020-12-10T10:25:57Z</time>
      </trkpt>
      <trkpt lat="47.67092" lon="6.11903">
        <ele>253.8</ele>
        <time>2020-12-10T10:26:00Z</time>
      </trkpt>
      <trkpt lat="47.6709" lon="6.11897">
        <ele>254</ele>
        <time>2020-12-10T10:26:01Z</time>
      </trkpt>
      <trkpt lat="47.67088" lon="6.1189">
        <ele>254.3</ele>
        <time>2020-12-10T10:26:03Z</time>
      </trkpt>
      <trkpt lat="47.67085" lon="6.11882">
        <ele>254.6</ele>
        <time>2020-12-10T10:26:06Z</time>
      </trkpt>
      <trkpt lat="47.67082" lon="6.11876">
        <ele>254.9</ele>
        <time>2020-12-10T10:26:08Z</time>
      </trkpt>
      <trkpt lat="47.67079" lon="6.11868">
        <ele>255.1</ele>
        <time>2020-12-10T10:26:10Z</time>
      </trkpt>
      <trkpt lat="47.67076" lon="6.11862">
        <ele>255.3</ele>
        <time>2020-12-10T10:26:13Z</time>
      </trkpt>
      <trkpt lat="47.67071" lon="6.11854">
        <ele>255.5</ele>
        <time>2020-12-10T10:26:16Z</time>
      </trkpt>
      <trkpt lat="47.67068" lon="6.11847">
        <ele>255.7</ele>
        <time>2020-12-10T10:26:17Z</time>
      </trkpt>
      <trkpt lat="47.67064" lon="6.1184">
        <ele>255.7</ele>
        <time>2020-12-10T10:26:19Z</time>
      </trkpt>
      <trkpt lat="47.6706" lon="6.11834">
        <ele>255.7</ele>
        <time>2020-12-10T10:26:22Z</time>
      </trkpt>
      <trkpt lat="47.67056" lon="6.11828">
        <ele>255.7</ele>
        <time>2020-12-10T10:26:23Z</time>
      </trkpt>
      <trkpt lat="47.67053" lon="6.11819">
        <ele>255.9</ele>
        <time>2020-12-10T10:26:26Z</time>
      </trkpt>
      <trkpt lat="47.6705" lon="6.11813">
        <ele>256</ele>
        <time>2020-12-10T10:26:27Z</time>
      </trkpt>
      <trkpt lat="47.67047" lon="6.11806">
        <ele>256.1</ele>
        <time>2020-12-10T10:26:29Z</time>
      </trkpt>
      <trkpt lat="47.67043" lon="6.11798">
        <ele>256.3</ele>
        <time>2020-12-10T10:26:31Z</time>
      </trkpt>
      <trkpt lat="47.6704" lon="6.11793">
        <ele>256.3</ele>
        <time>2020-12-10T10:26:33Z</time>
      </trkpt>
      <trkpt lat="47.67035" lon="6.11785">
        <ele>256.4</ele>
        <time>2020-12-10T10:26:35Z</time>
      </trkpt>
      <trkpt lat="47.67032" lon="6.11778">
        <ele>256.5</ele>
        <time>2020-12-10T10:26:37Z</time>
      </trkpt>
      <trkpt lat="47.67028" lon="6.11771">
        <ele>256.7</ele>
        <time>2020-12-10T10:26:40Z</time>
      </trkpt>
      <trkpt lat="47.67024" lon="6.11765">
        <ele>256.8</ele>
        <time>2020-12-10T10:26:42Z</time>
      </trkpt>
      <trkpt lat="47.6702" lon="6.11758">
        <ele>256.9</ele>
        <time>2020-12-10T10:26:44Z</time>
      </trkpt>
      <trkpt lat="47.67015" lon="6.1175">
        <ele>257.1</ele>
        <time>2020-12-10T10:26:47Z</time>
      </trkpt>
      <trkpt lat="47.67011" lon="6.11744">
        <ele>257.1</ele>
        <time>2020-12-10T10:26:49Z</time>
      </trkpt>
      <trkpt lat="47.67007" lon="6.11739">
        <ele>257</ele>
        <time>2020-12-10T10:26:51Z</time>
      </trkpt>
      <trkpt lat="47.67003" lon="6.11735">
        <ele>256.9</ele>
        <time>2020-12-10T10:26:53Z</time>
      </trkpt>
      <trkpt lat="47.66999" lon="6.11732">
        <ele>256.8</ele>
        <time>2020-12-10T10:26:54Z</time>
      </trkpt>
      <trkpt lat="47.66995" lon="6.11728">
        <ele>256.6</ele>
        <time>2020-12-10T10:26:57Z</time>
      </trkpt>
      <trkpt lat="47.66991" lon="6.1172">
        <ele>256.7</ele>
        <time>2020-12-10T10:26:59Z</time>
      </trkpt>
      <trkpt lat="47.66988" lon="6.11715">
        <ele>256.7</ele>
        <time>2020-12-10T10:27:01Z</time>
      </trkpt>
      <trkpt lat="47.66984" lon="6.1171">
        <ele>256.5</ele>
        <time>2020-12-10T10:27:03Z</time>
      </trkpt>
      <trkpt lat="47.66979" lon="6.11706">
        <ele>256.3</ele>
        <time>2020-12-10T10:27:06Z</time>
      </trkpt>
      <trkpt lat="47.66975" lon="6.11702">
        <ele>256.2</ele>
        <time>2020-12-10T10:27:07Z</time>
      </trkpt>
      <trkpt lat="47.6697" lon="6.11696">
        <ele>256</ele>
        <time>2020-12-10T10:27:10Z</time>
      </trkpt>
      <trkpt lat="47.66966" lon="6.11692">
        <ele>255.8</ele>
        <time>2020-12-10T10:27:12Z</time>
      </trkpt>
      <trkpt lat="47.6696" lon="6.11686">
        <ele>255.5</ele>
        <time>2020-12-10T10:27:15Z</time>
      </trkpt>
      <trkpt lat="47.66956" lon="6.11681">
        <ele>255.2</ele>
        <time>2020-12-10T10:27:16Z</time>
      </trkpt>
      <trkpt lat="47.66952" lon="6.11678">
        <ele>255</ele>
        <time>2020-12-10T10:27:17Z</time>
      </trkpt>
      <trkpt lat="47.66946" lon="6.11673">
        <ele>254.6</ele>
        <time>2020-12-10T10:27:19Z</time>
      </trkpt>
      <trkpt lat="47.6694" lon="6.11667">
        <ele>254.2</ele>
        <time>2020-12-10T10:27:21Z</time>
      </trkpt>
      <trkpt lat="47.66932" lon="6.11661">
        <ele>253.8</ele>
        <time>2020-12-10T10:27:23Z</time>
      </trkpt>
      <trkpt lat="47.66921" lon="6.11653">
        <ele>253.1</ele>
        <time>2020-12-10T10:27:25Z</time>
      </trkpt>
      <trkpt lat="47.66904" lon="6.11639">
        <ele>253.5</ele>
        <time>2020-12-10T10:27:26Z</time>
      </trkpt>
      <trkpt lat="47.66897" lon="6.11633">
        <ele>253.9</ele>
        <time>2020-12-10T10:27:27Z</time>
      </trkpt>
      <trkpt lat="47.66891" lon="6.11628">
        <ele>254.3</ele>
        <time>2020-12-10T10:27:28Z</time>
      </trkpt>
      <trkpt lat="47.66885" lon="6.11624">
        <ele>254.6</ele>
        <time>2020-12-10T10:27:29Z</time>
      </trkpt>
      <trkpt lat="47.6688" lon="6.1162">
        <ele>255</ele>
        <time>2020-12-10T10:27:30Z</time>
      </trkpt>
      <trkpt lat="47.66875" lon="6.11616">
        <ele>255.2</ele>
        <time>2020-12-10T10:27:31Z</time>
      </trkpt>
      <trkpt lat="47.66871" lon="6.11613">
        <ele>255.5</ele>
        <time>2020-12-10T10:27:32Z</time>
      </trkpt>
      <trkpt lat="47.66867" lon="6.11609">
        <ele>255.8</ele>
        <time>2020-12-10T10:27:33Z</time>
      </trkpt>
      <trkpt lat="47.66863" lon="6.11606">
        <ele>256</ele>
        <time>2020-12-10T10:27:34Z</time>
      </trkpt>
      <trkpt lat="47.66859" lon="6.11599">
        <ele>256.5</ele>
        <time>2020-12-10T10:27:36Z</time>
      </trkpt>
      <trkpt lat="47.66853" lon="6.11594">
        <ele>256.9</ele>
        <time>2020-12-10T10:27:38Z</time>
      </trkpt>
      <trkpt lat="47.66849" lon="6.11591">
        <ele>257.2</ele>
        <time>2020-12-10T10:27:39Z</time>
      </trkpt>
      <trkpt lat="47.66844" lon="6.11587">
        <ele>257.6</ele>
        <time>2020-12-10T10:27:42Z</time>
      </trkpt>
      <trkpt lat="47.6684" lon="6.11583">
        <ele>257.9</ele>
        <time>2020-12-10T10:27:43Z</time>
      </trkpt>
      <trkpt lat="47.66836" lon="6.11578">
        <ele>258.2</ele>
        <time>2020-12-10T10:27:45Z</time>
      </trkpt>
      <trkpt lat="47.66831" lon="6.11573">
        <ele>258.6</ele>
        <time>2020-12-10T10:27:47Z</time>
      </trkpt>
      <trkpt lat="47.66828" lon="6.11568">
        <ele>259</ele>
        <time>2020-12-10T10:27:49Z</time>
      </trkpt>
      <trkpt lat="47.66824" lon="6.11562">
        <ele>259.4</ele>
        <time>2020-12-10T10:27:53Z</time>
      </trkpt>
      <trkpt lat="47.66821" lon="6.11554">
        <ele>259.9</ele>
        <time>2020-12-10T10:27:55Z</time>
      </trkpt>
      <trkpt lat="47.66819" lon="6.11545">
        <ele>260.4</ele>
        <time>2020-12-10T10:27:58Z</time>
      </trkpt>
      <trkpt lat="47.66817" lon="6.11537">
        <ele>260.8</ele>
        <time>2020-12-10T10:28:01Z</time>
      </trkpt>
      <trkpt lat="47.66816" lon="6.1153">
        <ele>261.1</ele>
        <time>2020-12-10T10:28:03Z</time>
      </trkpt>
      <trkpt lat="47.66815" lon="6.11523">
        <ele>261.4</ele>
        <time>2020-12-10T10:28:06Z</time>
      </trkpt>
      <trkpt lat="47.66815" lon="6.11516">
        <ele>261.8</ele>
        <time>2020-12-10T10:28:08Z</time>
      </trkpt>
      <trkpt lat="47.66814" lon="6.11508">
        <ele>262.1</ele>
        <time>2020-12-10T10:28:11Z</time>
      </trkpt>
      <trkpt lat="47.66814" lon="6.11501">
        <ele>262.4</ele>
        <time>2020-12-10T10:28:14Z</time>
      </trkpt>
      <trkpt lat="47.66815" lon="6.11493">
        <ele>263</ele>
        <time>2020-12-10T10:28:18Z</time>
      </trkpt>
      <trkpt lat="47.66813" lon="6.11486">
        <ele>263.5</ele>
        <time>2020-12-10T10:28:21Z</time>
      </trkpt>
      <trkpt lat="47.6681" lon="6.11479">
        <ele>264</ele>
        <time>2020-12-10T10:28:25Z</time>
      </trkpt>
      <trkpt lat="47.66808" lon="6.11472">
        <ele>264.6</ele>
        <time>2020-12-10T10:28:29Z</time>
      </trkpt>
      <trkpt lat="47.66805" lon="6.11465">
        <ele>265.1</ele>
        <time>2020-12-10T10:28:34Z</time>
      </trkpt>
      <trkpt lat="47.66801" lon="6.11461">
        <ele>265.4</ele>
        <time>2020-12-10T10:28:38Z</time>
      </trkpt>
      <trkpt lat="47.66796" lon="6.11457">
        <ele>265.6</ele>
        <time>2020-12-10T10:28:42Z</time>
      </trkpt>
      <trkpt lat="47.66791" lon="6.11455">
        <ele>265.7</ele>
        <time>2020-12-10T10:28:47Z</time>
      </trkpt>
      <trkpt lat="47.66785" lon="6.11454">
        <ele>265.8</ele>
        <time>2020-12-10T10:28:50Z</time>
      </trkpt>
      <trkpt lat="47.6678" lon="6.11452">
        <ele>265.8</ele>
        <time>2020-12-10T10:28:54Z</time>
      </trkpt>
      <trkpt lat="47.66775" lon="6.11451">
        <ele>265.9</ele>
        <time>2020-12-10T10:28:57Z</time>
      </trkpt>
      <trkpt lat="47.6677" lon="6.1145">
        <ele>265.9</ele>
        <time>2020-12-10T10:29:00Z</time>
      </trkpt>
      <trkpt lat="47.66765" lon="6.11446">
        <ele>266.1</ele>
        <time>2020-12-10T10:29:03Z</time>
      </trkpt>
      <trkpt lat="47.66761" lon="6.11442">
        <ele>266.2</ele>
        <time>2020-12-10T10:29:05Z</time>
      </trkpt>
      <trkpt lat="47.66757" lon="6.11438">
        <ele>266.3</ele>
        <time>2020-12-10T10:29:07Z</time>
      </trkpt>
      <trkpt lat="47.66754" lon="6.11434">
        <ele>266.4</ele>
        <time>2020-12-10T10:29:09Z</time>
      </trkpt>
      <trkpt lat="47.66749" lon="6.11428">
        <ele>266.6</ele>
        <time>2020-12-10T10:29:13Z</time>
      </trkpt>
      <trkpt lat="47.66746" lon="6.11425">
        <ele>266.6</ele>
        <time>2020-12-10T10:29:15Z</time>
      </trkpt>
      <trkpt lat="47.66749" lon="6.1143">
        <ele>266.5</ele>
        <time>2020-12-10T10:29:32Z</time>
      </trkpt>
      <trkpt lat="47.66754" lon="6.11434">
        <ele>266.4</ele>
        <time>2020-12-10T10:29:36Z</time>
      </trkpt>
      <trkpt lat="47.6676" lon="6.11436">
        <ele>266.4</ele>
        <time>2020-12-10T10:29:38Z</time>
      </trkpt>
      <trkpt lat="47.66766" lon="6.11438">
        <ele>266.4</ele>
        <time>2020-12-10T10:29:40Z</time>
      </trkpt>
      <trkpt lat="47.66771" lon="6.1144">
        <ele>266.4</ele>
        <time>2020-12-10T10:29:43Z</time>
      </trkpt>
      <trkpt lat="47.66776" lon="6.11443">
        <ele>266.3</ele>
        <time>2020-12-10T10:29:45Z</time>
      </trkpt>
      <trkpt lat="47.66783" lon="6.11445">
        <ele>266.3</ele>
        <time>2020-12-10T10:29:48Z</time>
      </trkpt>
      <trkpt lat="47.66788" lon="6.11445">
        <ele>266.3</ele>
        <time>2020-12-10T10:29:51Z</time>
      </trkpt>
      <trkpt lat="47.66795" lon="6.11444">
        <ele>266.4</ele>
        <time>2020-12-10T10:29:55Z</time>
      </trkpt>
      <trkpt lat="47.668" lon="6.11442">
        <ele>266.6</ele>
        <time>2020-12-10T10:29:57Z</time>
      </trkpt>
      <trkpt lat="47.66806" lon="6.11439">
        <ele>266.8</ele>
        <time>2020-12-10T10:29:59Z</time>
      </trkpt>
      <trkpt lat="47.66811" lon="6.11437">
        <ele>267</ele>
        <time>2020-12-10T10:30:01Z</time>
      </trkpt>
      <trkpt lat="47.66816" lon="6.11435">
        <ele>267.2</ele>
        <time>2020-12-10T10:30:03Z</time>
      </trkpt>
      <trkpt lat="47.66822" lon="6.11433">
        <ele>267.5</ele>
        <time>2020-12-10T10:30:06Z</time>
      </trkpt>
      <trkpt lat="47.6683" lon="6.11431">
        <ele>267.7</ele>
        <time>2020-12-10T10:30:09Z</time>
      </trkpt>
      <trkpt lat="47.66835" lon="6.1143">
        <ele>268</ele>
        <time>2020-12-10T10:30:10Z</time>
      </trkpt>
      <trkpt lat="47.66841" lon="6.11428">
        <ele>268.3</ele>
        <time>2020-12-10T10:30:13Z</time>
      </trkpt>
      <trkpt lat="47.66846" lon="6.11428">
        <ele>268.6</ele>
        <time>2020-12-10T10:30:15Z</time>
      </trkpt>
      <trkpt lat="47.66851" lon="6.11427">
        <ele>268.9</ele>
        <time>2020-12-10T10:30:17Z</time>
      </trkpt>
      <trkpt lat="47.66857" lon="6.11426">
        <ele>269.3</ele>
        <time>2020-12-10T10:30:20Z</time>
      </trkpt>
      <trkpt lat="47.66864" lon="6.11425">
        <ele>269.7</ele>
        <time>2020-12-10T10:30:22Z</time>
      </trkpt>
      <trkpt lat="47.6687" lon="6.11425">
        <ele>270</ele>
        <time>2020-12-10T10:30:24Z</time>
      </trkpt>
      <trkpt lat="47.66875" lon="6.11424">
        <ele>270.3</ele>
        <time>2020-12-10T10:30:26Z</time>
      </trkpt>
      <trkpt lat="47.66881" lon="6.11422">
        <ele>270.7</ele>
        <time>2020-12-10T10:30:29Z</time>
      </trkpt>
      <trkpt lat="47.66886" lon="6.1142">
        <ele>271.1</ele>
        <time>2020-12-10T10:30:32Z</time>
      </trkpt>
      <trkpt lat="47.66892" lon="6.11418">
        <ele>271.6</ele>
        <time>2020-12-10T10:30:36Z</time>
      </trkpt>
      <trkpt lat="47.66896" lon="6.11416">
        <ele>272</ele>
        <time>2020-12-10T10:30:38Z</time>
      </trkpt>
      <trkpt lat="47.66902" lon="6.11412">
        <ele>272.4</ele>
        <time>2020-12-10T10:30:42Z</time>
      </trkpt>
      <trkpt lat="47.66907" lon="6.1141">
        <ele>272.6</ele>
        <time>2020-12-10T10:30:44Z</time>
      </trkpt>
      <trkpt lat="47.66913" lon="6.11408">
        <ele>272.9</ele>
        <time>2020-12-10T10:30:48Z</time>
      </trkpt>
      <trkpt lat="47.66917" lon="6.11407">
        <ele>273.1</ele>
        <time>2020-12-10T10:30:50Z</time>
      </trkpt>
      <trkpt lat="47.66921" lon="6.11404">
        <ele>273.3</ele>
        <time>2020-12-10T10:30:53Z</time>
      </trkpt>
      <trkpt lat="47.66924" lon="6.11398">
        <ele>273.5</ele>
        <time>2020-12-10T10:30:55Z</time>
      </trkpt>
      <trkpt lat="47.66924" lon="6.1139">
        <ele>273.5</ele>
        <time>2020-12-10T10:30:58Z</time>
      </trkpt>
      <trkpt lat="47.66921" lon="6.11382">
        <ele>273.5</ele>
        <time>2020-12-10T10:31:01Z</time>
      </trkpt>
      <trkpt lat="47.66919" lon="6.11375">
        <ele>273.6</ele>
        <time>2020-12-10T10:31:03Z</time>
      </trkpt>
      <trkpt lat="47.66915" lon="6.11366">
        <ele>273.6</ele>
        <time>2020-12-10T10:31:07Z</time>
      </trkpt>
      <trkpt lat="47.66912" lon="6.11356">
        <ele>273.6</ele>
        <time>2020-12-10T10:31:10Z</time>
      </trkpt>
      <trkpt lat="47.6691" lon="6.1135">
        <ele>273.6</ele>
        <time>2020-12-10T10:31:11Z</time>
      </trkpt>
      <trkpt lat="47.66907" lon="6.11341">
        <ele>273.7</ele>
        <time>2020-12-10T10:31:13Z</time>
      </trkpt>
      <trkpt lat="47.66904" lon="6.11334">
        <ele>273.7</ele>
        <time>2020-12-10T10:31:15Z</time>
      </trkpt>
      <trkpt lat="47.66901" lon="6.11324">
        <ele>273.8</ele>
        <time>2020-12-10T10:31:18Z</time>
      </trkpt>
      <trkpt lat="47.66898" lon="6.11315">
        <ele>274</ele>
        <time>2020-12-10T10:31:19Z</time>
      </trkpt>
      <trkpt lat="47.66896" lon="6.11308">
        <ele>274.1</ele>
        <time>2020-12-10T10:31:22Z</time>
      </trkpt>
      <trkpt lat="47.66893" lon="6.11299">
        <ele>274.3</ele>
        <time>2020-12-10T10:31:23Z</time>
      </trkpt>
      <trkpt lat="47.6689" lon="6.11291">
        <ele>274.4</ele>
        <time>2020-12-10T10:31:26Z</time>
      </trkpt>
      <trkpt lat="47.66888" lon="6.11284">
        <ele>274.5</ele>
        <time>2020-12-10T10:31:27Z</time>
      </trkpt>
      <trkpt lat="47.66886" lon="6.11278">
        <ele>274.6</ele>
        <time>2020-12-10T10:31:29Z</time>
      </trkpt>
      <trkpt lat="47.66883" lon="6.11271">
        <ele>274.7</ele>
        <time>2020-12-10T10:31:31Z</time>
      </trkpt>
      <trkpt lat="47.66881" lon="6.11264">
        <ele>274.8</ele>
        <time>2020-12-10T10:31:33Z</time>
      </trkpt>
      <trkpt lat="47.66879" lon="6.11257">
        <ele>274.9</ele>
        <time>2020-12-10T10:31:35Z</time>
      </trkpt>
      <trkpt lat="47.66876" lon="6.11251">
        <ele>275</ele>
        <time>2020-12-10T10:31:36Z</time>
      </trkpt>
      <trkpt lat="47.66874" lon="6.11244">
        <ele>275.1</ele>
        <time>2020-12-10T10:31:38Z</time>
      </trkpt>
      <trkpt lat="47.66872" lon="6.11236">
        <ele>275.1</ele>
        <time>2020-12-10T10:31:40Z</time>
      </trkpt>
      <trkpt lat="47.66869" lon="6.1123">
        <ele>275.1</ele>
        <time>2020-12-10T10:31:42Z</time>
      </trkpt>
      <trkpt lat="47.66867" lon="6.11221">
        <ele>275.1</ele>
        <time>2020-12-10T10:31:44Z</time>
      </trkpt>
      <trkpt lat="47.66864" lon="6.11213">
        <ele>275.2</ele>
        <time>2020-12-10T10:31:46Z</time>
      </trkpt>
      <trkpt lat="47.66861" lon="6.11205">
        <ele>275.2</ele>
        <time>2020-12-10T10:31:47Z</time>
      </trkpt>
      <trkpt lat="47.66858" lon="6.11198">
        <ele>275.2</ele>
        <time>2020-12-10T10:31:49Z</time>
      </trkpt>
      <trkpt lat="47.66856" lon="6.1119">
        <ele>275.3</ele>
        <time>2020-12-10T10:31:51Z</time>
      </trkpt>
      <trkpt lat="47.66853" lon="6.11182">
        <ele>275.3</ele>
        <time>2020-12-10T10:31:53Z</time>
      </trkpt>
      <trkpt lat="47.6685" lon="6.11172">
        <ele>275.3</ele>
        <time>2020-12-10T10:31:55Z</time>
      </trkpt>
      <trkpt lat="47.66847" lon="6.11165">
        <ele>275.3</ele>
        <time>2020-12-10T10:31:56Z</time>
      </trkpt>
      <trkpt lat="47.66844" lon="6.11158">
        <ele>275.4</ele>
        <time>2020-12-10T10:31:58Z</time>
      </trkpt>
      <trkpt lat="47.66841" lon="6.11151">
        <ele>275.4</ele>
        <time>2020-12-10T10:32:00Z</time>
      </trkpt>
      <trkpt lat="47.66837" lon="6.11142">
        <ele>275.4</ele>
        <time>2020-12-10T10:32:03Z</time>
      </trkpt>
      <trkpt lat="47.66834" lon="6.11134">
        <ele>275.4</ele>
        <time>2020-12-10T10:32:05Z</time>
      </trkpt>
      <trkpt lat="47.66831" lon="6.11128">
        <ele>275.3</ele>
        <time>2020-12-10T10:32:06Z</time>
      </trkpt>
      <trkpt lat="47.66825" lon="6.11118">
        <ele>275.2</ele>
        <time>2020-12-10T10:32:09Z</time>
      </trkpt>
      <trkpt lat="47.66822" lon="6.11113">
        <ele>275.1</ele>
        <time>2020-12-10T10:32:10Z</time>
      </trkpt>
      <trkpt lat="47.66819" lon="6.11106">
        <ele>275</ele>
        <time>2020-12-10T10:32:12Z</time>
      </trkpt>
      <trkpt lat="47.66815" lon="6.11099">
        <ele>274.9</ele>
        <time>2020-12-10T10:32:13Z</time>
      </trkpt>
      <trkpt lat="47.6681" lon="6.11092">
        <ele>274.8</ele>
        <time>2020-12-10T10:32:15Z</time>
      </trkpt>
      <trkpt lat="47.66805" lon="6.11084">
        <ele>274.6</ele>
        <time>2020-12-10T10:32:18Z</time>
      </trkpt>
      <trkpt lat="47.668" lon="6.11077">
        <ele>274.4</ele>
        <time>2020-12-10T10:32:20Z</time>
      </trkpt>
      <trkpt lat="47.66797" lon="6.11071">
        <ele>274.2</ele>
        <time>2020-12-10T10:32:21Z</time>
      </trkpt>
      <trkpt lat="47.66793" lon="6.11065">
        <ele>274</ele>
        <time>2020-12-10T10:32:22Z</time>
      </trkpt>
      <trkpt lat="47.66787" lon="6.11058">
        <ele>273.8</ele>
        <time>2020-12-10T10:32:24Z</time>
      </trkpt>
      <trkpt lat="47.66784" lon="6.11052">
        <ele>273.7</ele>
        <time>2020-12-10T10:32:26Z</time>
      </trkpt>
      <trkpt lat="47.6678" lon="6.11047">
        <ele>273.6</ele>
        <time>2020-12-10T10:32:28Z</time>
      </trkpt>
      <trkpt lat="47.66776" lon="6.11042">
        <ele>273.4</ele>
        <time>2020-12-10T10:32:30Z</time>
      </trkpt>
      <trkpt lat="47.66772" lon="6.11036">
        <ele>273.3</ele>
        <time>2020-12-10T10:32:31Z</time>
      </trkpt>
      <trkpt lat="47.66766" lon="6.11028">
        <ele>273.2</ele>
        <time>2020-12-10T10:32:33Z</time>
      </trkpt>
      <trkpt lat="47.6676" lon="6.1102">
        <ele>273.1</ele>
        <time>2020-12-10T10:32:35Z</time>
      </trkpt>
      <trkpt lat="47.66756" lon="6.11015">
        <ele>273</ele>
        <time>2020-12-10T10:32:37Z</time>
      </trkpt>
      <trkpt lat="47.66752" lon="6.11011">
        <ele>272.9</ele>
        <time>2020-12-10T10:32:39Z</time>
      </trkpt>
      <trkpt lat="47.66747" lon="6.11005">
        <ele>272.8</ele>
        <time>2020-12-10T10:32:40Z</time>
      </trkpt>
      <trkpt lat="47.6674" lon="6.10997">
        <ele>272.5</ele>
        <time>2020-12-10T10:32:43Z</time>
      </trkpt>
      <trkpt lat="47.66732" lon="6.10986">
        <ele>271.9</ele>
        <time>2020-12-10T10:32:45Z</time>
      </trkpt>
      <trkpt lat="47.66729" lon="6.10981">
        <ele>271.6</ele>
        <time>2020-12-10T10:32:46Z</time>
      </trkpt>
      <trkpt lat="47.66722" lon="6.10973">
        <ele>271.2</ele>
        <time>2020-12-10T10:32:49Z</time>
      </trkpt>
      <trkpt lat="47.66717" lon="6.10967">
        <ele>270.9</ele>
        <time>2020-12-10T10:32:50Z</time>
      </trkpt>
      <trkpt lat="47.66713" lon="6.10961">
        <ele>270.7</ele>
        <time>2020-12-10T10:32:51Z</time>
      </trkpt>
      <trkpt lat="47.66709" lon="6.10956">
        <ele>270.5</ele>
        <time>2020-12-10T10:32:53Z</time>
      </trkpt>
      <trkpt lat="47.66704" lon="6.1095">
        <ele>270.2</ele>
        <time>2020-12-10T10:32:54Z</time>
      </trkpt>
      <trkpt lat="47.66699" lon="6.10942">
        <ele>270</ele>
        <time>2020-12-10T10:32:56Z</time>
      </trkpt>
      <trkpt lat="47.66694" lon="6.10937">
        <ele>269.8</ele>
        <time>2020-12-10T10:32:58Z</time>
      </trkpt>
      <trkpt lat="47.66689" lon="6.10931">
        <ele>269.6</ele>
        <time>2020-12-10T10:33:00Z</time>
      </trkpt>
      <trkpt lat="47.66686" lon="6.10926">
        <ele>269.5</ele>
        <time>2020-12-10T10:33:02Z</time>
      </trkpt>
      <trkpt lat="47.66682" lon="6.10921">
        <ele>269.4</ele>
        <time>2020-12-10T10:33:03Z</time>
      </trkpt>
      <trkpt lat="47.66676" lon="6.10915">
        <ele>269.2</ele>
        <time>2020-12-10T10:33:05Z</time>
      </trkpt>
      <trkpt lat="47.66672" lon="6.10909">
        <ele>269.2</ele>
        <time>2020-12-10T10:33:07Z</time>
      </trkpt>
      <trkpt lat="47.66666" lon="6.10903">
        <ele>269.2</ele>
        <time>2020-12-10T10:33:10Z</time>
      </trkpt>
      <trkpt lat="47.66662" lon="6.10897">
        <ele>269.1</ele>
        <time>2020-12-10T10:33:11Z</time>
      </trkpt>
      <trkpt lat="47.66658" lon="6.10893">
        <ele>269.1</ele>
        <time>2020-12-10T10:33:12Z</time>
      </trkpt>
      <trkpt lat="47.66654" lon="6.10886">
        <ele>269.1</ele>
        <time>2020-12-10T10:33:15Z</time>
      </trkpt>
      <trkpt lat="47.6665" lon="6.10881">
        <ele>269</ele>
        <time>2020-12-10T10:33:16Z</time>
      </trkpt>
      <trkpt lat="47.66645" lon="6.10875">
        <ele>269</ele>
        <time>2020-12-10T10:33:19Z</time>
      </trkpt>
      <trkpt lat="47.66641" lon="6.1087">
        <ele>268.9</ele>
        <time>2020-12-10T10:33:20Z</time>
      </trkpt>
      <trkpt lat="47.66636" lon="6.10865">
        <ele>268.9</ele>
        <time>2020-12-10T10:33:22Z</time>
      </trkpt>
      <trkpt lat="47.66632" lon="6.10859">
        <ele>268.9</ele>
        <time>2020-12-10T10:33:24Z</time>
      </trkpt>
      <trkpt lat="47.66626" lon="6.10851">
        <ele>268.8</ele>
        <time>2020-12-10T10:33:27Z</time>
      </trkpt>
      <trkpt lat="47.66622" lon="6.10844">
        <ele>268.8</ele>
        <time>2020-12-10T10:33:29Z</time>
      </trkpt>
      <trkpt lat="47.66616" lon="6.10837">
        <ele>268.7</ele>
        <time>2020-12-10T10:33:31Z</time>
      </trkpt>
      <trkpt lat="47.66612" lon="6.10832">
        <ele>268.7</ele>
        <time>2020-12-10T10:33:32Z</time>
      </trkpt>
      <trkpt lat="47.66606" lon="6.10824">
        <ele>268.6</ele>
        <time>2020-12-10T10:33:34Z</time>
      </trkpt>
      <trkpt lat="47.66602" lon="6.10818">
        <ele>268.6</ele>
        <time>2020-12-10T10:33:36Z</time>
      </trkpt>
      <trkpt lat="47.66599" lon="6.10812">
        <ele>268.6</ele>
        <time>2020-12-10T10:33:38Z</time>
      </trkpt>
      <trkpt lat="47.66595" lon="6.10807">
        <ele>268.7</ele>
        <time>2020-12-10T10:33:40Z</time>
      </trkpt>
      <trkpt lat="47.66589" lon="6.10806">
        <ele>268.7</ele>
        <time>2020-12-10T10:33:42Z</time>
      </trkpt>
      <trkpt lat="47.66584" lon="6.10813">
        <ele>268.5</ele>
        <time>2020-12-10T10:33:44Z</time>
      </trkpt>
      <trkpt lat="47.66579" lon="6.10821">
        <ele>268.1</ele>
        <time>2020-12-10T10:33:46Z</time>
      </trkpt>
      <trkpt lat="47.66576" lon="6.10825">
        <ele>267.8</ele>
        <time>2020-12-10T10:33:48Z</time>
      </trkpt>
      <trkpt lat="47.66569" lon="6.10833">
        <ele>267.3</ele>
        <time>2020-12-10T10:33:51Z</time>
      </trkpt>
      <trkpt lat="47.66564" lon="6.10837">
        <ele>267</ele>
        <time>2020-12-10T10:33:52Z</time>
      </trkpt>
      <trkpt lat="47.66559" lon="6.10844">
        <ele>266.7</ele>
        <time>2020-12-10T10:33:53Z</time>
      </trkpt>
      <trkpt lat="47.66551" lon="6.10852">
        <ele>266.2</ele>
        <time>2020-12-10T10:33:56Z</time>
      </trkpt>
      <trkpt lat="47.66547" lon="6.10857">
        <ele>266</ele>
        <time>2020-12-10T10:33:57Z</time>
      </trkpt>
      <trkpt lat="47.66542" lon="6.10864">
        <ele>265.6</ele>
        <time>2020-12-10T10:33:58Z</time>
      </trkpt>
      <trkpt lat="47.66538" lon="6.10871">
        <ele>265.4</ele>
        <time>2020-12-10T10:33:59Z</time>
      </trkpt>
      <trkpt lat="47.66535" lon="6.10877">
        <ele>265.1</ele>
        <time>2020-12-10T10:34:01Z</time>
      </trkpt>
      <trkpt lat="47.66531" lon="6.10886">
        <ele>264.9</ele>
        <time>2020-12-10T10:34:02Z</time>
      </trkpt>
      <trkpt lat="47.66528" lon="6.10891">
        <ele>264.7</ele>
        <time>2020-12-10T10:34:04Z</time>
      </trkpt>
      <trkpt lat="47.66522" lon="6.10895">
        <ele>264.3</ele>
        <time>2020-12-10T10:34:07Z</time>
      </trkpt>
      <trkpt lat="47.66518" lon="6.10897">
        <ele>264.1</ele>
        <time>2020-12-10T10:34:09Z</time>
      </trkpt>
      <trkpt lat="47.66513" lon="6.10902">
        <ele>263.8</ele>
        <time>2020-12-10T10:34:11Z</time>
      </trkpt>
      <trkpt lat="47.66511" lon="6.10908">
        <ele>263.6</ele>
        <time>2020-12-10T10:34:13Z</time>
      </trkpt>
      <trkpt lat="47.66508" lon="6.10915">
        <ele>263.4</ele>
        <time>2020-12-10T10:34:16Z</time>
      </trkpt>
      <trkpt lat="47.66504" lon="6.10922">
        <ele>263.1</ele>
        <time>2020-12-10T10:34:18Z</time>
      </trkpt>
      <trkpt lat="47.665" lon="6.10928">
        <ele>262.7</ele>
        <time>2020-12-10T10:34:19Z</time>
      </trkpt>
      <trkpt lat="47.66495" lon="6.10939">
        <ele>262.4</ele>
        <time>2020-12-10T10:34:21Z</time>
      </trkpt>
      <trkpt lat="47.66491" lon="6.10946">
        <ele>262.1</ele>
        <time>2020-12-10T10:34:23Z</time>
      </trkpt>
      <trkpt lat="47.66486" lon="6.10954">
        <ele>261.8</ele>
        <time>2020-12-10T10:34:24Z</time>
      </trkpt>
      <trkpt lat="47.66482" lon="6.1096">
        <ele>261.5</ele>
        <time>2020-12-10T10:34:26Z</time>
      </trkpt>
      <trkpt lat="47.66476" lon="6.10966">
        <ele>261.2</ele>
        <time>2020-12-10T10:34:27Z</time>
      </trkpt>
      <trkpt lat="47.66472" lon="6.10972">
        <ele>261</ele>
        <time>2020-12-10T10:34:28Z</time>
      </trkpt>
      <trkpt lat="47.66467" lon="6.10978">
        <ele>260.7</ele>
        <time>2020-12-10T10:34:30Z</time>
      </trkpt>
      <trkpt lat="47.66452" lon="6.1099">
        <ele>260.1</ele>
        <time>2020-12-10T10:34:31Z</time>
      </trkpt>
      <trkpt lat="47.66446" lon="6.10995">
        <ele>259.8</ele>
        <time>2020-12-10T10:34:32Z</time>
      </trkpt>
      <trkpt lat="47.66441" lon="6.10998">
        <ele>259.6</ele>
        <time>2020-12-10T10:34:33Z</time>
      </trkpt>
      <trkpt lat="47.66437" lon="6.11">
        <ele>259.5</ele>
        <time>2020-12-10T10:34:34Z</time>
      </trkpt>
      <trkpt lat="47.6643" lon="6.10992">
        <ele>259.5</ele>
        <time>2020-12-10T10:34:37Z</time>
      </trkpt>
      <trkpt lat="47.66427" lon="6.10987">
        <ele>259.5</ele>
        <time>2020-12-10T10:34:39Z</time>
      </trkpt>
      <trkpt lat="47.66422" lon="6.10978">
        <ele>259.7</ele>
        <time>2020-12-10T10:34:41Z</time>
      </trkpt>
      <trkpt lat="47.66419" lon="6.10971">
        <ele>259.8</ele>
        <time>2020-12-10T10:34:42Z</time>
      </trkpt>
      <trkpt lat="47.66416" lon="6.10958">
        <ele>260</ele>
        <time>2020-12-10T10:34:45Z</time>
      </trkpt>
      <trkpt lat="47.66415" lon="6.10951">
        <ele>260.1</ele>
        <time>2020-12-10T10:34:46Z</time>
      </trkpt>
      <trkpt lat="47.66413" lon="6.10944">
        <ele>260.3</ele>
        <time>2020-12-10T10:34:48Z</time>
      </trkpt>
      <trkpt lat="47.66411" lon="6.10936">
        <ele>260.5</ele>
        <time>2020-12-10T10:34:50Z</time>
      </trkpt>
      <trkpt lat="47.66409" lon="6.10927">
        <ele>260.6</ele>
        <time>2020-12-10T10:34:51Z</time>
      </trkpt>
      <trkpt lat="47.66407" lon="6.10921">
        <ele>260.8</ele>
        <time>2020-12-10T10:34:52Z</time>
      </trkpt>
      <trkpt lat="47.66404" lon="6.10914">
        <ele>260.9</ele>
        <time>2020-12-10T10:34:54Z</time>
      </trkpt>
      <trkpt lat="47.66401" lon="6.10908">
        <ele>260.8</ele>
        <time>2020-12-10T10:34:55Z</time>
      </trkpt>
      <trkpt lat="47.66398" lon="6.109">
        <ele>260.8</ele>
        <time>2020-12-10T10:34:58Z</time>
      </trkpt>
      <trkpt lat="47.66393" lon="6.10891">
        <ele>260.8</ele>
        <time>2020-12-10T10:35:00Z</time>
      </trkpt>
      <trkpt lat="47.6639" lon="6.10883">
        <ele>260.8</ele>
        <time>2020-12-10T10:35:01Z</time>
      </trkpt>
      <trkpt lat="47.66386" lon="6.10875">
        <ele>260.8</ele>
        <time>2020-12-10T10:35:03Z</time>
      </trkpt>
      <trkpt lat="47.66383" lon="6.10869">
        <ele>260.8</ele>
        <time>2020-12-10T10:35:04Z</time>
      </trkpt>
      <trkpt lat="47.66379" lon="6.10861">
        <ele>260.8</ele>
        <time>2020-12-10T10:35:07Z</time>
      </trkpt>
      <trkpt lat="47.66375" lon="6.10852">
        <ele>260.9</ele>
        <time>2020-12-10T10:35:09Z</time>
      </trkpt>
      <trkpt lat="47.6637" lon="6.10844">
        <ele>260.9</ele>
        <time>2020-12-10T10:35:11Z</time>
      </trkpt>
      <trkpt lat="47.66367" lon="6.10838">
        <ele>261</ele>
        <time>2020-12-10T10:35:12Z</time>
      </trkpt>
      <trkpt lat="47.66363" lon="6.10832">
        <ele>261</ele>
        <time>2020-12-10T10:35:13Z</time>
      </trkpt>
      <trkpt lat="47.66357" lon="6.10825">
        <ele>261</ele>
        <time>2020-12-10T10:35:16Z</time>
      </trkpt>
      <trkpt lat="47.66352" lon="6.10818">
        <ele>261</ele>
        <time>2020-12-10T10:35:17Z</time>
      </trkpt>
      <trkpt lat="47.66349" lon="6.10813">
        <ele>261</ele>
        <time>2020-12-10T10:35:19Z</time>
      </trkpt>
      <trkpt lat="47.66343" lon="6.10806">
        <ele>261</ele>
        <time>2020-12-10T10:35:21Z</time>
      </trkpt>
      <trkpt lat="47.66339" lon="6.108">
        <ele>261</ele>
        <time>2020-12-10T10:35:22Z</time>
      </trkpt>
      <trkpt lat="47.66336" lon="6.10796">
        <ele>261</ele>
        <time>2020-12-10T10:35:24Z</time>
      </trkpt>
      <trkpt lat="47.66331" lon="6.1079">
        <ele>261</ele>
        <time>2020-12-10T10:35:26Z</time>
      </trkpt>
      <trkpt lat="47.66327" lon="6.10784">
        <ele>261.1</ele>
        <time>2020-12-10T10:35:27Z</time>
      </trkpt>
      <trkpt lat="47.66323" lon="6.10779">
        <ele>261.1</ele>
        <time>2020-12-10T10:35:29Z</time>
      </trkpt>
      <trkpt lat="47.66318" lon="6.10773">
        <ele>261.2</ele>
        <time>2020-12-10T10:35:31Z</time>
      </trkpt>
      <trkpt lat="47.66314" lon="6.10768">
        <ele>261.2</ele>
        <time>2020-12-10T10:35:34Z</time>
      </trkpt>
      <trkpt lat="47.66311" lon="6.10762">
        <ele>261.3</ele>
        <time>2020-12-10T10:35:35Z</time>
      </trkpt>
      <trkpt lat="47.66309" lon="6.10756">
        <ele>261.3</ele>
        <time>2020-12-10T10:35:38Z</time>
      </trkpt>
      <trkpt lat="47.66306" lon="6.10748">
        <ele>261.3</ele>
        <time>2020-12-10T10:35:41Z</time>
      </trkpt>
      <trkpt lat="47.66298" lon="6.10749">
        <ele>261.4</ele>
        <time>2020-12-10T10:35:43Z</time>
      </trkpt>
      <trkpt lat="47.66293" lon="6.1075">
        <ele>261.5</ele>
        <time>2020-12-10T10:35:45Z</time>
      </trkpt>
      <trkpt lat="47.66288" lon="6.10754">
        <ele>261.5</ele>
        <time>2020-12-10T10:35:47Z</time>
      </trkpt>
      <trkpt lat="47.66283" lon="6.10756">
        <ele>261.6</ele>
        <time>2020-12-10T10:35:49Z</time>
      </trkpt>
      <trkpt lat="47.66277" lon="6.10758">
        <ele>261.7</ele>
        <time>2020-12-10T10:35:52Z</time>
      </trkpt>
      <trkpt lat="47.66273" lon="6.10759">
        <ele>261.7</ele>
        <time>2020-12-10T10:35:53Z</time>
      </trkpt>
      <trkpt lat="47.66267" lon="6.10758">
        <ele>261.8</ele>
        <time>2020-12-10T10:35:55Z</time>
      </trkpt>
      <trkpt lat="47.66264" lon="6.10754">
        <ele>261.8</ele>
        <time>2020-12-10T10:35:57Z</time>
      </trkpt>
      <trkpt lat="47.66261" lon="6.10747">
        <ele>261.8</ele>
        <time>2020-12-10T10:35:59Z</time>
      </trkpt>
      <trkpt lat="47.66257" lon="6.10741">
        <ele>261.6</ele>
        <time>2020-12-10T10:36:01Z</time>
      </trkpt>
      <trkpt lat="47.66254" lon="6.10734">
        <ele>261.4</ele>
        <time>2020-12-10T10:36:03Z</time>
      </trkpt>
      <trkpt lat="47.6625" lon="6.10727">
        <ele>261.2</ele>
        <time>2020-12-10T10:36:05Z</time>
      </trkpt>
      <trkpt lat="47.66247" lon="6.10717">
        <ele>260.7</ele>
        <time>2020-12-10T10:36:07Z</time>
      </trkpt>
      <trkpt lat="47.66245" lon="6.1071">
        <ele>260.4</ele>
        <time>2020-12-10T10:36:08Z</time>
      </trkpt>
      <trkpt lat="47.66243" lon="6.10702">
        <ele>260.1</ele>
        <time>2020-12-10T10:36:09Z</time>
      </trkpt>
      <trkpt lat="47.66241" lon="6.10693">
        <ele>259.7</ele>
        <time>2020-12-10T10:36:11Z</time>
      </trkpt>
      <trkpt lat="47.66234" lon="6.1066">
        <ele>258.1</ele>
        <time>2020-12-10T10:36:12Z</time>
      </trkpt>
      <trkpt lat="47.6623" lon="6.10647">
        <ele>257.4</ele>
        <time>2020-12-10T10:36:13Z</time>
      </trkpt>
      <trkpt lat="47.66227" lon="6.10635">
        <ele>256.8</ele>
        <time>2020-12-10T10:36:14Z</time>
      </trkpt>
      <trkpt lat="47.66223" lon="6.10624">
        <ele>256.1</ele>
        <time>2020-12-10T10:36:15Z</time>
      </trkpt>
      <trkpt lat="47.66219" lon="6.10613">
        <ele>255.6</ele>
        <time>2020-12-10T10:36:16Z</time>
      </trkpt>
      <trkpt lat="47.66214" lon="6.10603">
        <ele>255</ele>
        <time>2020-12-10T10:36:17Z</time>
      </trkpt>
      <trkpt lat="47.66208" lon="6.10593">
        <ele>254.4</ele>
        <time>2020-12-10T10:36:18Z</time>
      </trkpt>
      <trkpt lat="47.66202" lon="6.10583">
        <ele>253.9</ele>
        <time>2020-12-10T10:36:19Z</time>
      </trkpt>
      <trkpt lat="47.66197" lon="6.10573">
        <ele>253.7</ele>
        <time>2020-12-10T10:36:20Z</time>
      </trkpt>
      <trkpt lat="47.66191" lon="6.10564">
        <ele>253.5</ele>
        <time>2020-12-10T10:36:21Z</time>
      </trkpt>
      <trkpt lat="47.66185" lon="6.10554">
        <ele>253.4</ele>
        <time>2020-12-10T10:36:22Z</time>
      </trkpt>
      <trkpt lat="47.6618" lon="6.10546">
        <ele>253.3</ele>
        <time>2020-12-10T10:36:23Z</time>
      </trkpt>
      <trkpt lat="47.66175" lon="6.10538">
        <ele>253.2</ele>
        <time>2020-12-10T10:36:24Z</time>
      </trkpt>
      <trkpt lat="47.66171" lon="6.1053">
        <ele>253.1</ele>
        <time>2020-12-10T10:36:25Z</time>
      </trkpt>
      <trkpt lat="47.66167" lon="6.10523">
        <ele>253</ele>
        <time>2020-12-10T10:36:26Z</time>
      </trkpt>
      <trkpt lat="47.66163" lon="6.10517">
        <ele>253</ele>
        <time>2020-12-10T10:36:27Z</time>
      </trkpt>
      <trkpt lat="47.66159" lon="6.10511">
        <ele>253.1</ele>
        <time>2020-12-10T10:36:28Z</time>
      </trkpt>
      <trkpt lat="47.66156" lon="6.10506">
        <ele>253.2</ele>
        <time>2020-12-10T10:36:29Z</time>
      </trkpt>
      <trkpt lat="47.66153" lon="6.10501">
        <ele>253.3</ele>
        <time>2020-12-10T10:36:30Z</time>
      </trkpt>
      <trkpt lat="47.66147" lon="6.10492">
        <ele>253.4</ele>
        <time>2020-12-10T10:36:32Z</time>
      </trkpt>
      <trkpt lat="47.66142" lon="6.10483">
        <ele>253.4</ele>
        <time>2020-12-10T10:36:34Z</time>
      </trkpt>
      <trkpt lat="47.66137" lon="6.10475">
        <ele>253.5</ele>
        <time>2020-12-10T10:36:36Z</time>
      </trkpt>
      <trkpt lat="47.66133" lon="6.10467">
        <ele>253.6</ele>
        <time>2020-12-10T10:36:38Z</time>
      </trkpt>
      <trkpt lat="47.66129" lon="6.10457">
        <ele>253.6</ele>
        <time>2020-12-10T10:36:41Z</time>
      </trkpt>
      <trkpt lat="47.66123" lon="6.10449">
        <ele>253.7</ele>
        <time>2020-12-10T10:36:43Z</time>
      </trkpt>
      <trkpt lat="47.66113" lon="6.10432">
        <ele>254</ele>
        <time>2020-12-10T10:36:45Z</time>
      </trkpt>
      <trkpt lat="47.66109" lon="6.10427">
        <ele>254.1</ele>
        <time>2020-12-10T10:36:46Z</time>
      </trkpt>
      <trkpt lat="47.66106" lon="6.10421">
        <ele>254.2</ele>
        <time>2020-12-10T10:36:47Z</time>
      </trkpt>
      <trkpt lat="47.66103" lon="6.10416">
        <ele>254.3</ele>
        <time>2020-12-10T10:36:48Z</time>
      </trkpt>
      <trkpt lat="47.66099" lon="6.1041">
        <ele>254.2</ele>
        <time>2020-12-10T10:36:49Z</time>
      </trkpt>
      <trkpt lat="47.66096" lon="6.10405">
        <ele>254.2</ele>
        <time>2020-12-10T10:36:50Z</time>
      </trkpt>
      <trkpt lat="47.66092" lon="6.10399">
        <ele>254.1</ele>
        <time>2020-12-10T10:36:51Z</time>
      </trkpt>
      <trkpt lat="47.66089" lon="6.10394">
        <ele>254</ele>
        <time>2020-12-10T10:36:52Z</time>
      </trkpt>
      <trkpt lat="47.66086" lon="6.10388">
        <ele>253.9</ele>
        <time>2020-12-10T10:36:53Z</time>
      </trkpt>
      <trkpt lat="47.66082" lon="6.10384">
        <ele>253.8</ele>
        <time>2020-12-10T10:36:54Z</time>
      </trkpt>
      <trkpt lat="47.66078" lon="6.1038">
        <ele>253.6</ele>
        <time>2020-12-10T10:36:55Z</time>
      </trkpt>
      <trkpt lat="47.66072" lon="6.10379">
        <ele>253.5</ele>
        <time>2020-12-10T10:36:57Z</time>
      </trkpt>
      <trkpt lat="47.66067" lon="6.10385">
        <ele>253.7</ele>
        <time>2020-12-10T10:36:59Z</time>
      </trkpt>
      <trkpt lat="47.66069" lon="6.10394">
        <ele>254</ele>
        <time>2020-12-10T10:37:02Z</time>
      </trkpt>
      <trkpt lat="47.66073" lon="6.104">
        <ele>254.3</ele>
        <time>2020-12-10T10:37:04Z</time>
      </trkpt>
      <trkpt lat="47.66077" lon="6.10405">
        <ele>254.5</ele>
        <time>2020-12-10T10:37:06Z</time>
      </trkpt>
      <trkpt lat="47.6608" lon="6.1041">
        <ele>254.7</ele>
        <time>2020-12-10T10:37:09Z</time>
      </trkpt>
      <trkpt lat="47.66084" lon="6.10415">
        <ele>254.9</ele>
        <time>2020-12-10T10:37:12Z</time>
      </trkpt>
      <trkpt lat="47.66087" lon="6.10421">
        <ele>254.9</ele>
        <time>2020-12-10T10:37:14Z</time>
      </trkpt>
      <trkpt lat="47.66091" lon="6.10428">
        <ele>254.7</ele>
        <time>2020-12-10T10:37:17Z</time>
      </trkpt>
      <trkpt lat="47.66095" lon="6.10437">
        <ele>254.6</ele>
        <time>2020-12-10T10:37:20Z</time>
      </trkpt>
      <trkpt lat="47.66098" lon="6.10444">
        <ele>254.5</ele>
        <time>2020-12-10T10:37:21Z</time>
      </trkpt>
      <trkpt lat="47.66101" lon="6.10453">
        <ele>254.5</ele>
        <time>2020-12-10T10:37:24Z</time>
      </trkpt>
      <trkpt lat="47.66103" lon="6.10461">
        <ele>254.4</ele>
        <time>2020-12-10T10:37:26Z</time>
      </trkpt>
      <trkpt lat="47.66104" lon="6.10471">
        <ele>254.4</ele>
        <time>2020-12-10T10:37:28Z</time>
      </trkpt>
      <trkpt lat="47.66103" lon="6.10482">
        <ele>254.5</ele>
        <time>2020-12-10T10:37:31Z</time>
      </trkpt>
      <trkpt lat="47.66102" lon="6.10491">
        <ele>254.5</ele>
        <time>2020-12-10T10:37:32Z</time>
      </trkpt>
      <trkpt lat="47.661" lon="6.10498">
        <ele>254.6</ele>
        <time>2020-12-10T10:37:34Z</time>
      </trkpt>
      <trkpt lat="47.66096" lon="6.10508">
        <ele>254.3</ele>
        <time>2020-12-10T10:37:36Z</time>
      </trkpt>
      <trkpt lat="47.6609" lon="6.10519">
        <ele>253.8</ele>
        <time>2020-12-10T10:37:38Z</time>
      </trkpt>
      <trkpt lat="47.6608" lon="6.10537">
        <ele>253.1</ele>
        <time>2020-12-10T10:37:39Z</time>
      </trkpt>
      <trkpt lat="47.66073" lon="6.10547">
        <ele>253</ele>
        <time>2020-12-10T10:37:43Z</time>
      </trkpt>
      <trkpt lat="47.66066" lon="6.10558">
        <ele>253.1</ele>
        <time>2020-12-10T10:37:43Z</time>
      </trkpt>
      <trkpt lat="47.66061" lon="6.10565">
        <ele>253.2</ele>
        <time>2020-12-10T10:37:46Z</time>
      </trkpt>
      <trkpt lat="47.66055" lon="6.10574">
        <ele>253.5</ele>
        <time>2020-12-10T10:37:49Z</time>
      </trkpt>
      <trkpt lat="47.66049" lon="6.10581">
        <ele>253.7</ele>
        <time>2020-12-10T10:37:50Z</time>
      </trkpt>
      <trkpt lat="47.66043" lon="6.10588">
        <ele>254.2</ele>
        <time>2020-12-10T10:37:53Z</time>
      </trkpt>
      <trkpt lat="47.66038" lon="6.10595">
        <ele>254.4</ele>
        <time>2020-12-10T10:37:54Z</time>
      </trkpt>
      <trkpt lat="47.66035" lon="6.10599">
        <ele>254.5</ele>
        <time>2020-12-10T10:37:56Z</time>
      </trkpt>
      <trkpt lat="47.6603" lon="6.10606">
        <ele>254.5</ele>
        <time>2020-12-10T10:37:57Z</time>
      </trkpt>
      <trkpt lat="47.66026" lon="6.10611">
        <ele>254.4</ele>
        <time>2020-12-10T10:37:57Z</time>
      </trkpt>
      <trkpt lat="47.66022" lon="6.10617">
        <ele>254.3</ele>
        <time>2020-12-10T10:38:00Z</time>
      </trkpt>
      <trkpt lat="47.66018" lon="6.10621">
        <ele>254.1</ele>
        <time>2020-12-10T10:38:01Z</time>
      </trkpt>
      <trkpt lat="47.66014" lon="6.10626">
        <ele>253.9</ele>
        <time>2020-12-10T10:38:01Z</time>
      </trkpt>
      <trkpt lat="47.6601" lon="6.10631">
        <ele>253.6</ele>
        <time>2020-12-10T10:38:04Z</time>
      </trkpt>
      <trkpt lat="47.66006" lon="6.10636">
        <ele>253.2</ele>
        <time>2020-12-10T10:38:06Z</time>
      </trkpt>
      <trkpt lat="47.66002" lon="6.10644">
        <ele>252.5</ele>
        <time>2020-12-10T10:38:08Z</time>
      </trkpt>
      <trkpt lat="47.65998" lon="6.1065">
        <ele>251.8</ele>
        <time>2020-12-10T10:38:09Z</time>
      </trkpt>
      <trkpt lat="47.65994" lon="6.10656">
        <ele>251</ele>
        <time>2020-12-10T10:38:09Z</time>
      </trkpt>
      <trkpt lat="47.6599" lon="6.10662">
        <ele>250.1</ele>
        <time>2020-12-10T10:38:13Z</time>
      </trkpt>
      <trkpt lat="47.65985" lon="6.1067">
        <ele>249.4</ele>
        <time>2020-12-10T10:38:15Z</time>
      </trkpt>
      <trkpt lat="47.6598" lon="6.10676">
        <ele>249.3</ele>
        <time>2020-12-10T10:38:16Z</time>
      </trkpt>
      <trkpt lat="47.65976" lon="6.10681">
        <ele>249.1</ele>
        <time>2020-12-10T10:38:18Z</time>
      </trkpt>
      <trkpt lat="47.65971" lon="6.10689">
        <ele>248.8</ele>
        <time>2020-12-10T10:38:20Z</time>
      </trkpt>
      <trkpt lat="47.65966" lon="6.10696">
        <ele>248.4</ele>
        <time>2020-12-10T10:38:21Z</time>
      </trkpt>
      <trkpt lat="47.65963" lon="6.10702">
        <ele>248.1</ele>
        <time>2020-12-10T10:38:23Z</time>
      </trkpt>
      <trkpt lat="47.65957" lon="6.10712">
        <ele>247.6</ele>
        <time>2020-12-10T10:38:23Z</time>
      </trkpt>
      <trkpt lat="47.65951" lon="6.10723">
        <ele>246.9</ele>
        <time>2020-12-10T10:38:25Z</time>
      </trkpt>
      <trkpt lat="47.65946" lon="6.10732">
        <ele>246.3</ele>
        <time>2020-12-10T10:38:28Z</time>
      </trkpt>
      <trkpt lat="47.65942" lon="6.10738">
        <ele>245.7</ele>
        <time>2020-12-10T10:38:30Z</time>
      </trkpt>
      <trkpt lat="47.65929" lon="6.10755">
        <ele>244.2</ele>
        <time>2020-12-10T10:38:30Z</time>
      </trkpt>
      <trkpt lat="47.65924" lon="6.10762">
        <ele>243.7</ele>
        <time>2020-12-10T10:38:31Z</time>
      </trkpt>
      <trkpt lat="47.65919" lon="6.10769">
        <ele>243.2</ele>
        <time>2020-12-10T10:38:32Z</time>
      </trkpt>
      <trkpt lat="47.65914" lon="6.10775">
        <ele>242.8</ele>
        <time>2020-12-10T10:38:33Z</time>
      </trkpt>
      <trkpt lat="47.65909" lon="6.10782">
        <ele>242.5</ele>
        <time>2020-12-10T10:38:34Z</time>
      </trkpt>
      <trkpt lat="47.65904" lon="6.10788">
        <ele>242.1</ele>
        <time>2020-12-10T10:38:35Z</time>
      </trkpt>
      <trkpt lat="47.65899" lon="6.10794">
        <ele>241.7</ele>
        <time>2020-12-10T10:38:36Z</time>
      </trkpt>
      <trkpt lat="47.65895" lon="6.108">
        <ele>241.4</ele>
        <time>2020-12-10T10:38:37Z</time>
      </trkpt>
      <trkpt lat="47.6589" lon="6.10806">
        <ele>241</ele>
        <time>2020-12-10T10:38:38Z</time>
      </trkpt>
      <trkpt lat="47.65886" lon="6.10813">
        <ele>240.6</ele>
        <time>2020-12-10T10:38:39Z</time>
      </trkpt>
      <trkpt lat="47.65881" lon="6.10819">
        <ele>240.2</ele>
        <time>2020-12-10T10:38:40Z</time>
      </trkpt>
      <trkpt lat="47.65877" lon="6.10824">
        <ele>239.8</ele>
        <time>2020-12-10T10:38:41Z</time>
      </trkpt>
      <trkpt lat="47.65873" lon="6.10829">
        <ele>239.4</ele>
        <time>2020-12-10T10:38:42Z</time>
      </trkpt>
      <trkpt lat="47.65869" lon="6.10834">
        <ele>239</ele>
        <time>2020-12-10T10:38:43Z</time>
      </trkpt>
      <trkpt lat="47.65866" lon="6.10839">
        <ele>238.9</ele>
        <time>2020-12-10T10:38:44Z</time>
      </trkpt>
      <trkpt lat="47.65862" lon="6.10843">
        <ele>238.7</ele>
        <time>2020-12-10T10:38:45Z</time>
      </trkpt>
      <trkpt lat="47.65859" lon="6.10848">
        <ele>238.6</ele>
        <time>2020-12-10T10:38:46Z</time>
      </trkpt>
      <trkpt lat="47.65853" lon="6.10857">
        <ele>238.2</ele>
        <time>2020-12-10T10:38:48Z</time>
      </trkpt>
      <trkpt lat="47.65846" lon="6.10867">
        <ele>237.9</ele>
        <time>2020-12-10T10:38:50Z</time>
      </trkpt>
      <trkpt lat="47.65843" lon="6.10871">
        <ele>237.8</ele>
        <time>2020-12-10T10:38:51Z</time>
      </trkpt>
      <trkpt lat="47.6584" lon="6.10876">
        <ele>237.6</ele>
        <time>2020-12-10T10:38:52Z</time>
      </trkpt>
      <trkpt lat="47.65836" lon="6.10881">
        <ele>237.4</ele>
        <time>2020-12-10T10:38:53Z</time>
      </trkpt>
      <trkpt lat="47.6583" lon="6.10889">
        <ele>237.2</ele>
        <time>2020-12-10T10:38:55Z</time>
      </trkpt>
      <trkpt lat="47.65824" lon="6.10897">
        <ele>237</ele>
        <time>2020-12-10T10:38:57Z</time>
      </trkpt>
      <trkpt lat="47.65819" lon="6.10904">
        <ele>236.9</ele>
        <time>2020-12-10T10:38:59Z</time>
      </trkpt>
      <trkpt lat="47.65813" lon="6.10912">
        <ele>236.7</ele>
        <time>2020-12-10T10:39:01Z</time>
      </trkpt>
      <trkpt lat="47.65808" lon="6.1092">
        <ele>236.6</ele>
        <time>2020-12-10T10:39:03Z</time>
      </trkpt>
      <trkpt lat="47.65807" lon="6.10928">
        <ele>236.8</ele>
        <time>2020-12-10T10:39:07Z</time>
      </trkpt>
      <trkpt lat="47.65802" lon="6.10932">
        <ele>236.7</ele>
        <time>2020-12-10T10:39:08Z</time>
      </trkpt>
      <trkpt lat="47.65796" lon="6.10938">
        <ele>236.5</ele>
        <time>2020-12-10T10:39:09Z</time>
      </trkpt>
      <trkpt lat="47.65791" lon="6.10943">
        <ele>236.4</ele>
        <time>2020-12-10T10:39:11Z</time>
      </trkpt>
      <trkpt lat="47.65782" lon="6.10955">
        <ele>236.3</ele>
        <time>2020-12-10T10:39:13Z</time>
      </trkpt>
      <trkpt lat="47.65776" lon="6.10961">
        <ele>236.2</ele>
        <time>2020-12-10T10:39:15Z</time>
      </trkpt>
      <trkpt lat="47.65771" lon="6.10969">
        <ele>236.2</ele>
        <time>2020-12-10T10:39:15Z</time>
      </trkpt>
      <trkpt lat="47.65765" lon="6.10977">
        <ele>236.1</ele>
        <time>2020-12-10T10:39:19Z</time>
      </trkpt>
      <trkpt lat="47.65762" lon="6.10983">
        <ele>236.1</ele>
        <time>2020-12-10T10:39:20Z</time>
      </trkpt>
      <trkpt lat="47.65757" lon="6.10991">
        <ele>236.1</ele>
        <time>2020-12-10T10:39:22Z</time>
      </trkpt>
      <trkpt lat="47.65752" lon="6.10999">
        <ele>236.1</ele>
        <time>2020-12-10T10:39:24Z</time>
      </trkpt>
      <trkpt lat="47.65749" lon="6.11004">
        <ele>236.1</ele>
        <time>2020-12-10T10:39:25Z</time>
      </trkpt>
      <trkpt lat="47.65743" lon="6.11012">
        <ele>236</ele>
        <time>2020-12-10T10:39:27Z</time>
      </trkpt>
      <trkpt lat="47.65739" lon="6.11018">
        <ele>236</ele>
        <time>2020-12-10T10:39:28Z</time>
      </trkpt>
      <trkpt lat="47.65732" lon="6.11026">
        <ele>235.8</ele>
        <time>2020-12-10T10:39:31Z</time>
      </trkpt>
      <trkpt lat="47.65727" lon="6.11031">
        <ele>235.7</ele>
        <time>2020-12-10T10:39:32Z</time>
      </trkpt>
      <trkpt lat="47.65722" lon="6.11033">
        <ele>235.6</ele>
        <time>2020-12-10T10:39:33Z</time>
      </trkpt>
      <trkpt lat="47.65718" lon="6.11035">
        <ele>235.3</ele>
        <time>2020-12-10T10:39:33Z</time>
      </trkpt>
      <trkpt lat="47.65713" lon="6.11032">
        <ele>234.9</ele>
        <time>2020-12-10T10:39:36Z</time>
      </trkpt>
      <trkpt lat="47.65709" lon="6.11025">
        <ele>234.4</ele>
        <time>2020-12-10T10:39:38Z</time>
      </trkpt>
      <trkpt lat="47.65706" lon="6.1102">
        <ele>234.1</ele>
        <time>2020-12-10T10:39:40Z</time>
      </trkpt>
      <trkpt lat="47.65702" lon="6.11014">
        <ele>233.6</ele>
        <time>2020-12-10T10:39:43Z</time>
      </trkpt>
      <trkpt lat="47.65698" lon="6.11009">
        <ele>233.2</ele>
        <time>2020-12-10T10:39:44Z</time>
      </trkpt>
      <trkpt lat="47.65694" lon="6.11005">
        <ele>232.8</ele>
        <time>2020-12-10T10:39:45Z</time>
      </trkpt>
      <trkpt lat="47.65689" lon="6.11001">
        <ele>232.4</ele>
        <time>2020-12-10T10:39:45Z</time>
      </trkpt>
      <trkpt lat="47.65683" lon="6.10996">
        <ele>231.9</ele>
        <time>2020-12-10T10:39:48Z</time>
      </trkpt>
      <trkpt lat="47.65679" lon="6.10993">
        <ele>231.5</ele>
        <time>2020-12-10T10:39:50Z</time>
      </trkpt>
      <trkpt lat="47.65673" lon="6.1099">
        <ele>231.1</ele>
        <time>2020-12-10T10:39:51Z</time>
      </trkpt>
      <trkpt lat="47.65668" lon="6.10987">
        <ele>230.7</ele>
        <time>2020-12-10T10:39:52Z</time>
      </trkpt>
      <trkpt lat="47.65661" lon="6.10988">
        <ele>230.7</ele>
        <time>2020-12-10T10:39:57Z</time>
      </trkpt>
      <trkpt lat="47.65655" lon="6.1099">
        <ele>230.6</ele>
        <time>2020-12-10T10:40:00Z</time>
      </trkpt>
      <trkpt lat="47.65651" lon="6.10991">
        <ele>230.6</ele>
        <time>2020-12-10T10:40:02Z</time>
      </trkpt>
      <trkpt lat="47.65646" lon="6.10992">
        <ele>230.6</ele>
        <time>2020-12-10T10:40:04Z</time>
      </trkpt>
      <trkpt lat="47.6564" lon="6.10992">
        <ele>230.6</ele>
        <time>2020-12-10T10:40:06Z</time>
      </trkpt>
      <trkpt lat="47.65633" lon="6.10993">
        <ele>230.5</ele>
        <time>2020-12-10T10:40:07Z</time>
      </trkpt>
      <trkpt lat="47.65628" lon="6.10993">
        <ele>230.4</ele>
        <time>2020-12-10T10:40:11Z</time>
      </trkpt>
      <trkpt lat="47.65622" lon="6.10995">
        <ele>230.4</ele>
        <time>2020-12-10T10:40:13Z</time>
      </trkpt>
      <trkpt lat="47.65616" lon="6.10997">
        <ele>230.4</ele>
        <time>2020-12-10T10:40:15Z</time>
      </trkpt>
      <trkpt lat="47.65611" lon="6.10998">
        <ele>230.3</ele>
        <time>2020-12-10T10:40:16Z</time>
      </trkpt>
      <trkpt lat="47.65605" lon="6.11">
        <ele>230.3</ele>
        <time>2020-12-10T10:40:20Z</time>
      </trkpt>
      <trkpt lat="47.65599" lon="6.11">
        <ele>230.2</ele>
        <time>2020-12-10T10:40:23Z</time>
      </trkpt>
      <trkpt lat="47.65594" lon="6.10998">
        <ele>230.1</ele>
        <time>2020-12-10T10:40:24Z</time>
      </trkpt>
      <trkpt lat="47.6559" lon="6.10992">
        <ele>230.1</ele>
        <time>2020-12-10T10:40:40Z</time>
      </trkpt>
      <trkpt lat="47.65587" lon="6.10987">
        <ele>230</ele>
        <time>2020-12-10T10:40:41Z</time>
      </trkpt>
      <trkpt lat="47.65583" lon="6.10982">
        <ele>230</ele>
        <time>2020-12-10T10:40:46Z</time>
      </trkpt>
      <trkpt lat="47.65578" lon="6.10977">
        <ele>229.8</ele>
        <time>2020-12-10T10:40:49Z</time>
      </trkpt>
      <trkpt lat="47.65573" lon="6.10974">
        <ele>229.7</ele>
        <time>2020-12-10T10:40:53Z</time>
      </trkpt>
      <trkpt lat="47.65567" lon="6.10972">
        <ele>229.5</ele>
        <time>2020-12-10T10:40:55Z</time>
      </trkpt>
      <trkpt lat="47.65562" lon="6.10972">
        <ele>229.3</ele>
        <time>2020-12-10T10:40:57Z</time>
      </trkpt>
      <trkpt lat="47.65556" lon="6.10971">
        <ele>229.1</ele>
        <time>2020-12-10T10:41:00Z</time>
      </trkpt>
      <trkpt lat="47.65551" lon="6.1097">
        <ele>228.9</ele>
        <time>2020-12-10T10:41:01Z</time>
      </trkpt>
      <trkpt lat="47.65546" lon="6.10969">
        <ele>228.8</ele>
        <time>2020-12-10T10:41:01Z</time>
      </trkpt>
      <trkpt lat="47.6554" lon="6.10967">
        <ele>228.5</ele>
        <time>2020-12-10T10:41:04Z</time>
      </trkpt>
      <trkpt lat="47.65534" lon="6.10964">
        <ele>228.3</ele>
        <time>2020-12-10T10:41:07Z</time>
      </trkpt>
      <trkpt lat="47.6553" lon="6.10962">
        <ele>228.1</ele>
        <time>2020-12-10T10:41:08Z</time>
      </trkpt>
      <trkpt lat="47.65525" lon="6.1096">
        <ele>227.9</ele>
        <time>2020-12-10T10:41:11Z</time>
      </trkpt>
      <trkpt lat="47.65521" lon="6.1096">
        <ele>227.8</ele>
        <time>2020-12-10T10:41:11Z</time>
      </trkpt>
      <trkpt lat="47.65515" lon="6.10962">
        <ele>227.6</ele>
        <time>2020-12-10T10:41:15Z</time>
      </trkpt>
      <trkpt lat="47.65509" lon="6.10963">
        <ele>227.4</ele>
        <time>2020-12-10T10:41:18Z</time>
      </trkpt>
      <trkpt lat="47.65504" lon="6.1096">
        <ele>227.2</ele>
        <time>2020-12-10T10:41:20Z</time>
      </trkpt>
      <trkpt lat="47.65498" lon="6.10963">
        <ele>227</ele>
        <time>2020-12-10T10:41:24Z</time>
      </trkpt>
      <trkpt lat="47.65492" lon="6.1097">
        <ele>226.9</ele>
        <time>2020-12-10T10:41:27Z</time>
      </trkpt>
      <trkpt lat="47.65489" lon="6.10976">
        <ele>226.9</ele>
        <time>2020-12-10T10:41:28Z</time>
      </trkpt>
      <trkpt lat="47.65484" lon="6.10981">
        <ele>226.8</ele>
        <time>2020-12-10T10:41:31Z</time>
      </trkpt>
      <trkpt lat="47.65479" lon="6.10986">
        <ele>226.7</ele>
        <time>2020-12-10T10:41:32Z</time>
      </trkpt>
      <trkpt lat="47.65478" lon="6.10996">
        <ele>226.9</ele>
        <time>2020-12-10T10:41:35Z</time>
      </trkpt>
      <trkpt lat="47.65477" lon="6.11004">
        <ele>227.1</ele>
        <time>2020-12-10T10:41:36Z</time>
      </trkpt>
      <trkpt lat="47.65476" lon="6.11014">
        <ele>227.4</ele>
        <time>2020-12-10T10:41:39Z</time>
      </trkpt>
      <trkpt lat="47.65475" lon="6.11021">
        <ele>227.7</ele>
        <time>2020-12-10T10:41:41Z</time>
      </trkpt>
      <trkpt lat="47.65473" lon="6.11029">
        <ele>228</ele>
        <time>2020-12-10T10:41:43Z</time>
      </trkpt>
      <trkpt lat="47.6547" lon="6.11036">
        <ele>228.2</ele>
        <time>2020-12-10T10:41:46Z</time>
      </trkpt>
      <trkpt lat="47.65467" lon="6.11043">
        <ele>228.4</ele>
        <time>2020-12-10T10:41:48Z</time>
      </trkpt>
      <trkpt lat="47.65463" lon="6.1105">
        <ele>228.6</ele>
        <time>2020-12-10T10:41:51Z</time>
      </trkpt>
      <trkpt lat="47.65458" lon="6.11058">
        <ele>228.8</ele>
        <time>2020-12-10T10:41:54Z</time>
      </trkpt>
      <trkpt lat="47.65455" lon="6.11062">
        <ele>228.9</ele>
        <time>2020-12-10T10:41:55Z</time>
      </trkpt>
      <trkpt lat="47.65451" lon="6.11067">
        <ele>229</ele>
        <time>2020-12-10T10:41:58Z</time>
      </trkpt>
      <trkpt lat="47.65446" lon="6.11072">
        <ele>229.1</ele>
        <time>2020-12-10T10:42:01Z</time>
      </trkpt>
      <trkpt lat="47.65442" lon="6.11076">
        <ele>229.2</ele>
        <time>2020-12-10T10:42:03Z</time>
      </trkpt>
      <trkpt lat="47.65437" lon="6.11079">
        <ele>229.3</ele>
        <time>2020-12-10T10:42:06Z</time>
      </trkpt>
      <trkpt lat="47.65433" lon="6.11083">
        <ele>229.3</ele>
        <time>2020-12-10T10:42:07Z</time>
      </trkpt>
      <trkpt lat="47.65429" lon="6.11086">
        <ele>229.5</ele>
        <time>2020-12-10T10:42:09Z</time>
      </trkpt>
      <trkpt lat="47.65424" lon="6.1109">
        <ele>229.6</ele>
        <time>2020-12-10T10:42:12Z</time>
      </trkpt>
      <trkpt lat="47.65418" lon="6.11095">
        <ele>229.8</ele>
        <time>2020-12-10T10:42:15Z</time>
      </trkpt>
      <trkpt lat="47.65414" lon="6.11098">
        <ele>230</ele>
        <time>2020-12-10T10:42:15Z</time>
      </trkpt>
      <trkpt lat="47.65407" lon="6.11103">
        <ele>230</ele>
        <time>2020-12-10T10:42:18Z</time>
      </trkpt>
      <trkpt lat="47.65402" lon="6.11108">
        <ele>230.2</ele>
        <time>2020-12-10T10:42:22Z</time>
      </trkpt>
      <trkpt lat="47.65397" lon="6.11114">
        <ele>230.4</ele>
        <time>2020-12-10T10:42:23Z</time>
      </trkpt>
      <trkpt lat="47.65393" lon="6.11121">
        <ele>230.6</ele>
        <time>2020-12-10T10:42:27Z</time>
      </trkpt>
      <trkpt lat="47.65389" lon="6.11126">
        <ele>230.7</ele>
        <time>2020-12-10T10:42:30Z</time>
      </trkpt>
      <trkpt lat="47.65385" lon="6.11131">
        <ele>230.8</ele>
        <time>2020-12-10T10:42:32Z</time>
      </trkpt>
      <trkpt lat="47.65381" lon="6.11135">
        <ele>230.8</ele>
        <time>2020-12-10T10:42:33Z</time>
      </trkpt>
      <trkpt lat="47.65376" lon="6.11141">
        <ele>230.9</ele>
        <time>2020-12-10T10:42:36Z</time>
      </trkpt>
      <trkpt lat="47.65373" lon="6.11147">
        <ele>230.9</ele>
        <time>2020-12-10T10:42:36Z</time>
      </trkpt>
      <trkpt lat="47.65367" lon="6.11156">
        <ele>230.9</ele>
        <time>2020-12-10T10:42:39Z</time>
      </trkpt>
      <trkpt lat="47.65363" lon="6.11162">
        <ele>230.9</ele>
        <time>2020-12-10T10:42:43Z</time>
      </trkpt>
      <trkpt lat="47.65359" lon="6.11167">
        <ele>230.9</ele>
        <time>2020-12-10T10:42:44Z</time>
      </trkpt>
      <trkpt lat="47.65355" lon="6.11173">
        <ele>230.8</ele>
        <time>2020-12-10T10:42:46Z</time>
      </trkpt>
      <trkpt lat="47.65352" lon="6.11178">
        <ele>230.7</ele>
        <time>2020-12-10T10:42:48Z</time>
      </trkpt>
      <trkpt lat="47.65349" lon="6.11183">
        <ele>230.6</ele>
        <time>2020-12-10T10:42:48Z</time>
      </trkpt>
      <trkpt lat="47.65345" lon="6.11189">
        <ele>230.4</ele>
        <time>2020-12-10T10:42:50Z</time>
      </trkpt>
      <trkpt lat="47.65341" lon="6.11194">
        <ele>230.3</ele>
        <time>2020-12-10T10:42:54Z</time>
      </trkpt>
      <trkpt lat="47.65338" lon="6.112">
        <ele>230.2</ele>
        <time>2020-12-10T10:42:56Z</time>
      </trkpt>
      <trkpt lat="47.65335" lon="6.11206">
        <ele>230.1</ele>
        <time>2020-12-10T10:42:57Z</time>
      </trkpt>
      <trkpt lat="47.65331" lon="6.11213">
        <ele>230.1</ele>
        <time>2020-12-10T10:42:59Z</time>
      </trkpt>
      <trkpt lat="47.65327" lon="6.11222">
        <ele>230.2</ele>
        <time>2020-12-10T10:43:00Z</time>
      </trkpt>
      <trkpt lat="47.65323" lon="6.11229">
        <ele>230.3</ele>
        <time>2020-12-10T10:43:04Z</time>
      </trkpt>
      <trkpt lat="47.6532" lon="6.11236">
        <ele>230.3</ele>
        <time>2020-12-10T10:43:05Z</time>
      </trkpt>
      <trkpt lat="47.65317" lon="6.11242">
        <ele>230.3</ele>
        <time>2020-12-10T10:43:07Z</time>
      </trkpt>
      <trkpt lat="47.65314" lon="6.11249">
        <ele>230.3</ele>
        <time>2020-12-10T10:43:08Z</time>
      </trkpt>
      <trkpt lat="47.6531" lon="6.11258">
        <ele>230.2</ele>
        <time>2020-12-10T10:43:09Z</time>
      </trkpt>
      <trkpt lat="47.65308" lon="6.11264">
        <ele>230.1</ele>
        <time>2020-12-10T10:43:12Z</time>
      </trkpt>
      <trkpt lat="47.65304" lon="6.11275">
        <ele>229.9</ele>
        <time>2020-12-10T10:43:15Z</time>
      </trkpt>
      <trkpt lat="47.65301" lon="6.11283">
        <ele>229.8</ele>
        <time>2020-12-10T10:43:16Z</time>
      </trkpt>
      <trkpt lat="47.65298" lon="6.11293">
        <ele>229.6</ele>
        <time>2020-12-10T10:43:18Z</time>
      </trkpt>
      <trkpt lat="47.65296" lon="6.113">
        <ele>229.5</ele>
        <time>2020-12-10T10:43:19Z</time>
      </trkpt>
      <trkpt lat="47.65293" lon="6.11311">
        <ele>229.2</ele>
        <time>2020-12-10T10:43:22Z</time>
      </trkpt>
      <trkpt lat="47.65288" lon="6.11329">
        <ele>228.8</ele>
        <time>2020-12-10T10:43:23Z</time>
      </trkpt>
      <trkpt lat="47.65286" lon="6.11337">
        <ele>228.5</ele>
        <time>2020-12-10T10:43:26Z</time>
      </trkpt>
      <trkpt lat="47.65282" lon="6.11351">
        <ele>228.1</ele>
        <time>2020-12-10T10:43:29Z</time>
      </trkpt>
      <trkpt lat="47.65279" lon="6.11361">
        <ele>227.8</ele>
        <time>2020-12-10T10:43:30Z</time>
      </trkpt>
      <trkpt lat="47.65276" lon="6.1137">
        <ele>227.4</ele>
        <time>2020-12-10T10:43:30Z</time>
      </trkpt>
      <trkpt lat="47.65274" lon="6.11378">
        <ele>227.2</ele>
        <time>2020-12-10T10:43:33Z</time>
      </trkpt>
      <trkpt lat="47.6527" lon="6.11387">
        <ele>226.8</ele>
        <time>2020-12-10T10:43:33Z</time>
      </trkpt>
      <trkpt lat="47.65267" lon="6.11397">
        <ele>226.4</ele>
        <time>2020-12-10T10:43:36Z</time>
      </trkpt>
      <trkpt lat="47.65264" lon="6.11404">
        <ele>226.1</ele>
        <time>2020-12-10T10:43:36Z</time>
      </trkpt>
      <trkpt lat="47.6526" lon="6.11413">
        <ele>225.8</ele>
        <time>2020-12-10T10:43:39Z</time>
      </trkpt>
      <trkpt lat="47.65257" lon="6.11421">
        <ele>225.5</ele>
        <time>2020-12-10T10:43:39Z</time>
      </trkpt>
      <trkpt lat="47.65253" lon="6.1143">
        <ele>225.3</ele>
        <time>2020-12-10T10:43:42Z</time>
      </trkpt>
      <trkpt lat="47.65248" lon="6.11438">
        <ele>225.2</ele>
        <time>2020-12-10T10:43:44Z</time>
      </trkpt>
      <trkpt lat="47.65242" lon="6.11449">
        <ele>225.2</ele>
        <time>2020-12-10T10:43:47Z</time>
      </trkpt>
      <trkpt lat="47.65239" lon="6.11455">
        <ele>225.1</ele>
        <time>2020-12-10T10:43:48Z</time>
      </trkpt>
      <trkpt lat="47.65236" lon="6.1146">
        <ele>225.1</ele>
        <time>2020-12-10T10:43:49Z</time>
      </trkpt>
      <trkpt lat="47.6523" lon="6.11467">
        <ele>224.9</ele>
        <time>2020-12-10T10:43:51Z</time>
      </trkpt>
      <trkpt lat="47.65226" lon="6.11471">
        <ele>224.8</ele>
        <time>2020-12-10T10:43:53Z</time>
      </trkpt>
      <trkpt lat="47.65218" lon="6.11476">
        <ele>224.5</ele>
        <time>2020-12-10T10:43:55Z</time>
      </trkpt>
      <trkpt lat="47.65214" lon="6.1148">
        <ele>224.3</ele>
        <time>2020-12-10T10:43:55Z</time>
      </trkpt>
      <trkpt lat="47.65207" lon="6.11482">
        <ele>224.1</ele>
        <time>2020-12-10T10:43:59Z</time>
      </trkpt>
      <trkpt lat="47.65202" lon="6.11486">
        <ele>223.8</ele>
        <time>2020-12-10T10:44:00Z</time>
      </trkpt>
      <trkpt lat="47.65197" lon="6.11491">
        <ele>223.6</ele>
        <time>2020-12-10T10:44:02Z</time>
      </trkpt>
      <trkpt lat="47.65192" lon="6.11494">
        <ele>223.3</ele>
        <time>2020-12-10T10:44:04Z</time>
      </trkpt>
      <trkpt lat="47.65186" lon="6.11496">
        <ele>223</ele>
        <time>2020-12-10T10:44:06Z</time>
      </trkpt>
      <trkpt lat="47.6518" lon="6.115">
        <ele>222.6</ele>
        <time>2020-12-10T10:44:08Z</time>
      </trkpt>
      <trkpt lat="47.65173" lon="6.11503">
        <ele>222.4</ele>
        <time>2020-12-10T10:44:10Z</time>
      </trkpt>
      <trkpt lat="47.65169" lon="6.11506">
        <ele>222.3</ele>
        <time>2020-12-10T10:44:11Z</time>
      </trkpt>
      <trkpt lat="47.6516" lon="6.11512">
        <ele>222.2</ele>
        <time>2020-12-10T10:44:13Z</time>
      </trkpt>
      <trkpt lat="47.65155" lon="6.11516">
        <ele>222.2</ele>
        <time>2020-12-10T10:44:14Z</time>
      </trkpt>
      <trkpt lat="47.65149" lon="6.1152">
        <ele>222.1</ele>
        <time>2020-12-10T10:44:16Z</time>
      </trkpt>
      <trkpt lat="47.65141" lon="6.11526">
        <ele>222</ele>
        <time>2020-12-10T10:44:19Z</time>
      </trkpt>
      <trkpt lat="47.65136" lon="6.11532">
        <ele>222</ele>
        <time>2020-12-10T10:44:20Z</time>
      </trkpt>
      <trkpt lat="47.65132" lon="6.11535">
        <ele>221.9</ele>
        <time>2020-12-10T10:44:22Z</time>
      </trkpt>
      <trkpt lat="47.65127" lon="6.11538">
        <ele>221.8</ele>
        <time>2020-12-10T10:44:24Z</time>
      </trkpt>
      <trkpt lat="47.65123" lon="6.11545">
        <ele>221.7</ele>
        <time>2020-12-10T10:44:26Z</time>
      </trkpt>
      <trkpt lat="47.65122" lon="6.11552">
        <ele>221.8</ele>
        <time>2020-12-10T10:44:26Z</time>
      </trkpt>
      <trkpt lat="47.65124" lon="6.11561">
        <ele>222.1</ele>
        <time>2020-12-10T10:44:28Z</time>
      </trkpt>
      <trkpt lat="47.65126" lon="6.11569">
        <ele>222.3</ele>
        <time>2020-12-10T10:44:32Z</time>
      </trkpt>
      <trkpt lat="47.65129" lon="6.11576">
        <ele>222.6</ele>
        <time>2020-12-10T10:44:34Z</time>
      </trkpt>
      <trkpt lat="47.65131" lon="6.11585">
        <ele>222.9</ele>
        <time>2020-12-10T10:44:34Z</time>
      </trkpt>
      <trkpt lat="47.65133" lon="6.11592">
        <ele>223</ele>
        <time>2020-12-10T10:44:38Z</time>
      </trkpt>
      <trkpt lat="47.65135" lon="6.116">
        <ele>223.2</ele>
        <time>2020-12-10T10:44:38Z</time>
      </trkpt>
      <trkpt lat="47.65137" lon="6.11608">
        <ele>223.3</ele>
        <time>2020-12-10T10:44:41Z</time>
      </trkpt>
      <trkpt lat="47.65139" lon="6.11617">
        <ele>223.5</ele>
        <time>2020-12-10T10:44:43Z</time>
      </trkpt>
      <trkpt lat="47.65141" lon="6.11624">
        <ele>223.6</ele>
        <time>2020-12-10T10:44:44Z</time>
      </trkpt>
      <trkpt lat="47.65142" lon="6.1163">
        <ele>223.7</ele>
        <time>2020-12-10T10:44:44Z</time>
      </trkpt>
      <trkpt lat="47.65144" lon="6.11639">
        <ele>223.8</ele>
        <time>2020-12-10T10:44:47Z</time>
      </trkpt>
      <trkpt lat="47.65145" lon="6.11649">
        <ele>223.9</ele>
        <time>2020-12-10T10:44:49Z</time>
      </trkpt>
      <trkpt lat="47.65146" lon="6.11656">
        <ele>224</ele>
        <time>2020-12-10T10:44:51Z</time>
      </trkpt>
      <trkpt lat="47.65148" lon="6.11667">
        <ele>224.1</ele>
        <time>2020-12-10T10:44:51Z</time>
      </trkpt>
      <trkpt lat="47.6515" lon="6.11676">
        <ele>224.2</ele>
        <time>2020-12-10T10:44:53Z</time>
      </trkpt>
      <trkpt lat="47.65151" lon="6.11683">
        <ele>224.2</ele>
        <time>2020-12-10T10:44:56Z</time>
      </trkpt>
      <trkpt lat="47.65153" lon="6.11692">
        <ele>224.4</ele>
        <time>2020-12-10T10:44:58Z</time>
      </trkpt>
      <trkpt lat="47.65155" lon="6.11701">
        <ele>224.5</ele>
        <time>2020-12-10T10:45:00Z</time>
      </trkpt>
      <trkpt lat="47.65157" lon="6.11709">
        <ele>224.5</ele>
        <time>2020-12-10T10:45:02Z</time>
      </trkpt>
      <trkpt lat="47.65159" lon="6.11715">
        <ele>224.6</ele>
        <time>2020-12-10T10:45:04Z</time>
      </trkpt>
      <trkpt lat="47.65161" lon="6.11722">
        <ele>224.7</ele>
        <time>2020-12-10T10:45:06Z</time>
      </trkpt>
      <trkpt lat="47.65163" lon="6.11729">
        <ele>224.8</ele>
        <time>2020-12-10T10:45:08Z</time>
      </trkpt>
      <trkpt lat="47.65165" lon="6.11737">
        <ele>224.9</ele>
        <time>2020-12-10T10:45:09Z</time>
      </trkpt>
      <trkpt lat="47.65167" lon="6.11745">
        <ele>225</ele>
        <time>2020-12-10T10:45:11Z</time>
      </trkpt>
      <trkpt lat="47.65169" lon="6.11752">
        <ele>225</ele>
        <time>2020-12-10T10:45:15Z</time>
      </trkpt>
      <trkpt lat="47.65171" lon="6.11758">
        <ele>224.8</ele>
        <time>2020-12-10T10:45:17Z</time>
      </trkpt>
      <trkpt lat="47.65174" lon="6.11768">
        <ele>224.6</ele>
        <time>2020-12-10T10:45:20Z</time>
      </trkpt>
      <trkpt lat="47.65177" lon="6.11775">
        <ele>224.5</ele>
        <time>2020-12-10T10:45:22Z</time>
      </trkpt>
      <trkpt lat="47.65179" lon="6.11782">
        <ele>224.3</ele>
        <time>2020-12-10T10:45:24Z</time>
      </trkpt>
      <trkpt lat="47.65183" lon="6.11793">
        <ele>224.2</ele>
        <time>2020-12-10T10:45:25Z</time>
      </trkpt>
      <trkpt lat="47.65185" lon="6.11798">
        <ele>224.1</ele>
        <time>2020-12-10T10:45:29Z</time>
      </trkpt>
      <trkpt lat="47.65187" lon="6.11804">
        <ele>224</ele>
        <time>2020-12-10T10:45:31Z</time>
      </trkpt>
      <trkpt lat="47.6519" lon="6.11811">
        <ele>223.9</ele>
        <time>2020-12-10T10:45:33Z</time>
      </trkpt>
      <trkpt lat="47.65193" lon="6.11821">
        <ele>223.8</ele>
        <time>2020-12-10T10:45:34Z</time>
      </trkpt>
      <trkpt lat="47.65195" lon="6.11828">
        <ele>223.8</ele>
        <time>2020-12-10T10:45:38Z</time>
      </trkpt>
      <trkpt lat="47.65199" lon="6.11837">
        <ele>223.8</ele>
        <time>2020-12-10T10:45:38Z</time>
      </trkpt>
      <trkpt lat="47.65202" lon="6.11845">
        <ele>223.9</ele>
        <time>2020-12-10T10:45:42Z</time>
      </trkpt>
      <trkpt lat="47.65205" lon="6.11855">
        <ele>224</ele>
        <time>2020-12-10T10:45:44Z</time>
      </trkpt>
      <trkpt lat="47.65209" lon="6.11865">
        <ele>224.2</ele>
        <time>2020-12-10T10:45:44Z</time>
      </trkpt>
      <trkpt lat="47.65211" lon="6.11872">
        <ele>224.3</ele>
        <time>2020-12-10T10:45:47Z</time>
      </trkpt>
      <trkpt lat="47.65214" lon="6.11882">
        <ele>224.5</ele>
        <time>2020-12-10T10:45:47Z</time>
      </trkpt>
      <trkpt lat="47.65218" lon="6.11893">
        <ele>224.9</ele>
        <time>2020-12-10T10:45:49Z</time>
      </trkpt>
      <trkpt lat="47.65223" lon="6.11905">
        <ele>225.2</ele>
        <time>2020-12-10T10:45:51Z</time>
      </trkpt>
      <trkpt lat="47.65226" lon="6.11915">
        <ele>225.5</ele>
        <time>2020-12-10T10:45:54Z</time>
      </trkpt>
      <trkpt lat="47.65228" lon="6.11923">
        <ele>225.7</ele>
        <time>2020-12-10T10:45:56Z</time>
      </trkpt>
      <trkpt lat="47.65233" lon="6.11937">
        <ele>225.9</ele>
        <time>2020-12-10T10:45:56Z</time>
      </trkpt>
      <trkpt lat="47.65235" lon="6.11943">
        <ele>226.1</ele>
        <time>2020-12-10T10:45:59Z</time>
      </trkpt>
      <trkpt lat="47.65238" lon="6.11951">
        <ele>226.2</ele>
        <time>2020-12-10T10:46:00Z</time>
      </trkpt>
      <trkpt lat="47.65243" lon="6.11964">
        <ele>226.5</ele>
        <time>2020-12-10T10:46:02Z</time>
      </trkpt>
      <trkpt lat="47.65248" lon="6.11973">
        <ele>226.8</ele>
        <time>2020-12-10T10:46:04Z</time>
      </trkpt>
      <trkpt lat="47.65253" lon="6.11981">
        <ele>227.1</ele>
        <time>2020-12-10T10:46:06Z</time>
      </trkpt>
      <trkpt lat="47.65258" lon="6.11989">
        <ele>227.4</ele>
        <time>2020-12-10T10:46:07Z</time>
      </trkpt>
      <trkpt lat="47.65265" lon="6.11997">
        <ele>227.7</ele>
        <time>2020-12-10T10:46:08Z</time>
      </trkpt>
      <trkpt lat="47.65269" lon="6.12002">
        <ele>227.9</ele>
        <time>2020-12-10T10:46:11Z</time>
      </trkpt>
      <trkpt lat="47.65273" lon="6.12008">
        <ele>228</ele>
        <time>2020-12-10T10:46:13Z</time>
      </trkpt>
      <trkpt lat="47.65278" lon="6.12012">
        <ele>228.2</ele>
        <time>2020-12-10T10:46:15Z</time>
      </trkpt>
      <trkpt lat="47.65284" lon="6.12017">
        <ele>228.4</ele>
        <time>2020-12-10T10:46:15Z</time>
      </trkpt>
      <trkpt lat="47.65288" lon="6.12022">
        <ele>228.5</ele>
        <time>2020-12-10T10:46:18Z</time>
      </trkpt>
      <trkpt lat="47.65293" lon="6.12027">
        <ele>228.6</ele>
        <time>2020-12-10T10:46:20Z</time>
      </trkpt>
      <trkpt lat="47.65298" lon="6.12032">
        <ele>228.6</ele>
        <time>2020-12-10T10:46:23Z</time>
      </trkpt>
      <trkpt lat="47.65305" lon="6.12041">
        <ele>228.6</ele>
        <time>2020-12-10T10:46:24Z</time>
      </trkpt>
      <trkpt lat="47.65309" lon="6.12047">
        <ele>228.6</ele>
        <time>2020-12-10T10:46:26Z</time>
      </trkpt>
      <trkpt lat="47.65312" lon="6.12053">
        <ele>228.6</ele>
        <time>2020-12-10T10:46:29Z</time>
      </trkpt>
      <trkpt lat="47.65315" lon="6.12058">
        <ele>228.5</ele>
        <time>2020-12-10T10:46:31Z</time>
      </trkpt>
      <trkpt lat="47.6532" lon="6.12067">
        <ele>228.3</ele>
        <time>2020-12-10T10:46:32Z</time>
      </trkpt>
      <trkpt lat="47.65323" lon="6.12072">
        <ele>228.2</ele>
        <time>2020-12-10T10:46:34Z</time>
      </trkpt>
      <trkpt lat="47.65327" lon="6.12083">
        <ele>227.9</ele>
        <time>2020-12-10T10:46:39Z</time>
      </trkpt>
      <trkpt lat="47.6533" lon="6.12091">
        <ele>228</ele>
        <time>2020-12-10T10:46:39Z</time>
      </trkpt>
      <trkpt lat="47.65331" lon="6.121">
        <ele>228</ele>
        <time>2020-12-10T10:46:43Z</time>
      </trkpt>
      <trkpt lat="47.65332" lon="6.12111">
        <ele>228</ele>
        <time>2020-12-10T10:46:45Z</time>
      </trkpt>
      <trkpt lat="47.65332" lon="6.12122">
        <ele>228</ele>
        <time>2020-12-10T10:46:46Z</time>
      </trkpt>
      <trkpt lat="47.65327" lon="6.12134">
        <ele>227.9</ele>
        <time>2020-12-10T10:46:47Z</time>
      </trkpt>
      <trkpt lat="47.65324" lon="6.12139">
        <ele>227.8</ele>
        <time>2020-12-10T10:46:48Z</time>
      </trkpt>
      <trkpt lat="47.65319" lon="6.1215">
        <ele>227.7</ele>
        <time>2020-12-10T10:46:50Z</time>
      </trkpt>
      <trkpt lat="47.65316" lon="6.12156">
        <ele>227.6</ele>
        <time>2020-12-10T10:46:51Z</time>
      </trkpt>
      <trkpt lat="47.65312" lon="6.12168">
        <ele>227.5</ele>
        <time>2020-12-10T10:46:55Z</time>
      </trkpt>
      <trkpt lat="47.65309" lon="6.12185">
        <ele>227.4</ele>
        <time>2020-12-10T10:46:57Z</time>
      </trkpt>
      <trkpt lat="47.65307" lon="6.12194">
        <ele>227.4</ele>
        <time>2020-12-10T10:46:58Z</time>
      </trkpt>
      <trkpt lat="47.65305" lon="6.12203">
        <ele>227.3</ele>
        <time>2020-12-10T10:46:58Z</time>
      </trkpt>
      <trkpt lat="47.65304" lon="6.1221">
        <ele>227.3</ele>
        <time>2020-12-10T10:47:01Z</time>
      </trkpt>
      <trkpt lat="47.65302" lon="6.12224">
        <ele>227.3</ele>
        <time>2020-12-10T10:47:01Z</time>
      </trkpt>
      <trkpt lat="47.65299" lon="6.12235">
        <ele>227.2</ele>
        <time>2020-12-10T10:47:03Z</time>
      </trkpt>
      <trkpt lat="47.65297" lon="6.12249">
        <ele>227.1</ele>
        <time>2020-12-10T10:47:05Z</time>
      </trkpt>
      <trkpt lat="47.65296" lon="6.12262">
        <ele>226.8</ele>
        <time>2020-12-10T10:47:09Z</time>
      </trkpt>
      <trkpt lat="47.65294" lon="6.12274">
        <ele>226.5</ele>
        <time>2020-12-10T10:47:10Z</time>
      </trkpt>
      <trkpt lat="47.65293" lon="6.12286">
        <ele>226.2</ele>
        <time>2020-12-10T10:47:10Z</time>
      </trkpt>
      <trkpt lat="47.65292" lon="6.12293">
        <ele>226</ele>
        <time>2020-12-10T10:47:11Z</time>
      </trkpt>
      <trkpt lat="47.65292" lon="6.12299">
        <ele>225.8</ele>
        <time>2020-12-10T10:47:12Z</time>
      </trkpt>
      <trkpt lat="47.65291" lon="6.12307">
        <ele>225.6</ele>
        <time>2020-12-10T10:47:13Z</time>
      </trkpt>
      <trkpt lat="47.65291" lon="6.12314">
        <ele>225.5</ele>
        <time>2020-12-10T10:47:14Z</time>
      </trkpt>
      <trkpt lat="47.6529" lon="6.1232">
        <ele>225.3</ele>
        <time>2020-12-10T10:47:15Z</time>
      </trkpt>
      <trkpt lat="47.6529" lon="6.12333">
        <ele>225</ele>
        <time>2020-12-10T10:47:17Z</time>
      </trkpt>
      <trkpt lat="47.65289" lon="6.12345">
        <ele>224.7</ele>
        <time>2020-12-10T10:47:19Z</time>
      </trkpt>
      <trkpt lat="47.65288" lon="6.12352">
        <ele>224.4</ele>
        <time>2020-12-10T10:47:20Z</time>
      </trkpt>
      <trkpt lat="47.65288" lon="6.12359">
        <ele>224.2</ele>
        <time>2020-12-10T10:47:21Z</time>
      </trkpt>
      <trkpt lat="47.65288" lon="6.12367">
        <ele>224</ele>
        <time>2020-12-10T10:47:22Z</time>
      </trkpt>
      <trkpt lat="47.65288" lon="6.12375">
        <ele>223.7</ele>
        <time>2020-12-10T10:47:23Z</time>
      </trkpt>
      <trkpt lat="47.65289" lon="6.12383">
        <ele>223.5</ele>
        <time>2020-12-10T10:47:24Z</time>
      </trkpt>
      <trkpt lat="47.6529" lon="6.12391">
        <ele>223.3</ele>
        <time>2020-12-10T10:47:25Z</time>
      </trkpt>
      <trkpt lat="47.65291" lon="6.12398">
        <ele>223</ele>
        <time>2020-12-10T10:47:26Z</time>
      </trkpt>
      <trkpt lat="47.65292" lon="6.12406">
        <ele>222.8</ele>
        <time>2020-12-10T10:47:27Z</time>
      </trkpt>
      <trkpt lat="47.65293" lon="6.12414">
        <ele>222.6</ele>
        <time>2020-12-10T10:47:28Z</time>
      </trkpt>
      <trkpt lat="47.65295" lon="6.12422">
        <ele>222.4</ele>
        <time>2020-12-10T10:47:29Z</time>
      </trkpt>
      <trkpt lat="47.65296" lon="6.12429">
        <ele>222.3</ele>
        <time>2020-12-10T10:47:30Z</time>
      </trkpt>
      <trkpt lat="47.65298" lon="6.12436">
        <ele>222.1</ele>
        <time>2020-12-10T10:47:31Z</time>
      </trkpt>
      <trkpt lat="47.653" lon="6.12444">
        <ele>222</ele>
        <time>2020-12-10T10:47:32Z</time>
      </trkpt>
      <trkpt lat="47.65302" lon="6.1245">
        <ele>221.8</ele>
        <time>2020-12-10T10:47:33Z</time>
      </trkpt>
      <trkpt lat="47.65308" lon="6.12459">
        <ele>221.7</ele>
        <time>2020-12-10T10:47:35Z</time>
      </trkpt>
      <trkpt lat="47.65315" lon="6.12461">
        <ele>221.7</ele>
        <time>2020-12-10T10:47:37Z</time>
      </trkpt>
      <trkpt lat="47.65321" lon="6.12462">
        <ele>221.8</ele>
        <time>2020-12-10T10:47:39Z</time>
      </trkpt>
      <trkpt lat="47.65328" lon="6.12466">
        <ele>221.8</ele>
        <time>2020-12-10T10:47:41Z</time>
      </trkpt>
      <trkpt lat="47.65334" lon="6.12471">
        <ele>221.7</ele>
        <time>2020-12-10T10:47:43Z</time>
      </trkpt>
      <trkpt lat="47.65341" lon="6.12475">
        <ele>221.8</ele>
        <time>2020-12-10T10:47:45Z</time>
      </trkpt>
      <trkpt lat="47.65347" lon="6.1248">
        <ele>221.9</ele>
        <time>2020-12-10T10:47:47Z</time>
      </trkpt>
      <trkpt lat="47.65354" lon="6.12485">
        <ele>222</ele>
        <time>2020-12-10T10:47:49Z</time>
      </trkpt>
      <trkpt lat="47.6536" lon="6.12489">
        <ele>222.1</ele>
        <time>2020-12-10T10:47:51Z</time>
      </trkpt>
      <trkpt lat="47.65365" lon="6.12493">
        <ele>222.2</ele>
        <time>2020-12-10T10:47:53Z</time>
      </trkpt>
      <trkpt lat="47.65371" lon="6.12498">
        <ele>222.4</ele>
        <time>2020-12-10T10:47:57Z</time>
      </trkpt>
      <trkpt lat="47.65375" lon="6.12501">
        <ele>222.5</ele>
        <time>2020-12-10T10:47:58Z</time>
      </trkpt>
      <trkpt lat="47.65382" lon="6.12505">
        <ele>222.9</ele>
        <time>2020-12-10T10:48:00Z</time>
      </trkpt>
      <trkpt lat="47.65388" lon="6.1251">
        <ele>223.2</ele>
        <time>2020-12-10T10:48:03Z</time>
      </trkpt>
      <trkpt lat="47.65394" lon="6.12514">
        <ele>223.5</ele>
        <time>2020-12-10T10:48:05Z</time>
      </trkpt>
      <trkpt lat="47.654" lon="6.12518">
        <ele>223.8</ele>
        <time>2020-12-10T10:48:07Z</time>
      </trkpt>
      <trkpt lat="47.65404" lon="6.12524">
        <ele>224.1</ele>
        <time>2020-12-10T10:48:09Z</time>
      </trkpt>
      <trkpt lat="47.65408" lon="6.12525">
        <ele>224.3</ele>
        <time>2020-12-10T10:48:11Z</time>
      </trkpt>
      <trkpt lat="47.65413" lon="6.12527">
        <ele>224.5</ele>
        <time>2020-12-10T10:48:13Z</time>
      </trkpt>
      <trkpt lat="47.65418" lon="6.12529">
        <ele>224.7</ele>
        <time>2020-12-10T10:48:13Z</time>
      </trkpt>
      <trkpt lat="47.65423" lon="6.12532">
        <ele>224.9</ele>
        <time>2020-12-10T10:48:18Z</time>
      </trkpt>
      <trkpt lat="47.65428" lon="6.12534">
        <ele>225</ele>
        <time>2020-12-10T10:48:21Z</time>
      </trkpt>
      <trkpt lat="47.65433" lon="6.12535">
        <ele>225.1</ele>
        <time>2020-12-10T10:48:23Z</time>
      </trkpt>
      <trkpt lat="47.65439" lon="6.12536">
        <ele>225.3</ele>
        <time>2020-12-10T10:48:25Z</time>
      </trkpt>
      <trkpt lat="47.65444" lon="6.12537">
        <ele>225.4</ele>
        <time>2020-12-10T10:48:30Z</time>
      </trkpt>
      <trkpt lat="47.6545" lon="6.12537">
        <ele>225.5</ele>
        <time>2020-12-10T10:48:32Z</time>
      </trkpt>
      <trkpt lat="47.65455" lon="6.12539">
        <ele>225.6</ele>
        <time>2020-12-10T10:48:36Z</time>
      </trkpt>
      <trkpt lat="47.6546" lon="6.1254">
        <ele>225.8</ele>
        <time>2020-12-10T10:48:37Z</time>
      </trkpt>
      <trkpt lat="47.65465" lon="6.12543">
        <ele>225.9</ele>
        <time>2020-12-10T10:48:41Z</time>
      </trkpt>
      <trkpt lat="47.65469" lon="6.12546">
        <ele>226</ele>
        <time>2020-12-10T10:48:43Z</time>
      </trkpt>
      <trkpt lat="47.65473" lon="6.1255">
        <ele>226.1</ele>
        <time>2020-12-10T10:48:46Z</time>
      </trkpt>
      <trkpt lat="47.65479" lon="6.12557">
        <ele>226.3</ele>
        <time>2020-12-10T10:48:47Z</time>
      </trkpt>
      <trkpt lat="47.65483" lon="6.12564">
        <ele>226.5</ele>
        <time>2020-12-10T10:48:51Z</time>
      </trkpt>
      <trkpt lat="47.65486" lon="6.1257">
        <ele>226.6</ele>
        <time>2020-12-10T10:48:53Z</time>
      </trkpt>
      <trkpt lat="47.6549" lon="6.12577">
        <ele>226.8</ele>
        <time>2020-12-10T10:48:55Z</time>
      </trkpt>
      <trkpt lat="47.65495" lon="6.12585">
        <ele>226.9</ele>
        <time>2020-12-10T10:48:58Z</time>
      </trkpt>
      <trkpt lat="47.65499" lon="6.12591">
        <ele>227</ele>
        <time>2020-12-10T10:49:00Z</time>
      </trkpt>
      <trkpt lat="47.65503" lon="6.12599">
        <ele>227</ele>
        <time>2020-12-10T10:49:02Z</time>
      </trkpt>
      <trkpt lat="47.65506" lon="6.12605">
        <ele>226.9</ele>
        <time>2020-12-10T10:49:04Z</time>
      </trkpt>
      <trkpt lat="47.65509" lon="6.12611">
        <ele>226.9</ele>
        <time>2020-12-10T10:49:07Z</time>
      </trkpt>
      <trkpt lat="47.65512" lon="6.12616">
        <ele>226.9</ele>
        <time>2020-12-10T10:49:08Z</time>
      </trkpt>
      <trkpt lat="47.65515" lon="6.12621">
        <ele>226.9</ele>
        <time>2020-12-10T10:49:10Z</time>
      </trkpt>
      <trkpt lat="47.65519" lon="6.12628">
        <ele>226.9</ele>
        <time>2020-12-10T10:49:12Z</time>
      </trkpt>
      <trkpt lat="47.65522" lon="6.12636">
        <ele>227</ele>
        <time>2020-12-10T10:49:15Z</time>
      </trkpt>
      <trkpt lat="47.65526" lon="6.12644">
        <ele>227.1</ele>
        <time>2020-12-10T10:49:16Z</time>
      </trkpt>
      <trkpt lat="47.6553" lon="6.12652">
        <ele>227.2</ele>
        <time>2020-12-10T10:49:19Z</time>
      </trkpt>
      <trkpt lat="47.65534" lon="6.12658">
        <ele>227.3</ele>
        <time>2020-12-10T10:49:21Z</time>
      </trkpt>
      <trkpt lat="47.65539" lon="6.12666">
        <ele>227.4</ele>
        <time>2020-12-10T10:49:23Z</time>
      </trkpt>
      <trkpt lat="47.65542" lon="6.12671">
        <ele>227.5</ele>
        <time>2020-12-10T10:49:26Z</time>
      </trkpt>
      <trkpt lat="47.65546" lon="6.12676">
        <ele>227.6</ele>
        <time>2020-12-10T10:49:27Z</time>
      </trkpt>
      <trkpt lat="47.65549" lon="6.12682">
        <ele>227.6</ele>
        <time>2020-12-10T10:49:29Z</time>
      </trkpt>
      <trkpt lat="47.65552" lon="6.12688">
        <ele>227.7</ele>
        <time>2020-12-10T10:49:31Z</time>
      </trkpt>
      <trkpt lat="47.65556" lon="6.12695">
        <ele>227.8</ele>
        <time>2020-12-10T10:49:34Z</time>
      </trkpt>
      <trkpt lat="47.65558" lon="6.127">
        <ele>227.9</ele>
        <time>2020-12-10T10:49:35Z</time>
      </trkpt>
      <trkpt lat="47.65562" lon="6.12708">
        <ele>228</ele>
        <time>2020-12-10T10:49:37Z</time>
      </trkpt>
      <trkpt lat="47.65566" lon="6.12715">
        <ele>228.1</ele>
        <time>2020-12-10T10:49:39Z</time>
      </trkpt>
      <trkpt lat="47.65569" lon="6.12723">
        <ele>228.3</ele>
        <time>2020-12-10T10:49:41Z</time>
      </trkpt>
      <trkpt lat="47.65572" lon="6.12729">
        <ele>228.4</ele>
        <time>2020-12-10T10:49:43Z</time>
      </trkpt>
      <trkpt lat="47.65576" lon="6.12736">
        <ele>228.6</ele>
        <time>2020-12-10T10:49:46Z</time>
      </trkpt>
      <trkpt lat="47.6558" lon="6.12741">
        <ele>228.8</ele>
        <time>2020-12-10T10:49:47Z</time>
      </trkpt>
      <trkpt lat="47.65583" lon="6.12749">
        <ele>229</ele>
        <time>2020-12-10T10:49:49Z</time>
      </trkpt>
      <trkpt lat="47.65587" lon="6.12755">
        <ele>229.1</ele>
        <time>2020-12-10T10:49:51Z</time>
      </trkpt>
      <trkpt lat="47.65593" lon="6.12763">
        <ele>229.4</ele>
        <time>2020-12-10T10:49:54Z</time>
      </trkpt>
      <trkpt lat="47.65597" lon="6.12769">
        <ele>229.5</ele>
        <time>2020-12-10T10:49:56Z</time>
      </trkpt>
      <trkpt lat="47.656" lon="6.12774">
        <ele>229.6</ele>
        <time>2020-12-10T10:49:58Z</time>
      </trkpt>
      <trkpt lat="47.65604" lon="6.12783">
        <ele>229.7</ele>
        <time>2020-12-10T10:50:02Z</time>
      </trkpt>
      <trkpt lat="47.65605" lon="6.1279">
        <ele>229.8</ele>
        <time>2020-12-10T10:50:03Z</time>
      </trkpt>
      <trkpt lat="47.65605" lon="6.12799">
        <ele>229.8</ele>
        <time>2020-12-10T10:50:06Z</time>
      </trkpt>
      <trkpt lat="47.65608" lon="6.12807">
        <ele>229.9</ele>
        <time>2020-12-10T10:50:09Z</time>
      </trkpt>
      <trkpt lat="47.65614" lon="6.12815">
        <ele>230.1</ele>
        <time>2020-12-10T10:50:11Z</time>
      </trkpt>
      <trkpt lat="47.65617" lon="6.1282">
        <ele>230.2</ele>
        <time>2020-12-10T10:50:14Z</time>
      </trkpt>
      <trkpt lat="47.65621" lon="6.12826">
        <ele>230.4</ele>
        <time>2020-12-10T10:50:16Z</time>
      </trkpt>
      <trkpt lat="47.65625" lon="6.12833">
        <ele>230.5</ele>
        <time>2020-12-10T10:50:17Z</time>
      </trkpt>
      <trkpt lat="47.6563" lon="6.12842">
        <ele>230.8</ele>
        <time>2020-12-10T10:50:20Z</time>
      </trkpt>
      <trkpt lat="47.65633" lon="6.12849">
        <ele>231</ele>
        <time>2020-12-10T10:50:22Z</time>
      </trkpt>
      <trkpt lat="47.65635" lon="6.12856">
        <ele>231.2</ele>
        <time>2020-12-10T10:50:25Z</time>
      </trkpt>
      <trkpt lat="47.65638" lon="6.12863">
        <ele>231.5</ele>
        <time>2020-12-10T10:50:27Z</time>
      </trkpt>
      <trkpt lat="47.65641" lon="6.12872">
        <ele>231.7</ele>
        <time>2020-12-10T10:50:29Z</time>
      </trkpt>
      <trkpt lat="47.65643" lon="6.12878">
        <ele>231.8</ele>
        <time>2020-12-10T10:50:32Z</time>
      </trkpt>
      <trkpt lat="47.65645" lon="6.12884">
        <ele>232</ele>
        <time>2020-12-10T10:50:33Z</time>
      </trkpt>
      <trkpt lat="47.65648" lon="6.12893">
        <ele>232.2</ele>
        <time>2020-12-10T10:50:37Z</time>
      </trkpt>
      <trkpt lat="47.65651" lon="6.129">
        <ele>232.4</ele>
        <time>2020-12-10T10:50:38Z</time>
      </trkpt>
      <trkpt lat="47.65654" lon="6.12909">
        <ele>232.6</ele>
        <time>2020-12-10T10:50:41Z</time>
      </trkpt>
      <trkpt lat="47.65656" lon="6.12916">
        <ele>232.7</ele>
        <time>2020-12-10T10:50:44Z</time>
      </trkpt>
      <trkpt lat="47.65659" lon="6.12922">
        <ele>232.8</ele>
        <time>2020-12-10T10:50:46Z</time>
      </trkpt>
      <trkpt lat="47.65662" lon="6.1293">
        <ele>232.8</ele>
        <time>2020-12-10T10:50:49Z</time>
      </trkpt>
      <trkpt lat="47.65665" lon="6.12936">
        <ele>232.7</ele>
        <time>2020-12-10T10:50:50Z</time>
      </trkpt>
      <trkpt lat="47.65667" lon="6.12942">
        <ele>232.7</ele>
        <time>2020-12-10T10:50:52Z</time>
      </trkpt>
      <trkpt lat="47.65669" lon="6.12948">
        <ele>232.7</ele>
        <time>2020-12-10T10:50:54Z</time>
      </trkpt>
      <trkpt lat="47.65672" lon="6.12958">
        <ele>232.7</ele>
        <time>2020-12-10T10:50:57Z</time>
      </trkpt>
      <trkpt lat="47.65674" lon="6.12964">
        <ele>232.7</ele>
        <time>2020-12-10T10:51:00Z</time>
      </trkpt>
      <trkpt lat="47.65677" lon="6.12971">
        <ele>232.7</ele>
        <time>2020-12-10T10:51:01Z</time>
      </trkpt>
      <trkpt lat="47.6568" lon="6.1298">
        <ele>232.7</ele>
        <time>2020-12-10T10:51:04Z</time>
      </trkpt>
      <trkpt lat="47.65681" lon="6.12987">
        <ele>232.7</ele>
        <time>2020-12-10T10:51:07Z</time>
      </trkpt>
      <trkpt lat="47.65684" lon="6.12995">
        <ele>232.7</ele>
        <time>2020-12-10T10:51:09Z</time>
      </trkpt>
      <trkpt lat="47.65686" lon="6.13003">
        <ele>232.8</ele>
        <time>2020-12-10T10:51:12Z</time>
      </trkpt>
      <trkpt lat="47.65688" lon="6.1301">
        <ele>233</ele>
        <time>2020-12-10T10:51:13Z</time>
      </trkpt>
      <trkpt lat="47.6569" lon="6.13016">
        <ele>233.2</ele>
        <time>2020-12-10T10:51:16Z</time>
      </trkpt>
      <trkpt lat="47.65692" lon="6.13024">
        <ele>233.5</ele>
        <time>2020-12-10T10:51:17Z</time>
      </trkpt>
      <trkpt lat="47.65693" lon="6.13032">
        <ele>233.7</ele>
        <time>2020-12-10T10:51:19Z</time>
      </trkpt>
      <trkpt lat="47.65695" lon="6.13039">
        <ele>234</ele>
        <time>2020-12-10T10:51:21Z</time>
      </trkpt>
      <trkpt lat="47.65697" lon="6.13046">
        <ele>234.2</ele>
        <time>2020-12-10T10:51:23Z</time>
      </trkpt>
      <trkpt lat="47.65698" lon="6.13054">
        <ele>234.4</ele>
        <time>2020-12-10T10:51:25Z</time>
      </trkpt>
      <trkpt lat="47.657" lon="6.1306">
        <ele>234.6</ele>
        <time>2020-12-10T10:51:27Z</time>
      </trkpt>
      <trkpt lat="47.65702" lon="6.13067">
        <ele>234.9</ele>
        <time>2020-12-10T10:51:29Z</time>
      </trkpt>
      <trkpt lat="47.65703" lon="6.13076">
        <ele>235.1</ele>
        <time>2020-12-10T10:51:33Z</time>
      </trkpt>
      <trkpt lat="47.65705" lon="6.13082">
        <ele>235.3</ele>
        <time>2020-12-10T10:51:34Z</time>
      </trkpt>
      <trkpt lat="47.65707" lon="6.13091">
        <ele>235.5</ele>
        <time>2020-12-10T10:51:37Z</time>
      </trkpt>
      <trkpt lat="47.6571" lon="6.131">
        <ele>235.7</ele>
        <time>2020-12-10T10:51:41Z</time>
      </trkpt>
      <trkpt lat="47.65712" lon="6.13106">
        <ele>235.9</ele>
        <time>2020-12-10T10:51:42Z</time>
      </trkpt>
      <trkpt lat="47.65715" lon="6.13114">
        <ele>236.1</ele>
        <time>2020-12-10T10:51:45Z</time>
      </trkpt>
      <trkpt lat="47.65718" lon="6.13121">
        <ele>236.2</ele>
        <time>2020-12-10T10:51:47Z</time>
      </trkpt>
      <trkpt lat="47.65721" lon="6.13127">
        <ele>236.3</ele>
        <time>2020-12-10T10:51:49Z</time>
      </trkpt>
      <trkpt lat="47.65725" lon="6.13136">
        <ele>236.5</ele>
        <time>2020-12-10T10:51:53Z</time>
      </trkpt>
      <trkpt lat="47.65728" lon="6.13142">
        <ele>236.6</ele>
        <time>2020-12-10T10:51:54Z</time>
      </trkpt>
      <trkpt lat="47.65732" lon="6.13151">
        <ele>236.7</ele>
        <time>2020-12-10T10:51:57Z</time>
      </trkpt>
      <trkpt lat="47.65735" lon="6.13157">
        <ele>236.8</ele>
        <time>2020-12-10T10:51:59Z</time>
      </trkpt>
      <trkpt lat="47.65738" lon="6.13164">
        <ele>236.8</ele>
        <time>2020-12-10T10:52:02Z</time>
      </trkpt>
      <trkpt lat="47.6574" lon="6.13171">
        <ele>236.8</ele>
        <time>2020-12-10T10:52:03Z</time>
      </trkpt>
      <trkpt lat="47.65743" lon="6.13176">
        <ele>236.8</ele>
        <time>2020-12-10T10:52:06Z</time>
      </trkpt>
      <trkpt lat="47.65747" lon="6.13186">
        <ele>236.7</ele>
        <time>2020-12-10T10:52:08Z</time>
      </trkpt>
      <trkpt lat="47.65751" lon="6.13194">
        <ele>236.7</ele>
        <time>2020-12-10T10:52:12Z</time>
      </trkpt>
      <trkpt lat="47.65755" lon="6.13201">
        <ele>236.7</ele>
        <time>2020-12-10T10:52:14Z</time>
      </trkpt>
      <trkpt lat="47.65758" lon="6.13208">
        <ele>236.7</ele>
        <time>2020-12-10T10:52:15Z</time>
      </trkpt>
      <trkpt lat="47.65761" lon="6.13214">
        <ele>236.7</ele>
        <time>2020-12-10T10:52:17Z</time>
      </trkpt>
      <trkpt lat="47.65764" lon="6.1322">
        <ele>236.6</ele>
        <time>2020-12-10T10:52:19Z</time>
      </trkpt>
      <trkpt lat="47.65768" lon="6.13228">
        <ele>236.6</ele>
        <time>2020-12-10T10:52:21Z</time>
      </trkpt>
      <trkpt lat="47.65771" lon="6.13234">
        <ele>236.5</ele>
        <time>2020-12-10T10:52:24Z</time>
      </trkpt>
      <trkpt lat="47.65775" lon="6.1324">
        <ele>236.5</ele>
        <time>2020-12-10T10:52:25Z</time>
      </trkpt>
      <trkpt lat="47.65779" lon="6.13247">
        <ele>236.4</ele>
        <time>2020-12-10T10:52:27Z</time>
      </trkpt>
      <trkpt lat="47.65783" lon="6.13254">
        <ele>236.2</ele>
        <time>2020-12-10T10:52:29Z</time>
      </trkpt>
      <trkpt lat="47.65787" lon="6.1326">
        <ele>236</ele>
        <time>2020-12-10T10:52:30Z</time>
      </trkpt>
      <trkpt lat="47.6579" lon="6.13265">
        <ele>235.8</ele>
        <time>2020-12-10T10:52:32Z</time>
      </trkpt>
      <trkpt lat="47.65795" lon="6.13272">
        <ele>235.5</ele>
        <time>2020-12-10T10:52:34Z</time>
      </trkpt>
      <trkpt lat="47.658" lon="6.13279">
        <ele>235.2</ele>
        <time>2020-12-10T10:52:35Z</time>
      </trkpt>
      <trkpt lat="47.65805" lon="6.13285">
        <ele>235</ele>
        <time>2020-12-10T10:52:36Z</time>
      </trkpt>
      <trkpt lat="47.65808" lon="6.1329">
        <ele>234.8</ele>
        <time>2020-12-10T10:52:38Z</time>
      </trkpt>
      <trkpt lat="47.65817" lon="6.13302">
        <ele>234.3</ele>
        <time>2020-12-10T10:52:40Z</time>
      </trkpt>
      <trkpt lat="47.65821" lon="6.13307">
        <ele>234.1</ele>
        <time>2020-12-10T10:52:41Z</time>
      </trkpt>
      <trkpt lat="47.65835" lon="6.13323">
        <ele>233.4</ele>
        <time>2020-12-10T10:52:42Z</time>
      </trkpt>
      <trkpt lat="47.65841" lon="6.13329">
        <ele>232.9</ele>
        <time>2020-12-10T10:52:43Z</time>
      </trkpt>
      <trkpt lat="47.65848" lon="6.13334">
        <ele>232.4</ele>
        <time>2020-12-10T10:52:44Z</time>
      </trkpt>
      <trkpt lat="47.65855" lon="6.13339">
        <ele>231.9</ele>
        <time>2020-12-10T10:52:45Z</time>
      </trkpt>
      <trkpt lat="47.65862" lon="6.13343">
        <ele>231.3</ele>
        <time>2020-12-10T10:52:46Z</time>
      </trkpt>
      <trkpt lat="47.6587" lon="6.13348">
        <ele>230.8</ele>
        <time>2020-12-10T10:52:47Z</time>
      </trkpt>
      <trkpt lat="47.65877" lon="6.13353">
        <ele>230.2</ele>
        <time>2020-12-10T10:52:48Z</time>
      </trkpt>
      <trkpt lat="47.65885" lon="6.13359">
        <ele>229.7</ele>
        <time>2020-12-10T10:52:49Z</time>
      </trkpt>
      <trkpt lat="47.65893" lon="6.13365">
        <ele>229.1</ele>
        <time>2020-12-10T10:52:50Z</time>
      </trkpt>
      <trkpt lat="47.659" lon="6.13371">
        <ele>228.6</ele>
        <time>2020-12-10T10:52:51Z</time>
      </trkpt>
      <trkpt lat="47.65908" lon="6.13377">
        <ele>228.1</ele>
        <time>2020-12-10T10:52:52Z</time>
      </trkpt>
      <trkpt lat="47.65915" lon="6.13383">
        <ele>227.7</ele>
        <time>2020-12-10T10:52:53Z</time>
      </trkpt>
      <trkpt lat="47.65922" lon="6.13388">
        <ele>227.2</ele>
        <time>2020-12-10T10:52:54Z</time>
      </trkpt>
      <trkpt lat="47.65929" lon="6.13394">
        <ele>226.8</ele>
        <time>2020-12-10T10:52:55Z</time>
      </trkpt>
      <trkpt lat="47.65937" lon="6.13401">
        <ele>226.3</ele>
        <time>2020-12-10T10:52:56Z</time>
      </trkpt>
      <trkpt lat="47.65944" lon="6.13406">
        <ele>225.9</ele>
        <time>2020-12-10T10:52:57Z</time>
      </trkpt>
      <trkpt lat="47.65951" lon="6.13412">
        <ele>225.4</ele>
        <time>2020-12-10T10:52:58Z</time>
      </trkpt>
      <trkpt lat="47.65957" lon="6.13419">
        <ele>225</ele>
        <time>2020-12-10T10:52:59Z</time>
      </trkpt>
      <trkpt lat="47.65964" lon="6.13427">
        <ele>224.8</ele>
        <time>2020-12-10T10:53:00Z</time>
      </trkpt>
      <trkpt lat="47.65969" lon="6.13435">
        <ele>224.6</ele>
        <time>2020-12-10T10:53:01Z</time>
      </trkpt>
      <trkpt lat="47.65973" lon="6.13445">
        <ele>224.4</ele>
        <time>2020-12-10T10:53:02Z</time>
      </trkpt>
      <trkpt lat="47.65975" lon="6.13456">
        <ele>224.3</ele>
        <time>2020-12-10T10:53:03Z</time>
      </trkpt>
      <trkpt lat="47.65977" lon="6.13466">
        <ele>224.2</ele>
        <time>2020-12-10T10:53:04Z</time>
      </trkpt>
      <trkpt lat="47.65979" lon="6.13476">
        <ele>224.1</ele>
        <time>2020-12-10T10:53:05Z</time>
      </trkpt>
      <trkpt lat="47.65981" lon="6.13486">
        <ele>224.1</ele>
        <time>2020-12-10T10:53:06Z</time>
      </trkpt>
      <trkpt lat="47.65982" lon="6.13495">
        <ele>224</ele>
        <time>2020-12-10T10:53:07Z</time>
      </trkpt>
      <trkpt lat="47.65983" lon="6.13505">
        <ele>224</ele>
        <time>2020-12-10T10:53:08Z</time>
      </trkpt>
      <trkpt lat="47.65984" lon="6.13513">
        <ele>224</ele>
        <time>2020-12-10T10:53:09Z</time>
      </trkpt>
      <trkpt lat="47.65986" lon="6.13522">
        <ele>224</ele>
        <time>2020-12-10T10:53:10Z</time>
      </trkpt>
      <trkpt lat="47.65989" lon="6.1353">
        <ele>224</ele>
        <time>2020-12-10T10:53:11Z</time>
      </trkpt>
      <trkpt lat="47.65992" lon="6.13537">
        <ele>224</ele>
        <time>2020-12-10T10:53:12Z</time>
      </trkpt>
      <trkpt lat="47.65996" lon="6.13544">
        <ele>224</ele>
        <time>2020-12-10T10:53:13Z</time>
      </trkpt>
      <trkpt lat="47.66" lon="6.1355">
        <ele>224</ele>
        <time>2020-12-10T10:53:14Z</time>
      </trkpt>
      <trkpt lat="47.66005" lon="6.13555">
        <ele>223.9</ele>
        <time>2020-12-10T10:53:15Z</time>
      </trkpt>
      <trkpt lat="47.6601" lon="6.1356">
        <ele>223.7</ele>
        <time>2020-12-10T10:53:16Z</time>
      </trkpt>
      <trkpt lat="47.66016" lon="6.13565">
        <ele>223.6</ele>
        <time>2020-12-10T10:53:17Z</time>
      </trkpt>
      <trkpt lat="47.66021" lon="6.1357">
        <ele>223.4</ele>
        <time>2020-12-10T10:53:18Z</time>
      </trkpt>
      <trkpt lat="47.66027" lon="6.13574">
        <ele>223.3</ele>
        <time>2020-12-10T10:53:19Z</time>
      </trkpt>
      <trkpt lat="47.66033" lon="6.13579">
        <ele>223.2</ele>
        <time>2020-12-10T10:53:20Z</time>
      </trkpt>
      <trkpt lat="47.66039" lon="6.13584">
        <ele>223.1</ele>
        <time>2020-12-10T10:53:21Z</time>
      </trkpt>
      <trkpt lat="47.66044" lon="6.13589">
        <ele>222.9</ele>
        <time>2020-12-10T10:53:22Z</time>
      </trkpt>
      <trkpt lat="47.6605" lon="6.13594">
        <ele>222.8</ele>
        <time>2020-12-10T10:53:23Z</time>
      </trkpt>
      <trkpt lat="47.66056" lon="6.13599">
        <ele>222.7</ele>
        <time>2020-12-10T10:53:24Z</time>
      </trkpt>
      <trkpt lat="47.66061" lon="6.13604">
        <ele>222.5</ele>
        <time>2020-12-10T10:53:25Z</time>
      </trkpt>
      <trkpt lat="47.66066" lon="6.13608">
        <ele>222.4</ele>
        <time>2020-12-10T10:53:26Z</time>
      </trkpt>
      <trkpt lat="47.66071" lon="6.13613">
        <ele>222.3</ele>
        <time>2020-12-10T10:53:27Z</time>
      </trkpt>
      <trkpt lat="47.66075" lon="6.13617">
        <ele>222.2</ele>
        <time>2020-12-10T10:53:28Z</time>
      </trkpt>
      <trkpt lat="47.6608" lon="6.13622">
        <ele>222.1</ele>
        <time>2020-12-10T10:53:29Z</time>
      </trkpt>
      <trkpt lat="47.66084" lon="6.13626">
        <ele>222</ele>
        <time>2020-12-10T10:53:30Z</time>
      </trkpt>
      <trkpt lat="47.66089" lon="6.13631">
        <ele>222</ele>
        <time>2020-12-10T10:53:31Z</time>
      </trkpt>
      <trkpt lat="47.66093" lon="6.13636">
        <ele>222.1</ele>
        <time>2020-12-10T10:53:32Z</time>
      </trkpt>
      <trkpt lat="47.66097" lon="6.13641">
        <ele>222.1</ele>
        <time>2020-12-10T10:53:33Z</time>
      </trkpt>
      <trkpt lat="47.66101" lon="6.13645">
        <ele>222.2</ele>
        <time>2020-12-10T10:53:34Z</time>
      </trkpt>
      <trkpt lat="47.66106" lon="6.1365">
        <ele>222.2</ele>
        <time>2020-12-10T10:53:35Z</time>
      </trkpt>
      <trkpt lat="47.6611" lon="6.13654">
        <ele>222.3</ele>
        <time>2020-12-10T10:53:36Z</time>
      </trkpt>
      <trkpt lat="47.66113" lon="6.13659">
        <ele>222.3</ele>
        <time>2020-12-10T10:53:37Z</time>
      </trkpt>
      <trkpt lat="47.66117" lon="6.13664">
        <ele>222.4</ele>
        <time>2020-12-10T10:53:38Z</time>
      </trkpt>
      <trkpt lat="47.6612" lon="6.13669">
        <ele>222.5</ele>
        <time>2020-12-10T10:53:39Z</time>
      </trkpt>
      <trkpt lat="47.66123" lon="6.13674">
        <ele>222.6</ele>
        <time>2020-12-10T10:53:40Z</time>
      </trkpt>
      <trkpt lat="47.66128" lon="6.13684">
        <ele>222.7</ele>
        <time>2020-12-10T10:53:42Z</time>
      </trkpt>
      <trkpt lat="47.66132" lon="6.13694">
        <ele>223</ele>
        <time>2020-12-10T10:53:44Z</time>
      </trkpt>
      <trkpt lat="47.66135" lon="6.13704">
        <ele>223.2</ele>
        <time>2020-12-10T10:53:46Z</time>
      </trkpt>
      <trkpt lat="47.66138" lon="6.13714">
        <ele>223.4</ele>
        <time>2020-12-10T10:53:50Z</time>
      </trkpt>
      <trkpt lat="47.6614" lon="6.13725">
        <ele>223.6</ele>
        <time>2020-12-10T10:53:52Z</time>
      </trkpt>
      <trkpt lat="47.66143" lon="6.13739">
        <ele>223.9</ele>
        <time>2020-12-10T10:53:54Z</time>
      </trkpt>
      <trkpt lat="47.66144" lon="6.13749">
        <ele>224.2</ele>
        <time>2020-12-10T10:53:55Z</time>
      </trkpt>
      <trkpt lat="47.66146" lon="6.13757">
        <ele>224.4</ele>
        <time>2020-12-10T10:53:57Z</time>
      </trkpt>
      <trkpt lat="47.66147" lon="6.13764">
        <ele>224.6</ele>
        <time>2020-12-10T10:53:58Z</time>
      </trkpt>
      <trkpt lat="47.66149" lon="6.13776">
        <ele>225</ele>
        <time>2020-12-10T10:54:00Z</time>
      </trkpt>
      <trkpt lat="47.66151" lon="6.13786">
        <ele>225.3</ele>
        <time>2020-12-10T10:54:02Z</time>
      </trkpt>
      <trkpt lat="47.66152" lon="6.13795">
        <ele>225.6</ele>
        <time>2020-12-10T10:54:05Z</time>
      </trkpt>
      <trkpt lat="47.66153" lon="6.13804">
        <ele>225.8</ele>
        <time>2020-12-10T10:54:06Z</time>
      </trkpt>
      <trkpt lat="47.66155" lon="6.13812">
        <ele>226.1</ele>
        <time>2020-12-10T10:54:09Z</time>
      </trkpt>
      <trkpt lat="47.66156" lon="6.13819">
        <ele>226.3</ele>
        <time>2020-12-10T10:54:11Z</time>
      </trkpt>
      <trkpt lat="47.66158" lon="6.13827">
        <ele>226.5</ele>
        <time>2020-12-10T10:54:14Z</time>
      </trkpt>
      <trkpt lat="47.6616" lon="6.13833">
        <ele>226.8</ele>
        <time>2020-12-10T10:54:15Z</time>
      </trkpt>
      <trkpt lat="47.66164" lon="6.1384">
        <ele>227</ele>
        <time>2020-12-10T10:54:18Z</time>
      </trkpt>
      <trkpt lat="47.66166" lon="6.13847">
        <ele>227.1</ele>
        <time>2020-12-10T10:54:19Z</time>
      </trkpt>
      <trkpt lat="47.66169" lon="6.13853">
        <ele>227.3</ele>
        <time>2020-12-10T10:54:21Z</time>
      </trkpt>
      <trkpt lat="47.66172" lon="6.13859">
        <ele>227.4</ele>
        <time>2020-12-10T10:54:24Z</time>
      </trkpt>
      <trkpt lat="47.66176" lon="6.13866">
        <ele>227.6</ele>
        <time>2020-12-10T10:54:26Z</time>
      </trkpt>
      <trkpt lat="47.66179" lon="6.13871">
        <ele>227.7</ele>
        <time>2020-12-10T10:54:28Z</time>
      </trkpt>
      <trkpt lat="47.66184" lon="6.13879">
        <ele>228</ele>
        <time>2020-12-10T10:54:32Z</time>
      </trkpt>
      <trkpt lat="47.66186" lon="6.13884">
        <ele>228.1</ele>
        <time>2020-12-10T10:54:34Z</time>
      </trkpt>
      <trkpt lat="47.6619" lon="6.1389">
        <ele>228.2</ele>
        <time>2020-12-10T10:54:36Z</time>
      </trkpt>
      <trkpt lat="47.66194" lon="6.13898">
        <ele>228.4</ele>
        <time>2020-12-10T10:54:38Z</time>
      </trkpt>
      <trkpt lat="47.66197" lon="6.13905">
        <ele>228.6</ele>
        <time>2020-12-10T10:54:41Z</time>
      </trkpt>
      <trkpt lat="47.66201" lon="6.13912">
        <ele>228.8</ele>
        <time>2020-12-10T10:54:44Z</time>
      </trkpt>
      <trkpt lat="47.66204" lon="6.13918">
        <ele>228.9</ele>
        <time>2020-12-10T10:54:45Z</time>
      </trkpt>
      <trkpt lat="47.66207" lon="6.13923">
        <ele>229.1</ele>
        <time>2020-12-10T10:54:48Z</time>
      </trkpt>
      <trkpt lat="47.6621" lon="6.13929">
        <ele>229.3</ele>
        <time>2020-12-10T10:54:49Z</time>
      </trkpt>
      <trkpt lat="47.66213" lon="6.13935">
        <ele>229.4</ele>
        <time>2020-12-10T10:54:52Z</time>
      </trkpt>
      <trkpt lat="47.66215" lon="6.13942">
        <ele>229.6</ele>
        <time>2020-12-10T10:54:54Z</time>
      </trkpt>
      <trkpt lat="47.66218" lon="6.13948">
        <ele>229.9</ele>
        <time>2020-12-10T10:54:56Z</time>
      </trkpt>
      <trkpt lat="47.66221" lon="6.13954">
        <ele>230</ele>
        <time>2020-12-10T10:54:57Z</time>
      </trkpt>
      <trkpt lat="47.66223" lon="6.13961">
        <ele>230.2</ele>
        <time>2020-12-10T10:55:00Z</time>
      </trkpt>
      <trkpt lat="47.66226" lon="6.13967">
        <ele>230.5</ele>
        <time>2020-12-10T10:55:02Z</time>
      </trkpt>
      <trkpt lat="47.66229" lon="6.13975">
        <ele>230.7</ele>
        <time>2020-12-10T10:55:04Z</time>
      </trkpt>
      <trkpt lat="47.66232" lon="6.1398">
        <ele>230.9</ele>
        <time>2020-12-10T10:55:07Z</time>
      </trkpt>
      <trkpt lat="47.66236" lon="6.13989">
        <ele>231.2</ele>
        <time>2020-12-10T10:55:09Z</time>
      </trkpt>
      <trkpt lat="47.66239" lon="6.13996">
        <ele>231.5</ele>
        <time>2020-12-10T10:55:13Z</time>
      </trkpt>
      <trkpt lat="47.66242" lon="6.14003">
        <ele>231.7</ele>
        <time>2020-12-10T10:55:15Z</time>
      </trkpt>
      <trkpt lat="47.66245" lon="6.1401">
        <ele>231.8</ele>
        <time>2020-12-10T10:55:18Z</time>
      </trkpt>
      <trkpt lat="47.66248" lon="6.14016">
        <ele>231.9</ele>
        <time>2020-12-10T10:55:20Z</time>
      </trkpt>
      <trkpt lat="47.66252" lon="6.14024">
        <ele>232.1</ele>
        <time>2020-12-10T10:55:22Z</time>
      </trkpt>
      <trkpt lat="47.66257" lon="6.14031">
        <ele>232.3</ele>
        <time>2020-12-10T10:55:26Z</time>
      </trkpt>
      <trkpt lat="47.6626" lon="6.14038">
        <ele>232.5</ele>
        <time>2020-12-10T10:55:28Z</time>
      </trkpt>
      <trkpt lat="47.66264" lon="6.14044">
        <ele>232.7</ele>
        <time>2020-12-10T10:55:30Z</time>
      </trkpt>
      <trkpt lat="47.66268" lon="6.14049">
        <ele>232.9</ele>
        <time>2020-12-10T10:55:32Z</time>
      </trkpt>
      <trkpt lat="47.66272" lon="6.14055">
        <ele>233.1</ele>
        <time>2020-12-10T10:55:33Z</time>
      </trkpt>
      <trkpt lat="47.66276" lon="6.14062">
        <ele>233.4</ele>
        <time>2020-12-10T10:55:35Z</time>
      </trkpt>
      <trkpt lat="47.66279" lon="6.14067">
        <ele>233.6</ele>
        <time>2020-12-10T10:55:38Z</time>
      </trkpt>
      <trkpt lat="47.66283" lon="6.14074">
        <ele>233.9</ele>
        <time>2020-12-10T10:55:40Z</time>
      </trkpt>
      <trkpt lat="47.66287" lon="6.14081">
        <ele>234.2</ele>
        <time>2020-12-10T10:55:42Z</time>
      </trkpt>
      <trkpt lat="47.6629" lon="6.14088">
        <ele>234.5</ele>
        <time>2020-12-10T10:55:45Z</time>
      </trkpt>
      <trkpt lat="47.66294" lon="6.14094">
        <ele>234.7</ele>
        <time>2020-12-10T10:55:47Z</time>
      </trkpt>
      <trkpt lat="47.66298" lon="6.141">
        <ele>235</ele>
        <time>2020-12-10T10:55:51Z</time>
      </trkpt>
      <trkpt lat="47.66302" lon="6.14107">
        <ele>235.3</ele>
        <time>2020-12-10T10:55:54Z</time>
      </trkpt>
      <trkpt lat="47.66307" lon="6.14112">
        <ele>235.5</ele>
        <time>2020-12-10T10:55:58Z</time>
      </trkpt>
      <trkpt lat="47.6631" lon="6.14117">
        <ele>235.7</ele>
        <time>2020-12-10T10:56:00Z</time>
      </trkpt>
      <trkpt lat="47.66314" lon="6.14122">
        <ele>235.9</ele>
        <time>2020-12-10T10:56:02Z</time>
      </trkpt>
      <trkpt lat="47.66318" lon="6.14127">
        <ele>236.2</ele>
        <time>2020-12-10T10:56:05Z</time>
      </trkpt>
      <trkpt lat="47.66323" lon="6.14133">
        <ele>236.4</ele>
        <time>2020-12-10T10:56:08Z</time>
      </trkpt>
      <trkpt lat="47.66327" lon="6.14138">
        <ele>236.7</ele>
        <time>2020-12-10T10:56:11Z</time>
      </trkpt>
      <trkpt lat="47.66331" lon="6.14142">
        <ele>236.9</ele>
        <time>2020-12-10T10:56:15Z</time>
      </trkpt>
      <trkpt lat="47.66334" lon="6.14146">
        <ele>237</ele>
        <time>2020-12-10T10:56:17Z</time>
      </trkpt>
      <trkpt lat="47.66338" lon="6.14151">
        <ele>237.2</ele>
        <time>2020-12-10T10:56:19Z</time>
      </trkpt>
      <trkpt lat="47.66342" lon="6.14155">
        <ele>237.4</ele>
        <time>2020-12-10T10:56:23Z</time>
      </trkpt>
      <trkpt lat="47.66346" lon="6.14161">
        <ele>237.6</ele>
        <time>2020-12-10T10:56:25Z</time>
      </trkpt>
      <trkpt lat="47.6635" lon="6.14165">
        <ele>237.8</ele>
        <time>2020-12-10T10:56:28Z</time>
      </trkpt>
      <trkpt lat="47.66355" lon="6.14171">
        <ele>238</ele>
        <time>2020-12-10T10:56:32Z</time>
      </trkpt>
      <trkpt lat="47.66359" lon="6.14177">
        <ele>238.2</ele>
        <time>2020-12-10T10:56:35Z</time>
      </trkpt>
      <trkpt lat="47.66363" lon="6.14182">
        <ele>238.4</ele>
        <time>2020-12-10T10:56:39Z</time>
      </trkpt>
      <trkpt lat="47.66367" lon="6.14188">
        <ele>238.6</ele>
        <time>2020-12-10T10:56:41Z</time>
      </trkpt>
      <trkpt lat="47.66371" lon="6.14197">
        <ele>238.9</ele>
        <time>2020-12-10T10:56:45Z</time>
      </trkpt>
      <trkpt lat="47.66375" lon="6.14202">
        <ele>239.2</ele>
        <time>2020-12-10T10:56:48Z</time>
      </trkpt>
      <trkpt lat="47.66379" lon="6.14208">
        <ele>239.6</ele>
        <time>2020-12-10T10:56:51Z</time>
      </trkpt>
      <trkpt lat="47.66382" lon="6.14213">
        <ele>239.9</ele>
        <time>2020-12-10T10:56:54Z</time>
      </trkpt>
      <trkpt lat="47.66387" lon="6.14219">
        <ele>240.3</ele>
        <time>2020-12-10T10:56:57Z</time>
      </trkpt>
      <trkpt lat="47.6639" lon="6.14226">
        <ele>240.7</ele>
        <time>2020-12-10T10:57:00Z</time>
      </trkpt>
      <trkpt lat="47.66393" lon="6.14232">
        <ele>241.1</ele>
        <time>2020-12-10T10:57:03Z</time>
      </trkpt>
      <trkpt lat="47.66397" lon="6.14237">
        <ele>241.5</ele>
        <time>2020-12-10T10:57:07Z</time>
      </trkpt>
      <trkpt lat="47.664" lon="6.14242">
        <ele>242</ele>
        <time>2020-12-10T10:57:10Z</time>
      </trkpt>
      <trkpt lat="47.66404" lon="6.14248">
        <ele>242.6</ele>
        <time>2020-12-10T10:57:14Z</time>
      </trkpt>
      <trkpt lat="47.66408" lon="6.14254">
        <ele>243.1</ele>
        <time>2020-12-10T10:57:16Z</time>
      </trkpt>
      <trkpt lat="47.66412" lon="6.1426">
        <ele>243.7</ele>
        <time>2020-12-10T10:57:20Z</time>
      </trkpt>
      <trkpt lat="47.66415" lon="6.14266">
        <ele>244.2</ele>
        <time>2020-12-10T10:57:24Z</time>
      </trkpt>
      <trkpt lat="47.66419" lon="6.14271">
        <ele>244.7</ele>
        <time>2020-12-10T10:57:27Z</time>
      </trkpt>
      <trkpt lat="47.66421" lon="6.14277">
        <ele>245.1</ele>
        <time>2020-12-10T10:57:30Z</time>
      </trkpt>
      <trkpt lat="47.66425" lon="6.14283">
        <ele>245.6</ele>
        <time>2020-12-10T10:57:33Z</time>
      </trkpt>
      <trkpt lat="47.66428" lon="6.14289">
        <ele>246</ele>
        <time>2020-12-10T10:57:37Z</time>
      </trkpt>
      <trkpt lat="47.66432" lon="6.14294">
        <ele>246.5</ele>
        <time>2020-12-10T10:57:39Z</time>
      </trkpt>
      <trkpt lat="47.66435" lon="6.14299">
        <ele>246.9</ele>
        <time>2020-12-10T10:57:42Z</time>
      </trkpt>
      <trkpt lat="47.66438" lon="6.14305">
        <ele>247.3</ele>
        <time>2020-12-10T10:57:45Z</time>
      </trkpt>
      <trkpt lat="47.66441" lon="6.1431">
        <ele>247.8</ele>
        <time>2020-12-10T10:57:48Z</time>
      </trkpt>
      <trkpt lat="47.66444" lon="6.14315">
        <ele>248.2</ele>
        <time>2020-12-10T10:57:50Z</time>
      </trkpt>
      <trkpt lat="47.66448" lon="6.14319">
        <ele>248.7</ele>
        <time>2020-12-10T10:57:54Z</time>
      </trkpt>
      <trkpt lat="47.66452" lon="6.14324">
        <ele>249.2</ele>
        <time>2020-12-10T10:57:56Z</time>
      </trkpt>
      <trkpt lat="47.66456" lon="6.14329">
        <ele>249.7</ele>
        <time>2020-12-10T10:57:59Z</time>
      </trkpt>
      <trkpt lat="47.66461" lon="6.14335">
        <ele>250.2</ele>
        <time>2020-12-10T10:58:02Z</time>
      </trkpt>
      <trkpt lat="47.66465" lon="6.14341">
        <ele>250.5</ele>
        <time>2020-12-10T10:58:06Z</time>
      </trkpt>
      <trkpt lat="47.66469" lon="6.14345">
        <ele>250.8</ele>
        <time>2020-12-10T10:58:08Z</time>
      </trkpt>
      <trkpt lat="47.66473" lon="6.14351">
        <ele>251.1</ele>
        <time>2020-12-10T10:58:12Z</time>
      </trkpt>
      <trkpt lat="47.66477" lon="6.14356">
        <ele>251.4</ele>
        <time>2020-12-10T10:58:14Z</time>
      </trkpt>
      <trkpt lat="47.66481" lon="6.14362">
        <ele>251.7</ele>
        <time>2020-12-10T10:58:18Z</time>
      </trkpt>
      <trkpt lat="47.66485" lon="6.14368">
        <ele>251.9</ele>
        <time>2020-12-10T10:58:20Z</time>
      </trkpt>
      <trkpt lat="47.66489" lon="6.14373">
        <ele>252.1</ele>
        <time>2020-12-10T10:58:23Z</time>
      </trkpt>
      <trkpt lat="47.66493" lon="6.14377">
        <ele>252.4</ele>
        <time>2020-12-10T10:58:26Z</time>
      </trkpt>
      <trkpt lat="47.66498" lon="6.14382">
        <ele>252.7</ele>
        <time>2020-12-10T10:58:28Z</time>
      </trkpt>
      <trkpt lat="47.66502" lon="6.14387">
        <ele>252.8</ele>
        <time>2020-12-10T10:58:31Z</time>
      </trkpt>
      <trkpt lat="47.66506" lon="6.14394">
        <ele>252.7</ele>
        <time>2020-12-10T10:58:35Z</time>
      </trkpt>
      <trkpt lat="47.6651" lon="6.144">
        <ele>252.7</ele>
        <time>2020-12-10T10:58:37Z</time>
      </trkpt>
      <trkpt lat="47.66514" lon="6.14406">
        <ele>252.7</ele>
        <time>2020-12-10T10:58:40Z</time>
      </trkpt>
      <trkpt lat="47.66518" lon="6.14413">
        <ele>252.7</ele>
        <time>2020-12-10T10:58:44Z</time>
      </trkpt>
      <trkpt lat="47.66522" lon="6.1442">
        <ele>252.8</ele>
        <time>2020-12-10T10:58:46Z</time>
      </trkpt>
      <trkpt lat="47.66525" lon="6.14425">
        <ele>252.9</ele>
        <time>2020-12-10T10:58:48Z</time>
      </trkpt>
      <trkpt lat="47.66529" lon="6.14433">
        <ele>253.1</ele>
        <time>2020-12-10T10:58:51Z</time>
      </trkpt>
      <trkpt lat="47.66532" lon="6.1444">
        <ele>253.3</ele>
        <time>2020-12-10T10:58:54Z</time>
      </trkpt>
      <trkpt lat="47.66535" lon="6.14445">
        <ele>253.4</ele>
        <time>2020-12-10T10:58:56Z</time>
      </trkpt>
      <trkpt lat="47.66538" lon="6.14452">
        <ele>253.6</ele>
        <time>2020-12-10T10:58:58Z</time>
      </trkpt>
      <trkpt lat="47.66541" lon="6.14459">
        <ele>253.7</ele>
        <time>2020-12-10T10:59:01Z</time>
      </trkpt>
      <trkpt lat="47.66544" lon="6.14467">
        <ele>253.9</ele>
        <time>2020-12-10T10:59:03Z</time>
      </trkpt>
      <trkpt lat="47.66548" lon="6.14474">
        <ele>254.1</ele>
        <time>2020-12-10T10:59:06Z</time>
      </trkpt>
      <trkpt lat="47.66552" lon="6.1448">
        <ele>254.3</ele>
        <time>2020-12-10T10:59:08Z</time>
      </trkpt>
      <trkpt lat="47.66555" lon="6.14487">
        <ele>254.5</ele>
        <time>2020-12-10T10:59:09Z</time>
      </trkpt>
      <trkpt lat="47.66558" lon="6.14493">
        <ele>254.7</ele>
        <time>2020-12-10T10:59:10Z</time>
      </trkpt>
      <trkpt lat="47.66561" lon="6.14499">
        <ele>254.9</ele>
        <time>2020-12-10T10:59:12Z</time>
      </trkpt>
      <trkpt lat="47.66565" lon="6.14508">
        <ele>254.9</ele>
        <time>2020-12-10T10:59:13Z</time>
      </trkpt>
      <trkpt lat="47.66569" lon="6.14517">
        <ele>254.8</ele>
        <time>2020-12-10T10:59:15Z</time>
      </trkpt>
      <trkpt lat="47.66571" lon="6.14526">
        <ele>254.7</ele>
        <time>2020-12-10T10:59:17Z</time>
      </trkpt>
      <trkpt lat="47.66573" lon="6.14537">
        <ele>254.5</ele>
        <time>2020-12-10T10:59:19Z</time>
      </trkpt>
      <trkpt lat="47.66574" lon="6.14544">
        <ele>254.4</ele>
        <time>2020-12-10T10:59:20Z</time>
      </trkpt>
      <trkpt lat="47.66575" lon="6.14554">
        <ele>254.3</ele>
        <time>2020-12-10T10:59:21Z</time>
      </trkpt>
      <trkpt lat="47.66577" lon="6.14562">
        <ele>254.1</ele>
        <time>2020-12-10T10:59:23Z</time>
      </trkpt>
      <trkpt lat="47.66578" lon="6.14569">
        <ele>254</ele>
        <time>2020-12-10T10:59:23Z</time>
      </trkpt>
      <trkpt lat="47.6658" lon="6.14582">
        <ele>253.8</ele>
        <time>2020-12-10T10:59:25Z</time>
      </trkpt>
      <trkpt lat="47.66581" lon="6.14588">
        <ele>253.8</ele>
        <time>2020-12-10T10:59:26Z</time>
      </trkpt>
      <trkpt lat="47.66582" lon="6.14597">
        <ele>253.8</ele>
        <time>2020-12-10T10:59:28Z</time>
      </trkpt>
      <trkpt lat="47.66583" lon="6.14605">
        <ele>253.7</ele>
        <time>2020-12-10T10:59:29Z</time>
      </trkpt>
      <trkpt lat="47.66584" lon="6.14614">
        <ele>253.7</ele>
        <time>2020-12-10T10:59:30Z</time>
      </trkpt>
      <trkpt lat="47.66585" lon="6.14623">
        <ele>253.6</ele>
        <time>2020-12-10T10:59:31Z</time>
      </trkpt>
      <trkpt lat="47.66586" lon="6.14637">
        <ele>253.4</ele>
        <time>2020-12-10T10:59:33Z</time>
      </trkpt>
      <trkpt lat="47.66586" lon="6.14644">
        <ele>253.3</ele>
        <time>2020-12-10T10:59:35Z</time>
      </trkpt>
      <trkpt lat="47.66588" lon="6.14651">
        <ele>253.3</ele>
        <time>2020-12-10T10:59:36Z</time>
      </trkpt>
      <trkpt lat="47.66591" lon="6.14664">
        <ele>253.2</ele>
        <time>2020-12-10T10:59:37Z</time>
      </trkpt>
      <trkpt lat="47.66593" lon="6.14673">
        <ele>253.3</ele>
        <time>2020-12-10T10:59:39Z</time>
      </trkpt>
      <trkpt lat="47.66596" lon="6.14678">
        <ele>253.5</ele>
        <time>2020-12-10T10:59:40Z</time>
      </trkpt>
      <trkpt lat="47.66598" lon="6.14684">
        <ele>253.6</ele>
        <time>2020-12-10T10:59:41Z</time>
      </trkpt>
      <trkpt lat="47.66602" lon="6.14692">
        <ele>253.8</ele>
        <time>2020-12-10T10:59:42Z</time>
      </trkpt>
      <trkpt lat="47.66605" lon="6.14699">
        <ele>254</ele>
        <time>2020-12-10T10:59:44Z</time>
      </trkpt>
      <trkpt lat="47.66607" lon="6.14709">
        <ele>254.2</ele>
        <time>2020-12-10T10:59:45Z</time>
      </trkpt>
      <trkpt lat="47.66605" lon="6.14718">
        <ele>254.3</ele>
        <time>2020-12-10T10:59:48Z</time>
      </trkpt>
      <trkpt lat="47.66601" lon="6.14725">
        <ele>254.3</ele>
        <time>2020-12-10T10:59:50Z</time>
      </trkpt>
      <trkpt lat="47.66598" lon="6.14736">
        <ele>254.3</ele>
        <time>2020-12-10T10:59:52Z</time>
      </trkpt>
      <trkpt lat="47.66596" lon="6.14745">
        <ele>254.4</ele>
        <time>2020-12-10T10:59:56Z</time>
      </trkpt>
      <trkpt lat="47.66594" lon="6.14754">
        <ele>254.3</ele>
        <time>2020-12-10T10:59:58Z</time>
      </trkpt>
      <trkpt lat="47.66592" lon="6.14762">
        <ele>254</ele>
        <time>2020-12-10T11:00:00Z</time>
      </trkpt>
      <trkpt lat="47.66589" lon="6.14769">
        <ele>253.8</ele>
        <time>2020-12-10T11:00:03Z</time>
      </trkpt>
      <trkpt lat="47.66587" lon="6.14776">
        <ele>253.5</ele>
        <time>2020-12-10T11:00:04Z</time>
      </trkpt>
      <trkpt lat="47.66585" lon="6.14786">
        <ele>253.2</ele>
        <time>2020-12-10T11:00:06Z</time>
      </trkpt>
      <trkpt lat="47.66583" lon="6.14793">
        <ele>252.9</ele>
        <time>2020-12-10T11:00:07Z</time>
      </trkpt>
      <trkpt lat="47.66581" lon="6.14799">
        <ele>252.7</ele>
        <time>2020-12-10T11:00:09Z</time>
      </trkpt>
      <trkpt lat="47.66579" lon="6.14806">
        <ele>252.4</ele>
        <time>2020-12-10T11:00:10Z</time>
      </trkpt>
      <trkpt lat="47.66578" lon="6.14813">
        <ele>252.2</ele>
        <time>2020-12-10T11:00:12Z</time>
      </trkpt>
      <trkpt lat="47.66574" lon="6.14826">
        <ele>251.7</ele>
        <time>2020-12-10T11:00:14Z</time>
      </trkpt>
      <trkpt lat="47.66571" lon="6.14834">
        <ele>251.4</ele>
        <time>2020-12-10T11:00:15Z</time>
      </trkpt>
      <trkpt lat="47.66569" lon="6.14842">
        <ele>251</ele>
        <time>2020-12-10T11:00:16Z</time>
      </trkpt>
      <trkpt lat="47.66566" lon="6.1485">
        <ele>250.6</ele>
        <time>2020-12-10T11:00:18Z</time>
      </trkpt>
      <trkpt lat="47.66563" lon="6.14858">
        <ele>250.2</ele>
        <time>2020-12-10T11:00:19Z</time>
      </trkpt>
      <trkpt lat="47.66561" lon="6.14863">
        <ele>249.9</ele>
        <time>2020-12-10T11:00:20Z</time>
      </trkpt>
      <trkpt lat="47.66559" lon="6.14871">
        <ele>249.6</ele>
        <time>2020-12-10T11:00:23Z</time>
      </trkpt>
      <trkpt lat="47.66565" lon="6.14875">
        <ele>249.7</ele>
        <time>2020-12-10T11:00:24Z</time>
      </trkpt>
      <trkpt lat="47.6657" lon="6.14875">
        <ele>249.9</ele>
        <time>2020-12-10T11:00:31Z</time>
      </trkpt>
      <trkpt lat="47.66574" lon="6.14878">
        <ele>250</ele>
        <time>2020-12-10T11:00:34Z</time>
      </trkpt>
      <trkpt lat="47.6658" lon="6.14881">
        <ele>250.1</ele>
        <time>2020-12-10T11:00:34Z</time>
      </trkpt>
      <trkpt lat="47.66588" lon="6.14884">
        <ele>250.4</ele>
        <time>2020-12-10T11:00:37Z</time>
      </trkpt>
      <trkpt lat="47.66593" lon="6.14887">
        <ele>250.5</ele>
        <time>2020-12-10T11:00:39Z</time>
      </trkpt>
      <trkpt lat="47.66598" lon="6.14892">
        <ele>250.6</ele>
        <time>2020-12-10T11:00:41Z</time>
      </trkpt>
      <trkpt lat="47.66604" lon="6.14896">
        <ele>250.7</ele>
        <time>2020-12-10T11:00:45Z</time>
      </trkpt>
      <trkpt lat="47.66608" lon="6.14898">
        <ele>250.8</ele>
        <time>2020-12-10T11:00:46Z</time>
      </trkpt>
      <trkpt lat="47.66616" lon="6.14903">
        <ele>251</ele>
        <time>2020-12-10T11:00:48Z</time>
      </trkpt>
      <trkpt lat="47.66622" lon="6.14908">
        <ele>251.1</ele>
        <time>2020-12-10T11:00:51Z</time>
      </trkpt>
      <trkpt lat="47.66624" lon="6.14916">
        <ele>250.9</ele>
        <time>2020-12-10T11:00:51Z</time>
      </trkpt>
      <trkpt lat="47.66623" lon="6.14923">
        <ele>250.7</ele>
        <time>2020-12-10T11:00:54Z</time>
      </trkpt>
      <trkpt lat="47.66624" lon="6.14916">
        <ele>251</ele>
        <time>2020-12-10T11:00:57Z</time>
      </trkpt>
      <trkpt lat="47.66627" lon="6.14921">
        <ele>251</ele>
        <time>2020-12-10T11:01:33Z</time>
      </trkpt>
      <trkpt lat="47.66632" lon="6.1492">
        <ele>251.2</ele>
        <time>2020-12-10T11:01:40Z</time>
      </trkpt>
      <trkpt lat="47.66636" lon="6.14924">
        <ele>251.3</ele>
        <time>2020-12-10T11:01:41Z</time>
      </trkpt>
      <trkpt lat="47.66635" lon="6.14931">
        <ele>251.1</ele>
        <time>2020-12-10T11:01:44Z</time>
      </trkpt>
      <trkpt lat="47.66632" lon="6.14937">
        <ele>250.7</ele>
        <time>2020-12-10T11:01:46Z</time>
      </trkpt>
      <trkpt lat="47.66627" lon="6.14944">
        <ele>250.3</ele>
        <time>2020-12-10T11:01:49Z</time>
      </trkpt>
      <trkpt lat="47.66622" lon="6.14951">
        <ele>249.8</ele>
        <time>2020-12-10T11:01:49Z</time>
      </trkpt>
      <trkpt lat="47.66618" lon="6.14957">
        <ele>249.4</ele>
        <time>2020-12-10T11:01:50Z</time>
      </trkpt>
      <trkpt lat="47.66614" lon="6.14963">
        <ele>249</ele>
        <time>2020-12-10T11:01:51Z</time>
      </trkpt>
      <trkpt lat="47.66611" lon="6.14968">
        <ele>248.7</ele>
        <time>2020-12-10T11:01:53Z</time>
      </trkpt>
      <trkpt lat="47.66607" lon="6.14974">
        <ele>248.3</ele>
        <time>2020-12-10T11:01:54Z</time>
      </trkpt>
      <trkpt lat="47.66603" lon="6.1498">
        <ele>247.9</ele>
        <time>2020-12-10T11:01:55Z</time>
      </trkpt>
      <trkpt lat="47.66599" lon="6.14988">
        <ele>247.3</ele>
        <time>2020-12-10T11:01:56Z</time>
      </trkpt>
      <trkpt lat="47.66589" lon="6.15006">
        <ele>246.4</ele>
        <time>2020-12-10T11:01:56Z</time>
      </trkpt>
      <trkpt lat="47.66583" lon="6.15016">
        <ele>246.2</ele>
        <time>2020-12-10T11:01:57Z</time>
      </trkpt>
      <trkpt lat="47.66579" lon="6.15024">
        <ele>246</ele>
        <time>2020-12-10T11:01:58Z</time>
      </trkpt>
      <trkpt lat="47.66574" lon="6.15031">
        <ele>245.8</ele>
        <time>2020-12-10T11:01:59Z</time>
      </trkpt>
      <trkpt lat="47.66568" lon="6.15037">
        <ele>245.5</ele>
        <time>2020-12-10T11:02:00Z</time>
      </trkpt>
      <trkpt lat="47.66562" lon="6.15041">
        <ele>245.1</ele>
        <time>2020-12-10T11:02:01Z</time>
      </trkpt>
      <trkpt lat="47.66556" lon="6.15042">
        <ele>244.7</ele>
        <time>2020-12-10T11:02:02Z</time>
      </trkpt>
      <trkpt lat="47.6655" lon="6.15042">
        <ele>244.3</ele>
        <time>2020-12-10T11:02:03Z</time>
      </trkpt>
      <trkpt lat="47.66544" lon="6.15042">
        <ele>243.9</ele>
        <time>2020-12-10T11:02:04Z</time>
      </trkpt>
      <trkpt lat="47.66538" lon="6.15042">
        <ele>243.5</ele>
        <time>2020-12-10T11:02:05Z</time>
      </trkpt>
      <trkpt lat="47.66532" lon="6.15042">
        <ele>243.1</ele>
        <time>2020-12-10T11:02:06Z</time>
      </trkpt>
      <trkpt lat="47.66526" lon="6.15042">
        <ele>242.7</ele>
        <time>2020-12-10T11:02:07Z</time>
      </trkpt>
      <trkpt lat="47.6652" lon="6.15043">
        <ele>242.3</ele>
        <time>2020-12-10T11:02:08Z</time>
      </trkpt>
      <trkpt lat="47.66514" lon="6.15044">
        <ele>241.9</ele>
        <time>2020-12-10T11:02:09Z</time>
      </trkpt>
      <trkpt lat="47.66508" lon="6.15044">
        <ele>241.5</ele>
        <time>2020-12-10T11:02:10Z</time>
      </trkpt>
      <trkpt lat="47.66502" lon="6.15043">
        <ele>241.1</ele>
        <time>2020-12-10T11:02:11Z</time>
      </trkpt>
      <trkpt lat="47.66497" lon="6.15042">
        <ele>241</ele>
        <time>2020-12-10T11:02:12Z</time>
      </trkpt>
      <trkpt lat="47.66491" lon="6.15039">
        <ele>241</ele>
        <time>2020-12-10T11:02:13Z</time>
      </trkpt>
      <trkpt lat="47.66486" lon="6.15037">
        <ele>241</ele>
        <time>2020-12-10T11:02:14Z</time>
      </trkpt>
      <trkpt lat="47.66482" lon="6.15034">
        <ele>241</ele>
        <time>2020-12-10T11:02:15Z</time>
      </trkpt>
      <trkpt lat="47.66477" lon="6.15032">
        <ele>241</ele>
        <time>2020-12-10T11:02:16Z</time>
      </trkpt>
      <trkpt lat="47.66472" lon="6.1503">
        <ele>241</ele>
        <time>2020-12-10T11:02:17Z</time>
      </trkpt>
      <trkpt lat="47.66468" lon="6.15028">
        <ele>241.1</ele>
        <time>2020-12-10T11:02:18Z</time>
      </trkpt>
      <trkpt lat="47.66463" lon="6.15027">
        <ele>241.1</ele>
        <time>2020-12-10T11:02:19Z</time>
      </trkpt>
      <trkpt lat="47.66456" lon="6.15028">
        <ele>241</ele>
        <time>2020-12-10T11:02:21Z</time>
      </trkpt>
      <trkpt lat="47.66448" lon="6.15031">
        <ele>240.8</ele>
        <time>2020-12-10T11:02:23Z</time>
      </trkpt>
      <trkpt lat="47.6644" lon="6.15034">
        <ele>240.6</ele>
        <time>2020-12-10T11:02:25Z</time>
      </trkpt>
      <trkpt lat="47.66435" lon="6.15036">
        <ele>240.5</ele>
        <time>2020-12-10T11:02:26Z</time>
      </trkpt>
      <trkpt lat="47.66429" lon="6.1504">
        <ele>240.2</ele>
        <time>2020-12-10T11:02:29Z</time>
      </trkpt>
      <trkpt lat="47.66422" lon="6.15047">
        <ele>239.8</ele>
        <time>2020-12-10T11:02:30Z</time>
      </trkpt>
      <trkpt lat="47.66417" lon="6.15047">
        <ele>239.7</ele>
        <time>2020-12-10T11:02:33Z</time>
      </trkpt>
      <trkpt lat="47.66409" lon="6.15048">
        <ele>239.6</ele>
        <time>2020-12-10T11:02:35Z</time>
      </trkpt>
      <trkpt lat="47.66395" lon="6.15049">
        <ele>239.4</ele>
        <time>2020-12-10T11:02:38Z</time>
      </trkpt>
      <trkpt lat="47.6639" lon="6.1505">
        <ele>239.3</ele>
        <time>2020-12-10T11:02:39Z</time>
      </trkpt>
      <trkpt lat="47.66384" lon="6.15051">
        <ele>239.3</ele>
        <time>2020-12-10T11:02:40Z</time>
      </trkpt>
      <trkpt lat="47.66379" lon="6.15051">
        <ele>239.2</ele>
        <time>2020-12-10T11:02:41Z</time>
      </trkpt>
      <trkpt lat="47.66373" lon="6.15053">
        <ele>239.1</ele>
        <time>2020-12-10T11:02:43Z</time>
      </trkpt>
      <trkpt lat="47.66366" lon="6.15054">
        <ele>239</ele>
        <time>2020-12-10T11:02:44Z</time>
      </trkpt>
      <trkpt lat="47.66361" lon="6.15055">
        <ele>238.9</ele>
        <time>2020-12-10T11:02:44Z</time>
      </trkpt>
      <trkpt lat="47.66354" lon="6.15055">
        <ele>238.8</ele>
        <time>2020-12-10T11:02:47Z</time>
      </trkpt>
      <trkpt lat="47.66349" lon="6.15055">
        <ele>238.8</ele>
        <time>2020-12-10T11:02:49Z</time>
      </trkpt>
      <trkpt lat="47.66342" lon="6.15055">
        <ele>238.8</ele>
        <time>2020-12-10T11:02:50Z</time>
      </trkpt>
      <trkpt lat="47.66336" lon="6.15053">
        <ele>238.7</ele>
        <time>2020-12-10T11:02:52Z</time>
      </trkpt>
      <trkpt lat="47.66329" lon="6.15053">
        <ele>238.6</ele>
        <time>2020-12-10T11:02:53Z</time>
      </trkpt>
      <trkpt lat="47.66323" lon="6.15051">
        <ele>238.4</ele>
        <time>2020-12-10T11:02:55Z</time>
      </trkpt>
      <trkpt lat="47.66314" lon="6.15049">
        <ele>238.2</ele>
        <time>2020-12-10T11:02:55Z</time>
      </trkpt>
      <trkpt lat="47.66307" lon="6.15048">
        <ele>237.9</ele>
        <time>2020-12-10T11:02:58Z</time>
      </trkpt>
      <trkpt lat="47.66302" lon="6.15047">
        <ele>237.8</ele>
        <time>2020-12-10T11:03:00Z</time>
      </trkpt>
      <trkpt lat="47.66294" lon="6.15045">
        <ele>237.5</ele>
        <time>2020-12-10T11:03:01Z</time>
      </trkpt>
      <trkpt lat="47.66287" lon="6.15044">
        <ele>237.3</ele>
        <time>2020-12-10T11:03:01Z</time>
      </trkpt>
      <trkpt lat="47.66281" lon="6.15043">
        <ele>237.1</ele>
        <time>2020-12-10T11:03:02Z</time>
      </trkpt>
      <trkpt lat="47.66276" lon="6.15042">
        <ele>236.9</ele>
        <time>2020-12-10T11:03:03Z</time>
      </trkpt>
      <trkpt lat="47.6627" lon="6.1504">
        <ele>236.7</ele>
        <time>2020-12-10T11:03:04Z</time>
      </trkpt>
      <trkpt lat="47.66264" lon="6.15039">
        <ele>236.5</ele>
        <time>2020-12-10T11:03:05Z</time>
      </trkpt>
      <trkpt lat="47.66258" lon="6.15038">
        <ele>236.3</ele>
        <time>2020-12-10T11:03:06Z</time>
      </trkpt>
      <trkpt lat="47.66252" lon="6.15037">
        <ele>236.1</ele>
        <time>2020-12-10T11:03:07Z</time>
      </trkpt>
      <trkpt lat="47.66245" lon="6.15035">
        <ele>235.7</ele>
        <time>2020-12-10T11:03:08Z</time>
      </trkpt>
      <trkpt lat="47.66238" lon="6.15034">
        <ele>235.3</ele>
        <time>2020-12-10T11:03:09Z</time>
      </trkpt>
      <trkpt lat="47.66231" lon="6.15033">
        <ele>234.9</ele>
        <time>2020-12-10T11:03:10Z</time>
      </trkpt>
      <trkpt lat="47.66224" lon="6.15031">
        <ele>234.4</ele>
        <time>2020-12-10T11:03:11Z</time>
      </trkpt>
      <trkpt lat="47.66217" lon="6.1503">
        <ele>234</ele>
        <time>2020-12-10T11:03:12Z</time>
      </trkpt>
      <trkpt lat="47.66209" lon="6.15029">
        <ele>233.5</ele>
        <time>2020-12-10T11:03:13Z</time>
      </trkpt>
      <trkpt lat="47.66201" lon="6.15027">
        <ele>233.1</ele>
        <time>2020-12-10T11:03:14Z</time>
      </trkpt>
      <trkpt lat="47.66193" lon="6.15026">
        <ele>232.6</ele>
        <time>2020-12-10T11:03:15Z</time>
      </trkpt>
      <trkpt lat="47.66185" lon="6.15025">
        <ele>232.1</ele>
        <time>2020-12-10T11:03:16Z</time>
      </trkpt>
      <trkpt lat="47.66177" lon="6.15024">
        <ele>231.6</ele>
        <time>2020-12-10T11:03:17Z</time>
      </trkpt>
      <trkpt lat="47.66168" lon="6.15023">
        <ele>231.1</ele>
        <time>2020-12-10T11:03:18Z</time>
      </trkpt>
      <trkpt lat="47.6616" lon="6.15023">
        <ele>230.6</ele>
        <time>2020-12-10T11:03:19Z</time>
      </trkpt>
      <trkpt lat="47.66151" lon="6.15023">
        <ele>230.1</ele>
        <time>2020-12-10T11:03:20Z</time>
      </trkpt>
      <trkpt lat="47.66142" lon="6.15024">
        <ele>229.6</ele>
        <time>2020-12-10T11:03:21Z</time>
      </trkpt>
      <trkpt lat="47.66133" lon="6.15024">
        <ele>229.1</ele>
        <time>2020-12-10T11:03:22Z</time>
      </trkpt>
      <trkpt lat="47.66124" lon="6.15024">
        <ele>228.6</ele>
        <time>2020-12-10T11:03:23Z</time>
      </trkpt>
      <trkpt lat="47.66115" lon="6.15023">
        <ele>228.1</ele>
        <time>2020-12-10T11:03:24Z</time>
      </trkpt>
      <trkpt lat="47.66106" lon="6.15023">
        <ele>227.6</ele>
        <time>2020-12-10T11:03:25Z</time>
      </trkpt>
      <trkpt lat="47.66098" lon="6.15023">
        <ele>227.1</ele>
        <time>2020-12-10T11:03:26Z</time>
      </trkpt>
      <trkpt lat="47.66089" lon="6.15023">
        <ele>226.6</ele>
        <time>2020-12-10T11:03:27Z</time>
      </trkpt>
      <trkpt lat="47.6608" lon="6.15023">
        <ele>226.2</ele>
        <time>2020-12-10T11:03:28Z</time>
      </trkpt>
      <trkpt lat="47.66072" lon="6.15024">
        <ele>226.1</ele>
        <time>2020-12-10T11:03:29Z</time>
      </trkpt>
      <trkpt lat="47.66063" lon="6.15025">
        <ele>225.9</ele>
        <time>2020-12-10T11:03:30Z</time>
      </trkpt>
      <trkpt lat="47.66055" lon="6.15025">
        <ele>225.7</ele>
        <time>2020-12-10T11:03:31Z</time>
      </trkpt>
      <trkpt lat="47.66047" lon="6.15025">
        <ele>225.6</ele>
        <time>2020-12-10T11:03:32Z</time>
      </trkpt>
      <trkpt lat="47.66039" lon="6.15025">
        <ele>225.4</ele>
        <time>2020-12-10T11:03:33Z</time>
      </trkpt>
      <trkpt lat="47.66031" lon="6.15025">
        <ele>225.2</ele>
        <time>2020-12-10T11:03:34Z</time>
      </trkpt>
      <trkpt lat="47.66024" lon="6.15025">
        <ele>225.1</ele>
        <time>2020-12-10T11:03:35Z</time>
      </trkpt>
      <trkpt lat="47.66017" lon="6.15024">
        <ele>224.9</ele>
        <time>2020-12-10T11:03:36Z</time>
      </trkpt>
      <trkpt lat="47.66011" lon="6.15023">
        <ele>224.8</ele>
        <time>2020-12-10T11:03:37Z</time>
      </trkpt>
      <trkpt lat="47.66004" lon="6.15023">
        <ele>224.6</ele>
        <time>2020-12-10T11:03:38Z</time>
      </trkpt>
      <trkpt lat="47.65998" lon="6.15022">
        <ele>224.6</ele>
        <time>2020-12-10T11:03:39Z</time>
      </trkpt>
      <trkpt lat="47.65993" lon="6.15021">
        <ele>224.7</ele>
        <time>2020-12-10T11:03:40Z</time>
      </trkpt>
      <trkpt lat="47.65987" lon="6.1502">
        <ele>224.9</ele>
        <time>2020-12-10T11:03:41Z</time>
      </trkpt>
      <trkpt lat="47.65983" lon="6.15019">
        <ele>225</ele>
        <time>2020-12-10T11:03:42Z</time>
      </trkpt>
      <trkpt lat="47.65978" lon="6.15018">
        <ele>225.2</ele>
        <time>2020-12-10T11:03:43Z</time>
      </trkpt>
      <trkpt lat="47.65974" lon="6.15018">
        <ele>225.3</ele>
        <time>2020-12-10T11:03:44Z</time>
      </trkpt>
      <trkpt lat="47.65969" lon="6.15017">
        <ele>225.4</ele>
        <time>2020-12-10T11:03:45Z</time>
      </trkpt>
      <trkpt lat="47.65964" lon="6.15016">
        <ele>225.6</ele>
        <time>2020-12-10T11:03:46Z</time>
      </trkpt>
      <trkpt lat="47.65959" lon="6.15016">
        <ele>225.8</ele>
        <time>2020-12-10T11:03:47Z</time>
      </trkpt>
      <trkpt lat="47.65955" lon="6.15016">
        <ele>225.9</ele>
        <time>2020-12-10T11:03:48Z</time>
      </trkpt>
      <trkpt lat="47.65947" lon="6.15016">
        <ele>226.2</ele>
        <time>2020-12-10T11:03:50Z</time>
      </trkpt>
      <trkpt lat="47.6594" lon="6.15015">
        <ele>226.4</ele>
        <time>2020-12-10T11:03:52Z</time>
      </trkpt>
      <trkpt lat="47.65932" lon="6.15014">
        <ele>226.6</ele>
        <time>2020-12-10T11:03:54Z</time>
      </trkpt>
      <trkpt lat="47.65925" lon="6.15014">
        <ele>226.9</ele>
        <time>2020-12-10T11:03:56Z</time>
      </trkpt>
      <trkpt lat="47.65921" lon="6.15011">
        <ele>227</ele>
        <time>2020-12-10T11:03:59Z</time>
      </trkpt>
      <trkpt lat="47.65915" lon="6.15012">
        <ele>227.2</ele>
        <time>2020-12-10T11:04:01Z</time>
      </trkpt>
      <trkpt lat="47.65907" lon="6.15013">
        <ele>227.6</ele>
        <time>2020-12-10T11:04:04Z</time>
      </trkpt>
      <trkpt lat="47.659" lon="6.15014">
        <ele>227.8</ele>
        <time>2020-12-10T11:04:04Z</time>
      </trkpt>
      <trkpt lat="47.65895" lon="6.15014">
        <ele>228.1</ele>
        <time>2020-12-10T11:04:08Z</time>
      </trkpt>
      <trkpt lat="47.65888" lon="6.15014">
        <ele>228.4</ele>
        <time>2020-12-10T11:04:08Z</time>
      </trkpt>
      <trkpt lat="47.65883" lon="6.15015">
        <ele>228.6</ele>
        <time>2020-12-10T11:04:10Z</time>
      </trkpt>
      <trkpt lat="47.65877" lon="6.15015">
        <ele>228.8</ele>
        <time>2020-12-10T11:04:12Z</time>
      </trkpt>
      <trkpt lat="47.65872" lon="6.15015">
        <ele>229</ele>
        <time>2020-12-10T11:04:16Z</time>
      </trkpt>
      <trkpt lat="47.65867" lon="6.15015">
        <ele>229.2</ele>
        <time>2020-12-10T11:04:17Z</time>
      </trkpt>
      <trkpt lat="47.65861" lon="6.15015">
        <ele>229.5</ele>
        <time>2020-12-10T11:04:19Z</time>
      </trkpt>
      <trkpt lat="47.65855" lon="6.15015">
        <ele>229.7</ele>
        <time>2020-12-10T11:04:21Z</time>
      </trkpt>
      <trkpt lat="47.65849" lon="6.15015">
        <ele>230</ele>
        <time>2020-12-10T11:04:23Z</time>
      </trkpt>
      <trkpt lat="47.65845" lon="6.15015">
        <ele>230.2</ele>
        <time>2020-12-10T11:04:26Z</time>
      </trkpt>
      <trkpt lat="47.65839" lon="6.15017">
        <ele>230.4</ele>
        <time>2020-12-10T11:04:29Z</time>
      </trkpt>
      <trkpt lat="47.65833" lon="6.15017">
        <ele>230.6</ele>
        <time>2020-12-10T11:04:31Z</time>
      </trkpt>
      <trkpt lat="47.65827" lon="6.15018">
        <ele>230.6</ele>
        <time>2020-12-10T11:04:34Z</time>
      </trkpt>
      <trkpt lat="47.65821" lon="6.15019">
        <ele>230.6</ele>
        <time>2020-12-10T11:04:37Z</time>
      </trkpt>
      <trkpt lat="47.65816" lon="6.15019">
        <ele>230.6</ele>
        <time>2020-12-10T11:04:39Z</time>
      </trkpt>
      <trkpt lat="47.6581" lon="6.15019">
        <ele>230.6</ele>
        <time>2020-12-10T11:04:41Z</time>
      </trkpt>
      <trkpt lat="47.65804" lon="6.1502">
        <ele>230.6</ele>
        <time>2020-12-10T11:04:42Z</time>
      </trkpt>
      <trkpt lat="47.65799" lon="6.1502">
        <ele>230.6</ele>
        <time>2020-12-10T11:04:46Z</time>
      </trkpt>
      <trkpt lat="47.65794" lon="6.1502">
        <ele>230.6</ele>
        <time>2020-12-10T11:04:48Z</time>
      </trkpt>
      <trkpt lat="47.65789" lon="6.15021">
        <ele>230.6</ele>
        <time>2020-12-10T11:04:50Z</time>
      </trkpt>
      <trkpt lat="47.65784" lon="6.15021">
        <ele>230.6</ele>
        <time>2020-12-10T11:04:50Z</time>
      </trkpt>
      <trkpt lat="47.65779" lon="6.15022">
        <ele>230.6</ele>
        <time>2020-12-10T11:04:54Z</time>
      </trkpt>
      <trkpt lat="47.65773" lon="6.15023">
        <ele>230.7</ele>
        <time>2020-12-10T11:04:56Z</time>
      </trkpt>
      <trkpt lat="47.65766" lon="6.15023">
        <ele>230.7</ele>
        <time>2020-12-10T11:04:59Z</time>
      </trkpt>
      <trkpt lat="47.65758" lon="6.15023">
        <ele>230.7</ele>
        <time>2020-12-10T11:05:01Z</time>
      </trkpt>
      <trkpt lat="47.65754" lon="6.15023">
        <ele>230.7</ele>
        <time>2020-12-10T11:05:03Z</time>
      </trkpt>
      <trkpt lat="47.65749" lon="6.15024">
        <ele>230.7</ele>
        <time>2020-12-10T11:05:03Z</time>
      </trkpt>
      <trkpt lat="47.65743" lon="6.15024">
        <ele>230.5</ele>
        <time>2020-12-10T11:05:05Z</time>
      </trkpt>
      <trkpt lat="47.65739" lon="6.15024">
        <ele>230.3</ele>
        <time>2020-12-10T11:05:09Z</time>
      </trkpt>
      <trkpt lat="47.65734" lon="6.15024">
        <ele>230.1</ele>
        <time>2020-12-10T11:05:10Z</time>
      </trkpt>
      <trkpt lat="47.65728" lon="6.15024">
        <ele>229.9</ele>
        <time>2020-12-10T11:05:12Z</time>
      </trkpt>
      <trkpt lat="47.65723" lon="6.15023">
        <ele>229.7</ele>
        <time>2020-12-10T11:05:14Z</time>
      </trkpt>
      <trkpt lat="47.65718" lon="6.15023">
        <ele>229.6</ele>
        <time>2020-12-10T11:05:16Z</time>
      </trkpt>
      <trkpt lat="47.65713" lon="6.15024">
        <ele>229.4</ele>
        <time>2020-12-10T11:05:18Z</time>
      </trkpt>
      <trkpt lat="47.65708" lon="6.15034">
        <ele>229.1</ele>
        <time>2020-12-10T11:05:19Z</time>
      </trkpt>
      <trkpt lat="47.65709" lon="6.15043">
        <ele>229</ele>
        <time>2020-12-10T11:05:23Z</time>
      </trkpt>
      <trkpt lat="47.65711" lon="6.15053">
        <ele>229</ele>
        <time>2020-12-10T11:05:25Z</time>
      </trkpt>
      <trkpt lat="47.65713" lon="6.15063">
        <ele>228.9</ele>
        <time>2020-12-10T11:05:27Z</time>
      </trkpt>
      <trkpt lat="47.65714" lon="6.15069">
        <ele>228.9</ele>
        <time>2020-12-10T11:05:28Z</time>
      </trkpt>
      <trkpt lat="47.65717" lon="6.1508">
        <ele>228.8</ele>
        <time>2020-12-10T11:05:31Z</time>
      </trkpt>
      <trkpt lat="47.65719" lon="6.1509">
        <ele>228.7</ele>
        <time>2020-12-10T11:05:32Z</time>
      </trkpt>
      <trkpt lat="47.65721" lon="6.15099">
        <ele>228.5</ele>
        <time>2020-12-10T11:05:34Z</time>
      </trkpt>
      <trkpt lat="47.65722" lon="6.1511">
        <ele>228.3</ele>
        <time>2020-12-10T11:05:36Z</time>
      </trkpt>
      <trkpt lat="47.65725" lon="6.15121">
        <ele>228</ele>
        <time>2020-12-10T11:05:39Z</time>
      </trkpt>
      <trkpt lat="47.65727" lon="6.15131">
        <ele>227.8</ele>
        <time>2020-12-10T11:05:39Z</time>
      </trkpt>
      <trkpt lat="47.65728" lon="6.15138">
        <ele>227.6</ele>
        <time>2020-12-10T11:05:42Z</time>
      </trkpt>
      <trkpt lat="47.6573" lon="6.15147">
        <ele>227.3</ele>
        <time>2020-12-10T11:05:42Z</time>
      </trkpt>
      <trkpt lat="47.65732" lon="6.15156">
        <ele>227.1</ele>
        <time>2020-12-10T11:05:45Z</time>
      </trkpt>
      <trkpt lat="47.65735" lon="6.15164">
        <ele>226.9</ele>
        <time>2020-12-10T11:05:47Z</time>
      </trkpt>
      <trkpt lat="47.65736" lon="6.15171">
        <ele>226.7</ele>
        <time>2020-12-10T11:05:47Z</time>
      </trkpt>
      <trkpt lat="47.65737" lon="6.15179">
        <ele>226.4</ele>
        <time>2020-12-10T11:05:51Z</time>
      </trkpt>
      <trkpt lat="47.65738" lon="6.15185">
        <ele>226.2</ele>
        <time>2020-12-10T11:05:52Z</time>
      </trkpt>
      <trkpt lat="47.65741" lon="6.15193">
        <ele>225.9</ele>
        <time>2020-12-10T11:05:54Z</time>
      </trkpt>
      <trkpt lat="47.65743" lon="6.15202">
        <ele>225.6</ele>
        <time>2020-12-10T11:05:56Z</time>
      </trkpt>
      <trkpt lat="47.65744" lon="6.15209">
        <ele>225.4</ele>
        <time>2020-12-10T11:05:58Z</time>
      </trkpt>
      <trkpt lat="47.65746" lon="6.15221">
        <ele>225</ele>
        <time>2020-12-10T11:05:58Z</time>
      </trkpt>
      <trkpt lat="47.65747" lon="6.15227">
        <ele>224.8</ele>
        <time>2020-12-10T11:06:01Z</time>
      </trkpt>
      <trkpt lat="47.65749" lon="6.15235">
        <ele>224.5</ele>
        <time>2020-12-10T11:06:02Z</time>
      </trkpt>
      <trkpt lat="47.6575" lon="6.15243">
        <ele>224.3</ele>
        <time>2020-12-10T11:06:03Z</time>
      </trkpt>
      <trkpt lat="47.65752" lon="6.15252">
        <ele>224</ele>
        <time>2020-12-10T11:06:05Z</time>
      </trkpt>
      <trkpt lat="47.65754" lon="6.15262">
        <ele>223.6</ele>
        <time>2020-12-10T11:06:06Z</time>
      </trkpt>
      <trkpt lat="47.65759" lon="6.15283">
        <ele>222.7</ele>
        <time>2020-12-10T11:06:06Z</time>
      </trkpt>
      <trkpt lat="47.6576" lon="6.15292">
        <ele>222.3</ele>
        <time>2020-12-10T11:06:07Z</time>
      </trkpt>
      <trkpt lat="47.65762" lon="6.15301">
        <ele>221.9</ele>
        <time>2020-12-10T11:06:08Z</time>
      </trkpt>
      <trkpt lat="47.65764" lon="6.15311">
        <ele>221.4</ele>
        <time>2020-12-10T11:06:09Z</time>
      </trkpt>
      <trkpt lat="47.65765" lon="6.1532">
        <ele>221</ele>
        <time>2020-12-10T11:06:10Z</time>
      </trkpt>
      <trkpt lat="47.65767" lon="6.15329">
        <ele>220.6</ele>
        <time>2020-12-10T11:06:11Z</time>
      </trkpt>
      <trkpt lat="47.65768" lon="6.15337">
        <ele>220.4</ele>
        <time>2020-12-10T11:06:12Z</time>
      </trkpt>
      <trkpt lat="47.65769" lon="6.15344">
        <ele>220.5</ele>
        <time>2020-12-10T11:06:13Z</time>
      </trkpt>
      <trkpt lat="47.65771" lon="6.15352">
        <ele>220.5</ele>
        <time>2020-12-10T11:06:14Z</time>
      </trkpt>
      <trkpt lat="47.65772" lon="6.15358">
        <ele>220.5</ele>
        <time>2020-12-10T11:06:15Z</time>
      </trkpt>
      <trkpt lat="47.65774" lon="6.15371">
        <ele>220.6</ele>
        <time>2020-12-10T11:06:17Z</time>
      </trkpt>
      <trkpt lat="47.65776" lon="6.15379">
        <ele>220.6</ele>
        <time>2020-12-10T11:06:19Z</time>
      </trkpt>
      <trkpt lat="47.65778" lon="6.15391">
        <ele>220.7</ele>
        <time>2020-12-10T11:06:21Z</time>
      </trkpt>
      <trkpt lat="47.65779" lon="6.15398">
        <ele>220.7</ele>
        <time>2020-12-10T11:06:23Z</time>
      </trkpt>
      <trkpt lat="47.65787" lon="6.15395">
        <ele>220.9</ele>
        <time>2020-12-10T11:06:26Z</time>
      </trkpt>
      <trkpt lat="47.65786" lon="6.15403">
        <ele>220.9</ele>
        <time>2020-12-10T11:06:27Z</time>
      </trkpt>
      <trkpt lat="47.65786" lon="6.15411">
        <ele>220.9</ele>
        <time>2020-12-10T11:06:28Z</time>
      </trkpt>
      <trkpt lat="47.65786" lon="6.15421">
        <ele>221</ele>
        <time>2020-12-10T11:06:30Z</time>
      </trkpt>
      <trkpt lat="47.65788" lon="6.15433">
        <ele>221.2</ele>
        <time>2020-12-10T11:06:31Z</time>
      </trkpt>
      <trkpt lat="47.65789" lon="6.1544">
        <ele>221.4</ele>
        <time>2020-12-10T11:06:34Z</time>
      </trkpt>
      <trkpt lat="47.6579" lon="6.15448">
        <ele>221.5</ele>
        <time>2020-12-10T11:06:36Z</time>
      </trkpt>
      <trkpt lat="47.65791" lon="6.15455">
        <ele>221.7</ele>
        <time>2020-12-10T11:06:38Z</time>
      </trkpt>
      <trkpt lat="47.65792" lon="6.15463">
        <ele>221.8</ele>
        <time>2020-12-10T11:06:39Z</time>
      </trkpt>
      <trkpt lat="47.65794" lon="6.1547">
        <ele>222</ele>
        <time>2020-12-10T11:06:43Z</time>
      </trkpt>
      <trkpt lat="47.65796" lon="6.15476">
        <ele>222.1</ele>
        <time>2020-12-10T11:06:46Z</time>
      </trkpt>
      <trkpt lat="47.65798" lon="6.15484">
        <ele>222.3</ele>
        <time>2020-12-10T11:06:49Z</time>
      </trkpt>
      <trkpt lat="47.65799" lon="6.15493">
        <ele>222.5</ele>
        <time>2020-12-10T11:06:52Z</time>
      </trkpt>
      <trkpt lat="47.65801" lon="6.15499">
        <ele>222.6</ele>
        <time>2020-12-10T11:06:54Z</time>
      </trkpt>
      <trkpt lat="47.65803" lon="6.15508">
        <ele>222.9</ele>
        <time>2020-12-10T11:06:56Z</time>
      </trkpt>
      <trkpt lat="47.65805" lon="6.15518">
        <ele>223.3</ele>
        <time>2020-12-10T11:06:59Z</time>
      </trkpt>
      <trkpt lat="47.65807" lon="6.15526">
        <ele>223.6</ele>
        <time>2020-12-10T11:07:01Z</time>
      </trkpt>
      <trkpt lat="47.65808" lon="6.15533">
        <ele>223.9</ele>
        <time>2020-12-10T11:07:03Z</time>
      </trkpt>
      <trkpt lat="47.65809" lon="6.1554">
        <ele>224.1</ele>
        <time>2020-12-10T11:07:04Z</time>
      </trkpt>
      <trkpt lat="47.65811" lon="6.15547">
        <ele>224.4</ele>
        <time>2020-12-10T11:07:05Z</time>
      </trkpt>
      <trkpt lat="47.65813" lon="6.15556">
        <ele>224.8</ele>
        <time>2020-12-10T11:07:09Z</time>
      </trkpt>
      <trkpt lat="47.65815" lon="6.15564">
        <ele>225.1</ele>
        <time>2020-12-10T11:07:12Z</time>
      </trkpt>
      <trkpt lat="47.65816" lon="6.15572">
        <ele>225.4</ele>
        <time>2020-12-10T11:07:12Z</time>
      </trkpt>
      <trkpt lat="47.65817" lon="6.15578">
        <ele>225.6</ele>
        <time>2020-12-10T11:07:15Z</time>
      </trkpt>
      <trkpt lat="47.65819" lon="6.15587">
        <ele>225.9</ele>
        <time>2020-12-10T11:07:16Z</time>
      </trkpt>
      <trkpt lat="47.6582" lon="6.15594">
        <ele>226.1</ele>
        <time>2020-12-10T11:07:20Z</time>
      </trkpt>
      <trkpt lat="47.65822" lon="6.15602">
        <ele>226.3</ele>
        <time>2020-12-10T11:07:22Z</time>
      </trkpt>
      <trkpt lat="47.65823" lon="6.15611">
        <ele>226.5</ele>
        <time>2020-12-10T11:07:23Z</time>
      </trkpt>
      <trkpt lat="47.65825" lon="6.15619">
        <ele>226.7</ele>
        <time>2020-12-10T11:07:27Z</time>
      </trkpt>
      <trkpt lat="47.65827" lon="6.15627">
        <ele>226.9</ele>
        <time>2020-12-10T11:07:30Z</time>
      </trkpt>
      <trkpt lat="47.65829" lon="6.15637">
        <ele>227.2</ele>
        <time>2020-12-10T11:07:33Z</time>
      </trkpt>
      <trkpt lat="47.6583" lon="6.15647">
        <ele>227.5</ele>
        <time>2020-12-10T11:07:36Z</time>
      </trkpt>
      <trkpt lat="47.65831" lon="6.15654">
        <ele>227.6</ele>
        <time>2020-12-10T11:07:38Z</time>
      </trkpt>
      <trkpt lat="47.65833" lon="6.15662">
        <ele>227.9</ele>
        <time>2020-12-10T11:07:40Z</time>
      </trkpt>
      <trkpt lat="47.65833" lon="6.15669">
        <ele>228</ele>
        <time>2020-12-10T11:07:43Z</time>
      </trkpt>
      <trkpt lat="47.65835" lon="6.15677">
        <ele>228.1</ele>
        <time>2020-12-10T11:07:47Z</time>
      </trkpt>
      <trkpt lat="47.65836" lon="6.15684">
        <ele>228.1</ele>
        <time>2020-12-10T11:07:50Z</time>
      </trkpt>
      <trkpt lat="47.65838" lon="6.15691">
        <ele>228.2</ele>
        <time>2020-12-10T11:07:52Z</time>
      </trkpt>
      <trkpt lat="47.65839" lon="6.15699">
        <ele>228.3</ele>
        <time>2020-12-10T11:07:56Z</time>
      </trkpt>
      <trkpt lat="47.65841" lon="6.15707">
        <ele>228.3</ele>
        <time>2020-12-10T11:07:57Z</time>
      </trkpt>
      <trkpt lat="47.65842" lon="6.15714">
        <ele>228.4</ele>
        <time>2020-12-10T11:08:00Z</time>
      </trkpt>
      <trkpt lat="47.65843" lon="6.15723">
        <ele>228.5</ele>
        <time>2020-12-10T11:08:05Z</time>
      </trkpt>
      <trkpt lat="47.65845" lon="6.15731">
        <ele>228.6</ele>
        <time>2020-12-10T11:08:09Z</time>
      </trkpt>
      <trkpt lat="47.65846" lon="6.15739">
        <ele>228.7</ele>
        <time>2020-12-10T11:08:12Z</time>
      </trkpt>
      <trkpt lat="47.65847" lon="6.15746">
        <ele>228.8</ele>
        <time>2020-12-10T11:08:14Z</time>
      </trkpt>
      <trkpt lat="47.65849" lon="6.15755">
        <ele>229.1</ele>
        <time>2020-12-10T11:08:18Z</time>
      </trkpt>
      <trkpt lat="47.6585" lon="6.15761">
        <ele>229.4</ele>
        <time>2020-12-10T11:08:20Z</time>
      </trkpt>
      <trkpt lat="47.65851" lon="6.15769">
        <ele>229.8</ele>
        <time>2020-12-10T11:08:23Z</time>
      </trkpt>
      <trkpt lat="47.65852" lon="6.15776">
        <ele>230.2</ele>
        <time>2020-12-10T11:08:26Z</time>
      </trkpt>
      <trkpt lat="47.65854" lon="6.15784">
        <ele>230.6</ele>
        <time>2020-12-10T11:08:29Z</time>
      </trkpt>
      <trkpt lat="47.65856" lon="6.15794">
        <ele>231.1</ele>
        <time>2020-12-10T11:08:30Z</time>
      </trkpt>
      <trkpt lat="47.65857" lon="6.15802">
        <ele>231.5</ele>
        <time>2020-12-10T11:08:34Z</time>
      </trkpt>
      <trkpt lat="47.65858" lon="6.1581">
        <ele>231.9</ele>
        <time>2020-12-10T11:08:37Z</time>
      </trkpt>
      <trkpt lat="47.6586" lon="6.15818">
        <ele>232.2</ele>
        <time>2020-12-10T11:08:39Z</time>
      </trkpt>
      <trkpt lat="47.65861" lon="6.15826">
        <ele>232.6</ele>
        <time>2020-12-10T11:08:41Z</time>
      </trkpt>
      <trkpt lat="47.65862" lon="6.15832">
        <ele>232.9</ele>
        <time>2020-12-10T11:08:43Z</time>
      </trkpt>
      <trkpt lat="47.65863" lon="6.15839">
        <ele>233.4</ele>
        <time>2020-12-10T11:08:46Z</time>
      </trkpt>
      <trkpt lat="47.65866" lon="6.15846">
        <ele>233.8</ele>
        <time>2020-12-10T11:08:48Z</time>
      </trkpt>
      <trkpt lat="47.65869" lon="6.15855">
        <ele>234.3</ele>
        <time>2020-12-10T11:08:51Z</time>
      </trkpt>
      <trkpt lat="47.65873" lon="6.15863">
        <ele>234.7</ele>
        <time>2020-12-10T11:08:54Z</time>
      </trkpt>
      <trkpt lat="47.65876" lon="6.15869">
        <ele>235</ele>
        <time>2020-12-10T11:08:55Z</time>
      </trkpt>
      <trkpt lat="47.65881" lon="6.15877">
        <ele>235.4</ele>
        <time>2020-12-10T11:08:58Z</time>
      </trkpt>
      <trkpt lat="47.65886" lon="6.15884">
        <ele>235.6</ele>
        <time>2020-12-10T11:09:02Z</time>
      </trkpt>
      <trkpt lat="47.6589" lon="6.1589">
        <ele>235.8</ele>
        <time>2020-12-10T11:09:04Z</time>
      </trkpt>
      <trkpt lat="47.65894" lon="6.15896">
        <ele>236</ele>
        <time>2020-12-10T11:09:06Z</time>
      </trkpt>
      <trkpt lat="47.65898" lon="6.15903">
        <ele>236.3</ele>
        <time>2020-12-10T11:09:09Z</time>
      </trkpt>
      <trkpt lat="47.659" lon="6.15909">
        <ele>236.5</ele>
        <time>2020-12-10T11:09:10Z</time>
      </trkpt>
      <trkpt lat="47.65904" lon="6.15916">
        <ele>236.7</ele>
        <time>2020-12-10T11:09:13Z</time>
      </trkpt>
      <trkpt lat="47.65908" lon="6.15922">
        <ele>236.7</ele>
        <time>2020-12-10T11:09:15Z</time>
      </trkpt>
      <trkpt lat="47.65911" lon="6.15927">
        <ele>236.7</ele>
        <time>2020-12-10T11:09:18Z</time>
      </trkpt>
      <trkpt lat="47.65914" lon="6.15933">
        <ele>236.7</ele>
        <time>2020-12-10T11:09:18Z</time>
      </trkpt>
      <trkpt lat="47.65917" lon="6.15938">
        <ele>236.8</ele>
        <time>2020-12-10T11:09:20Z</time>
      </trkpt>
      <trkpt lat="47.65919" lon="6.15944">
        <ele>236.8</ele>
        <time>2020-12-10T11:09:22Z</time>
      </trkpt>
      <trkpt lat="47.65921" lon="6.15952">
        <ele>236.9</ele>
        <time>2020-12-10T11:09:26Z</time>
      </trkpt>
      <trkpt lat="47.65922" lon="6.15961">
        <ele>237.1</ele>
        <time>2020-12-10T11:09:28Z</time>
      </trkpt>
      <trkpt lat="47.65918" lon="6.15964">
        <ele>237.6</ele>
        <time>2020-12-10T11:10:08Z</time>
      </trkpt>
      <trkpt lat="47.65913" lon="6.15969">
        <ele>238.1</ele>
        <time>2020-12-10T11:10:10Z</time>
      </trkpt>
      <trkpt lat="47.6591" lon="6.15975">
        <ele>238.5</ele>
        <time>2020-12-10T11:10:15Z</time>
      </trkpt>
      <trkpt lat="47.65906" lon="6.1598">
        <ele>238.9</ele>
        <time>2020-12-10T11:10:16Z</time>
      </trkpt>
      <trkpt lat="47.65902" lon="6.15985">
        <ele>239.3</ele>
        <time>2020-12-10T11:10:19Z</time>
      </trkpt>
      <trkpt lat="47.65898" lon="6.15992">
        <ele>239.8</ele>
        <time>2020-12-10T11:10:20Z</time>
      </trkpt>
      <trkpt lat="47.65895" lon="6.15997">
        <ele>240.2</ele>
        <time>2020-12-10T11:10:22Z</time>
      </trkpt>
      <trkpt lat="47.6589" lon="6.16005">
        <ele>240.7</ele>
        <time>2020-12-10T11:10:25Z</time>
      </trkpt>
      <trkpt lat="47.65886" lon="6.16013">
        <ele>241</ele>
        <time>2020-12-10T11:10:28Z</time>
      </trkpt>
      <trkpt lat="47.65881" lon="6.16021">
        <ele>241.3</ele>
        <time>2020-12-10T11:10:32Z</time>
      </trkpt>
      <trkpt lat="47.65877" lon="6.16027">
        <ele>241.6</ele>
        <time>2020-12-10T11:10:35Z</time>
      </trkpt>
      <trkpt lat="47.65873" lon="6.16032">
        <ele>241.8</ele>
        <time>2020-12-10T11:10:35Z</time>
      </trkpt>
      <trkpt lat="47.6587" lon="6.16037">
        <ele>242</ele>
        <time>2020-12-10T11:10:37Z</time>
      </trkpt>
      <trkpt lat="47.65864" lon="6.16046">
        <ele>242.2</ele>
        <time>2020-12-10T11:10:41Z</time>
      </trkpt>
      <trkpt lat="47.6586" lon="6.16052">
        <ele>242.4</ele>
        <time>2020-12-10T11:10:43Z</time>
      </trkpt>
      <trkpt lat="47.65855" lon="6.16058">
        <ele>242.5</ele>
        <time>2020-12-10T11:10:45Z</time>
      </trkpt>
      <trkpt lat="47.6585" lon="6.16066">
        <ele>242.7</ele>
        <time>2020-12-10T11:10:45Z</time>
      </trkpt>
      <trkpt lat="47.65846" lon="6.16071">
        <ele>242.8</ele>
        <time>2020-12-10T11:10:46Z</time>
      </trkpt>
      <trkpt lat="47.65843" lon="6.16076">
        <ele>242.8</ele>
        <time>2020-12-10T11:10:49Z</time>
      </trkpt>
      <trkpt lat="47.65831" lon="6.16092">
        <ele>242.9</ele>
        <time>2020-12-10T11:10:51Z</time>
      </trkpt>
      <trkpt lat="47.65826" lon="6.161">
        <ele>242.6</ele>
        <time>2020-12-10T11:10:52Z</time>
      </trkpt>
      <trkpt lat="47.65821" lon="6.16107">
        <ele>242.3</ele>
        <time>2020-12-10T11:10:54Z</time>
      </trkpt>
      <trkpt lat="47.65816" lon="6.16115">
        <ele>241.9</ele>
        <time>2020-12-10T11:10:55Z</time>
      </trkpt>
      <trkpt lat="47.65807" lon="6.16128">
        <ele>241.3</ele>
        <time>2020-12-10T11:10:56Z</time>
      </trkpt>
      <trkpt lat="47.65796" lon="6.16147">
        <ele>240.2</ele>
        <time>2020-12-10T11:10:56Z</time>
      </trkpt>
      <trkpt lat="47.65792" lon="6.16153">
        <ele>239.8</ele>
        <time>2020-12-10T11:10:57Z</time>
      </trkpt>
      <trkpt lat="47.65789" lon="6.16159">
        <ele>239.4</ele>
        <time>2020-12-10T11:10:58Z</time>
      </trkpt>
      <trkpt lat="47.65784" lon="6.16165">
        <ele>238.9</ele>
        <time>2020-12-10T11:10:59Z</time>
      </trkpt>
      <trkpt lat="47.6578" lon="6.16171">
        <ele>238.5</ele>
        <time>2020-12-10T11:11:00Z</time>
      </trkpt>
      <trkpt lat="47.65776" lon="6.16178">
        <ele>238.1</ele>
        <time>2020-12-10T11:11:01Z</time>
      </trkpt>
      <trkpt lat="47.65771" lon="6.16186">
        <ele>237.7</ele>
        <time>2020-12-10T11:11:02Z</time>
      </trkpt>
      <trkpt lat="47.65766" lon="6.16193">
        <ele>237.3</ele>
        <time>2020-12-10T11:11:03Z</time>
      </trkpt>
      <trkpt lat="47.65761" lon="6.16201">
        <ele>236.9</ele>
        <time>2020-12-10T11:11:04Z</time>
      </trkpt>
      <trkpt lat="47.65756" lon="6.16209">
        <ele>236.4</ele>
        <time>2020-12-10T11:11:05Z</time>
      </trkpt>
      <trkpt lat="47.65751" lon="6.16216">
        <ele>236.1</ele>
        <time>2020-12-10T11:11:06Z</time>
      </trkpt>
      <trkpt lat="47.65746" lon="6.16224">
        <ele>235.5</ele>
        <time>2020-12-10T11:11:07Z</time>
      </trkpt>
      <trkpt lat="47.65741" lon="6.16231">
        <ele>234.9</ele>
        <time>2020-12-10T11:11:08Z</time>
      </trkpt>
      <trkpt lat="47.65736" lon="6.16239">
        <ele>234.3</ele>
        <time>2020-12-10T11:11:09Z</time>
      </trkpt>
      <trkpt lat="47.65732" lon="6.16245">
        <ele>233.6</ele>
        <time>2020-12-10T11:11:10Z</time>
      </trkpt>
      <trkpt lat="47.65727" lon="6.16252">
        <ele>233</ele>
        <time>2020-12-10T11:11:11Z</time>
      </trkpt>
      <trkpt lat="47.65723" lon="6.16257">
        <ele>232.7</ele>
        <time>2020-12-10T11:11:12Z</time>
      </trkpt>
      <trkpt lat="47.65719" lon="6.16262">
        <ele>232.5</ele>
        <time>2020-12-10T11:11:13Z</time>
      </trkpt>
      <trkpt lat="47.65715" lon="6.16268">
        <ele>232.4</ele>
        <time>2020-12-10T11:11:14Z</time>
      </trkpt>
      <trkpt lat="47.6571" lon="6.16274">
        <ele>232.1</ele>
        <time>2020-12-10T11:11:16Z</time>
      </trkpt>
      <trkpt lat="47.65705" lon="6.1628">
        <ele>231.9</ele>
        <time>2020-12-10T11:11:18Z</time>
      </trkpt>
      <trkpt lat="47.65702" lon="6.16284">
        <ele>231.8</ele>
        <time>2020-12-10T11:11:20Z</time>
      </trkpt>
      <trkpt lat="47.657" lon="6.16293">
        <ele>232.2</ele>
        <time>2020-12-10T11:11:25Z</time>
      </trkpt>
      <trkpt lat="47.65693" lon="6.16301">
        <ele>232</ele>
        <time>2020-12-10T11:11:27Z</time>
      </trkpt>
      <trkpt lat="47.65689" lon="6.16306">
        <ele>231.9</ele>
        <time>2020-12-10T11:11:27Z</time>
      </trkpt>
      <trkpt lat="47.65685" lon="6.16311">
        <ele>231.9</ele>
        <time>2020-12-10T11:11:30Z</time>
      </trkpt>
      <trkpt lat="47.65678" lon="6.16319">
        <ele>231.9</ele>
        <time>2020-12-10T11:11:32Z</time>
      </trkpt>
      <trkpt lat="47.65675" lon="6.16324">
        <ele>231.9</ele>
        <time>2020-12-10T11:11:33Z</time>
      </trkpt>
      <trkpt lat="47.65671" lon="6.16329">
        <ele>232</ele>
        <time>2020-12-10T11:11:35Z</time>
      </trkpt>
      <trkpt lat="47.65666" lon="6.16336">
        <ele>232.1</ele>
        <time>2020-12-10T11:11:36Z</time>
      </trkpt>
      <trkpt lat="47.65662" lon="6.1634">
        <ele>232.3</ele>
        <time>2020-12-10T11:11:38Z</time>
      </trkpt>
      <trkpt lat="47.65656" lon="6.16347">
        <ele>232.5</ele>
        <time>2020-12-10T11:11:39Z</time>
      </trkpt>
      <trkpt lat="47.65649" lon="6.16357">
        <ele>232.7</ele>
        <time>2020-12-10T11:11:42Z</time>
      </trkpt>
      <trkpt lat="47.65643" lon="6.16366">
        <ele>233</ele>
        <time>2020-12-10T11:11:43Z</time>
      </trkpt>
      <trkpt lat="47.65636" lon="6.16377">
        <ele>233.3</ele>
        <time>2020-12-10T11:11:46Z</time>
      </trkpt>
      <trkpt lat="47.65628" lon="6.16387">
        <ele>233.5</ele>
        <time>2020-12-10T11:11:48Z</time>
      </trkpt>
      <trkpt lat="47.65624" lon="6.16393">
        <ele>233.5</ele>
        <time>2020-12-10T11:11:48Z</time>
      </trkpt>
      <trkpt lat="47.6562" lon="6.16399">
        <ele>233.6</ele>
        <time>2020-12-10T11:11:51Z</time>
      </trkpt>
      <trkpt lat="47.65616" lon="6.16406">
        <ele>233.8</ele>
        <time>2020-12-10T11:11:53Z</time>
      </trkpt>
      <trkpt lat="47.65612" lon="6.16413">
        <ele>233.9</ele>
        <time>2020-12-10T11:11:55Z</time>
      </trkpt>
      <trkpt lat="47.65609" lon="6.16418">
        <ele>234</ele>
        <time>2020-12-10T11:11:57Z</time>
      </trkpt>
      <trkpt lat="47.65605" lon="6.16427">
        <ele>234.2</ele>
        <time>2020-12-10T11:11:58Z</time>
      </trkpt>
      <trkpt lat="47.65601" lon="6.16433">
        <ele>234.3</ele>
        <time>2020-12-10T11:12:00Z</time>
      </trkpt>
      <trkpt lat="47.65597" lon="6.1644">
        <ele>234.5</ele>
        <time>2020-12-10T11:12:02Z</time>
      </trkpt>
      <trkpt lat="47.65594" lon="6.16444">
        <ele>234.5</ele>
        <time>2020-12-10T11:12:03Z</time>
      </trkpt>
      <trkpt lat="47.6559" lon="6.16449">
        <ele>234.7</ele>
        <time>2020-12-10T11:12:05Z</time>
      </trkpt>
      <trkpt lat="47.65585" lon="6.16457">
        <ele>235</ele>
        <time>2020-12-10T11:12:07Z</time>
      </trkpt>
      <trkpt lat="47.65578" lon="6.16468">
        <ele>235.4</ele>
        <time>2020-12-10T11:12:09Z</time>
      </trkpt>
      <trkpt lat="47.65574" lon="6.16474">
        <ele>235.6</ele>
        <time>2020-12-10T11:12:10Z</time>
      </trkpt>
      <trkpt lat="47.65568" lon="6.16484">
        <ele>235.8</ele>
        <time>2020-12-10T11:12:13Z</time>
      </trkpt>
      <trkpt lat="47.65564" lon="6.16492">
        <ele>235.9</ele>
        <time>2020-12-10T11:12:14Z</time>
      </trkpt>
      <trkpt lat="47.65559" lon="6.16497">
        <ele>235.8</ele>
        <time>2020-12-10T11:12:15Z</time>
      </trkpt>
      <trkpt lat="47.65555" lon="6.16504">
        <ele>235.6</ele>
        <time>2020-12-10T11:12:16Z</time>
      </trkpt>
      <trkpt lat="47.65551" lon="6.1651">
        <ele>235.3</ele>
        <time>2020-12-10T11:12:17Z</time>
      </trkpt>
      <trkpt lat="47.65546" lon="6.16518">
        <ele>235</ele>
        <time>2020-12-10T11:12:20Z</time>
      </trkpt>
      <trkpt lat="47.65542" lon="6.16525">
        <ele>234.8</ele>
        <time>2020-12-10T11:12:21Z</time>
      </trkpt>
      <trkpt lat="47.65538" lon="6.16531">
        <ele>234.7</ele>
        <time>2020-12-10T11:12:22Z</time>
      </trkpt>
      <trkpt lat="47.65534" lon="6.16535">
        <ele>234.5</ele>
        <time>2020-12-10T11:12:24Z</time>
      </trkpt>
      <trkpt lat="47.65528" lon="6.16537">
        <ele>234.2</ele>
        <time>2020-12-10T11:12:26Z</time>
      </trkpt>
      <trkpt lat="47.65524" lon="6.16538">
        <ele>234</ele>
        <time>2020-12-10T11:12:28Z</time>
      </trkpt>
      <trkpt lat="47.65518" lon="6.16538">
        <ele>233.7</ele>
        <time>2020-12-10T11:12:29Z</time>
      </trkpt>
      <trkpt lat="47.65511" lon="6.16538">
        <ele>233.4</ele>
        <time>2020-12-10T11:12:31Z</time>
      </trkpt>
      <trkpt lat="47.65505" lon="6.16538">
        <ele>233.1</ele>
        <time>2020-12-10T11:12:34Z</time>
      </trkpt>
      <trkpt lat="47.655" lon="6.16537">
        <ele>232.8</ele>
        <time>2020-12-10T11:12:35Z</time>
      </trkpt>
      <trkpt lat="47.65495" lon="6.16536">
        <ele>232.6</ele>
        <time>2020-12-10T11:12:37Z</time>
      </trkpt>
      <trkpt lat="47.65489" lon="6.16535">
        <ele>232.5</ele>
        <time>2020-12-10T11:12:38Z</time>
      </trkpt>
      <trkpt lat="47.65482" lon="6.16534">
        <ele>232.3</ele>
        <time>2020-12-10T11:12:41Z</time>
      </trkpt>
      <trkpt lat="47.65476" lon="6.16534">
        <ele>232.1</ele>
        <time>2020-12-10T11:12:42Z</time>
      </trkpt>
      <trkpt lat="47.65471" lon="6.16533">
        <ele>231.9</ele>
        <time>2020-12-10T11:12:44Z</time>
      </trkpt>
      <trkpt lat="47.65459" lon="6.16531">
        <ele>231.6</ele>
        <time>2020-12-10T11:12:46Z</time>
      </trkpt>
      <trkpt lat="47.65452" lon="6.16531">
        <ele>231.4</ele>
        <time>2020-12-10T11:12:48Z</time>
      </trkpt>
      <trkpt lat="47.65444" lon="6.1653">
        <ele>231.1</ele>
        <time>2020-12-10T11:12:50Z</time>
      </trkpt>
      <trkpt lat="47.65437" lon="6.16528">
        <ele>230.9</ele>
        <time>2020-12-10T11:12:52Z</time>
      </trkpt>
      <trkpt lat="47.65432" lon="6.16527">
        <ele>230.7</ele>
        <time>2020-12-10T11:12:54Z</time>
      </trkpt>
      <trkpt lat="47.65426" lon="6.16525">
        <ele>230.4</ele>
        <time>2020-12-10T11:12:55Z</time>
      </trkpt>
      <trkpt lat="47.65419" lon="6.16524">
        <ele>230.1</ele>
        <time>2020-12-10T11:12:56Z</time>
      </trkpt>
      <trkpt lat="47.65411" lon="6.16523">
        <ele>229.9</ele>
        <time>2020-12-10T11:12:58Z</time>
      </trkpt>
      <trkpt lat="47.65402" lon="6.16521">
        <ele>229.8</ele>
        <time>2020-12-10T11:13:00Z</time>
      </trkpt>
      <trkpt lat="47.65398" lon="6.1652">
        <ele>229.7</ele>
        <time>2020-12-10T11:13:01Z</time>
      </trkpt>
      <trkpt lat="47.65391" lon="6.16518">
        <ele>229.6</ele>
        <time>2020-12-10T11:13:03Z</time>
      </trkpt>
      <trkpt lat="47.65381" lon="6.16516">
        <ele>229.5</ele>
        <time>2020-12-10T11:13:05Z</time>
      </trkpt>
      <trkpt lat="47.65372" lon="6.16515">
        <ele>229.5</ele>
        <time>2020-12-10T11:13:07Z</time>
      </trkpt>
      <trkpt lat="47.65365" lon="6.16513">
        <ele>229.5</ele>
        <time>2020-12-10T11:13:09Z</time>
      </trkpt>
      <trkpt lat="47.6536" lon="6.16512">
        <ele>229.4</ele>
        <time>2020-12-10T11:13:10Z</time>
      </trkpt>
      <trkpt lat="47.65351" lon="6.16511">
        <ele>229.4</ele>
        <time>2020-12-10T11:13:12Z</time>
      </trkpt>
      <trkpt lat="47.65343" lon="6.1651">
        <ele>229.4</ele>
        <time>2020-12-10T11:13:15Z</time>
      </trkpt>
      <trkpt lat="47.65332" lon="6.16507">
        <ele>229.4</ele>
        <time>2020-12-10T11:13:17Z</time>
      </trkpt>
      <trkpt lat="47.65326" lon="6.16506">
        <ele>229.5</ele>
        <time>2020-12-10T11:13:18Z</time>
      </trkpt>
      <trkpt lat="47.65318" lon="6.16504">
        <ele>229.6</ele>
        <time>2020-12-10T11:13:20Z</time>
      </trkpt>
      <trkpt lat="47.6531" lon="6.16503">
        <ele>229.7</ele>
        <time>2020-12-10T11:13:22Z</time>
      </trkpt>
      <trkpt lat="47.65302" lon="6.16501">
        <ele>229.8</ele>
        <time>2020-12-10T11:13:24Z</time>
      </trkpt>
      <trkpt lat="47.65297" lon="6.165">
        <ele>229.9</ele>
        <time>2020-12-10T11:13:26Z</time>
      </trkpt>
      <trkpt lat="47.65291" lon="6.165">
        <ele>230</ele>
        <time>2020-12-10T11:13:27Z</time>
      </trkpt>
      <trkpt lat="47.65284" lon="6.16499">
        <ele>230.1</ele>
        <time>2020-12-10T11:13:29Z</time>
      </trkpt>
      <trkpt lat="47.65277" lon="6.16497">
        <ele>230.3</ele>
        <time>2020-12-10T11:13:31Z</time>
      </trkpt>
      <trkpt lat="47.6527" lon="6.16496">
        <ele>230.4</ele>
        <time>2020-12-10T11:13:33Z</time>
      </trkpt>
      <trkpt lat="47.65263" lon="6.16495">
        <ele>230.5</ele>
        <time>2020-12-10T11:13:36Z</time>
      </trkpt>
      <trkpt lat="47.65258" lon="6.16494">
        <ele>230.6</ele>
        <time>2020-12-10T11:13:37Z</time>
      </trkpt>
      <trkpt lat="47.65251" lon="6.16493">
        <ele>230.7</ele>
        <time>2020-12-10T11:13:39Z</time>
      </trkpt>
      <trkpt lat="47.65246" lon="6.16492">
        <ele>230.8</ele>
        <time>2020-12-10T11:13:40Z</time>
      </trkpt>
      <trkpt lat="47.65239" lon="6.16491">
        <ele>231</ele>
        <time>2020-12-10T11:13:42Z</time>
      </trkpt>
      <trkpt lat="47.65233" lon="6.1649">
        <ele>231.2</ele>
        <time>2020-12-10T11:13:45Z</time>
      </trkpt>
      <trkpt lat="47.65227" lon="6.16488">
        <ele>231.3</ele>
        <time>2020-12-10T11:13:46Z</time>
      </trkpt>
      <trkpt lat="47.6522" lon="6.16489">
        <ele>231.6</ele>
        <time>2020-12-10T11:13:49Z</time>
      </trkpt>
      <trkpt lat="47.65215" lon="6.16487">
        <ele>231.7</ele>
        <time>2020-12-10T11:13:50Z</time>
      </trkpt>
      <trkpt lat="47.65209" lon="6.16486">
        <ele>231.8</ele>
        <time>2020-12-10T11:13:52Z</time>
      </trkpt>
      <trkpt lat="47.65201" lon="6.16484">
        <ele>232</ele>
        <time>2020-12-10T11:13:54Z</time>
      </trkpt>
      <trkpt lat="47.65196" lon="6.16483">
        <ele>232.1</ele>
        <time>2020-12-10T11:13:56Z</time>
      </trkpt>
      <trkpt lat="47.65189" lon="6.16482">
        <ele>232.2</ele>
        <time>2020-12-10T11:13:58Z</time>
      </trkpt>
      <trkpt lat="47.65184" lon="6.16481">
        <ele>232.3</ele>
        <time>2020-12-10T11:14:00Z</time>
      </trkpt>
      <trkpt lat="47.65179" lon="6.1648">
        <ele>232.4</ele>
        <time>2020-12-10T11:14:02Z</time>
      </trkpt>
      <trkpt lat="47.65171" lon="6.16478">
        <ele>232.6</ele>
        <time>2020-12-10T11:14:05Z</time>
      </trkpt>
      <trkpt lat="47.65167" lon="6.16477">
        <ele>232.6</ele>
        <time>2020-12-10T11:14:07Z</time>
      </trkpt>
      <trkpt lat="47.65162" lon="6.16476">
        <ele>232.7</ele>
        <time>2020-12-10T11:14:09Z</time>
      </trkpt>
      <trkpt lat="47.65157" lon="6.16475">
        <ele>232.7</ele>
        <time>2020-12-10T11:14:12Z</time>
      </trkpt>
      <trkpt lat="47.65152" lon="6.16473">
        <ele>232.7</ele>
        <time>2020-12-10T11:14:13Z</time>
      </trkpt>
      <trkpt lat="47.65145" lon="6.16472">
        <ele>232.7</ele>
        <time>2020-12-10T11:14:15Z</time>
      </trkpt>
      <trkpt lat="47.6514" lon="6.16471">
        <ele>232.8</ele>
        <time>2020-12-10T11:14:17Z</time>
      </trkpt>
      <trkpt lat="47.65133" lon="6.1647">
        <ele>232.9</ele>
        <time>2020-12-10T11:14:19Z</time>
      </trkpt>
      <trkpt lat="47.65127" lon="6.16469">
        <ele>233</ele>
        <time>2020-12-10T11:14:21Z</time>
      </trkpt>
      <trkpt lat="47.6512" lon="6.16468">
        <ele>233.1</ele>
        <time>2020-12-10T11:14:23Z</time>
      </trkpt>
      <trkpt lat="47.65113" lon="6.16467">
        <ele>233.2</ele>
        <time>2020-12-10T11:14:25Z</time>
      </trkpt>
      <trkpt lat="47.65108" lon="6.16466">
        <ele>233.2</ele>
        <time>2020-12-10T11:14:28Z</time>
      </trkpt>
      <trkpt lat="47.65101" lon="6.16465">
        <ele>233.3</ele>
        <time>2020-12-10T11:14:29Z</time>
      </trkpt>
      <trkpt lat="47.65094" lon="6.16464">
        <ele>233.4</ele>
        <time>2020-12-10T11:14:31Z</time>
      </trkpt>
      <trkpt lat="47.65089" lon="6.16463">
        <ele>233.5</ele>
        <time>2020-12-10T11:14:33Z</time>
      </trkpt>
      <trkpt lat="47.65083" lon="6.16462">
        <ele>233.6</ele>
        <time>2020-12-10T11:14:35Z</time>
      </trkpt>
      <trkpt lat="47.65075" lon="6.1646">
        <ele>233.8</ele>
        <time>2020-12-10T11:14:38Z</time>
      </trkpt>
      <trkpt lat="47.6507" lon="6.16459">
        <ele>233.9</ele>
        <time>2020-12-10T11:14:40Z</time>
      </trkpt>
      <trkpt lat="47.65065" lon="6.16458">
        <ele>234</ele>
        <time>2020-12-10T11:14:42Z</time>
      </trkpt>
      <trkpt lat="47.6506" lon="6.16457">
        <ele>234.2</ele>
        <time>2020-12-10T11:14:44Z</time>
      </trkpt>
      <trkpt lat="47.65055" lon="6.16457">
        <ele>234.3</ele>
        <time>2020-12-10T11:14:46Z</time>
      </trkpt>
      <trkpt lat="47.65051" lon="6.16456">
        <ele>234.4</ele>
        <time>2020-12-10T11:14:48Z</time>
      </trkpt>
      <trkpt lat="47.65046" lon="6.16455">
        <ele>234.6</ele>
        <time>2020-12-10T11:14:51Z</time>
      </trkpt>
      <trkpt lat="47.65041" lon="6.16454">
        <ele>234.8</ele>
        <time>2020-12-10T11:14:52Z</time>
      </trkpt>
      <trkpt lat="47.65036" lon="6.16452">
        <ele>234.9</ele>
        <time>2020-12-10T11:14:54Z</time>
      </trkpt>
      <trkpt lat="47.65031" lon="6.16452">
        <ele>235.1</ele>
        <time>2020-12-10T11:14:56Z</time>
      </trkpt>
      <trkpt lat="47.65026" lon="6.16451">
        <ele>235.3</ele>
        <time>2020-12-10T11:14:59Z</time>
      </trkpt>
      <trkpt lat="47.6502" lon="6.1645">
        <ele>235.5</ele>
        <time>2020-12-10T11:15:00Z</time>
      </trkpt>
      <trkpt lat="47.65015" lon="6.16449">
        <ele>235.7</ele>
        <time>2020-12-10T11:15:02Z</time>
      </trkpt>
      <trkpt lat="47.65008" lon="6.16448">
        <ele>235.9</ele>
        <time>2020-12-10T11:15:04Z</time>
      </trkpt>
      <trkpt lat="47.65003" lon="6.16447">
        <ele>236.1</ele>
        <time>2020-12-10T11:15:06Z</time>
      </trkpt>
      <trkpt lat="47.64999" lon="6.16447">
        <ele>236.3</ele>
        <time>2020-12-10T11:15:07Z</time>
      </trkpt>
      <trkpt lat="47.64991" lon="6.16445">
        <ele>236.4</ele>
        <time>2020-12-10T11:15:09Z</time>
      </trkpt>
      <trkpt lat="47.64984" lon="6.16444">
        <ele>236.5</ele>
        <time>2020-12-10T11:15:12Z</time>
      </trkpt>
      <trkpt lat="47.64975" lon="6.16443">
        <ele>236.7</ele>
        <time>2020-12-10T11:15:13Z</time>
      </trkpt>
      <trkpt lat="47.6497" lon="6.16442">
        <ele>236.8</ele>
        <time>2020-12-10T11:15:14Z</time>
      </trkpt>
      <trkpt lat="47.64962" lon="6.1644">
        <ele>237</ele>
        <time>2020-12-10T11:15:16Z</time>
      </trkpt>
      <trkpt lat="47.64952" lon="6.16439">
        <ele>237.1</ele>
        <time>2020-12-10T11:15:18Z</time>
      </trkpt>
      <trkpt lat="47.64948" lon="6.16439">
        <ele>237.2</ele>
        <time>2020-12-10T11:15:19Z</time>
      </trkpt>
      <trkpt lat="47.64942" lon="6.16438">
        <ele>237.3</ele>
        <time>2020-12-10T11:15:21Z</time>
      </trkpt>
      <trkpt lat="47.64936" lon="6.16437">
        <ele>237.5</ele>
        <time>2020-12-10T11:15:22Z</time>
      </trkpt>
      <trkpt lat="47.6493" lon="6.16437">
        <ele>237.6</ele>
        <time>2020-12-10T11:15:24Z</time>
      </trkpt>
      <trkpt lat="47.64922" lon="6.16435">
        <ele>237.8</ele>
        <time>2020-12-10T11:15:25Z</time>
      </trkpt>
      <trkpt lat="47.64916" lon="6.16433">
        <ele>238</ele>
        <time>2020-12-10T11:15:27Z</time>
      </trkpt>
      <trkpt lat="47.64909" lon="6.16432">
        <ele>238.3</ele>
        <time>2020-12-10T11:15:28Z</time>
      </trkpt>
      <trkpt lat="47.64902" lon="6.16431">
        <ele>238.5</ele>
        <time>2020-12-10T11:15:30Z</time>
      </trkpt>
      <trkpt lat="47.64894" lon="6.1643">
        <ele>238.8</ele>
        <time>2020-12-10T11:15:32Z</time>
      </trkpt>
      <trkpt lat="47.64887" lon="6.16429">
        <ele>239</ele>
        <time>2020-12-10T11:15:34Z</time>
      </trkpt>
      <trkpt lat="47.6488" lon="6.16428">
        <ele>239.3</ele>
        <time>2020-12-10T11:15:37Z</time>
      </trkpt>
      <trkpt lat="47.64874" lon="6.16426">
        <ele>239.5</ele>
        <time>2020-12-10T11:15:39Z</time>
      </trkpt>
      <trkpt lat="47.64867" lon="6.16425">
        <ele>239.7</ele>
        <time>2020-12-10T11:15:40Z</time>
      </trkpt>
      <trkpt lat="47.64861" lon="6.16424">
        <ele>240</ele>
        <time>2020-12-10T11:15:42Z</time>
      </trkpt>
      <trkpt lat="47.64855" lon="6.16422">
        <ele>240.2</ele>
        <time>2020-12-10T11:15:44Z</time>
      </trkpt>
      <trkpt lat="47.6485" lon="6.16421">
        <ele>240.4</ele>
        <time>2020-12-10T11:15:46Z</time>
      </trkpt>
      <trkpt lat="47.64843" lon="6.16419">
        <ele>240.6</ele>
        <time>2020-12-10T11:15:48Z</time>
      </trkpt>
      <trkpt lat="47.64837" lon="6.16418">
        <ele>240.8</ele>
        <time>2020-12-10T11:15:50Z</time>
      </trkpt>
      <trkpt lat="47.64832" lon="6.16417">
        <ele>240.9</ele>
        <time>2020-12-10T11:15:52Z</time>
      </trkpt>
      <trkpt lat="47.64827" lon="6.16416">
        <ele>240.9</ele>
        <time>2020-12-10T11:15:54Z</time>
      </trkpt>
      <trkpt lat="47.6482" lon="6.16415">
        <ele>240.7</ele>
        <time>2020-12-10T11:15:56Z</time>
      </trkpt>
      <trkpt lat="47.64813" lon="6.16414">
        <ele>240.5</ele>
        <time>2020-12-10T11:15:58Z</time>
      </trkpt>
      <trkpt lat="47.64807" lon="6.16413">
        <ele>240.4</ele>
        <time>2020-12-10T11:16:00Z</time>
      </trkpt>
      <trkpt lat="47.64803" lon="6.16412">
        <ele>240.3</ele>
        <time>2020-12-10T11:16:02Z</time>
      </trkpt>
      <trkpt lat="47.64795" lon="6.16411">
        <ele>240.1</ele>
        <time>2020-12-10T11:16:03Z</time>
      </trkpt>
      <trkpt lat="47.64791" lon="6.1641">
        <ele>240</ele>
        <time>2020-12-10T11:16:05Z</time>
      </trkpt>
      <trkpt lat="47.64784" lon="6.1641">
        <ele>239.9</ele>
        <time>2020-12-10T11:16:06Z</time>
      </trkpt>
      <trkpt lat="47.64776" lon="6.16409">
        <ele>239.7</ele>
        <time>2020-12-10T11:16:09Z</time>
      </trkpt>
      <trkpt lat="47.64768" lon="6.16407">
        <ele>239.5</ele>
        <time>2020-12-10T11:16:10Z</time>
      </trkpt>
      <trkpt lat="47.6476" lon="6.16406">
        <ele>239.2</ele>
        <time>2020-12-10T11:16:12Z</time>
      </trkpt>
      <trkpt lat="47.64751" lon="6.16405">
        <ele>239</ele>
        <time>2020-12-10T11:16:14Z</time>
      </trkpt>
      <trkpt lat="47.64746" lon="6.16405">
        <ele>238.9</ele>
        <time>2020-12-10T11:16:15Z</time>
      </trkpt>
      <trkpt lat="47.64741" lon="6.16404">
        <ele>238.7</ele>
        <time>2020-12-10T11:16:16Z</time>
      </trkpt>
      <trkpt lat="47.64737" lon="6.16403">
        <ele>238.5</ele>
        <time>2020-12-10T11:16:17Z</time>
      </trkpt>
      <trkpt lat="47.64732" lon="6.16403">
        <ele>238.3</ele>
        <time>2020-12-10T11:16:18Z</time>
      </trkpt>
      <trkpt lat="47.64727" lon="6.16402">
        <ele>238.1</ele>
        <time>2020-12-10T11:16:19Z</time>
      </trkpt>
      <trkpt lat="47.6472" lon="6.16401">
        <ele>237.8</ele>
        <time>2020-12-10T11:16:20Z</time>
      </trkpt>
      <trkpt lat="47.64714" lon="6.164">
        <ele>237.5</ele>
        <time>2020-12-10T11:16:21Z</time>
      </trkpt>
      <trkpt lat="47.64709" lon="6.16399">
        <ele>237.3</ele>
        <time>2020-12-10T11:16:22Z</time>
      </trkpt>
      <trkpt lat="47.64703" lon="6.16398">
        <ele>237.1</ele>
        <time>2020-12-10T11:16:23Z</time>
      </trkpt>
      <trkpt lat="47.64698" lon="6.16397">
        <ele>236.8</ele>
        <time>2020-12-10T11:16:24Z</time>
      </trkpt>
      <trkpt lat="47.64692" lon="6.16396">
        <ele>236.6</ele>
        <time>2020-12-10T11:16:25Z</time>
      </trkpt>
      <trkpt lat="47.64687" lon="6.16395">
        <ele>236.3</ele>
        <time>2020-12-10T11:16:26Z</time>
      </trkpt>
      <trkpt lat="47.64681" lon="6.16394">
        <ele>236.1</ele>
        <time>2020-12-10T11:16:27Z</time>
      </trkpt>
      <trkpt lat="47.64675" lon="6.16393">
        <ele>235.8</ele>
        <time>2020-12-10T11:16:28Z</time>
      </trkpt>
      <trkpt lat="47.64669" lon="6.16393">
        <ele>235.5</ele>
        <time>2020-12-10T11:16:29Z</time>
      </trkpt>
      <trkpt lat="47.64664" lon="6.16392">
        <ele>235.3</ele>
        <time>2020-12-10T11:16:30Z</time>
      </trkpt>
      <trkpt lat="47.64658" lon="6.16391">
        <ele>235.2</ele>
        <time>2020-12-10T11:16:31Z</time>
      </trkpt>
      <trkpt lat="47.64652" lon="6.1639">
        <ele>235.1</ele>
        <time>2020-12-10T11:16:32Z</time>
      </trkpt>
      <trkpt lat="47.64646" lon="6.16388">
        <ele>235</ele>
        <time>2020-12-10T11:16:33Z</time>
      </trkpt>
      <trkpt lat="47.6464" lon="6.16387">
        <ele>234.9</ele>
        <time>2020-12-10T11:16:34Z</time>
      </trkpt>
      <trkpt lat="47.64633" lon="6.16386">
        <ele>234.8</ele>
        <time>2020-12-10T11:16:35Z</time>
      </trkpt>
      <trkpt lat="47.64627" lon="6.16385">
        <ele>234.7</ele>
        <time>2020-12-10T11:16:36Z</time>
      </trkpt>
      <trkpt lat="47.64621" lon="6.16384">
        <ele>234.5</ele>
        <time>2020-12-10T11:16:37Z</time>
      </trkpt>
      <trkpt lat="47.64614" lon="6.16383">
        <ele>234.4</ele>
        <time>2020-12-10T11:16:38Z</time>
      </trkpt>
      <trkpt lat="47.64608" lon="6.16382">
        <ele>234.3</ele>
        <time>2020-12-10T11:16:39Z</time>
      </trkpt>
      <trkpt lat="47.64602" lon="6.1638">
        <ele>234.2</ele>
        <time>2020-12-10T11:16:40Z</time>
      </trkpt>
      <trkpt lat="47.64595" lon="6.16379">
        <ele>234.2</ele>
        <time>2020-12-10T11:16:41Z</time>
      </trkpt>
      <trkpt lat="47.6459" lon="6.16378">
        <ele>234.1</ele>
        <time>2020-12-10T11:16:42Z</time>
      </trkpt>
      <trkpt lat="47.64584" lon="6.16378">
        <ele>234</ele>
        <time>2020-12-10T11:16:43Z</time>
      </trkpt>
      <trkpt lat="47.64578" lon="6.16377">
        <ele>234</ele>
        <time>2020-12-10T11:16:44Z</time>
      </trkpt>
      <trkpt lat="47.64572" lon="6.16376">
        <ele>234</ele>
        <time>2020-12-10T11:16:45Z</time>
      </trkpt>
      <trkpt lat="47.64566" lon="6.16374">
        <ele>234</ele>
        <time>2020-12-10T11:16:46Z</time>
      </trkpt>
      <trkpt lat="47.6456" lon="6.16373">
        <ele>234</ele>
        <time>2020-12-10T11:16:47Z</time>
      </trkpt>
      <trkpt lat="47.64555" lon="6.16371">
        <ele>234</ele>
        <time>2020-12-10T11:16:48Z</time>
      </trkpt>
      <trkpt lat="47.64549" lon="6.1637">
        <ele>234</ele>
        <time>2020-12-10T11:16:49Z</time>
      </trkpt>
      <trkpt lat="47.64543" lon="6.16369">
        <ele>234.1</ele>
        <time>2020-12-10T11:16:50Z</time>
      </trkpt>
      <trkpt lat="47.64537" lon="6.16368">
        <ele>234.1</ele>
        <time>2020-12-10T11:16:51Z</time>
      </trkpt>
      <trkpt lat="47.64532" lon="6.16367">
        <ele>234.1</ele>
        <time>2020-12-10T11:16:52Z</time>
      </trkpt>
      <trkpt lat="47.64526" lon="6.16366">
        <ele>234.1</ele>
        <time>2020-12-10T11:16:53Z</time>
      </trkpt>
      <trkpt lat="47.64521" lon="6.16365">
        <ele>234.2</ele>
        <time>2020-12-10T11:16:54Z</time>
      </trkpt>
      <trkpt lat="47.64515" lon="6.16364">
        <ele>234.2</ele>
        <time>2020-12-10T11:16:55Z</time>
      </trkpt>
      <trkpt lat="47.6451" lon="6.16363">
        <ele>234.3</ele>
        <time>2020-12-10T11:16:56Z</time>
      </trkpt>
      <trkpt lat="47.64505" lon="6.16362">
        <ele>234.3</ele>
        <time>2020-12-10T11:16:57Z</time>
      </trkpt>
      <trkpt lat="47.64499" lon="6.16361">
        <ele>234.3</ele>
        <time>2020-12-10T11:16:58Z</time>
      </trkpt>
      <trkpt lat="47.64494" lon="6.1636">
        <ele>234.3</ele>
        <time>2020-12-10T11:16:59Z</time>
      </trkpt>
      <trkpt lat="47.64488" lon="6.16358">
        <ele>234.4</ele>
        <time>2020-12-10T11:17:00Z</time>
      </trkpt>
      <trkpt lat="47.64483" lon="6.16356">
        <ele>234.4</ele>
        <time>2020-12-10T11:17:01Z</time>
      </trkpt>
      <trkpt lat="47.64478" lon="6.16355">
        <ele>234.4</ele>
        <time>2020-12-10T11:17:02Z</time>
      </trkpt>
      <trkpt lat="47.64473" lon="6.16354">
        <ele>234.3</ele>
        <time>2020-12-10T11:17:03Z</time>
      </trkpt>
      <trkpt lat="47.64468" lon="6.16352">
        <ele>234.3</ele>
        <time>2020-12-10T11:17:04Z</time>
      </trkpt>
      <trkpt lat="47.64463" lon="6.1635">
        <ele>234.3</ele>
        <time>2020-12-10T11:17:05Z</time>
      </trkpt>
      <trkpt lat="47.64458" lon="6.16348">
        <ele>234.3</ele>
        <time>2020-12-10T11:17:06Z</time>
      </trkpt>
      <trkpt lat="47.64454" lon="6.16346">
        <ele>234.3</ele>
        <time>2020-12-10T11:17:07Z</time>
      </trkpt>
      <trkpt lat="47.64449" lon="6.16344">
        <ele>234.3</ele>
        <time>2020-12-10T11:17:08Z</time>
      </trkpt>
      <trkpt lat="47.64445" lon="6.16342">
        <ele>234.3</ele>
        <time>2020-12-10T11:17:09Z</time>
      </trkpt>
      <trkpt lat="47.64438" lon="6.16338">
        <ele>234.2</ele>
        <time>2020-12-10T11:17:11Z</time>
      </trkpt>
      <trkpt lat="47.64433" lon="6.1633">
        <ele>234.1</ele>
        <time>2020-12-10T11:17:13Z</time>
      </trkpt>
      <trkpt lat="47.64429" lon="6.16319">
        <ele>233.7</ele>
        <time>2020-12-10T11:17:15Z</time>
      </trkpt>
      <trkpt lat="47.64424" lon="6.16309">
        <ele>233.4</ele>
        <time>2020-12-10T11:17:17Z</time>
      </trkpt>
      <trkpt lat="47.6442" lon="6.16304">
        <ele>233.3</ele>
        <time>2020-12-10T11:17:20Z</time>
      </trkpt>
      <trkpt lat="47.6441" lon="6.16307">
        <ele>233.5</ele>
        <time>2020-12-10T11:17:22Z</time>
      </trkpt>
      <trkpt lat="47.64405" lon="6.16315">
        <ele>233.8</ele>
        <time>2020-12-10T11:17:25Z</time>
      </trkpt>
      <trkpt lat="47.64401" lon="6.16322">
        <ele>234.1</ele>
        <time>2020-12-10T11:17:26Z</time>
      </trkpt>
      <trkpt lat="47.64397" lon="6.16325">
        <ele>234.3</ele>
        <time>2020-12-10T11:17:28Z</time>
      </trkpt>
      <trkpt lat="47.64389" lon="6.16329">
        <ele>234.6</ele>
        <time>2020-12-10T11:17:29Z</time>
      </trkpt>
      <trkpt lat="47.64382" lon="6.16332">
        <ele>234.8</ele>
        <time>2020-12-10T11:17:31Z</time>
      </trkpt>
      <trkpt lat="47.64376" lon="6.16336">
        <ele>235</ele>
        <time>2020-12-10T11:17:33Z</time>
      </trkpt>
      <trkpt lat="47.64369" lon="6.16341">
        <ele>235.1</ele>
        <time>2020-12-10T11:17:35Z</time>
      </trkpt>
      <trkpt lat="47.64363" lon="6.16352">
        <ele>235.1</ele>
        <time>2020-12-10T11:17:37Z</time>
      </trkpt>
      <trkpt lat="47.6436" lon="6.1636">
        <ele>235.1</ele>
        <time>2020-12-10T11:17:38Z</time>
      </trkpt>
      <trkpt lat="47.64358" lon="6.16367">
        <ele>235.1</ele>
        <time>2020-12-10T11:17:39Z</time>
      </trkpt>
      <trkpt lat="47.64356" lon="6.16376">
        <ele>235.1</ele>
        <time>2020-12-10T11:17:40Z</time>
      </trkpt>
      <trkpt lat="47.64353" lon="6.16384">
        <ele>235.1</ele>
        <time>2020-12-10T11:17:41Z</time>
      </trkpt>
      <trkpt lat="47.64349" lon="6.164">
        <ele>235</ele>
        <time>2020-12-10T11:17:43Z</time>
      </trkpt>
      <trkpt lat="47.64347" lon="6.16407">
        <ele>234.9</ele>
        <time>2020-12-10T11:17:44Z</time>
      </trkpt>
      <trkpt lat="47.64345" lon="6.16414">
        <ele>234.9</ele>
        <time>2020-12-10T11:17:45Z</time>
      </trkpt>
      <trkpt lat="47.64343" lon="6.1642">
        <ele>234.9</ele>
        <time>2020-12-10T11:17:46Z</time>
      </trkpt>
      <trkpt lat="47.64342" lon="6.16427">
        <ele>234.9</ele>
        <time>2020-12-10T11:17:47Z</time>
      </trkpt>
      <trkpt lat="47.6434" lon="6.16433">
        <ele>234.9</ele>
        <time>2020-12-10T11:17:48Z</time>
      </trkpt>
      <trkpt lat="47.64338" lon="6.1644">
        <ele>234.9</ele>
        <time>2020-12-10T11:17:49Z</time>
      </trkpt>
      <trkpt lat="47.64335" lon="6.16446">
        <ele>235</ele>
        <time>2020-12-10T11:17:50Z</time>
      </trkpt>
      <trkpt lat="47.64333" lon="6.16453">
        <ele>235</ele>
        <time>2020-12-10T11:17:51Z</time>
      </trkpt>
      <trkpt lat="47.64332" lon="6.16459">
        <ele>235.1</ele>
        <time>2020-12-10T11:17:52Z</time>
      </trkpt>
      <trkpt lat="47.6433" lon="6.16466">
        <ele>235.2</ele>
        <time>2020-12-10T11:17:53Z</time>
      </trkpt>
      <trkpt lat="47.64328" lon="6.16472">
        <ele>235.2</ele>
        <time>2020-12-10T11:17:54Z</time>
      </trkpt>
      <trkpt lat="47.64327" lon="6.16479">
        <ele>235.3</ele>
        <time>2020-12-10T11:17:55Z</time>
      </trkpt>
      <trkpt lat="47.64325" lon="6.16485">
        <ele>235.3</ele>
        <time>2020-12-10T11:17:56Z</time>
      </trkpt>
      <trkpt lat="47.64323" lon="6.16496">
        <ele>235.4</ele>
        <time>2020-12-10T11:17:58Z</time>
      </trkpt>
      <trkpt lat="47.64321" lon="6.16503">
        <ele>235.5</ele>
        <time>2020-12-10T11:17:59Z</time>
      </trkpt>
      <trkpt lat="47.64318" lon="6.16515">
        <ele>235.6</ele>
        <time>2020-12-10T11:18:01Z</time>
      </trkpt>
      <trkpt lat="47.64316" lon="6.16531">
        <ele>235.6</ele>
        <time>2020-12-10T11:18:03Z</time>
      </trkpt>
      <trkpt lat="47.64313" lon="6.1654">
        <ele>235.7</ele>
        <time>2020-12-10T11:18:06Z</time>
      </trkpt>
      <trkpt lat="47.6431" lon="6.16549">
        <ele>235.9</ele>
        <time>2020-12-10T11:18:07Z</time>
      </trkpt>
      <trkpt lat="47.64306" lon="6.16557">
        <ele>236</ele>
        <time>2020-12-10T11:18:09Z</time>
      </trkpt>
      <trkpt lat="47.64304" lon="6.16564">
        <ele>236.1</ele>
        <time>2020-12-10T11:18:10Z</time>
      </trkpt>
      <trkpt lat="47.64301" lon="6.16574">
        <ele>236.2</ele>
        <time>2020-12-10T11:18:12Z</time>
      </trkpt>
      <trkpt lat="47.64299" lon="6.16581">
        <ele>236.2</ele>
        <time>2020-12-10T11:18:14Z</time>
      </trkpt>
      <trkpt lat="47.64296" lon="6.16592">
        <ele>236.5</ele>
        <time>2020-12-10T11:18:16Z</time>
      </trkpt>
      <trkpt lat="47.64293" lon="6.16601">
        <ele>236.7</ele>
        <time>2020-12-10T11:18:18Z</time>
      </trkpt>
      <trkpt lat="47.64291" lon="6.16608">
        <ele>236.8</ele>
        <time>2020-12-10T11:18:20Z</time>
      </trkpt>
      <trkpt lat="47.64289" lon="6.16616">
        <ele>237</ele>
        <time>2020-12-10T11:18:22Z</time>
      </trkpt>
      <trkpt lat="47.64287" lon="6.16624">
        <ele>237.2</ele>
        <time>2020-12-10T11:18:25Z</time>
      </trkpt>
      <trkpt lat="47.64285" lon="6.16631">
        <ele>237.3</ele>
        <time>2020-12-10T11:18:26Z</time>
      </trkpt>
      <trkpt lat="47.64282" lon="6.16642">
        <ele>237.6</ele>
        <time>2020-12-10T11:18:29Z</time>
      </trkpt>
      <trkpt lat="47.6428" lon="6.16649">
        <ele>237.7</ele>
        <time>2020-12-10T11:18:31Z</time>
      </trkpt>
      <trkpt lat="47.64278" lon="6.16656">
        <ele>237.9</ele>
        <time>2020-12-10T11:18:33Z</time>
      </trkpt>
      <trkpt lat="47.64276" lon="6.16665">
        <ele>238</ele>
        <time>2020-12-10T11:18:35Z</time>
      </trkpt>
      <trkpt lat="47.64274" lon="6.16671">
        <ele>238.1</ele>
        <time>2020-12-10T11:18:37Z</time>
      </trkpt>
      <trkpt lat="47.64272" lon="6.16682">
        <ele>238.2</ele>
        <time>2020-12-10T11:18:39Z</time>
      </trkpt>
      <trkpt lat="47.6427" lon="6.1669">
        <ele>238.2</ele>
        <time>2020-12-10T11:18:41Z</time>
      </trkpt>
      <trkpt lat="47.64269" lon="6.16698">
        <ele>238.2</ele>
        <time>2020-12-10T11:18:43Z</time>
      </trkpt>
      <trkpt lat="47.64266" lon="6.16708">
        <ele>238.3</ele>
        <time>2020-12-10T11:18:47Z</time>
      </trkpt>
      <trkpt lat="47.64264" lon="6.16717">
        <ele>238.4</ele>
        <time>2020-12-10T11:18:49Z</time>
      </trkpt>
      <trkpt lat="47.64262" lon="6.16724">
        <ele>238.5</ele>
        <time>2020-12-10T11:18:50Z</time>
      </trkpt>
      <trkpt lat="47.64261" lon="6.1673">
        <ele>238.5</ele>
        <time>2020-12-10T11:18:52Z</time>
      </trkpt>
      <trkpt lat="47.6426" lon="6.16737">
        <ele>238.5</ele>
        <time>2020-12-10T11:18:53Z</time>
      </trkpt>
      <trkpt lat="47.64258" lon="6.16745">
        <ele>238.6</ele>
        <time>2020-12-10T11:18:55Z</time>
      </trkpt>
      <trkpt lat="47.64256" lon="6.16754">
        <ele>238.6</ele>
        <time>2020-12-10T11:18:57Z</time>
      </trkpt>
      <trkpt lat="47.64254" lon="6.16763">
        <ele>238.5</ele>
        <time>2020-12-10T11:18:59Z</time>
      </trkpt>
      <trkpt lat="47.64252" lon="6.16773">
        <ele>238.3</ele>
        <time>2020-12-10T11:19:01Z</time>
      </trkpt>
      <trkpt lat="47.64251" lon="6.16782">
        <ele>238.2</ele>
        <time>2020-12-10T11:19:03Z</time>
      </trkpt>
      <trkpt lat="47.64248" lon="6.16791">
        <ele>238</ele>
        <time>2020-12-10T11:19:05Z</time>
      </trkpt>
      <trkpt lat="47.64246" lon="6.16799">
        <ele>237.9</ele>
        <time>2020-12-10T11:19:07Z</time>
      </trkpt>
      <trkpt lat="47.64245" lon="6.16806">
        <ele>237.8</ele>
        <time>2020-12-10T11:19:09Z</time>
      </trkpt>
      <trkpt lat="47.64243" lon="6.16816">
        <ele>237.6</ele>
        <time>2020-12-10T11:19:11Z</time>
      </trkpt>
      <trkpt lat="47.64241" lon="6.16824">
        <ele>237.5</ele>
        <time>2020-12-10T11:19:13Z</time>
      </trkpt>
      <trkpt lat="47.6424" lon="6.16831">
        <ele>237.4</ele>
        <time>2020-12-10T11:19:15Z</time>
      </trkpt>
      <trkpt lat="47.64238" lon="6.16838">
        <ele>237.3</ele>
        <time>2020-12-10T11:19:16Z</time>
      </trkpt>
      <trkpt lat="47.64236" lon="6.16846">
        <ele>237.2</ele>
        <time>2020-12-10T11:19:19Z</time>
      </trkpt>
      <trkpt lat="47.64234" lon="6.16855">
        <ele>237.1</ele>
        <time>2020-12-10T11:19:21Z</time>
      </trkpt>
      <trkpt lat="47.64232" lon="6.16863">
        <ele>236.9</ele>
        <time>2020-12-10T11:19:22Z</time>
      </trkpt>
      <trkpt lat="47.64229" lon="6.16872">
        <ele>236.8</ele>
        <time>2020-12-10T11:19:24Z</time>
      </trkpt>
      <trkpt lat="47.64226" lon="6.1688">
        <ele>236.7</ele>
        <time>2020-12-10T11:19:27Z</time>
      </trkpt>
      <trkpt lat="47.64224" lon="6.1689">
        <ele>236.6</ele>
        <time>2020-12-10T11:19:29Z</time>
      </trkpt>
      <trkpt lat="47.64221" lon="6.16899">
        <ele>236.5</ele>
        <time>2020-12-10T11:19:30Z</time>
      </trkpt>
      <trkpt lat="47.64219" lon="6.16906">
        <ele>236.4</ele>
        <time>2020-12-10T11:19:32Z</time>
      </trkpt>
      <trkpt lat="47.64214" lon="6.16922">
        <ele>236.1</ele>
        <time>2020-12-10T11:19:33Z</time>
      </trkpt>
      <trkpt lat="47.64212" lon="6.1693">
        <ele>236</ele>
        <time>2020-12-10T11:19:34Z</time>
      </trkpt>
      <trkpt lat="47.64211" lon="6.16937">
        <ele>235.8</ele>
        <time>2020-12-10T11:19:35Z</time>
      </trkpt>
      <trkpt lat="47.64209" lon="6.16944">
        <ele>235.6</ele>
        <time>2020-12-10T11:19:36Z</time>
      </trkpt>
      <trkpt lat="47.64207" lon="6.16952">
        <ele>235.5</ele>
        <time>2020-12-10T11:19:37Z</time>
      </trkpt>
      <trkpt lat="47.64205" lon="6.1696">
        <ele>235.3</ele>
        <time>2020-12-10T11:19:38Z</time>
      </trkpt>
      <trkpt lat="47.64203" lon="6.16969">
        <ele>235.2</ele>
        <time>2020-12-10T11:19:39Z</time>
      </trkpt>
      <trkpt lat="47.64201" lon="6.16978">
        <ele>235</ele>
        <time>2020-12-10T11:19:40Z</time>
      </trkpt>
      <trkpt lat="47.64199" lon="6.16987">
        <ele>234.8</ele>
        <time>2020-12-10T11:19:41Z</time>
      </trkpt>
      <trkpt lat="47.64196" lon="6.16997">
        <ele>234.7</ele>
        <time>2020-12-10T11:19:42Z</time>
      </trkpt>
      <trkpt lat="47.64193" lon="6.17006">
        <ele>234.3</ele>
        <time>2020-12-10T11:19:43Z</time>
      </trkpt>
      <trkpt lat="47.6419" lon="6.17016">
        <ele>233.8</ele>
        <time>2020-12-10T11:19:44Z</time>
      </trkpt>
      <trkpt lat="47.64187" lon="6.17026">
        <ele>233.2</ele>
        <time>2020-12-10T11:19:45Z</time>
      </trkpt>
      <trkpt lat="47.64185" lon="6.17037">
        <ele>232.6</ele>
        <time>2020-12-10T11:19:46Z</time>
      </trkpt>
      <trkpt lat="47.64182" lon="6.17048">
        <ele>231.9</ele>
        <time>2020-12-10T11:19:47Z</time>
      </trkpt>
      <trkpt lat="47.64179" lon="6.1706">
        <ele>231.2</ele>
        <time>2020-12-10T11:19:48Z</time>
      </trkpt>
      <trkpt lat="47.64176" lon="6.17071">
        <ele>230.5</ele>
        <time>2020-12-10T11:19:49Z</time>
      </trkpt>
      <trkpt lat="47.64173" lon="6.17083">
        <ele>229.8</ele>
        <time>2020-12-10T11:19:50Z</time>
      </trkpt>
      <trkpt lat="47.6417" lon="6.17096">
        <ele>228.9</ele>
        <time>2020-12-10T11:19:51Z</time>
      </trkpt>
      <trkpt lat="47.64167" lon="6.17109">
        <ele>227.9</ele>
        <time>2020-12-10T11:19:52Z</time>
      </trkpt>
      <trkpt lat="47.64164" lon="6.17122">
        <ele>226.8</ele>
        <time>2020-12-10T11:19:53Z</time>
      </trkpt>
      <trkpt lat="47.64161" lon="6.17136">
        <ele>225.8</ele>
        <time>2020-12-10T11:19:54Z</time>
      </trkpt>
      <trkpt lat="47.64158" lon="6.17149">
        <ele>224.8</ele>
        <time>2020-12-10T11:19:55Z</time>
      </trkpt>
      <trkpt lat="47.64156" lon="6.17163">
        <ele>223.8</ele>
        <time>2020-12-10T11:19:56Z</time>
      </trkpt>
      <trkpt lat="47.64153" lon="6.17177">
        <ele>223.5</ele>
        <time>2020-12-10T11:19:57Z</time>
      </trkpt>
      <trkpt lat="47.6415" lon="6.1719">
        <ele>223.4</ele>
        <time>2020-12-10T11:19:58Z</time>
      </trkpt>
      <trkpt lat="47.64147" lon="6.17204">
        <ele>223.3</ele>
        <time>2020-12-10T11:19:59Z</time>
      </trkpt>
      <trkpt lat="47.64145" lon="6.17216">
        <ele>223.2</ele>
        <time>2020-12-10T11:20:00Z</time>
      </trkpt>
      <trkpt lat="47.64141" lon="6.17228">
        <ele>223</ele>
        <time>2020-12-10T11:20:01Z</time>
      </trkpt>
      <trkpt lat="47.64138" lon="6.17238">
        <ele>222.9</ele>
        <time>2020-12-10T11:20:02Z</time>
      </trkpt>
      <trkpt lat="47.64134" lon="6.17248">
        <ele>222.8</ele>
        <time>2020-12-10T11:20:03Z</time>
      </trkpt>
      <trkpt lat="47.6413" lon="6.17258">
        <ele>222.6</ele>
        <time>2020-12-10T11:20:04Z</time>
      </trkpt>
      <trkpt lat="47.64126" lon="6.17266">
        <ele>222.3</ele>
        <time>2020-12-10T11:20:05Z</time>
      </trkpt>
      <trkpt lat="47.64122" lon="6.17275">
        <ele>222</ele>
        <time>2020-12-10T11:20:06Z</time>
      </trkpt>
      <trkpt lat="47.64117" lon="6.17283">
        <ele>221.8</ele>
        <time>2020-12-10T11:20:07Z</time>
      </trkpt>
      <trkpt lat="47.64113" lon="6.1729">
        <ele>221.5</ele>
        <time>2020-12-10T11:20:08Z</time>
      </trkpt>
      <trkpt lat="47.64108" lon="6.17298">
        <ele>221.3</ele>
        <time>2020-12-10T11:20:09Z</time>
      </trkpt>
      <trkpt lat="47.64104" lon="6.17305">
        <ele>221</ele>
        <time>2020-12-10T11:20:10Z</time>
      </trkpt>
      <trkpt lat="47.641" lon="6.17312">
        <ele>220.8</ele>
        <time>2020-12-10T11:20:11Z</time>
      </trkpt>
      <trkpt lat="47.64095" lon="6.17319">
        <ele>220.5</ele>
        <time>2020-12-10T11:20:12Z</time>
      </trkpt>
      <trkpt lat="47.6409" lon="6.17325">
        <ele>220.3</ele>
        <time>2020-12-10T11:20:13Z</time>
      </trkpt>
      <trkpt lat="47.64086" lon="6.17332">
        <ele>220.1</ele>
        <time>2020-12-10T11:20:14Z</time>
      </trkpt>
      <trkpt lat="47.64081" lon="6.17338">
        <ele>219.9</ele>
        <time>2020-12-10T11:20:15Z</time>
      </trkpt>
      <trkpt lat="47.64076" lon="6.17343">
        <ele>219.8</ele>
        <time>2020-12-10T11:20:16Z</time>
      </trkpt>
      <trkpt lat="47.64071" lon="6.17349">
        <ele>219.7</ele>
        <time>2020-12-10T11:20:17Z</time>
      </trkpt>
      <trkpt lat="47.64066" lon="6.17354">
        <ele>219.7</ele>
        <time>2020-12-10T11:20:18Z</time>
      </trkpt>
      <trkpt lat="47.64061" lon="6.17358">
        <ele>219.6</ele>
        <time>2020-12-10T11:20:19Z</time>
      </trkpt>
      <trkpt lat="47.64056" lon="6.17362">
        <ele>219.6</ele>
        <time>2020-12-10T11:20:20Z</time>
      </trkpt>
      <trkpt lat="47.64051" lon="6.17366">
        <ele>219.6</ele>
        <time>2020-12-10T11:20:21Z</time>
      </trkpt>
      <trkpt lat="47.64046" lon="6.1737">
        <ele>219.6</ele>
        <time>2020-12-10T11:20:22Z</time>
      </trkpt>
      <trkpt lat="47.64041" lon="6.17374">
        <ele>219.6</ele>
        <time>2020-12-10T11:20:23Z</time>
      </trkpt>
      <trkpt lat="47.64036" lon="6.17378">
        <ele>219.5</ele>
        <time>2020-12-10T11:20:24Z</time>
      </trkpt>
      <trkpt lat="47.64031" lon="6.17381">
        <ele>219.5</ele>
        <time>2020-12-10T11:20:25Z</time>
      </trkpt>
      <trkpt lat="47.64027" lon="6.17384">
        <ele>219.5</ele>
        <time>2020-12-10T11:20:26Z</time>
      </trkpt>
      <trkpt lat="47.64022" lon="6.17387">
        <ele>219.5</ele>
        <time>2020-12-10T11:20:27Z</time>
      </trkpt>
      <trkpt lat="47.64018" lon="6.1739">
        <ele>219.5</ele>
        <time>2020-12-10T11:20:28Z</time>
      </trkpt>
      <trkpt lat="47.64014" lon="6.17393">
        <ele>219.5</ele>
        <time>2020-12-10T11:20:29Z</time>
      </trkpt>
      <trkpt lat="47.64009" lon="6.17396">
        <ele>219.5</ele>
        <time>2020-12-10T11:20:30Z</time>
      </trkpt>
      <trkpt lat="47.64006" lon="6.17399">
        <ele>219.5</ele>
        <time>2020-12-10T11:20:31Z</time>
      </trkpt>
      <trkpt lat="47.64002" lon="6.17408">
        <ele>219.3</ele>
        <time>2020-12-10T11:20:33Z</time>
      </trkpt>
      <trkpt lat="47.64001" lon="6.17418">
        <ele>219</ele>
        <time>2020-12-10T11:20:35Z</time>
      </trkpt>
      <trkpt lat="47.64004" lon="6.17426">
        <ele>218.9</ele>
        <time>2020-12-10T11:20:37Z</time>
      </trkpt>
      <trkpt lat="47.64008" lon="6.17424">
        <ele>218.8</ele>
        <time>2020-12-10T11:20:40Z</time>
      </trkpt>
      <trkpt lat="47.64014" lon="6.1743">
        <ele>218.7</ele>
        <time>2020-12-10T11:20:41Z</time>
      </trkpt>
      <trkpt lat="47.64016" lon="6.17435">
        <ele>218.6</ele>
        <time>2020-12-10T11:20:43Z</time>
      </trkpt>
      <trkpt lat="47.64027" lon="6.17452">
        <ele>218.4</ele>
        <time>2020-12-10T11:20:44Z</time>
      </trkpt>
      <trkpt lat="47.6403" lon="6.17458">
        <ele>218.3</ele>
        <time>2020-12-10T11:20:45Z</time>
      </trkpt>
      <trkpt lat="47.64034" lon="6.17464">
        <ele>218.2</ele>
        <time>2020-12-10T11:20:46Z</time>
      </trkpt>
      <trkpt lat="47.64038" lon="6.17469">
        <ele>218.1</ele>
        <time>2020-12-10T11:20:47Z</time>
      </trkpt>
      <trkpt lat="47.64041" lon="6.17474">
        <ele>218</ele>
        <time>2020-12-10T11:20:48Z</time>
      </trkpt>
      <trkpt lat="47.64045" lon="6.17479">
        <ele>217.9</ele>
        <time>2020-12-10T11:20:49Z</time>
      </trkpt>
      <trkpt lat="47.64049" lon="6.17485">
        <ele>217.8</ele>
        <time>2020-12-10T11:20:50Z</time>
      </trkpt>
      <trkpt lat="47.64053" lon="6.1749">
        <ele>217.7</ele>
        <time>2020-12-10T11:20:51Z</time>
      </trkpt>
      <trkpt lat="47.64056" lon="6.17496">
        <ele>217.6</ele>
        <time>2020-12-10T11:20:52Z</time>
      </trkpt>
      <trkpt lat="47.6406" lon="6.17501">
        <ele>217.5</ele>
        <time>2020-12-10T11:20:53Z</time>
      </trkpt>
      <trkpt lat="47.64064" lon="6.17507">
        <ele>217.4</ele>
        <time>2020-12-10T11:20:54Z</time>
      </trkpt>
      <trkpt lat="47.64068" lon="6.17512">
        <ele>217.2</ele>
        <time>2020-12-10T11:20:55Z</time>
      </trkpt>
      <trkpt lat="47.64072" lon="6.17518">
        <ele>217.1</ele>
        <time>2020-12-10T11:20:56Z</time>
      </trkpt>
      <trkpt lat="47.64076" lon="6.17523">
        <ele>216.9</ele>
        <time>2020-12-10T11:20:57Z</time>
      </trkpt>
      <trkpt lat="47.6408" lon="6.17529">
        <ele>216.7</ele>
        <time>2020-12-10T11:20:58Z</time>
      </trkpt>
      <trkpt lat="47.64084" lon="6.17534">
        <ele>216.6</ele>
        <time>2020-12-10T11:20:59Z</time>
      </trkpt>
      <trkpt lat="47.64087" lon="6.17539">
        <ele>216.6</ele>
        <time>2020-12-10T11:21:00Z</time>
      </trkpt>
      <trkpt lat="47.64091" lon="6.17544">
        <ele>216.6</ele>
        <time>2020-12-10T11:21:01Z</time>
      </trkpt>
      <trkpt lat="47.64097" lon="6.17553">
        <ele>216.7</ele>
        <time>2020-12-10T11:21:03Z</time>
      </trkpt>
      <trkpt lat="47.64103" lon="6.17562">
        <ele>216.8</ele>
        <time>2020-12-10T11:21:05Z</time>
      </trkpt>
      <trkpt lat="47.64109" lon="6.17572">
        <ele>216.9</ele>
        <time>2020-12-10T11:21:07Z</time>
      </trkpt>
      <trkpt lat="47.64115" lon="6.17581">
        <ele>217.1</ele>
        <time>2020-12-10T11:21:09Z</time>
      </trkpt>
      <trkpt lat="47.6412" lon="6.17589">
        <ele>217.3</ele>
        <time>2020-12-10T11:21:11Z</time>
      </trkpt>
      <trkpt lat="47.64125" lon="6.17598">
        <ele>217.4</ele>
        <time>2020-12-10T11:21:13Z</time>
      </trkpt>
      <trkpt lat="47.64129" lon="6.17603">
        <ele>217.5</ele>
        <time>2020-12-10T11:21:14Z</time>
      </trkpt>
      <trkpt lat="47.64133" lon="6.17611">
        <ele>217.6</ele>
        <time>2020-12-10T11:21:16Z</time>
      </trkpt>
      <trkpt lat="47.64134" lon="6.17617">
        <ele>217.6</ele>
        <time>2020-12-10T11:21:18Z</time>
      </trkpt>
      <trkpt lat="47.6414" lon="6.17625">
        <ele>217.7</ele>
        <time>2020-12-10T11:21:19Z</time>
      </trkpt>
      <trkpt lat="47.64146" lon="6.17632">
        <ele>217.8</ele>
        <time>2020-12-10T11:21:21Z</time>
      </trkpt>
      <trkpt lat="47.64151" lon="6.17639">
        <ele>217.9</ele>
        <time>2020-12-10T11:21:22Z</time>
      </trkpt>
      <trkpt lat="47.64155" lon="6.17644">
        <ele>217.9</ele>
        <time>2020-12-10T11:21:23Z</time>
      </trkpt>
      <trkpt lat="47.64163" lon="6.17655">
        <ele>218</ele>
        <time>2020-12-10T11:21:25Z</time>
      </trkpt>
      <trkpt lat="47.64166" lon="6.17659">
        <ele>218.1</ele>
        <time>2020-12-10T11:21:26Z</time>
      </trkpt>
      <trkpt lat="47.64172" lon="6.17667">
        <ele>218.1</ele>
        <time>2020-12-10T11:21:29Z</time>
      </trkpt>
      <trkpt lat="47.64177" lon="6.17673">
        <ele>218</ele>
        <time>2020-12-10T11:21:30Z</time>
      </trkpt>
      <trkpt lat="47.64181" lon="6.17678">
        <ele>217.9</ele>
        <time>2020-12-10T11:21:31Z</time>
      </trkpt>
      <trkpt lat="47.64188" lon="6.17688">
        <ele>217.7</ele>
        <time>2020-12-10T11:21:33Z</time>
      </trkpt>
      <trkpt lat="47.64194" lon="6.17696">
        <ele>217.6</ele>
        <time>2020-12-10T11:21:36Z</time>
      </trkpt>
      <trkpt lat="47.64199" lon="6.17702">
        <ele>217.5</ele>
        <time>2020-12-10T11:21:38Z</time>
      </trkpt>
      <trkpt lat="47.64208" lon="6.17716">
        <ele>217.2</ele>
        <time>2020-12-10T11:21:41Z</time>
      </trkpt>
      <trkpt lat="47.64214" lon="6.17724">
        <ele>217.1</ele>
        <time>2020-12-10T11:21:42Z</time>
      </trkpt>
      <trkpt lat="47.6422" lon="6.17731">
        <ele>217</ele>
        <time>2020-12-10T11:21:44Z</time>
      </trkpt>
      <trkpt lat="47.64223" lon="6.17736">
        <ele>216.9</ele>
        <time>2020-12-10T11:21:46Z</time>
      </trkpt>
      <trkpt lat="47.64228" lon="6.17742">
        <ele>216.8</ele>
        <time>2020-12-10T11:21:47Z</time>
      </trkpt>
      <trkpt lat="47.64234" lon="6.17747">
        <ele>216.7</ele>
        <time>2020-12-10T11:21:48Z</time>
      </trkpt>
      <trkpt lat="47.64241" lon="6.17754">
        <ele>216.8</ele>
        <time>2020-12-10T11:21:50Z</time>
      </trkpt>
      <trkpt lat="47.64245" lon="6.17757">
        <ele>217</ele>
        <time>2020-12-10T11:21:51Z</time>
      </trkpt>
      <trkpt lat="47.64253" lon="6.17763">
        <ele>217.3</ele>
        <time>2020-12-10T11:21:53Z</time>
      </trkpt>
      <trkpt lat="47.6426" lon="6.17769">
        <ele>217.6</ele>
        <time>2020-12-10T11:21:55Z</time>
      </trkpt>
      <trkpt lat="47.64266" lon="6.17772">
        <ele>217.9</ele>
        <time>2020-12-10T11:21:57Z</time>
      </trkpt>
      <trkpt lat="47.64272" lon="6.17776">
        <ele>218.1</ele>
        <time>2020-12-10T11:21:58Z</time>
      </trkpt>
      <trkpt lat="47.64276" lon="6.17778">
        <ele>218.3</ele>
        <time>2020-12-10T11:22:00Z</time>
      </trkpt>
      <trkpt lat="47.64283" lon="6.17782">
        <ele>218.5</ele>
        <time>2020-12-10T11:22:02Z</time>
      </trkpt>
      <trkpt lat="47.6429" lon="6.17787">
        <ele>218.7</ele>
        <time>2020-12-10T11:22:04Z</time>
      </trkpt>
      <trkpt lat="47.64297" lon="6.1779">
        <ele>218.9</ele>
        <time>2020-12-10T11:22:06Z</time>
      </trkpt>
      <trkpt lat="47.64309" lon="6.17797">
        <ele>219.2</ele>
        <time>2020-12-10T11:22:08Z</time>
      </trkpt>
      <trkpt lat="47.64314" lon="6.178">
        <ele>219.3</ele>
        <time>2020-12-10T11:22:09Z</time>
      </trkpt>
      <trkpt lat="47.64321" lon="6.17804">
        <ele>219.4</ele>
        <time>2020-12-10T11:22:11Z</time>
      </trkpt>
      <trkpt lat="47.64326" lon="6.17807">
        <ele>219.5</ele>
        <time>2020-12-10T11:22:13Z</time>
      </trkpt>
      <trkpt lat="47.64338" lon="6.17814">
        <ele>219.5</ele>
        <time>2020-12-10T11:22:15Z</time>
      </trkpt>
      <trkpt lat="47.64342" lon="6.1782">
        <ele>219.5</ele>
        <time>2020-12-10T11:22:16Z</time>
      </trkpt>
      <trkpt lat="47.64348" lon="6.17822">
        <ele>219.5</ele>
        <time>2020-12-10T11:22:18Z</time>
      </trkpt>
      <trkpt lat="47.64353" lon="6.17825">
        <ele>219.6</ele>
        <time>2020-12-10T11:22:19Z</time>
      </trkpt>
      <trkpt lat="47.64356" lon="6.17831">
        <ele>219.6</ele>
        <time>2020-12-10T11:22:20Z</time>
      </trkpt>
      <trkpt lat="47.64357" lon="6.1784">
        <ele>219.6</ele>
        <time>2020-12-10T11:22:22Z</time>
      </trkpt>
      <trkpt lat="47.64358" lon="6.17848">
        <ele>219.7</ele>
        <time>2020-12-10T11:22:24Z</time>
      </trkpt>
      <trkpt lat="47.64361" lon="6.17855">
        <ele>219.8</ele>
        <time>2020-12-10T11:22:27Z</time>
      </trkpt>
      <trkpt lat="47.64366" lon="6.17861">
        <ele>220</ele>
        <time>2020-12-10T11:22:29Z</time>
      </trkpt>
      <trkpt lat="47.64371" lon="6.17868">
        <ele>220.1</ele>
        <time>2020-12-10T11:22:30Z</time>
      </trkpt>
      <trkpt lat="47.64374" lon="6.17873">
        <ele>220.2</ele>
        <time>2020-12-10T11:22:32Z</time>
      </trkpt>
      <trkpt lat="47.64378" lon="6.17879">
        <ele>220.3</ele>
        <time>2020-12-10T11:22:33Z</time>
      </trkpt>
      <trkpt lat="47.64382" lon="6.17885">
        <ele>220.4</ele>
        <time>2020-12-10T11:22:35Z</time>
      </trkpt>
      <trkpt lat="47.64389" lon="6.17895">
        <ele>220.6</ele>
        <time>2020-12-10T11:22:38Z</time>
      </trkpt>
      <trkpt lat="47.64396" lon="6.17907">
        <ele>220.7</ele>
        <time>2020-12-10T11:22:40Z</time>
      </trkpt>
      <trkpt lat="47.64399" lon="6.17912">
        <ele>220.8</ele>
        <time>2020-12-10T11:22:41Z</time>
      </trkpt>
      <trkpt lat="47.64402" lon="6.17918">
        <ele>220.8</ele>
        <time>2020-12-10T11:22:42Z</time>
      </trkpt>
      <trkpt lat="47.64407" lon="6.17926">
        <ele>221</ele>
        <time>2020-12-10T11:22:44Z</time>
      </trkpt>
      <trkpt lat="47.6441" lon="6.17931">
        <ele>221.1</ele>
        <time>2020-12-10T11:22:45Z</time>
      </trkpt>
      <trkpt lat="47.64415" lon="6.17939">
        <ele>221.2</ele>
        <time>2020-12-10T11:22:48Z</time>
      </trkpt>
      <trkpt lat="47.64422" lon="6.17951">
        <ele>221.5</ele>
        <time>2020-12-10T11:22:51Z</time>
      </trkpt>
      <trkpt lat="47.64428" lon="6.1796">
        <ele>221.7</ele>
        <time>2020-12-10T11:22:52Z</time>
      </trkpt>
      <trkpt lat="47.64432" lon="6.17966">
        <ele>221.8</ele>
        <time>2020-12-10T11:22:54Z</time>
      </trkpt>
      <trkpt lat="47.64437" lon="6.17973">
        <ele>221.9</ele>
        <time>2020-12-10T11:22:57Z</time>
      </trkpt>
      <trkpt lat="47.64441" lon="6.1798">
        <ele>222.1</ele>
        <time>2020-12-10T11:22:59Z</time>
      </trkpt>
      <trkpt lat="47.64448" lon="6.17997">
        <ele>222.3</ele>
        <time>2020-12-10T11:23:01Z</time>
      </trkpt>
      <trkpt lat="47.64453" lon="6.18006">
        <ele>222.5</ele>
        <time>2020-12-10T11:23:03Z</time>
      </trkpt>
      <trkpt lat="47.64457" lon="6.18013">
        <ele>222.6</ele>
        <time>2020-12-10T11:23:05Z</time>
      </trkpt>
      <trkpt lat="47.64461" lon="6.18019">
        <ele>222.6</ele>
        <time>2020-12-10T11:23:07Z</time>
      </trkpt>
      <trkpt lat="47.64467" lon="6.18027">
        <ele>222.7</ele>
        <time>2020-12-10T11:23:09Z</time>
      </trkpt>
      <trkpt lat="47.64473" lon="6.18033">
        <ele>222.8</ele>
        <time>2020-12-10T11:23:10Z</time>
      </trkpt>
      <trkpt lat="47.64478" lon="6.18037">
        <ele>222.9</ele>
        <time>2020-12-10T11:23:11Z</time>
      </trkpt>
      <trkpt lat="47.64485" lon="6.18042">
        <ele>222.9</ele>
        <time>2020-12-10T11:23:13Z</time>
      </trkpt>
      <trkpt lat="47.64492" lon="6.18047">
        <ele>223</ele>
        <time>2020-12-10T11:23:15Z</time>
      </trkpt>
      <trkpt lat="47.64497" lon="6.18049">
        <ele>223</ele>
        <time>2020-12-10T11:23:18Z</time>
      </trkpt>
      <trkpt lat="47.64501" lon="6.18052">
        <ele>223.3</ele>
        <time>2020-12-10T11:23:19Z</time>
      </trkpt>
      <trkpt lat="47.64508" lon="6.18055">
        <ele>224.3</ele>
        <time>2020-12-10T11:23:21Z</time>
      </trkpt>
      <trkpt lat="47.64512" lon="6.18063">
        <ele>225.2</ele>
        <time>2020-12-10T11:23:23Z</time>
      </trkpt>
      <trkpt lat="47.64511" lon="6.18071">
        <ele>225.1</ele>
        <time>2020-12-10T11:23:26Z</time>
      </trkpt>
      <trkpt lat="47.64509" lon="6.18078">
        <ele>224.8</ele>
        <time>2020-12-10T11:23:28Z</time>
      </trkpt>
      <trkpt lat="47.64506" lon="6.1809">
        <ele>224.4</ele>
        <time>2020-12-10T11:23:31Z</time>
      </trkpt>
      <trkpt lat="47.64501" lon="6.1811">
        <ele>223.8</ele>
        <time>2020-12-10T11:23:32Z</time>
      </trkpt>
      <trkpt lat="47.64499" lon="6.18118">
        <ele>223.8</ele>
        <time>2020-12-10T11:23:33Z</time>
      </trkpt>
      <trkpt lat="47.64496" lon="6.18131">
        <ele>224.1</ele>
        <time>2020-12-10T11:23:36Z</time>
      </trkpt>
      <trkpt lat="47.64495" lon="6.18139">
        <ele>224.3</ele>
        <time>2020-12-10T11:23:37Z</time>
      </trkpt>
      <trkpt lat="47.64495" lon="6.18148">
        <ele>224.5</ele>
        <time>2020-12-10T11:23:39Z</time>
      </trkpt>
      <trkpt lat="47.645" lon="6.18167">
        <ele>225</ele>
        <time>2020-12-10T11:23:42Z</time>
      </trkpt>
      <trkpt lat="47.64501" lon="6.18178">
        <ele>226.1</ele>
        <time>2020-12-10T11:23:43Z</time>
      </trkpt>
      <trkpt lat="47.64501" lon="6.18187">
        <ele>226.7</ele>
        <time>2020-12-10T11:23:45Z</time>
      </trkpt>
      <trkpt lat="47.64496" lon="6.18203">
        <ele>227.3</ele>
        <time>2020-12-10T11:23:47Z</time>
      </trkpt>
      <trkpt lat="47.64494" lon="6.18209">
        <ele>227.6</ele>
        <time>2020-12-10T11:23:49Z</time>
      </trkpt>
      <trkpt lat="47.6449" lon="6.18219">
        <ele>228</ele>
        <time>2020-12-10T11:23:49Z</time>
      </trkpt>
      <trkpt lat="47.64488" lon="6.18227">
        <ele>228.3</ele>
        <time>2020-12-10T11:23:53Z</time>
      </trkpt>
      <trkpt lat="47.64485" lon="6.18234">
        <ele>228.5</ele>
        <time>2020-12-10T11:23:54Z</time>
      </trkpt>
      <trkpt lat="47.64483" lon="6.18241">
        <ele>228.6</ele>
        <time>2020-12-10T11:23:54Z</time>
      </trkpt>
      <trkpt lat="47.64479" lon="6.18251">
        <ele>228.9</ele>
        <time>2020-12-10T11:23:56Z</time>
      </trkpt>
      <trkpt lat="47.64474" lon="6.18259">
        <ele>229.4</ele>
        <time>2020-12-10T11:23:59Z</time>
      </trkpt>
      <trkpt lat="47.64471" lon="6.18265">
        <ele>229.8</ele>
        <time>2020-12-10T11:24:01Z</time>
      </trkpt>
      <trkpt lat="47.64465" lon="6.18273">
        <ele>229.9</ele>
        <time>2020-12-10T11:24:01Z</time>
      </trkpt>
      <trkpt lat="47.6446" lon="6.18278">
        <ele>229.9</ele>
        <time>2020-12-10T11:24:05Z</time>
      </trkpt>
      <trkpt lat="47.64455" lon="6.18284">
        <ele>229.9</ele>
        <time>2020-12-10T11:24:07Z</time>
      </trkpt>
      <trkpt lat="47.64451" lon="6.18288">
        <ele>229.7</ele>
        <time>2020-12-10T11:24:08Z</time>
      </trkpt>
      <trkpt lat="47.64447" lon="6.18292">
        <ele>229.6</ele>
        <time>2020-12-10T11:24:08Z</time>
      </trkpt>
      <trkpt lat="47.64443" lon="6.18296">
        <ele>229.3</ele>
        <time>2020-12-10T11:24:11Z</time>
      </trkpt>
      <trkpt lat="47.6444" lon="6.18302">
        <ele>229.5</ele>
        <time>2020-12-10T11:24:11Z</time>
      </trkpt>
      <trkpt lat="47.64441" lon="6.1831">
        <ele>230.4</ele>
        <time>2020-12-10T11:24:14Z</time>
      </trkpt>
      <trkpt lat="47.64439" lon="6.18318">
        <ele>230.9</ele>
        <time>2020-12-10T11:24:16Z</time>
      </trkpt>
      <trkpt lat="47.64438" lon="6.18325">
        <ele>231.2</ele>
        <time>2020-12-10T11:24:17Z</time>
      </trkpt>
    </trkseg>
  </trk>
</gpx>